﻿<?xml version="1.0" encoding="utf-8"?><gpx version="1.1" creator="izvne.com" xmlns="http://www.topografix.com/GPX/1/1"><trk><name>vietnam-overview</name><trkseg><trkpt lat="22.491583" lon="103.978821"><ele>94.1</ele><time>2011-04-22T01:28:25.0000000+00:00</time></trkpt><trkpt lat="22.491865" lon="103.978897"><ele>93.0</ele><time>2011-04-22T01:28:30.0000000+00:00</time></trkpt><trkpt lat="22.49185" lon="103.978737"><ele>93.2</ele><time>2011-04-22T01:35:00.0000000+00:00</time></trkpt><trkpt lat="22.492228" lon="103.978439"><ele>94.5</ele><time>2011-04-22T01:35:55.0000000+00:00</time></trkpt><trkpt lat="22.491917" lon="103.977776"><ele>91.3</ele><time>2011-04-22T01:37:10.0000000+00:00</time></trkpt><trkpt lat="22.491709" lon="103.977852"><ele>93.7</ele><time>2011-04-22T01:37:20.0000000+00:00</time></trkpt><trkpt lat="22.491665" lon="103.97831"><ele>96.0</ele><time>2011-04-22T01:37:40.0000000+00:00</time></trkpt><trkpt lat="22.491287" lon="103.977806"><ele>96.5</ele><time>2011-04-22T01:38:10.0000000+00:00</time></trkpt><trkpt lat="22.488123" lon="103.979599"><ele>87.4</ele><time>2011-04-22T01:39:15.0000000+00:00</time></trkpt><trkpt lat="22.487627" lon="103.979744"><ele>86.4</ele><time>2011-04-22T01:39:25.0000000+00:00</time></trkpt><trkpt lat="22.487165" lon="103.979652"><ele>87.1</ele><time>2011-04-22T01:39:35.0000000+00:00</time></trkpt><trkpt lat="22.481586" lon="103.975807"><ele>96.5</ele><time>2011-04-22T01:41:40.0000000+00:00</time></trkpt><trkpt lat="22.481379" lon="103.975639"><ele>92.8</ele><time>2011-04-22T01:41:45.0000000+00:00</time></trkpt><trkpt lat="22.481247" lon="103.975182"><ele>90.9</ele><time>2011-04-22T01:41:55.0000000+00:00</time></trkpt><trkpt lat="22.480722" lon="103.974876"><ele>89.2</ele><time>2011-04-22T01:42:10.0000000+00:00</time></trkpt><trkpt lat="22.480558" lon="103.974541"><ele>93.2</ele><time>2011-04-22T01:42:20.0000000+00:00</time></trkpt><trkpt lat="22.480612" lon="103.974411"><ele>93.6</ele><time>2011-04-22T01:42:35.0000000+00:00</time></trkpt><trkpt lat="22.480968" lon="103.974358"><ele>92.9</ele><time>2011-04-22T01:42:55.0000000+00:00</time></trkpt><trkpt lat="22.481455" lon="103.974594"><ele>95.1</ele><time>2011-04-22T01:43:10.0000000+00:00</time></trkpt><trkpt lat="22.481653" lon="103.974419"><ele>98.9</ele><time>2011-04-22T01:43:40.0000000+00:00</time></trkpt><trkpt lat="22.48118" lon="103.97493"><ele>91.4</ele><time>2011-04-22T01:44:00.0000000+00:00</time></trkpt><trkpt lat="22.480633" lon="103.975204"><ele>88.8</ele><time>2011-04-22T01:44:15.0000000+00:00</time></trkpt><trkpt lat="22.48045" lon="103.975662"><ele>89.5</ele><time>2011-04-22T01:44:25.0000000+00:00</time></trkpt><trkpt lat="22.479794" lon="103.976357"><ele>82.5</ele><time>2011-04-22T01:45:00.0000000+00:00</time></trkpt><trkpt lat="22.480354" lon="103.975746"><ele>90.5</ele><time>2011-04-22T01:45:25.0000000+00:00</time></trkpt><trkpt lat="22.480223" lon="103.975441"><ele>92.4</ele><time>2011-04-22T01:45:35.0000000+00:00</time></trkpt><trkpt lat="22.477066" lon="103.97551"><ele>89.4</ele><time>2011-04-22T01:46:40.0000000+00:00</time></trkpt><trkpt lat="22.476612" lon="103.975357"><ele>90.7</ele><time>2011-04-22T01:46:50.0000000+00:00</time></trkpt><trkpt lat="22.475729" lon="103.974541"><ele>93.0</ele><time>2011-04-22T01:47:20.0000000+00:00</time></trkpt><trkpt lat="22.475166" lon="103.97332"><ele>88.9</ele><time>2011-04-22T01:48:45.0000000+00:00</time></trkpt><trkpt lat="22.473921" lon="103.972862"><ele>87.2</ele><time>2011-04-22T01:49:15.0000000+00:00</time></trkpt><trkpt lat="22.473421" lon="103.972351"><ele>83.7</ele><time>2011-04-22T01:49:30.0000000+00:00</time></trkpt><trkpt lat="22.472773" lon="103.970253"><ele>89.7</ele><time>2011-04-22T01:50:10.0000000+00:00</time></trkpt><trkpt lat="22.472834" lon="103.969788"><ele>91.9</ele><time>2011-04-22T01:50:20.0000000+00:00</time></trkpt><trkpt lat="22.473751" lon="103.969276"><ele>94.4</ele><time>2011-04-22T01:50:40.0000000+00:00</time></trkpt><trkpt lat="22.474562" lon="103.969032"><ele>100.3</ele><time>2011-04-22T01:50:55.0000000+00:00</time></trkpt><trkpt lat="22.474995" lon="103.968636"><ele>92.8</ele><time>2011-04-22T01:51:05.0000000+00:00</time></trkpt><trkpt lat="22.47505" lon="103.968056"><ele>86.9</ele><time>2011-04-22T01:51:15.0000000+00:00</time></trkpt><trkpt lat="22.474806" lon="103.967224"><ele>86.0</ele><time>2011-04-22T01:51:30.0000000+00:00</time></trkpt><trkpt lat="22.473745" lon="103.965843"><ele>85.4</ele><time>2011-04-22T01:52:00.0000000+00:00</time></trkpt><trkpt lat="22.472382" lon="103.965515"><ele>82.9</ele><time>2011-04-22T01:52:25.0000000+00:00</time></trkpt><trkpt lat="22.471186" lon="103.964096"><ele>88.1</ele><time>2011-04-22T01:53:00.0000000+00:00</time></trkpt><trkpt lat="22.470293" lon="103.9636"><ele>94.9</ele><time>2011-04-22T01:53:25.0000000+00:00</time></trkpt><trkpt lat="22.469173" lon="103.9617"><ele>85.4</ele><time>2011-04-22T01:53:55.0000000+00:00</time></trkpt><trkpt lat="22.46887" lon="103.961601"><ele>83.6</ele><time>2011-04-22T01:54:00.0000000+00:00</time></trkpt><trkpt lat="22.468321" lon="103.961792"><ele>86.9</ele><time>2011-04-22T01:54:10.0000000+00:00</time></trkpt><trkpt lat="22.467588" lon="103.962585"><ele>91.9</ele><time>2011-04-22T01:54:30.0000000+00:00</time></trkpt><trkpt lat="22.467173" lon="103.963387"><ele>93.8</ele><time>2011-04-22T01:54:45.0000000+00:00</time></trkpt><trkpt lat="22.466503" lon="103.963707"><ele>87.8</ele><time>2011-04-22T01:55:00.0000000+00:00</time></trkpt><trkpt lat="22.465885" lon="103.962791"><ele>90.3</ele><time>2011-04-22T01:55:20.0000000+00:00</time></trkpt><trkpt lat="22.464388" lon="103.961662"><ele>84.6</ele><time>2011-04-22T01:57:35.0000000+00:00</time></trkpt><trkpt lat="22.462946" lon="103.961884"><ele>88.8</ele><time>2011-04-22T01:57:55.0000000+00:00</time></trkpt><trkpt lat="22.461298" lon="103.962723"><ele>94.3</ele><time>2011-04-22T01:58:20.0000000+00:00</time></trkpt><trkpt lat="22.461054" lon="103.962685"><ele>96.1</ele><time>2011-04-22T01:58:25.0000000+00:00</time></trkpt><trkpt lat="22.460032" lon="103.961937"><ele>99.5</ele><time>2011-04-22T01:59:00.0000000+00:00</time></trkpt><trkpt lat="22.459518" lon="103.960991"><ele>96.7</ele><time>2011-04-22T01:59:20.0000000+00:00</time></trkpt><trkpt lat="22.458757" lon="103.960335"><ele>89.8</ele><time>2011-04-22T01:59:35.0000000+00:00</time></trkpt><trkpt lat="22.457907" lon="103.958"><ele>96.5</ele><time>2011-04-22T02:04:55.0000000+00:00</time></trkpt><trkpt lat="22.457336" lon="103.957504"><ele>99.8</ele><time>2011-04-22T02:05:15.0000000+00:00</time></trkpt><trkpt lat="22.457026" lon="103.956879"><ele>100.8</ele><time>2011-04-22T02:05:30.0000000+00:00</time></trkpt><trkpt lat="22.457186" lon="103.955391"><ele>95.8</ele><time>2011-04-22T02:05:55.0000000+00:00</time></trkpt><trkpt lat="22.457808" lon="103.9543"><ele>102.0</ele><time>2011-04-22T02:06:20.0000000+00:00</time></trkpt><trkpt lat="22.457634" lon="103.952911"><ele>104.5</ele><time>2011-04-22T02:06:55.0000000+00:00</time></trkpt><trkpt lat="22.458775" lon="103.951904"><ele>115.3</ele><time>2011-04-22T02:07:45.0000000+00:00</time></trkpt><trkpt lat="22.459663" lon="103.950821"><ele>125.5</ele><time>2011-04-22T02:08:35.0000000+00:00</time></trkpt><trkpt lat="22.459984" lon="103.949989"><ele>121.9</ele><time>2011-04-22T02:08:55.0000000+00:00</time></trkpt><trkpt lat="22.461338" lon="103.948219"><ele>109.1</ele><time>2011-04-22T02:09:25.0000000+00:00</time></trkpt><trkpt lat="22.461927" lon="103.9478"><ele>110.3</ele><time>2011-04-22T02:09:35.0000000+00:00</time></trkpt><trkpt lat="22.463903" lon="103.947159"><ele>107.8</ele><time>2011-04-22T02:10:10.0000000+00:00</time></trkpt><trkpt lat="22.465212" lon="103.94397"><ele>106.0</ele><time>2011-04-22T02:11:10.0000000+00:00</time></trkpt><trkpt lat="22.465214" lon="103.943321"><ele>99.8</ele><time>2011-04-22T02:11:20.0000000+00:00</time></trkpt><trkpt lat="22.46389" lon="103.941666"><ele>104.0</ele><time>2011-04-22T02:12:00.0000000+00:00</time></trkpt><trkpt lat="22.461828" lon="103.942947"><ele>119.1</ele><time>2011-04-22T02:13:30.0000000+00:00</time></trkpt><trkpt lat="22.461233" lon="103.942886"><ele>124.8</ele><time>2011-04-22T02:14:00.0000000+00:00</time></trkpt><trkpt lat="22.460691" lon="103.942192"><ele>131.3</ele><time>2011-04-22T02:15:05.0000000+00:00</time></trkpt><trkpt lat="22.460466" lon="103.941475"><ele>135.4</ele><time>2011-04-22T02:15:50.0000000+00:00</time></trkpt><trkpt lat="22.459743" lon="103.941452"><ele>139.0</ele><time>2011-04-22T02:16:45.0000000+00:00</time></trkpt><trkpt lat="22.459488" lon="103.941284"><ele>148.9</ele><time>2011-04-22T02:17:05.0000000+00:00</time></trkpt><trkpt lat="22.45965" lon="103.940094"><ele>159.2</ele><time>2011-04-22T02:19:00.0000000+00:00</time></trkpt><trkpt lat="22.459501" lon="103.939186"><ele>164.8</ele><time>2011-04-22T02:23:40.0000000+00:00</time></trkpt><trkpt lat="22.459251" lon="103.939102"><ele>169.6</ele><time>2011-04-22T02:23:50.0000000+00:00</time></trkpt><trkpt lat="22.458227" lon="103.93943"><ele>174.7</ele><time>2011-04-22T02:24:30.0000000+00:00</time></trkpt><trkpt lat="22.457878" lon="103.939186"><ele>174.2</ele><time>2011-04-22T02:24:45.0000000+00:00</time></trkpt><trkpt lat="22.457861" lon="103.93882"><ele>180.6</ele><time>2011-04-22T02:25:00.0000000+00:00</time></trkpt><trkpt lat="22.458401" lon="103.937759"><ele>201.5</ele><time>2011-04-22T02:25:50.0000000+00:00</time></trkpt><trkpt lat="22.458351" lon="103.937439"><ele>199.4</ele><time>2011-04-22T02:26:10.0000000+00:00</time></trkpt><trkpt lat="22.458096" lon="103.937386"><ele>206.8</ele><time>2011-04-22T02:26:25.0000000+00:00</time></trkpt><trkpt lat="22.457359" lon="103.937714"><ele>201.5</ele><time>2011-04-22T02:27:45.0000000+00:00</time></trkpt><trkpt lat="22.456253" lon="103.9375"><ele>204.4</ele><time>2011-04-22T02:28:35.0000000+00:00</time></trkpt><trkpt lat="22.455841" lon="103.93708"><ele>209.0</ele><time>2011-04-22T02:35:45.0000000+00:00</time></trkpt><trkpt lat="22.455103" lon="103.937233"><ele>217.2</ele><time>2011-04-22T02:36:20.0000000+00:00</time></trkpt><trkpt lat="22.454956" lon="103.936646"><ele>223.3</ele><time>2011-04-22T02:36:50.0000000+00:00</time></trkpt><trkpt lat="22.455126" lon="103.936058"><ele>230.7</ele><time>2011-04-22T02:37:15.0000000+00:00</time></trkpt><trkpt lat="22.454931" lon="103.935814"><ele>233.6</ele><time>2011-04-22T02:37:30.0000000+00:00</time></trkpt><trkpt lat="22.454718" lon="103.935905"><ele>241.6</ele><time>2011-04-22T02:37:40.0000000+00:00</time></trkpt><trkpt lat="22.454214" lon="103.936745"><ele>235.6</ele><time>2011-04-22T02:38:20.0000000+00:00</time></trkpt><trkpt lat="22.453905" lon="103.936707"><ele>239.7</ele><time>2011-04-22T02:38:35.0000000+00:00</time></trkpt><trkpt lat="22.45373" lon="103.935875"><ele>245.2</ele><time>2011-04-22T02:41:30.0000000+00:00</time></trkpt><trkpt lat="22.453442" lon="103.935356"><ele>239.7</ele><time>2011-04-22T02:48:35.0000000+00:00</time></trkpt><trkpt lat="22.453653" lon="103.933197"><ele>265.4</ele><time>2011-04-22T02:50:45.0000000+00:00</time></trkpt><trkpt lat="22.453468" lon="103.932785"><ele>268.9</ele><time>2011-04-22T02:51:05.0000000+00:00</time></trkpt><trkpt lat="22.453251" lon="103.932678"><ele>273.0</ele><time>2011-04-22T02:51:15.0000000+00:00</time></trkpt><trkpt lat="22.451542" lon="103.932739"><ele>284.0</ele><time>2011-04-22T02:53:00.0000000+00:00</time></trkpt><trkpt lat="22.451363" lon="103.933052"><ele>288.5</ele><time>2011-04-22T02:53:25.0000000+00:00</time></trkpt><trkpt lat="22.451401" lon="103.933983"><ele>286.9</ele><time>2011-04-22T02:54:20.0000000+00:00</time></trkpt><trkpt lat="22.450272" lon="103.9347"><ele>295.6</ele><time>2011-04-22T02:55:40.0000000+00:00</time></trkpt><trkpt lat="22.449425" lon="103.934418"><ele>298.8</ele><time>2011-04-22T02:56:40.0000000+00:00</time></trkpt><trkpt lat="22.448786" lon="103.933998"><ele>307.0</ele><time>2011-04-22T02:57:15.0000000+00:00</time></trkpt><trkpt lat="22.448084" lon="103.934258"><ele>310.5</ele><time>2011-04-22T03:04:10.0000000+00:00</time></trkpt><trkpt lat="22.44747" lon="103.934662"><ele>323.6</ele><time>2011-04-22T03:04:50.0000000+00:00</time></trkpt><trkpt lat="22.447266" lon="103.935394"><ele>323.7</ele><time>2011-04-22T03:05:30.0000000+00:00</time></trkpt><trkpt lat="22.446537" lon="103.935944"><ele>343.8</ele><time>2011-04-22T03:06:15.0000000+00:00</time></trkpt><trkpt lat="22.446455" lon="103.936371"><ele>357.7</ele><time>2011-04-22T03:06:35.0000000+00:00</time></trkpt><trkpt lat="22.446712" lon="103.936951"><ele>350.5</ele><time>2011-04-22T03:07:05.0000000+00:00</time></trkpt><trkpt lat="22.446566" lon="103.937134"><ele>348.6</ele><time>2011-04-22T03:07:15.0000000+00:00</time></trkpt><trkpt lat="22.445742" lon="103.937309"><ele>358.1</ele><time>2011-04-22T03:08:00.0000000+00:00</time></trkpt><trkpt lat="22.445639" lon="103.937675"><ele>344.9</ele><time>2011-04-22T03:09:00.0000000+00:00</time></trkpt><trkpt lat="22.445608" lon="103.9375"><ele>355.1</ele><time>2011-04-22T03:10:15.0000000+00:00</time></trkpt><trkpt lat="22.444881" lon="103.938026"><ele>352.9</ele><time>2011-04-22T03:21:55.0000000+00:00</time></trkpt><trkpt lat="22.442654" lon="103.938644"><ele>376.8</ele><time>2011-04-22T03:24:35.0000000+00:00</time></trkpt><trkpt lat="22.441446" lon="103.938721"><ele>394.2</ele><time>2011-04-22T03:26:05.0000000+00:00</time></trkpt><trkpt lat="22.440695" lon="103.939117"><ele>402.2</ele><time>2011-04-22T03:27:00.0000000+00:00</time></trkpt><trkpt lat="22.44031" lon="103.939835"><ele>405.1</ele><time>2011-04-22T03:27:55.0000000+00:00</time></trkpt><trkpt lat="22.440006" lon="103.939896"><ele>401.7</ele><time>2011-04-22T03:28:20.0000000+00:00</time></trkpt><trkpt lat="22.439911" lon="103.939491"><ele>401.9</ele><time>2011-04-22T03:28:50.0000000+00:00</time></trkpt><trkpt lat="22.440306" lon="103.938042"><ele>420.0</ele><time>2011-04-22T03:30:40.0000000+00:00</time></trkpt><trkpt lat="22.440357" lon="103.936577"><ele>428.5</ele><time>2011-04-22T03:32:20.0000000+00:00</time></trkpt><trkpt lat="22.440918" lon="103.935066"><ele>447.8</ele><time>2011-04-22T03:40:10.0000000+00:00</time></trkpt><trkpt lat="22.44095" lon="103.934616"><ele>445.9</ele><time>2011-04-22T03:40:40.0000000+00:00</time></trkpt><trkpt lat="22.44079" lon="103.934341"><ele>445.0</ele><time>2011-04-22T03:41:00.0000000+00:00</time></trkpt><trkpt lat="22.439774" lon="103.934059"><ele>431.1</ele><time>2011-04-22T03:42:20.0000000+00:00</time></trkpt><trkpt lat="22.43948" lon="103.933372"><ele>449.9</ele><time>2011-04-22T03:42:45.0000000+00:00</time></trkpt><trkpt lat="22.438931" lon="103.9328"><ele>447.0</ele><time>2011-04-22T03:43:00.0000000+00:00</time></trkpt><trkpt lat="22.438387" lon="103.931534"><ele>462.2</ele><time>2011-04-22T03:43:45.0000000+00:00</time></trkpt><trkpt lat="22.437719" lon="103.931061"><ele>466.4</ele><time>2011-04-22T03:44:30.0000000+00:00</time></trkpt><trkpt lat="22.438343" lon="103.930199"><ele>488.6</ele><time>2011-04-22T03:48:30.0000000+00:00</time></trkpt><trkpt lat="22.438089" lon="103.930237"><ele>477.2</ele><time>2011-04-22T03:49:20.0000000+00:00</time></trkpt><trkpt lat="22.438292" lon="103.930336"><ele>488.2</ele><time>2011-04-22T03:50:55.0000000+00:00</time></trkpt><trkpt lat="22.438175" lon="103.930206"><ele>479.5</ele><time>2011-04-22T03:53:15.0000000+00:00</time></trkpt><trkpt lat="22.438324" lon="103.930084"><ele>487.3</ele><time>2011-04-22T03:54:05.0000000+00:00</time></trkpt><trkpt lat="22.438314" lon="103.929771"><ele>489.1</ele><time>2011-04-22T03:54:30.0000000+00:00</time></trkpt><trkpt lat="22.436441" lon="103.929283"><ele>500.1</ele><time>2011-04-22T03:57:00.0000000+00:00</time></trkpt><trkpt lat="22.436438" lon="103.928635"><ele>509.3</ele><time>2011-04-22T03:57:35.0000000+00:00</time></trkpt><trkpt lat="22.436186" lon="103.927933"><ele>518.9</ele><time>2011-04-22T03:58:15.0000000+00:00</time></trkpt><trkpt lat="22.436289" lon="103.927185"><ele>524.6</ele><time>2011-04-22T03:59:30.0000000+00:00</time></trkpt><trkpt lat="22.436831" lon="103.926666"><ele>534.0</ele><time>2011-04-22T04:00:10.0000000+00:00</time></trkpt><trkpt lat="22.437468" lon="103.926407"><ele>546.9</ele><time>2011-04-22T04:00:45.0000000+00:00</time></trkpt><trkpt lat="22.438454" lon="103.925278"><ele>555.3</ele><time>2011-04-22T04:03:45.0000000+00:00</time></trkpt><trkpt lat="22.438648" lon="103.924728"><ele>558.8</ele><time>2011-04-22T04:04:20.0000000+00:00</time></trkpt><trkpt lat="22.438541" lon="103.924393"><ele>565.2</ele><time>2011-04-22T04:14:40.0000000+00:00</time></trkpt></trkseg><trkseg><trkpt lat="22.348923" lon="103.774574"><ele>1954.7</ele><time>2011-04-23T23:01:03.0000000+00:00</time></trkpt><trkpt lat="22.348364" lon="103.774368"><ele>1965.7</ele><time>2011-04-23T23:03:23.0000000+00:00</time></trkpt><trkpt lat="22.347692" lon="103.773697"><ele>1977.8</ele><time>2011-04-23T23:05:08.0000000+00:00</time></trkpt><trkpt lat="22.347424" lon="103.773643"><ele>1981.6</ele><time>2011-04-23T23:05:38.0000000+00:00</time></trkpt><trkpt lat="22.347271" lon="103.773895"><ele>1993.9</ele><time>2011-04-23T23:06:43.0000000+00:00</time></trkpt><trkpt lat="22.346956" lon="103.773918"><ele>2004.5</ele><time>2011-04-23T23:07:38.0000000+00:00</time></trkpt><trkpt lat="22.34656" lon="103.774223"><ele>2012.2</ele><time>2011-04-23T23:09:18.0000000+00:00</time></trkpt><trkpt lat="22.346399" lon="103.774376"><ele>2017.5</ele><time>2011-04-23T23:09:48.0000000+00:00</time></trkpt><trkpt lat="22.346436" lon="103.774529"><ele>2019.4</ele><time>2011-04-23T23:10:28.0000000+00:00</time></trkpt><trkpt lat="22.346008" lon="103.774673"><ele>2024.4</ele><time>2011-04-23T23:11:28.0000000+00:00</time></trkpt><trkpt lat="22.345638" lon="103.775124"><ele>2023.0</ele><time>2011-04-23T23:12:23.0000000+00:00</time></trkpt><trkpt lat="22.343992" lon="103.775383"><ele>2021.2</ele><time>2011-04-23T23:14:58.0000000+00:00</time></trkpt><trkpt lat="22.343559" lon="103.775253"><ele>2021.1</ele><time>2011-04-23T23:15:33.0000000+00:00</time></trkpt><trkpt lat="22.342979" lon="103.775703"><ele>2015.7</ele><time>2011-04-23T23:16:33.0000000+00:00</time></trkpt><trkpt lat="22.342827" lon="103.776093"><ele>2015.5</ele><time>2011-04-23T23:17:33.0000000+00:00</time></trkpt><trkpt lat="22.342287" lon="103.776382"><ele>2004.5</ele><time>2011-04-23T23:18:33.0000000+00:00</time></trkpt><trkpt lat="22.341522" lon="103.776466"><ele>2009.8</ele><time>2011-04-23T23:20:03.0000000+00:00</time></trkpt><trkpt lat="22.341127" lon="103.776093"><ele>2013.2</ele><time>2011-04-23T23:26:43.0000000+00:00</time></trkpt><trkpt lat="22.340588" lon="103.776237"><ele>2023.4</ele><time>2011-04-23T23:28:13.0000000+00:00</time></trkpt><trkpt lat="22.339338" lon="103.775864"><ele>2062.6</ele><time>2011-04-23T23:32:13.0000000+00:00</time></trkpt><trkpt lat="22.338993" lon="103.776169"><ele>2075.6</ele><time>2011-04-23T23:33:33.0000000+00:00</time></trkpt><trkpt lat="22.338774" lon="103.776619"><ele>2082.4</ele><time>2011-04-23T23:34:33.0000000+00:00</time></trkpt><trkpt lat="22.338383" lon="103.77684"><ele>2091.5</ele><time>2011-04-23T23:35:53.0000000+00:00</time></trkpt><trkpt lat="22.338058" lon="103.777817"><ele>2088.1</ele><time>2011-04-23T23:37:33.0000000+00:00</time></trkpt><trkpt lat="22.338236" lon="103.778145"><ele>2078.8</ele><time>2011-04-23T23:38:03.0000000+00:00</time></trkpt><trkpt lat="22.338179" lon="103.778366"><ele>2076.1</ele><time>2011-04-23T23:38:28.0000000+00:00</time></trkpt><trkpt lat="22.337719" lon="103.778839"><ele>2075.6</ele><time>2011-04-23T23:39:33.0000000+00:00</time></trkpt><trkpt lat="22.337431" lon="103.779472"><ele>2071.7</ele><time>2011-04-23T23:40:38.0000000+00:00</time></trkpt><trkpt lat="22.336409" lon="103.779762"><ele>2078.1</ele><time>2011-04-23T23:42:38.0000000+00:00</time></trkpt><trkpt lat="22.335884" lon="103.779541"><ele>2080.4</ele><time>2011-04-23T23:43:38.0000000+00:00</time></trkpt><trkpt lat="22.335524" lon="103.779686"><ele>2078.1</ele><time>2011-04-23T23:44:18.0000000+00:00</time></trkpt><trkpt lat="22.334764" lon="103.779083"><ele>2101.8</ele><time>2011-04-23T23:52:03.0000000+00:00</time></trkpt><trkpt lat="22.33436" lon="103.778976"><ele>2111.9</ele><time>2011-04-23T23:53:13.0000000+00:00</time></trkpt><trkpt lat="22.334221" lon="103.779236"><ele>2127.9</ele><time>2011-04-23T23:54:38.0000000+00:00</time></trkpt><trkpt lat="22.334354" lon="103.779686"><ele>2132.7</ele><time>2011-04-23T23:56:33.0000000+00:00</time></trkpt><trkpt lat="22.333704" lon="103.779976"><ele>2165.6</ele><time>2011-04-24T00:00:28.0000000+00:00</time></trkpt><trkpt lat="22.333595" lon="103.779755"><ele>2168.2</ele><time>2011-04-24T00:01:08.0000000+00:00</time></trkpt><trkpt lat="22.332781" lon="103.779175"><ele>2189.8</ele><time>2011-04-24T00:03:18.0000000+00:00</time></trkpt><trkpt lat="22.331463" lon="103.779236"><ele>2215.0</ele><time>2011-04-24T00:06:18.0000000+00:00</time></trkpt><trkpt lat="22.33116" lon="103.779411"><ele>2213.1</ele><time>2011-04-24T00:06:58.0000000+00:00</time></trkpt><trkpt lat="22.330833" lon="103.779976"><ele>2220.2</ele><time>2011-04-24T00:08:18.0000000+00:00</time></trkpt><trkpt lat="22.330267" lon="103.780457"><ele>2234.0</ele><time>2011-04-24T00:10:13.0000000+00:00</time></trkpt><trkpt lat="22.330334" lon="103.780678"><ele>2236.3</ele><time>2011-04-24T00:15:03.0000000+00:00</time></trkpt><trkpt lat="22.3302" lon="103.780586"><ele>2234.3</ele><time>2011-04-24T00:15:43.0000000+00:00</time></trkpt><trkpt lat="22.330179" lon="103.781303"><ele>2240.0</ele><time>2011-04-24T00:17:18.0000000+00:00</time></trkpt><trkpt lat="22.330015" lon="103.7817"><ele>2243.8</ele><time>2011-04-24T00:18:23.0000000+00:00</time></trkpt><trkpt lat="22.32943" lon="103.781425"><ele>2252.1</ele><time>2011-04-24T00:20:18.0000000+00:00</time></trkpt><trkpt lat="22.328247" lon="103.781815"><ele>2235.9</ele><time>2011-04-24T00:22:48.0000000+00:00</time></trkpt><trkpt lat="22.327959" lon="103.781471"><ele>2242.9</ele><time>2011-04-24T00:26:08.0000000+00:00</time></trkpt><trkpt lat="22.327654" lon="103.78167"><ele>2242.7</ele><time>2011-04-24T00:26:43.0000000+00:00</time></trkpt><trkpt lat="22.327507" lon="103.781342"><ele>2252.2</ele><time>2011-04-24T00:28:18.0000000+00:00</time></trkpt><trkpt lat="22.326838" lon="103.780907"><ele>2260.9</ele><time>2011-04-24T00:31:13.0000000+00:00</time></trkpt><trkpt lat="22.326719" lon="103.780243"><ele>2282.1</ele><time>2011-04-24T00:32:38.0000000+00:00</time></trkpt><trkpt lat="22.326296" lon="103.779984"><ele>2286.5</ele><time>2011-04-24T00:33:48.0000000+00:00</time></trkpt><trkpt lat="22.326208" lon="103.779823"><ele>2294.9</ele><time>2011-04-24T00:34:08.0000000+00:00</time></trkpt><trkpt lat="22.326365" lon="103.779732"><ele>2302.2</ele><time>2011-04-24T00:34:38.0000000+00:00</time></trkpt><trkpt lat="22.325958" lon="103.778648"><ele>2312.3</ele><time>2011-04-24T00:37:08.0000000+00:00</time></trkpt><trkpt lat="22.326019" lon="103.777412"><ele>2320.1</ele><time>2011-04-24T00:39:48.0000000+00:00</time></trkpt><trkpt lat="22.32637" lon="103.776817"><ele>2325.0</ele><time>2011-04-24T00:40:48.0000000+00:00</time></trkpt><trkpt lat="22.326653" lon="103.776779"><ele>2327.5</ele><time>2011-04-24T00:41:33.0000000+00:00</time></trkpt><trkpt lat="22.326939" lon="103.776436"><ele>2340.1</ele><time>2011-04-24T00:42:28.0000000+00:00</time></trkpt><trkpt lat="22.327019" lon="103.774757"><ele>2361.8</ele><time>2011-04-24T00:46:18.0000000+00:00</time></trkpt><trkpt lat="22.326544" lon="103.773254"><ele>2353.6</ele><time>2011-04-24T00:58:33.0000000+00:00</time></trkpt><trkpt lat="22.326637" lon="103.772652"><ele>2362.0</ele><time>2011-04-24T00:59:23.0000000+00:00</time></trkpt><trkpt lat="22.326185" lon="103.772728"><ele>2360.3</ele><time>2011-04-24T01:01:03.0000000+00:00</time></trkpt><trkpt lat="22.326025" lon="103.772507"><ele>2375.2</ele><time>2011-04-24T01:02:03.0000000+00:00</time></trkpt><trkpt lat="22.325439" lon="103.772606"><ele>2372.0</ele><time>2011-04-24T01:03:13.0000000+00:00</time></trkpt><trkpt lat="22.325182" lon="103.772362"><ele>2383.8</ele><time>2011-04-24T01:03:58.0000000+00:00</time></trkpt><trkpt lat="22.324802" lon="103.772514"><ele>2383.6</ele><time>2011-04-24T01:05:18.0000000+00:00</time></trkpt><trkpt lat="22.324734" lon="103.772255"><ele>2394.4</ele><time>2011-04-24T01:05:53.0000000+00:00</time></trkpt><trkpt lat="22.32416" lon="103.771652"><ele>2408.4</ele><time>2011-04-24T01:07:23.0000000+00:00</time></trkpt><trkpt lat="22.324175" lon="103.771446"><ele>2414.5</ele><time>2011-04-24T01:07:53.0000000+00:00</time></trkpt><trkpt lat="22.323534" lon="103.771408"><ele>2429.7</ele><time>2011-04-24T01:19:13.0000000+00:00</time></trkpt><trkpt lat="22.323387" lon="103.771164"><ele>2448.1</ele><time>2011-04-24T01:20:23.0000000+00:00</time></trkpt><trkpt lat="22.322721" lon="103.770927"><ele>2477.2</ele><time>2011-04-24T01:23:03.0000000+00:00</time></trkpt><trkpt lat="22.322546" lon="103.770668"><ele>2495.1</ele><time>2011-04-24T01:23:58.0000000+00:00</time></trkpt><trkpt lat="22.322487" lon="103.770981"><ele>2494.8</ele><time>2011-04-24T01:25:33.0000000+00:00</time></trkpt><trkpt lat="22.32229" lon="103.770782"><ele>2510.5</ele><time>2011-04-24T01:27:43.0000000+00:00</time></trkpt><trkpt lat="22.321243" lon="103.770973"><ele>2549.5</ele><time>2011-04-24T01:33:08.0000000+00:00</time></trkpt><trkpt lat="22.32066" lon="103.770714"><ele>2572.4</ele><time>2011-04-24T01:35:18.0000000+00:00</time></trkpt><trkpt lat="22.320606" lon="103.770264"><ele>2581.1</ele><time>2011-04-24T01:36:28.0000000+00:00</time></trkpt><trkpt lat="22.320255" lon="103.769707"><ele>2609.1</ele><time>2011-04-24T01:50:13.0000000+00:00</time></trkpt><trkpt lat="22.320099" lon="103.769806"><ele>2618.3</ele><time>2011-04-24T01:51:43.0000000+00:00</time></trkpt><trkpt lat="22.320246" lon="103.769913"><ele>2607.7</ele><time>2011-04-24T01:53:03.0000000+00:00</time></trkpt><trkpt lat="22.320084" lon="103.769928"><ele>2613.6</ele><time>2011-04-24T01:54:23.0000000+00:00</time></trkpt><trkpt lat="22.319967" lon="103.769608"><ele>2631.3</ele><time>2011-04-24T01:56:58.0000000+00:00</time></trkpt><trkpt lat="22.319662" lon="103.769371"><ele>2642.3</ele><time>2011-04-24T02:00:33.0000000+00:00</time></trkpt><trkpt lat="22.319662" lon="103.768814"><ele>2648.2</ele><time>2011-04-24T02:02:18.0000000+00:00</time></trkpt><trkpt lat="22.319166" lon="103.768074"><ele>2664.1</ele><time>2011-04-24T02:06:23.0000000+00:00</time></trkpt><trkpt lat="22.319027" lon="103.76757"><ele>2682.4</ele><time>2011-04-24T02:16:18.0000000+00:00</time></trkpt><trkpt lat="22.318548" lon="103.767418"><ele>2701.9</ele><time>2011-04-24T02:19:13.0000000+00:00</time></trkpt><trkpt lat="22.318371" lon="103.767197"><ele>2714.5</ele><time>2011-04-24T02:21:03.0000000+00:00</time></trkpt><trkpt lat="22.317497" lon="103.767082"><ele>2753.4</ele><time>2011-04-24T02:25:38.0000000+00:00</time></trkpt><trkpt lat="22.317038" lon="103.766701"><ele>2787.8</ele><time>2011-04-24T02:28:33.0000000+00:00</time></trkpt><trkpt lat="22.316463" lon="103.766518"><ele>2785.5</ele><time>2011-04-24T02:31:43.0000000+00:00</time></trkpt><trkpt lat="22.315998" lon="103.765892"><ele>2787.3</ele><time>2011-04-24T02:33:23.0000000+00:00</time></trkpt><trkpt lat="22.31568" lon="103.765823"><ele>2785.0</ele><time>2011-04-24T02:34:08.0000000+00:00</time></trkpt><trkpt lat="22.315325" lon="103.766037"><ele>2783.9</ele><time>2011-04-24T02:34:53.0000000+00:00</time></trkpt><trkpt lat="22.314976" lon="103.765633"><ele>2781.3</ele><time>2011-04-24T02:36:28.0000000+00:00</time></trkpt><trkpt lat="22.314579" lon="103.765755"><ele>2773.1</ele><time>2011-04-24T02:37:43.0000000+00:00</time></trkpt><trkpt lat="22.314358" lon="103.76548"><ele>2780.4</ele><time>2011-04-24T02:38:33.0000000+00:00</time></trkpt><trkpt lat="22.314659" lon="103.765938"><ele>2772.6</ele><time>2011-04-24T02:39:33.0000000+00:00</time></trkpt><trkpt lat="22.314829" lon="103.765823"><ele>2778.0</ele><time>2011-04-24T02:40:03.0000000+00:00</time></trkpt><trkpt lat="22.31468" lon="103.765854"><ele>2774.3</ele><time>2011-04-24T02:41:58.0000000+00:00</time></trkpt><trkpt lat="22.314634" lon="103.76561"><ele>2775.7</ele><time>2011-04-24T02:42:28.0000000+00:00</time></trkpt><trkpt lat="22.314785" lon="103.765854"><ele>2776.8</ele><time>2011-04-24T02:44:33.0000000+00:00</time></trkpt><trkpt lat="22.314631" lon="103.765739"><ele>2774.3</ele><time>2011-04-24T02:45:43.0000000+00:00</time></trkpt><trkpt lat="22.314955" lon="103.765602"><ele>2781.1</ele><time>2011-04-24T02:47:28.0000000+00:00</time></trkpt><trkpt lat="22.314873" lon="103.765831"><ele>2778.9</ele><time>2011-04-24T02:48:53.0000000+00:00</time></trkpt><trkpt lat="22.31477" lon="103.76561"><ele>2778.2</ele><time>2011-04-24T02:49:48.0000000+00:00</time></trkpt><trkpt lat="22.314627" lon="103.765694"><ele>2774.7</ele><time>2011-04-24T02:50:28.0000000+00:00</time></trkpt><trkpt lat="22.314766" lon="103.765678"><ele>2777.6</ele><time>2011-04-24T02:50:58.0000000+00:00</time></trkpt><trkpt lat="22.314568" lon="103.765572"><ele>2775.2</ele><time>2011-04-24T02:52:48.0000000+00:00</time></trkpt><trkpt lat="22.314672" lon="103.765518"><ele>2779.1</ele><time>2011-04-24T02:53:28.0000000+00:00</time></trkpt><trkpt lat="22.314461" lon="103.765472"><ele>2780.8</ele><time>2011-04-24T02:55:33.0000000+00:00</time></trkpt><trkpt lat="22.314806" lon="103.765625"><ele>2778.7</ele><time>2011-04-24T02:56:33.0000000+00:00</time></trkpt><trkpt lat="22.314627" lon="103.765762"><ele>2774.0</ele><time>2011-04-24T02:57:33.0000000+00:00</time></trkpt><trkpt lat="22.314411" lon="103.765404"><ele>2785.5</ele><time>2011-04-24T02:58:28.0000000+00:00</time></trkpt><trkpt lat="22.314413" lon="103.765709"><ele>2771.5</ele><time>2011-04-24T02:59:33.0000000+00:00</time></trkpt><trkpt lat="22.314581" lon="103.76548"><ele>2780.1</ele><time>2011-04-24T03:01:28.0000000+00:00</time></trkpt><trkpt lat="22.314686" lon="103.765617"><ele>2776.6</ele><time>2011-04-24T03:01:58.0000000+00:00</time></trkpt><trkpt lat="22.314659" lon="103.7658"><ele>2774.3</ele><time>2011-04-24T03:02:23.0000000+00:00</time></trkpt><trkpt lat="22.314528" lon="103.765602"><ele>2774.6</ele><time>2011-04-24T03:02:58.0000000+00:00</time></trkpt><trkpt lat="22.314606" lon="103.765846"><ele>2772.6</ele><time>2011-04-24T03:05:03.0000000+00:00</time></trkpt><trkpt lat="22.314646" lon="103.765709"><ele>2774.9</ele><time>2011-04-24T03:06:43.0000000+00:00</time></trkpt><trkpt lat="22.3148" lon="103.765762"><ele>2777.7</ele><time>2011-04-24T03:07:03.0000000+00:00</time></trkpt><trkpt lat="22.314754" lon="103.765587"><ele>2778.0</ele><time>2011-04-24T03:08:13.0000000+00:00</time></trkpt><trkpt lat="22.314657" lon="103.765678"><ele>2775.5</ele><time>2011-04-24T03:08:33.0000000+00:00</time></trkpt><trkpt lat="22.313688" lon="103.765343"><ele>2811.0</ele><time>2011-04-24T03:10:58.0000000+00:00</time></trkpt><trkpt lat="22.313633" lon="103.765602"><ele>2802.5</ele><time>2011-04-24T03:12:18.0000000+00:00</time></trkpt><trkpt lat="22.313185" lon="103.765266"><ele>2844.8</ele><time>2011-04-24T03:14:53.0000000+00:00</time></trkpt><trkpt lat="22.313" lon="103.76535"><ele>2855.2</ele><time>2011-04-24T03:15:23.0000000+00:00</time></trkpt><trkpt lat="22.313" lon="103.765587"><ele>2849.7</ele><time>2011-04-24T03:16:23.0000000+00:00</time></trkpt><trkpt lat="22.312792" lon="103.765816"><ele>2865.1</ele><time>2011-04-24T03:17:38.0000000+00:00</time></trkpt><trkpt lat="22.312641" lon="103.766701"><ele>2854.2</ele><time>2011-04-24T03:19:38.0000000+00:00</time></trkpt><trkpt lat="22.312" lon="103.766678"><ele>2897.5</ele><time>2011-04-24T03:21:33.0000000+00:00</time></trkpt><trkpt lat="22.311993" lon="103.767502"><ele>2894.7</ele><time>2011-04-24T03:23:13.0000000+00:00</time></trkpt><trkpt lat="22.311649" lon="103.767731"><ele>2908.0</ele><time>2011-04-24T03:24:08.0000000+00:00</time></trkpt><trkpt lat="22.311604" lon="103.768082"><ele>2897.4</ele><time>2011-04-24T03:24:43.0000000+00:00</time></trkpt><trkpt lat="22.311134" lon="103.768288"><ele>2906.3</ele><time>2011-04-24T03:25:58.0000000+00:00</time></trkpt><trkpt lat="22.31065" lon="103.769012"><ele>2900.5</ele><time>2011-04-24T03:27:28.0000000+00:00</time></trkpt><trkpt lat="22.310316" lon="103.76899"><ele>2911.8</ele><time>2011-04-24T03:28:18.0000000+00:00</time></trkpt><trkpt lat="22.309805" lon="103.769226"><ele>2922.6</ele><time>2011-04-24T03:31:58.0000000+00:00</time></trkpt><trkpt lat="22.310059" lon="103.769241"><ele>2919.8</ele><time>2011-04-24T03:35:18.0000000+00:00</time></trkpt><trkpt lat="22.309988" lon="103.769119"><ele>2920.3</ele><time>2011-04-24T03:37:48.0000000+00:00</time></trkpt><trkpt lat="22.310207" lon="103.771759"><ele>2944.6</ele><time>2011-04-24T03:45:53.0000000+00:00</time></trkpt><trkpt lat="22.309233" lon="103.772675"><ele>2871.4</ele><time>2011-04-24T03:54:23.0000000+00:00</time></trkpt><trkpt lat="22.308886" lon="103.772636"><ele>2869.4</ele><time>2011-04-24T03:56:33.0000000+00:00</time></trkpt><trkpt lat="22.308661" lon="103.773064"><ele>2855.6</ele><time>2011-04-24T03:58:43.0000000+00:00</time></trkpt><trkpt lat="22.308413" lon="103.773117"><ele>2862.7</ele><time>2011-04-24T04:00:08.0000000+00:00</time></trkpt><trkpt lat="22.308224" lon="103.772919"><ele>2876.5</ele><time>2011-04-24T04:01:08.0000000+00:00</time></trkpt><trkpt lat="22.308153" lon="103.773018"><ele>2878.2</ele><time>2011-04-24T04:01:23.0000000+00:00</time></trkpt><trkpt lat="22.308313" lon="103.773254"><ele>2865.8</ele><time>2011-04-24T04:02:18.0000000+00:00</time></trkpt><trkpt lat="22.308023" lon="103.773544"><ele>2884.2</ele><time>2011-04-24T04:03:23.0000000+00:00</time></trkpt><trkpt lat="22.308207" lon="103.773766"><ele>2869.6</ele><time>2011-04-24T04:04:43.0000000+00:00</time></trkpt><trkpt lat="22.307959" lon="103.773849"><ele>2895.0</ele><time>2011-04-24T04:05:23.0000000+00:00</time></trkpt><trkpt lat="22.307997" lon="103.774147"><ele>2895.6</ele><time>2011-04-24T04:11:13.0000000+00:00</time></trkpt><trkpt lat="22.307663" lon="103.774406"><ele>2935.2</ele><time>2011-04-24T04:13:08.0000000+00:00</time></trkpt><trkpt lat="22.307577" lon="103.77462"><ele>2946.4</ele><time>2011-04-24T04:14:33.0000000+00:00</time></trkpt><trkpt lat="22.307735" lon="103.774712"><ele>2931.1</ele><time>2011-04-24T04:14:58.0000000+00:00</time></trkpt><trkpt lat="22.307663" lon="103.77462"><ele>2937.8</ele><time>2011-04-24T04:15:28.0000000+00:00</time></trkpt><trkpt lat="22.30744" lon="103.774803"><ele>2959.8</ele><time>2011-04-24T04:17:28.0000000+00:00</time></trkpt><trkpt lat="22.307547" lon="103.775009"><ele>2948.2</ele><time>2011-04-24T04:18:48.0000000+00:00</time></trkpt><trkpt lat="22.30727" lon="103.775192"><ele>2968.9</ele><time>2011-04-24T04:20:28.0000000+00:00</time></trkpt><trkpt lat="22.307114" lon="103.775696"><ele>2964.5</ele><time>2011-04-24T04:21:58.0000000+00:00</time></trkpt><trkpt lat="22.306692" lon="103.774712"><ele>3006.7</ele><time>2011-04-24T04:31:43.0000000+00:00</time></trkpt><trkpt lat="22.306398" lon="103.77462"><ele>3018.9</ele><time>2011-04-24T04:32:23.0000000+00:00</time></trkpt><trkpt lat="22.305359" lon="103.775124"><ele>3044.2</ele><time>2011-04-24T04:36:28.0000000+00:00</time></trkpt><trkpt lat="22.304991" lon="103.775101"><ele>3058.6</ele><time>2011-04-24T04:38:08.0000000+00:00</time></trkpt><trkpt lat="22.304543" lon="103.775322"><ele>3073.9</ele><time>2011-04-24T04:39:53.0000000+00:00</time></trkpt><trkpt lat="22.30423" lon="103.775246"><ele>3086.8</ele><time>2011-04-24T04:41:58.0000000+00:00</time></trkpt><trkpt lat="22.303593" lon="103.775528"><ele>3107.6</ele><time>2011-04-24T04:47:33.0000000+00:00</time></trkpt><trkpt lat="22.303408" lon="103.775124"><ele>3108.7</ele><time>2011-04-24T04:50:33.0000000+00:00</time></trkpt><trkpt lat="22.303192" lon="103.775276"><ele>3104.9</ele><time>2011-04-24T04:51:38.0000000+00:00</time></trkpt><trkpt lat="22.303463" lon="103.775223"><ele>3109.4</ele><time>2011-04-24T05:08:23.0000000+00:00</time></trkpt><trkpt lat="22.303677" lon="103.775604"><ele>3106.5</ele><time>2011-04-24T05:11:48.0000000+00:00</time></trkpt><trkpt lat="22.303831" lon="103.775429"><ele>3107.6</ele><time>2011-04-24T05:13:13.0000000+00:00</time></trkpt><trkpt lat="22.304169" lon="103.775436"><ele>3089.6</ele><time>2011-04-24T05:14:28.0000000+00:00</time></trkpt><trkpt lat="22.304295" lon="103.775253"><ele>3082.9</ele><time>2011-04-24T05:16:03.0000000+00:00</time></trkpt><trkpt lat="22.304514" lon="103.775337"><ele>3074.8</ele><time>2011-04-24T05:16:23.0000000+00:00</time></trkpt><trkpt lat="22.305342" lon="103.775108"><ele>3045.2</ele><time>2011-04-24T05:19:33.0000000+00:00</time></trkpt><trkpt lat="22.306345" lon="103.774673"><ele>3018.3</ele><time>2011-04-24T05:22:38.0000000+00:00</time></trkpt><trkpt lat="22.306662" lon="103.774719"><ele>3007.2</ele><time>2011-04-24T05:23:03.0000000+00:00</time></trkpt><trkpt lat="22.307121" lon="103.775658"><ele>2965.5</ele><time>2011-04-24T05:27:33.0000000+00:00</time></trkpt><trkpt lat="22.307598" lon="103.774872"><ele>2944.0</ele><time>2011-04-24T05:32:13.0000000+00:00</time></trkpt><trkpt lat="22.307465" lon="103.774635"><ele>2958.0</ele><time>2011-04-24T05:32:58.0000000+00:00</time></trkpt><trkpt lat="22.307592" lon="103.774742"><ele>2944.7</ele><time>2011-04-24T05:34:18.0000000+00:00</time></trkpt><trkpt lat="22.307623" lon="103.774529"><ele>2940.6</ele><time>2011-04-24T05:37:08.0000000+00:00</time></trkpt><trkpt lat="22.307861" lon="103.774712"><ele>2919.5</ele><time>2011-04-24T05:37:53.0000000+00:00</time></trkpt><trkpt lat="22.307697" lon="103.774445"><ele>2932.4</ele><time>2011-04-24T05:38:43.0000000+00:00</time></trkpt><trkpt lat="22.308006" lon="103.774506"><ele>2902.1</ele><time>2011-04-24T05:39:48.0000000+00:00</time></trkpt><trkpt lat="22.308041" lon="103.774193"><ele>2891.7</ele><time>2011-04-24T05:41:18.0000000+00:00</time></trkpt><trkpt lat="22.308197" lon="103.774155"><ele>2875.1</ele><time>2011-04-24T05:41:43.0000000+00:00</time></trkpt><trkpt lat="22.30801" lon="103.773514"><ele>2885.0</ele><time>2011-04-24T05:44:13.0000000+00:00</time></trkpt><trkpt lat="22.308174" lon="103.773041"><ele>2877.8</ele><time>2011-04-24T05:45:33.0000000+00:00</time></trkpt><trkpt lat="22.308645" lon="103.773109"><ele>2854.2</ele><time>2011-04-24T05:47:33.0000000+00:00</time></trkpt><trkpt lat="22.308588" lon="103.772995"><ele>2860.5</ele><time>2011-04-24T05:47:58.0000000+00:00</time></trkpt><trkpt lat="22.308876" lon="103.772713"><ele>2866.5</ele><time>2011-04-24T05:49:58.0000000+00:00</time></trkpt><trkpt lat="22.308891" lon="103.772446"><ele>2876.6</ele><time>2011-04-24T05:50:53.0000000+00:00</time></trkpt><trkpt lat="22.308975" lon="103.772507"><ele>2872.6</ele><time>2011-04-24T05:56:13.0000000+00:00</time></trkpt><trkpt lat="22.308867" lon="103.772469"><ele>2876.3</ele><time>2011-04-24T05:57:08.0000000+00:00</time></trkpt><trkpt lat="22.309179" lon="103.77253"><ele>2873.7</ele><time>2011-04-24T06:00:58.0000000+00:00</time></trkpt><trkpt lat="22.309208" lon="103.77224"><ele>2882.1</ele><time>2011-04-24T06:01:38.0000000+00:00</time></trkpt><trkpt lat="22.309534" lon="103.772133"><ele>2902.5</ele><time>2011-04-24T06:03:03.0000000+00:00</time></trkpt><trkpt lat="22.309664" lon="103.771706"><ele>2933.2</ele><time>2011-04-24T06:04:33.0000000+00:00</time></trkpt><trkpt lat="22.309984" lon="103.771912"><ele>2934.0</ele><time>2011-04-24T06:05:03.0000000+00:00</time></trkpt><trkpt lat="22.310019" lon="103.771729"><ele>2941.8</ele><time>2011-04-24T06:06:43.0000000+00:00</time></trkpt><trkpt lat="22.310135" lon="103.771767"><ele>2941.7</ele><time>2011-04-24T06:07:08.0000000+00:00</time></trkpt><trkpt lat="22.310047" lon="103.76931"><ele>2921.2</ele><time>2011-04-24T06:13:18.0000000+00:00</time></trkpt><trkpt lat="22.310362" lon="103.769043"><ele>2909.2</ele><time>2011-04-24T06:14:23.0000000+00:00</time></trkpt><trkpt lat="22.310699" lon="103.768997"><ele>2899.5</ele><time>2011-04-24T06:15:13.0000000+00:00</time></trkpt><trkpt lat="22.3111" lon="103.768272"><ele>2908.2</ele><time>2011-04-24T06:16:33.0000000+00:00</time></trkpt><trkpt lat="22.311646" lon="103.768028"><ele>2898.1</ele><time>2011-04-24T06:17:48.0000000+00:00</time></trkpt><trkpt lat="22.311718" lon="103.767731"><ele>2904.3</ele><time>2011-04-24T06:18:18.0000000+00:00</time></trkpt><trkpt lat="22.312071" lon="103.767441"><ele>2892.1</ele><time>2011-04-24T06:19:18.0000000+00:00</time></trkpt><trkpt lat="22.312056" lon="103.766785"><ele>2894.2</ele><time>2011-04-24T06:20:53.0000000+00:00</time></trkpt><trkpt lat="22.312639" lon="103.766617"><ele>2857.9</ele><time>2011-04-24T06:22:53.0000000+00:00</time></trkpt><trkpt lat="22.312792" lon="103.766251"><ele>2865.6</ele><time>2011-04-24T06:23:28.0000000+00:00</time></trkpt><trkpt lat="22.31275" lon="103.765854"><ele>2868.0</ele><time>2011-04-24T06:24:28.0000000+00:00</time></trkpt><trkpt lat="22.313292" lon="103.76519"><ele>2841.1</ele><time>2011-04-24T06:26:48.0000000+00:00</time></trkpt><trkpt lat="22.313622" lon="103.765556"><ele>2803.7</ele><time>2011-04-24T06:28:38.0000000+00:00</time></trkpt><trkpt lat="22.313786" lon="103.765526"><ele>2796.5</ele><time>2011-04-24T06:29:18.0000000+00:00</time></trkpt><trkpt lat="22.313828" lon="103.76535"><ele>2804.5</ele><time>2011-04-24T06:29:53.0000000+00:00</time></trkpt><trkpt lat="22.3141" lon="103.765358"><ele>2795.2</ele><time>2011-04-24T06:30:43.0000000+00:00</time></trkpt><trkpt lat="22.314585" lon="103.76561"><ele>2774.8</ele><time>2011-04-24T06:36:18.0000000+00:00</time></trkpt><trkpt lat="22.314528" lon="103.765732"><ele>2772.6</ele><time>2011-04-24T06:37:03.0000000+00:00</time></trkpt><trkpt lat="22.314426" lon="103.765602"><ele>2774.0</ele><time>2011-04-24T06:39:18.0000000+00:00</time></trkpt><trkpt lat="22.314621" lon="103.765442"><ele>2782.6</ele><time>2011-04-24T06:40:38.0000000+00:00</time></trkpt><trkpt lat="22.314985" lon="103.76548"><ele>2784.8</ele><time>2011-04-24T06:41:38.0000000+00:00</time></trkpt><trkpt lat="22.314375" lon="103.765625"><ele>2773.1</ele><time>2011-04-24T06:43:58.0000000+00:00</time></trkpt><trkpt lat="22.314598" lon="103.765633"><ele>2774.8</ele><time>2011-04-24T06:44:28.0000000+00:00</time></trkpt><trkpt lat="22.314627" lon="103.765472"><ele>2781.0</ele><time>2011-04-24T06:44:43.0000000+00:00</time></trkpt><trkpt lat="22.314518" lon="103.765457"><ele>2781.6</ele><time>2011-04-24T06:45:18.0000000+00:00</time></trkpt><trkpt lat="22.314562" lon="103.765869"><ele>2771.3</ele><time>2011-04-24T06:46:28.0000000+00:00</time></trkpt><trkpt lat="22.314442" lon="103.765686"><ele>2772.3</ele><time>2011-04-24T06:46:53.0000000+00:00</time></trkpt><trkpt lat="22.314564" lon="103.765656"><ele>2774.1</ele><time>2011-04-24T06:47:08.0000000+00:00</time></trkpt><trkpt lat="22.31452" lon="103.765472"><ele>2780.7</ele><time>2011-04-24T06:47:33.0000000+00:00</time></trkpt><trkpt lat="22.314573" lon="103.765755"><ele>2773.0</ele><time>2011-04-24T06:49:23.0000000+00:00</time></trkpt><trkpt lat="22.314545" lon="103.765579"><ele>2775.0</ele><time>2011-04-24T06:51:18.0000000+00:00</time></trkpt><trkpt lat="22.314789" lon="103.765488"><ele>2782.1</ele><time>2011-04-24T06:51:58.0000000+00:00</time></trkpt><trkpt lat="22.314619" lon="103.765533"><ele>2777.6</ele><time>2011-04-24T06:54:08.0000000+00:00</time></trkpt><trkpt lat="22.314735" lon="103.765526"><ele>2779.6</ele><time>2011-04-24T06:55:28.0000000+00:00</time></trkpt><trkpt lat="22.314644" lon="103.765663"><ele>2775.4</ele><time>2011-04-24T06:56:33.0000000+00:00</time></trkpt><trkpt lat="22.314449" lon="103.765602"><ele>2774.1</ele><time>2011-04-24T06:57:33.0000000+00:00</time></trkpt><trkpt lat="22.314503" lon="103.765518"><ele>2777.8</ele><time>2011-04-24T06:58:33.0000000+00:00</time></trkpt><trkpt lat="22.314413" lon="103.765633"><ele>2773.2</ele><time>2011-04-24T06:58:58.0000000+00:00</time></trkpt><trkpt lat="22.314356" lon="103.765518"><ele>2777.7</ele><time>2011-04-24T06:59:53.0000000+00:00</time></trkpt><trkpt lat="22.314445" lon="103.765625"><ele>2773.6</ele><time>2011-04-24T07:00:08.0000000+00:00</time></trkpt><trkpt lat="22.314508" lon="103.765419"><ele>2784.0</ele><time>2011-04-24T07:02:08.0000000+00:00</time></trkpt><trkpt lat="22.314388" lon="103.76564"><ele>2772.8</ele><time>2011-04-24T07:02:48.0000000+00:00</time></trkpt><trkpt lat="22.314367" lon="103.765396"><ele>2786.3</ele><time>2011-04-24T07:03:53.0000000+00:00</time></trkpt><trkpt lat="22.314543" lon="103.765541"><ele>2776.5</ele><time>2011-04-24T07:04:53.0000000+00:00</time></trkpt><trkpt lat="22.314508" lon="103.765709"><ele>2772.7</ele><time>2011-04-24T07:07:18.0000000+00:00</time></trkpt><trkpt lat="22.314455" lon="103.76548"><ele>2780.3</ele><time>2011-04-24T07:10:23.0000000+00:00</time></trkpt><trkpt lat="22.31468" lon="103.765739"><ele>2775.4</ele><time>2011-04-24T07:13:03.0000000+00:00</time></trkpt><trkpt lat="22.314503" lon="103.765617"><ele>2774.2</ele><time>2011-04-24T07:13:58.0000000+00:00</time></trkpt><trkpt lat="22.314623" lon="103.76545"><ele>2782.2</ele><time>2011-04-24T07:14:53.0000000+00:00</time></trkpt><trkpt lat="22.314701" lon="103.765526"><ele>2779.1</ele><time>2011-04-24T07:15:58.0000000+00:00</time></trkpt><trkpt lat="22.31452" lon="103.765556"><ele>2775.5</ele><time>2011-04-24T07:16:58.0000000+00:00</time></trkpt><trkpt lat="22.314558" lon="103.765671"><ele>2773.8</ele><time>2011-04-24T07:17:53.0000000+00:00</time></trkpt><trkpt lat="22.31448" lon="103.765358"><ele>2788.0</ele><time>2011-04-24T07:29:33.0000000+00:00</time></trkpt><trkpt lat="22.314606" lon="103.765678"><ele>2774.5</ele><time>2011-04-24T07:41:18.0000000+00:00</time></trkpt><trkpt lat="22.314919" lon="103.765533"><ele>2781.9</ele><time>2011-04-24T07:42:33.0000000+00:00</time></trkpt><trkpt lat="22.315275" lon="103.766022"><ele>2783.7</ele><time>2011-04-24T07:43:28.0000000+00:00</time></trkpt><trkpt lat="22.315617" lon="103.765709"><ele>2788.4</ele><time>2011-04-24T07:44:18.0000000+00:00</time></trkpt><trkpt lat="22.315964" lon="103.765892"><ele>2785.9</ele><time>2011-04-24T07:45:03.0000000+00:00</time></trkpt><trkpt lat="22.316496" lon="103.766556"><ele>2783.8</ele><time>2011-04-24T07:46:58.0000000+00:00</time></trkpt><trkpt lat="22.316797" lon="103.766472"><ele>2798.0</ele><time>2011-04-24T07:47:53.0000000+00:00</time></trkpt><trkpt lat="22.31756" lon="103.766991"><ele>2755.2</ele><time>2011-04-24T07:51:23.0000000+00:00</time></trkpt><trkpt lat="22.31835" lon="103.76712"><ele>2717.7</ele><time>2011-04-24T07:55:08.0000000+00:00</time></trkpt><trkpt lat="22.318584" lon="103.767395"><ele>2702.4</ele><time>2011-04-24T07:57:18.0000000+00:00</time></trkpt><trkpt lat="22.318979" lon="103.767509"><ele>2685.4</ele><time>2011-04-24T07:59:53.0000000+00:00</time></trkpt><trkpt lat="22.319225" lon="103.768219"><ele>2664.5</ele><time>2011-04-24T08:02:33.0000000+00:00</time></trkpt><trkpt lat="22.319365" lon="103.768227"><ele>2666.7</ele><time>2011-04-24T08:04:13.0000000+00:00</time></trkpt><trkpt lat="22.319706" lon="103.768837"><ele>2648.1</ele><time>2011-04-24T08:06:23.0000000+00:00</time></trkpt><trkpt lat="22.319664" lon="103.769218"><ele>2644.8</ele><time>2011-04-24T08:07:28.0000000+00:00</time></trkpt><trkpt lat="22.319811" lon="103.769562"><ele>2639.5</ele><time>2011-04-24T08:09:58.0000000+00:00</time></trkpt><trkpt lat="22.320112" lon="103.769684"><ele>2621.0</ele><time>2011-04-24T08:12:08.0000000+00:00</time></trkpt><trkpt lat="22.320137" lon="103.769966"><ele>2609.2</ele><time>2011-04-24T08:16:43.0000000+00:00</time></trkpt><trkpt lat="22.320248" lon="103.769791"><ele>2609.1</ele><time>2011-04-24T08:18:03.0000000+00:00</time></trkpt><trkpt lat="22.320145" lon="103.769592"><ele>2621.1</ele><time>2011-04-24T08:19:48.0000000+00:00</time></trkpt><trkpt lat="22.320324" lon="103.769989"><ele>2598.8</ele><time>2011-04-24T08:20:48.0000000+00:00</time></trkpt><trkpt lat="22.320612" lon="103.770096"><ele>2582.5</ele><time>2011-04-24T08:22:28.0000000+00:00</time></trkpt><trkpt lat="22.320625" lon="103.770485"><ele>2577.7</ele><time>2011-04-24T08:23:08.0000000+00:00</time></trkpt><trkpt lat="22.32085" lon="103.770813"><ele>2568.1</ele><time>2011-04-24T08:24:03.0000000+00:00</time></trkpt><trkpt lat="22.321848" lon="103.770958"><ele>2523.0</ele><time>2011-04-24T08:28:28.0000000+00:00</time></trkpt><trkpt lat="22.322369" lon="103.770782"><ele>2506.8</ele><time>2011-04-24T08:30:43.0000000+00:00</time></trkpt><trkpt lat="22.322481" lon="103.770996"><ele>2494.5</ele><time>2011-04-24T08:32:38.0000000+00:00</time></trkpt><trkpt lat="22.322697" lon="103.770653"><ele>2484.3</ele><time>2011-04-24T08:35:08.0000000+00:00</time></trkpt><trkpt lat="22.323605" lon="103.771408"><ele>2429.4</ele><time>2011-04-24T08:48:13.0000000+00:00</time></trkpt><trkpt lat="22.324207" lon="103.771423"><ele>2414.2</ele><time>2011-04-24T08:51:53.0000000+00:00</time></trkpt><trkpt lat="22.324852" lon="103.772476"><ele>2389.8</ele><time>2011-04-24T08:54:38.0000000+00:00</time></trkpt><trkpt lat="22.325256" lon="103.772346"><ele>2381.7</ele><time>2011-04-24T08:56:23.0000000+00:00</time></trkpt><trkpt lat="22.325384" lon="103.772552"><ele>2374.7</ele><time>2011-04-24T08:56:48.0000000+00:00</time></trkpt><trkpt lat="22.32601" lon="103.772491"><ele>2376.0</ele><time>2011-04-24T08:58:28.0000000+00:00</time></trkpt><trkpt lat="22.326246" lon="103.772751"><ele>2357.5</ele><time>2011-04-24T08:59:43.0000000+00:00</time></trkpt><trkpt lat="22.326679" lon="103.772614"><ele>2363.4</ele><time>2011-04-24T09:01:48.0000000+00:00</time></trkpt><trkpt lat="22.326622" lon="103.7733"><ele>2359.0</ele><time>2011-04-24T09:02:58.0000000+00:00</time></trkpt><trkpt lat="22.327061" lon="103.774689"><ele>2364.6</ele><time>2011-04-24T09:06:18.0000000+00:00</time></trkpt><trkpt lat="22.327013" lon="103.776321"><ele>2342.1</ele><time>2011-04-24T09:10:28.0000000+00:00</time></trkpt><trkpt lat="22.326878" lon="103.776627"><ele>2333.6</ele><time>2011-04-24T09:11:08.0000000+00:00</time></trkpt><trkpt lat="22.326403" lon="103.776817"><ele>2325.3</ele><time>2011-04-24T09:12:38.0000000+00:00</time></trkpt><trkpt lat="22.326096" lon="103.777374"><ele>2323.4</ele><time>2011-04-24T09:15:08.0000000+00:00</time></trkpt><trkpt lat="22.326061" lon="103.778908"><ele>2314.1</ele><time>2011-04-24T09:17:18.0000000+00:00</time></trkpt><trkpt lat="22.326406" lon="103.779671"><ele>2306.4</ele><time>2011-04-24T09:19:28.0000000+00:00</time></trkpt><trkpt lat="22.326288" lon="103.779808"><ele>2296.4</ele><time>2011-04-24T09:20:08.0000000+00:00</time></trkpt><trkpt lat="22.326366" lon="103.779984"><ele>2287.8</ele><time>2011-04-24T09:20:33.0000000+00:00</time></trkpt><trkpt lat="22.326797" lon="103.780258"><ele>2282.5</ele><time>2011-04-24T09:22:03.0000000+00:00</time></trkpt><trkpt lat="22.326916" lon="103.780914"><ele>2262.2</ele><time>2011-04-24T09:23:33.0000000+00:00</time></trkpt><trkpt lat="22.327383" lon="103.781334"><ele>2253.7</ele><time>2011-04-24T09:25:23.0000000+00:00</time></trkpt><trkpt lat="22.32766" lon="103.781395"><ele>2249.3</ele><time>2011-04-24T09:27:48.0000000+00:00</time></trkpt><trkpt lat="22.327726" lon="103.781593"><ele>2244.0</ele><time>2011-04-24T09:29:43.0000000+00:00</time></trkpt><trkpt lat="22.328077" lon="103.781578"><ele>2240.1</ele><time>2011-04-24T09:30:18.0000000+00:00</time></trkpt><trkpt lat="22.328276" lon="103.781746"><ele>2236.3</ele><time>2011-04-24T09:30:48.0000000+00:00</time></trkpt><trkpt lat="22.329437" lon="103.781403"><ele>2251.6</ele><time>2011-04-24T09:39:53.0000000+00:00</time></trkpt><trkpt lat="22.329823" lon="103.781609"><ele>2248.5</ele><time>2011-04-24T09:40:38.0000000+00:00</time></trkpt><trkpt lat="22.330084" lon="103.78154"><ele>2242.0</ele><time>2011-04-24T09:43:03.0000000+00:00</time></trkpt><trkpt lat="22.330301" lon="103.780472"><ele>2234.4</ele><time>2011-04-24T09:45:28.0000000+00:00</time></trkpt><trkpt lat="22.331411" lon="103.779243"><ele>2214.4</ele><time>2011-04-24T09:49:23.0000000+00:00</time></trkpt><trkpt lat="22.332783" lon="103.779129"><ele>2189.7</ele><time>2011-04-24T09:53:08.0000000+00:00</time></trkpt><trkpt lat="22.333872" lon="103.779953"><ele>2158.7</ele><time>2011-04-24T09:56:58.0000000+00:00</time></trkpt><trkpt lat="22.334455" lon="103.779655"><ele>2127.7</ele><time>2011-04-24T10:03:03.0000000+00:00</time></trkpt><trkpt lat="22.334484" lon="103.779442"><ele>2122.2</ele><time>2011-04-24T10:04:48.0000000+00:00</time></trkpt><trkpt lat="22.334278" lon="103.779297"><ele>2127.0</ele><time>2011-04-24T10:05:53.0000000+00:00</time></trkpt><trkpt lat="22.334425" lon="103.77916"><ele>2116.6</ele><time>2011-04-24T10:07:03.0000000+00:00</time></trkpt><trkpt lat="22.334276" lon="103.778992"><ele>2115.6</ele><time>2011-04-24T10:08:23.0000000+00:00</time></trkpt><trkpt lat="22.334457" lon="103.778816"><ele>2104.5</ele><time>2011-04-24T10:08:58.0000000+00:00</time></trkpt><trkpt lat="22.334791" lon="103.77887"><ele>2096.8</ele><time>2011-04-24T10:09:58.0000000+00:00</time></trkpt><trkpt lat="22.334963" lon="103.779182"><ele>2093.2</ele><time>2011-04-24T10:10:43.0000000+00:00</time></trkpt><trkpt lat="22.335508" lon="103.779594"><ele>2078.1</ele><time>2011-04-24T10:12:08.0000000+00:00</time></trkpt><trkpt lat="22.33663" lon="103.779671"><ele>2072.5</ele><time>2011-04-24T10:14:18.0000000+00:00</time></trkpt><trkpt lat="22.337095" lon="103.779388"><ele>2077.1</ele><time>2011-04-24T10:15:38.0000000+00:00</time></trkpt><trkpt lat="22.337479" lon="103.779358"><ele>2071.2</ele><time>2011-04-24T10:16:23.0000000+00:00</time></trkpt><trkpt lat="22.33774" lon="103.778748"><ele>2078.0</ele><time>2011-04-24T10:17:43.0000000+00:00</time></trkpt><trkpt lat="22.338156" lon="103.778381"><ele>2076.7</ele><time>2011-04-24T10:19:08.0000000+00:00</time></trkpt><trkpt lat="22.338079" lon="103.777786"><ele>2086.6</ele><time>2011-04-24T10:20:38.0000000+00:00</time></trkpt><trkpt lat="22.338226" lon="103.776932"><ele>2095.0</ele><time>2011-04-24T10:22:28.0000000+00:00</time></trkpt><trkpt lat="22.338827" lon="103.776596"><ele>2080.0</ele><time>2011-04-24T10:23:53.0000000+00:00</time></trkpt><trkpt lat="22.338997" lon="103.776131"><ele>2076.1</ele><time>2011-04-24T10:25:53.0000000+00:00</time></trkpt><trkpt lat="22.33943" lon="103.775818"><ele>2058.5</ele><time>2011-04-24T10:27:08.0000000+00:00</time></trkpt><trkpt lat="22.340126" lon="103.77594"><ele>2038.9</ele><time>2011-04-24T10:29:53.0000000+00:00</time></trkpt><trkpt lat="22.34062" lon="103.776222"><ele>2022.3</ele><time>2011-04-24T10:32:08.0000000+00:00</time></trkpt><trkpt lat="22.341223" lon="103.776085"><ele>2011.7</ele><time>2011-04-24T10:33:38.0000000+00:00</time></trkpt><trkpt lat="22.34157" lon="103.776352"><ele>2008.5</ele><time>2011-04-24T10:34:38.0000000+00:00</time></trkpt><trkpt lat="22.342352" lon="103.776321"><ele>2006.2</ele><time>2011-04-24T10:36:23.0000000+00:00</time></trkpt><trkpt lat="22.342743" lon="103.776176"><ele>2015.9</ele><time>2011-04-24T10:37:28.0000000+00:00</time></trkpt><trkpt lat="22.3431" lon="103.775642"><ele>2016.5</ele><time>2011-04-24T10:39:28.0000000+00:00</time></trkpt><trkpt lat="22.343613" lon="103.775246"><ele>2020.7</ele><time>2011-04-24T10:40:23.0000000+00:00</time></trkpt><trkpt lat="22.344112" lon="103.77533"><ele>2022.5</ele><time>2011-04-24T10:41:13.0000000+00:00</time></trkpt><trkpt lat="22.34565" lon="103.775093"><ele>2023.2</ele><time>2011-04-24T10:43:48.0000000+00:00</time></trkpt><trkpt lat="22.346052" lon="103.774574"><ele>2023.5</ele><time>2011-04-24T10:45:13.0000000+00:00</time></trkpt><trkpt lat="22.346458" lon="103.774437"><ele>2017.6</ele><time>2011-04-24T10:46:43.0000000+00:00</time></trkpt><trkpt lat="22.346472" lon="103.774261"><ele>2014.1</ele><time>2011-04-24T10:48:38.0000000+00:00</time></trkpt><trkpt lat="22.346962" lon="103.773857"><ele>2002.5</ele><time>2011-04-24T10:50:58.0000000+00:00</time></trkpt><trkpt lat="22.347179" lon="103.773773"><ele>1994.1</ele><time>2011-04-24T10:52:28.0000000+00:00</time></trkpt><trkpt lat="22.34726" lon="103.77388"><ele>1994.1</ele><time>2011-04-24T10:52:58.0000000+00:00</time></trkpt><trkpt lat="22.347446" lon="103.77356"><ele>1980.2</ele><time>2011-04-24T10:54:48.0000000+00:00</time></trkpt><trkpt lat="22.347761" lon="103.773651"><ele>1979.1</ele><time>2011-04-24T10:55:43.0000000+00:00</time></trkpt><trkpt lat="22.348738" lon="103.774399"><ele>1962.8</ele><time>2011-04-24T10:59:03.0000000+00:00</time></trkpt><trkpt lat="22.349968" lon="103.774208"><ele>1924.4</ele><time>2011-04-24T11:03:48.0000000+00:00</time></trkpt><trkpt lat="22.350775" lon="103.774635"><ele>1931.2</ele><time>2011-04-24T11:07:53.0000000+00:00</time></trkpt><trkpt lat="22.350941" lon="103.774551"><ele>1931.7</ele><time>2011-04-24T11:08:33.0000000+00:00</time></trkpt><trkpt lat="22.351166" lon="103.774788"><ele>1937.0</ele><time>2011-04-24T11:09:08.0000000+00:00</time></trkpt><trkpt lat="22.351835" lon="103.774635"><ele>1935.4</ele><time>2011-04-24T11:11:18.0000000+00:00</time></trkpt><trkpt lat="22.352701" lon="103.774696"><ele>1950.0</ele><time>2011-04-24T11:13:33.0000000+00:00</time></trkpt><trkpt lat="22.352884" lon="103.774841"><ele>1958.1</ele><time>2011-04-24T11:17:48.0000000+00:00</time></trkpt></trkseg><trkseg><trkpt lat="22.315552" lon="103.662712"><ele>743.9</ele><time>2011-04-25T06:29:30.0000000+00:00</time></trkpt><trkpt lat="22.315001" lon="103.66246"><ele>731.8</ele><time>2011-04-25T06:39:20.0000000+00:00</time></trkpt><trkpt lat="22.313547" lon="103.662804"><ele>732.6</ele><time>2011-04-25T06:39:40.0000000+00:00</time></trkpt><trkpt lat="22.311769" lon="103.662575"><ele>737.1</ele><time>2011-04-25T06:40:10.0000000+00:00</time></trkpt><trkpt lat="22.311007" lon="103.662712"><ele>737.9</ele><time>2011-04-25T06:40:25.0000000+00:00</time></trkpt><trkpt lat="22.307423" lon="103.664589"><ele>729.8</ele><time>2011-04-25T06:41:40.0000000+00:00</time></trkpt><trkpt lat="22.306332" lon="103.664886"><ele>729.7</ele><time>2011-04-25T06:42:00.0000000+00:00</time></trkpt><trkpt lat="22.305531" lon="103.666069"><ele>736.7</ele><time>2011-04-25T06:42:30.0000000+00:00</time></trkpt><trkpt lat="22.304605" lon="103.666679"><ele>738.6</ele><time>2011-04-25T06:43:00.0000000+00:00</time></trkpt><trkpt lat="22.303679" lon="103.667084"><ele>738.2</ele><time>2011-04-25T06:43:25.0000000+00:00</time></trkpt><trkpt lat="22.301544" lon="103.667664"><ele>739.7</ele><time>2011-04-25T06:44:10.0000000+00:00</time></trkpt><trkpt lat="22.30101" lon="103.667969"><ele>741.0</ele><time>2011-04-25T06:44:25.0000000+00:00</time></trkpt><trkpt lat="22.300285" lon="103.668747"><ele>742.3</ele><time>2011-04-25T06:44:45.0000000+00:00</time></trkpt><trkpt lat="22.298197" lon="103.669128"><ele>740.6</ele><time>2011-04-25T06:45:25.0000000+00:00</time></trkpt><trkpt lat="22.297382" lon="103.669449"><ele>737.3</ele><time>2011-04-25T06:45:40.0000000+00:00</time></trkpt><trkpt lat="22.297003" lon="103.67028"><ele>733.7</ele><time>2011-04-25T06:45:55.0000000+00:00</time></trkpt><trkpt lat="22.296177" lon="103.670288"><ele>732.3</ele><time>2011-04-25T06:46:05.0000000+00:00</time></trkpt><trkpt lat="22.295805" lon="103.670128"><ele>733.3</ele><time>2011-04-25T06:46:10.0000000+00:00</time></trkpt><trkpt lat="22.295267" lon="103.669563"><ele>735.2</ele><time>2011-04-25T06:46:20.0000000+00:00</time></trkpt><trkpt lat="22.294935" lon="103.669487"><ele>737.6</ele><time>2011-04-25T06:46:25.0000000+00:00</time></trkpt><trkpt lat="22.294069" lon="103.670029"><ele>728.5</ele><time>2011-04-25T06:46:40.0000000+00:00</time></trkpt><trkpt lat="22.293362" lon="103.670189"><ele>724.1</ele><time>2011-04-25T06:46:55.0000000+00:00</time></trkpt><trkpt lat="22.292534" lon="103.670006"><ele>713.3</ele><time>2011-04-25T06:47:05.0000000+00:00</time></trkpt><trkpt lat="22.290726" lon="103.670059"><ele>693.8</ele><time>2011-04-25T06:47:20.0000000+00:00</time></trkpt><trkpt lat="22.289703" lon="103.670708"><ele>681.9</ele><time>2011-04-25T06:47:30.0000000+00:00</time></trkpt><trkpt lat="22.288214" lon="103.672188"><ele>671.8</ele><time>2011-04-25T06:47:50.0000000+00:00</time></trkpt><trkpt lat="22.287909" lon="103.672256"><ele>669.5</ele><time>2011-04-25T06:47:55.0000000+00:00</time></trkpt><trkpt lat="22.286888" lon="103.671692"><ele>667.5</ele><time>2011-04-25T06:48:10.0000000+00:00</time></trkpt><trkpt lat="22.286352" lon="103.671677"><ele>669.1</ele><time>2011-04-25T06:48:15.0000000+00:00</time></trkpt><trkpt lat="22.284542" lon="103.672523"><ele>662.6</ele><time>2011-04-25T06:50:40.0000000+00:00</time></trkpt><trkpt lat="22.284109" lon="103.673332"><ele>664.9</ele><time>2011-04-25T06:50:55.0000000+00:00</time></trkpt><trkpt lat="22.283716" lon="103.673698"><ele>663.3</ele><time>2011-04-25T06:51:05.0000000+00:00</time></trkpt><trkpt lat="22.283522" lon="103.674416"><ele>662.9</ele><time>2011-04-25T06:55:50.0000000+00:00</time></trkpt><trkpt lat="22.282537" lon="103.675888"><ele>665.8</ele><time>2011-04-25T06:56:25.0000000+00:00</time></trkpt><trkpt lat="22.281582" lon="103.677979"><ele>674.5</ele><time>2011-04-25T06:57:40.0000000+00:00</time></trkpt><trkpt lat="22.280865" lon="103.678482"><ele>677.1</ele><time>2011-04-25T06:58:10.0000000+00:00</time></trkpt><trkpt lat="22.280268" lon="103.679298"><ele>674.6</ele><time>2011-04-25T06:58:35.0000000+00:00</time></trkpt><trkpt lat="22.278257" lon="103.680824"><ele>671.4</ele><time>2011-04-25T06:59:15.0000000+00:00</time></trkpt><trkpt lat="22.275383" lon="103.684006"><ele>658.7</ele><time>2011-04-25T07:00:10.0000000+00:00</time></trkpt><trkpt lat="22.269552" lon="103.688858"><ele>689.2</ele><time>2011-04-25T07:04:25.0000000+00:00</time></trkpt><trkpt lat="22.266045" lon="103.693253"><ele>703.3</ele><time>2011-04-25T07:07:00.0000000+00:00</time></trkpt><trkpt lat="22.26582" lon="103.693413"><ele>708.7</ele><time>2011-04-25T07:07:10.0000000+00:00</time></trkpt><trkpt lat="22.264984" lon="103.693535"><ele>703.7</ele><time>2011-04-25T07:07:35.0000000+00:00</time></trkpt><trkpt lat="22.264307" lon="103.694443"><ele>698.9</ele><time>2011-04-25T07:08:05.0000000+00:00</time></trkpt><trkpt lat="22.264248" lon="103.694962"><ele>692.6</ele><time>2011-04-25T07:08:25.0000000+00:00</time></trkpt><trkpt lat="22.264715" lon="103.695793"><ele>704.1</ele><time>2011-04-25T07:09:00.0000000+00:00</time></trkpt><trkpt lat="22.264721" lon="103.696342"><ele>705.2</ele><time>2011-04-25T07:09:20.0000000+00:00</time></trkpt><trkpt lat="22.265003" lon="103.697014"><ele>722.3</ele><time>2011-04-25T07:09:50.0000000+00:00</time></trkpt><trkpt lat="22.264523" lon="103.69754"><ele>722.0</ele><time>2011-04-25T07:10:20.0000000+00:00</time></trkpt><trkpt lat="22.264044" lon="103.698425"><ele>733.8</ele><time>2011-04-25T07:11:00.0000000+00:00</time></trkpt><trkpt lat="22.263458" lon="103.698708"><ele>732.1</ele><time>2011-04-25T07:11:25.0000000+00:00</time></trkpt><trkpt lat="22.263021" lon="103.699257"><ele>739.3</ele><time>2011-04-25T07:11:50.0000000+00:00</time></trkpt><trkpt lat="22.262379" lon="103.699287"><ele>740.6</ele><time>2011-04-25T07:12:15.0000000+00:00</time></trkpt><trkpt lat="22.262096" lon="103.699493"><ele>727.7</ele><time>2011-04-25T07:13:15.0000000+00:00</time></trkpt><trkpt lat="22.262705" lon="103.70031"><ele>731.8</ele><time>2011-04-25T07:17:40.0000000+00:00</time></trkpt><trkpt lat="22.262691" lon="103.701599"><ele>733.1</ele><time>2011-04-25T07:18:10.0000000+00:00</time></trkpt><trkpt lat="22.262493" lon="103.702171"><ele>736.7</ele><time>2011-04-25T07:21:15.0000000+00:00</time></trkpt><trkpt lat="22.261988" lon="103.702446"><ele>747.2</ele><time>2011-04-25T07:21:25.0000000+00:00</time></trkpt><trkpt lat="22.260958" lon="103.701538"><ele>754.1</ele><time>2011-04-25T07:22:10.0000000+00:00</time></trkpt><trkpt lat="22.259954" lon="103.701912"><ele>752.3</ele><time>2011-04-25T07:22:50.0000000+00:00</time></trkpt><trkpt lat="22.259655" lon="103.702141"><ele>751.1</ele><time>2011-04-25T07:23:20.0000000+00:00</time></trkpt><trkpt lat="22.259352" lon="103.702728"><ele>759.1</ele><time>2011-04-25T07:26:10.0000000+00:00</time></trkpt><trkpt lat="22.258425" lon="103.703499"><ele>760.4</ele><time>2011-04-25T07:26:45.0000000+00:00</time></trkpt><trkpt lat="22.258204" lon="103.7052"><ele>748.1</ele><time>2011-04-25T07:27:05.0000000+00:00</time></trkpt><trkpt lat="22.257784" lon="103.705559"><ele>748.6</ele><time>2011-04-25T07:27:10.0000000+00:00</time></trkpt><trkpt lat="22.256828" lon="103.705803"><ele>748.2</ele><time>2011-04-25T07:27:20.0000000+00:00</time></trkpt><trkpt lat="22.255526" lon="103.705612"><ele>737.4</ele><time>2011-04-25T07:27:35.0000000+00:00</time></trkpt><trkpt lat="22.25514" lon="103.705856"><ele>733.3</ele><time>2011-04-25T07:27:40.0000000+00:00</time></trkpt><trkpt lat="22.25458" lon="103.706696"><ele>732.6</ele><time>2011-04-25T07:27:50.0000000+00:00</time></trkpt><trkpt lat="22.253628" lon="103.70755"><ele>724.3</ele><time>2011-04-25T07:28:05.0000000+00:00</time></trkpt><trkpt lat="22.253017" lon="103.708908"><ele>730.4</ele><time>2011-04-25T07:28:25.0000000+00:00</time></trkpt><trkpt lat="22.250519" lon="103.711014"><ele>705.7</ele><time>2011-04-25T07:29:00.0000000+00:00</time></trkpt><trkpt lat="22.250242" lon="103.711494"><ele>698.9</ele><time>2011-04-25T07:29:05.0000000+00:00</time></trkpt><trkpt lat="22.250206" lon="103.712082"><ele>699.3</ele><time>2011-04-25T07:29:10.0000000+00:00</time></trkpt><trkpt lat="22.249899" lon="103.712509"><ele>696.8</ele><time>2011-04-25T07:29:15.0000000+00:00</time></trkpt><trkpt lat="22.249403" lon="103.712852"><ele>689.3</ele><time>2011-04-25T07:29:20.0000000+00:00</time></trkpt><trkpt lat="22.247292" lon="103.715347"><ele>669.1</ele><time>2011-04-25T07:29:45.0000000+00:00</time></trkpt><trkpt lat="22.245756" lon="103.716248"><ele>655.0</ele><time>2011-04-25T07:30:00.0000000+00:00</time></trkpt><trkpt lat="22.244337" lon="103.718483"><ele>636.8</ele><time>2011-04-25T07:32:15.0000000+00:00</time></trkpt><trkpt lat="22.241863" lon="103.72036"><ele>614.0</ele><time>2011-04-25T07:32:40.0000000+00:00</time></trkpt><trkpt lat="22.241499" lon="103.721695"><ele>614.4</ele><time>2011-04-25T07:32:55.0000000+00:00</time></trkpt><trkpt lat="22.241207" lon="103.722"><ele>612.1</ele><time>2011-04-25T07:33:00.0000000+00:00</time></trkpt><trkpt lat="22.240763" lon="103.722229"><ele>612.8</ele><time>2011-04-25T07:33:05.0000000+00:00</time></trkpt><trkpt lat="22.23979" lon="103.722168"><ele>618.0</ele><time>2011-04-25T07:33:15.0000000+00:00</time></trkpt><trkpt lat="22.237226" lon="103.720924"><ele>609.7</ele><time>2011-04-25T07:33:45.0000000+00:00</time></trkpt><trkpt lat="22.235147" lon="103.720177"><ele>602.3</ele><time>2011-04-25T07:34:10.0000000+00:00</time></trkpt><trkpt lat="22.233824" lon="103.72068"><ele>590.3</ele><time>2011-04-25T07:34:25.0000000+00:00</time></trkpt><trkpt lat="22.231535" lon="103.720955"><ele>584.8</ele><time>2011-04-25T07:34:50.0000000+00:00</time></trkpt><trkpt lat="22.227825" lon="103.721695"><ele>580.1</ele><time>2011-04-25T07:35:40.0000000+00:00</time></trkpt><trkpt lat="22.227671" lon="103.722717"><ele>578.4</ele><time>2011-04-25T07:36:10.0000000+00:00</time></trkpt><trkpt lat="22.227041" lon="103.724045"><ele>582.9</ele><time>2011-04-25T07:36:55.0000000+00:00</time></trkpt><trkpt lat="22.227186" lon="103.727699"><ele>594.2</ele><time>2011-04-25T07:39:15.0000000+00:00</time></trkpt><trkpt lat="22.226498" lon="103.729691"><ele>607.7</ele><time>2011-04-25T07:40:35.0000000+00:00</time></trkpt><trkpt lat="22.22654" lon="103.730042"><ele>609.7</ele><time>2011-04-25T07:40:45.0000000+00:00</time></trkpt><trkpt lat="22.22616" lon="103.730476"><ele>610.2</ele><time>2011-04-25T07:41:10.0000000+00:00</time></trkpt><trkpt lat="22.225737" lon="103.731354"><ele>609.9</ele><time>2011-04-25T07:41:45.0000000+00:00</time></trkpt><trkpt lat="22.225517" lon="103.732643"><ele>610.6</ele><time>2011-04-25T07:47:05.0000000+00:00</time></trkpt><trkpt lat="22.223644" lon="103.735214"><ele>615.2</ele><time>2011-04-25T07:48:25.0000000+00:00</time></trkpt><trkpt lat="22.223475" lon="103.736679"><ele>619.8</ele><time>2011-04-25T07:49:05.0000000+00:00</time></trkpt><trkpt lat="22.221529" lon="103.739578"><ele>628.7</ele><time>2011-04-25T07:51:10.0000000+00:00</time></trkpt><trkpt lat="22.220758" lon="103.741714"><ele>636.1</ele><time>2011-04-25T07:52:35.0000000+00:00</time></trkpt><trkpt lat="22.217607" lon="103.742188"><ele>640.3</ele><time>2011-04-25T07:53:45.0000000+00:00</time></trkpt><trkpt lat="22.216602" lon="103.741661"><ele>645.6</ele><time>2011-04-25T07:54:05.0000000+00:00</time></trkpt><trkpt lat="22.215635" lon="103.74147"><ele>646.2</ele><time>2011-04-25T07:54:30.0000000+00:00</time></trkpt><trkpt lat="22.214855" lon="103.741684"><ele>643.6</ele><time>2011-04-25T07:54:50.0000000+00:00</time></trkpt><trkpt lat="22.213991" lon="103.74221"><ele>641.7</ele><time>2011-04-25T07:55:05.0000000+00:00</time></trkpt><trkpt lat="22.209179" lon="103.741943"><ele>635.2</ele><time>2011-04-25T07:56:40.0000000+00:00</time></trkpt><trkpt lat="22.207455" lon="103.742058"><ele>629.9</ele><time>2011-04-25T07:57:05.0000000+00:00</time></trkpt><trkpt lat="22.202049" lon="103.744064"><ele>620.5</ele><time>2011-04-25T07:58:25.0000000+00:00</time></trkpt><trkpt lat="22.199947" lon="103.744469"><ele>615.0</ele><time>2011-04-25T07:59:00.0000000+00:00</time></trkpt><trkpt lat="22.196304" lon="103.745758"><ele>595.7</ele><time>2011-04-25T08:00:10.0000000+00:00</time></trkpt><trkpt lat="22.195808" lon="103.745605"><ele>596.3</ele><time>2011-04-25T08:00:15.0000000+00:00</time></trkpt><trkpt lat="22.195024" lon="103.744949"><ele>588.5</ele><time>2011-04-25T08:00:25.0000000+00:00</time></trkpt><trkpt lat="22.194511" lon="103.744934"><ele>584.0</ele><time>2011-04-25T08:00:30.0000000+00:00</time></trkpt><trkpt lat="22.193975" lon="103.745125"><ele>581.0</ele><time>2011-04-25T08:00:35.0000000+00:00</time></trkpt><trkpt lat="22.192402" lon="103.746239"><ele>572.4</ele><time>2011-04-25T08:00:50.0000000+00:00</time></trkpt><trkpt lat="22.187244" lon="103.748337"><ele>566.4</ele><time>2011-04-25T08:01:55.0000000+00:00</time></trkpt><trkpt lat="22.185408" lon="103.748627"><ele>562.6</ele><time>2011-04-25T08:02:45.0000000+00:00</time></trkpt><trkpt lat="22.181711" lon="103.748398"><ele>567.4</ele><time>2011-04-25T08:04:05.0000000+00:00</time></trkpt><trkpt lat="22.181351" lon="103.748535"><ele>570.8</ele><time>2011-04-25T08:04:20.0000000+00:00</time></trkpt><trkpt lat="22.180223" lon="103.749481"><ele>573.5</ele><time>2011-04-25T08:05:15.0000000+00:00</time></trkpt><trkpt lat="22.178558" lon="103.750038"><ele>570.4</ele><time>2011-04-25T08:05:40.0000000+00:00</time></trkpt><trkpt lat="22.176388" lon="103.751335"><ele>569.3</ele><time>2011-04-25T08:06:25.0000000+00:00</time></trkpt><trkpt lat="22.175108" lon="103.752296"><ele>570.6</ele><time>2011-04-25T08:11:25.0000000+00:00</time></trkpt><trkpt lat="22.174463" lon="103.753128"><ele>573.0</ele><time>2011-04-25T08:14:05.0000000+00:00</time></trkpt><trkpt lat="22.173168" lon="103.754021"><ele>574.8</ele><time>2011-04-25T08:16:10.0000000+00:00</time></trkpt><trkpt lat="22.172905" lon="103.754311"><ele>575.6</ele><time>2011-04-25T08:16:25.0000000+00:00</time></trkpt><trkpt lat="22.173031" lon="103.754333"><ele>576.9</ele><time>2011-04-25T08:17:15.0000000+00:00</time></trkpt><trkpt lat="22.172586" lon="103.754532"><ele>576.0</ele><time>2011-04-25T08:17:40.0000000+00:00</time></trkpt><trkpt lat="22.170631" lon="103.756172"><ele>578.5</ele><time>2011-04-25T08:19:50.0000000+00:00</time></trkpt><trkpt lat="22.170298" lon="103.756744"><ele>580.3</ele><time>2011-04-25T08:20:20.0000000+00:00</time></trkpt><trkpt lat="22.170017" lon="103.75692"><ele>581.0</ele><time>2011-04-25T08:20:45.0000000+00:00</time></trkpt><trkpt lat="22.165928" lon="103.758232"><ele>584.7</ele><time>2011-04-25T08:25:55.0000000+00:00</time></trkpt><trkpt lat="22.163601" lon="103.759651"><ele>583.6</ele><time>2011-04-25T08:27:50.0000000+00:00</time></trkpt><trkpt lat="22.162552" lon="103.759972"><ele>582.0</ele><time>2011-04-25T08:28:15.0000000+00:00</time></trkpt><trkpt lat="22.161934" lon="103.760841"><ele>577.1</ele><time>2011-04-25T08:28:30.0000000+00:00</time></trkpt><trkpt lat="22.160944" lon="103.762825"><ele>579.6</ele><time>2011-04-25T08:29:00.0000000+00:00</time></trkpt><trkpt lat="22.160576" lon="103.763191"><ele>580.3</ele><time>2011-04-25T08:29:10.0000000+00:00</time></trkpt><trkpt lat="22.160015" lon="103.763237"><ele>577.2</ele><time>2011-04-25T08:29:20.0000000+00:00</time></trkpt><trkpt lat="22.158714" lon="103.762489"><ele>576.6</ele><time>2011-04-25T08:29:45.0000000+00:00</time></trkpt><trkpt lat="22.158133" lon="103.762604"><ele>575.7</ele><time>2011-04-25T08:29:55.0000000+00:00</time></trkpt><trkpt lat="22.157129" lon="103.763145"><ele>575.8</ele><time>2011-04-25T08:30:15.0000000+00:00</time></trkpt><trkpt lat="22.154657" lon="103.764946"><ele>586.2</ele><time>2011-04-25T08:31:45.0000000+00:00</time></trkpt><trkpt lat="22.154444" lon="103.765549"><ele>587.6</ele><time>2011-04-25T08:32:05.0000000+00:00</time></trkpt><trkpt lat="22.154383" lon="103.768829"><ele>599.7</ele><time>2011-04-25T08:33:55.0000000+00:00</time></trkpt><trkpt lat="22.154222" lon="103.769608"><ele>604.0</ele><time>2011-04-25T08:34:25.0000000+00:00</time></trkpt><trkpt lat="22.151651" lon="103.773659"><ele>616.1</ele><time>2011-04-25T08:36:50.0000000+00:00</time></trkpt><trkpt lat="22.147497" lon="103.776756"><ele>610.6</ele><time>2011-04-25T08:38:15.0000000+00:00</time></trkpt><trkpt lat="22.146887" lon="103.777473"><ele>620.2</ele><time>2011-04-25T08:38:35.0000000+00:00</time></trkpt><trkpt lat="22.146206" lon="103.777802"><ele>612.0</ele><time>2011-04-25T08:38:50.0000000+00:00</time></trkpt><trkpt lat="22.145512" lon="103.778816"><ele>611.4</ele><time>2011-04-25T08:39:10.0000000+00:00</time></trkpt><trkpt lat="22.144867" lon="103.779457"><ele>608.6</ele><time>2011-04-25T08:39:25.0000000+00:00</time></trkpt><trkpt lat="22.142878" lon="103.780037"><ele>613.3</ele><time>2011-04-25T08:40:10.0000000+00:00</time></trkpt><trkpt lat="22.142057" lon="103.780724"><ele>612.8</ele><time>2011-04-25T08:40:35.0000000+00:00</time></trkpt><trkpt lat="22.1401" lon="103.781654"><ele>617.4</ele><time>2011-04-25T08:41:40.0000000+00:00</time></trkpt><trkpt lat="22.138338" lon="103.783066"><ele>609.1</ele><time>2011-04-25T08:42:15.0000000+00:00</time></trkpt><trkpt lat="22.134996" lon="103.787117"><ele>603.3</ele><time>2011-04-25T08:52:00.0000000+00:00</time></trkpt><trkpt lat="22.133121" lon="103.788933"><ele>606.9</ele><time>2011-04-25T08:52:35.0000000+00:00</time></trkpt><trkpt lat="22.13184" lon="103.790413"><ele>609.9</ele><time>2011-04-25T08:53:10.0000000+00:00</time></trkpt><trkpt lat="22.129461" lon="103.791679"><ele>613.4</ele><time>2011-04-25T08:53:55.0000000+00:00</time></trkpt><trkpt lat="22.127062" lon="103.794693"><ele>615.6</ele><time>2011-04-25T08:55:00.0000000+00:00</time></trkpt><trkpt lat="22.125847" lon="103.796692"><ele>623.8</ele><time>2011-04-25T08:56:00.0000000+00:00</time></trkpt><trkpt lat="22.125111" lon="103.798851"><ele>625.2</ele><time>2011-04-25T08:56:50.0000000+00:00</time></trkpt><trkpt lat="22.124146" lon="103.799706"><ele>626.6</ele><time>2011-04-25T08:57:25.0000000+00:00</time></trkpt><trkpt lat="22.123966" lon="103.800316"><ele>625.1</ele><time>2011-04-25T08:57:40.0000000+00:00</time></trkpt><trkpt lat="22.124783" lon="103.801117"><ele>627.3</ele><time>2011-04-25T08:58:10.0000000+00:00</time></trkpt><trkpt lat="22.124977" lon="103.80172"><ele>633.0</ele><time>2011-04-25T08:58:35.0000000+00:00</time></trkpt><trkpt lat="22.124943" lon="103.802048"><ele>639.1</ele><time>2011-04-25T08:58:55.0000000+00:00</time></trkpt><trkpt lat="22.124523" lon="103.802628"><ele>641.5</ele><time>2011-04-25T08:59:45.0000000+00:00</time></trkpt><trkpt lat="22.124762" lon="103.803749"><ele>655.1</ele><time>2011-04-25T09:01:20.0000000+00:00</time></trkpt><trkpt lat="22.126291" lon="103.805191"><ele>672.2</ele><time>2011-04-25T09:06:55.0000000+00:00</time></trkpt><trkpt lat="22.126245" lon="103.805412"><ele>679.5</ele><time>2011-04-25T09:07:10.0000000+00:00</time></trkpt><trkpt lat="22.12537" lon="103.805588"><ele>675.5</ele><time>2011-04-25T09:08:15.0000000+00:00</time></trkpt><trkpt lat="22.125147" lon="103.805885"><ele>679.4</ele><time>2011-04-25T09:08:40.0000000+00:00</time></trkpt><trkpt lat="22.124861" lon="103.807068"><ele>684.9</ele><time>2011-04-25T09:09:40.0000000+00:00</time></trkpt><trkpt lat="22.124918" lon="103.807495"><ele>680.0</ele><time>2011-04-25T09:10:05.0000000+00:00</time></trkpt><trkpt lat="22.125277" lon="103.807953"><ele>685.4</ele><time>2011-04-25T09:10:45.0000000+00:00</time></trkpt><trkpt lat="22.125996" lon="103.808334"><ele>696.4</ele><time>2011-04-25T09:11:35.0000000+00:00</time></trkpt><trkpt lat="22.126272" lon="103.808952"><ele>700.0</ele><time>2011-04-25T09:12:10.0000000+00:00</time></trkpt><trkpt lat="22.126745" lon="103.809502"><ele>720.0</ele><time>2011-04-25T09:12:50.0000000+00:00</time></trkpt><trkpt lat="22.12664" lon="103.8097"><ele>734.6</ele><time>2011-04-25T09:13:00.0000000+00:00</time></trkpt><trkpt lat="22.126143" lon="103.809837"><ele>748.5</ele><time>2011-04-25T09:13:30.0000000+00:00</time></trkpt><trkpt lat="22.125544" lon="103.809647"><ele>739.0</ele><time>2011-04-25T09:14:05.0000000+00:00</time></trkpt><trkpt lat="22.125069" lon="103.809769"><ele>717.3</ele><time>2011-04-25T09:15:25.0000000+00:00</time></trkpt><trkpt lat="22.125128" lon="103.810188"><ele>717.8</ele><time>2011-04-25T09:16:00.0000000+00:00</time></trkpt><trkpt lat="22.125673" lon="103.811142"><ele>737.8</ele><time>2011-04-25T09:16:55.0000000+00:00</time></trkpt><trkpt lat="22.125544" lon="103.811508"><ele>754.2</ele><time>2011-04-25T09:17:10.0000000+00:00</time></trkpt><trkpt lat="22.123995" lon="103.811508"><ele>751.6</ele><time>2011-04-25T09:18:25.0000000+00:00</time></trkpt><trkpt lat="22.123394" lon="103.811897"><ele>741.1</ele><time>2011-04-25T09:18:55.0000000+00:00</time></trkpt><trkpt lat="22.123287" lon="103.812584"><ele>740.5</ele><time>2011-04-25T09:19:25.0000000+00:00</time></trkpt><trkpt lat="22.123737" lon="103.814087"><ele>760.3</ele><time>2011-04-25T09:21:05.0000000+00:00</time></trkpt><trkpt lat="22.123566" lon="103.814865"><ele>779.8</ele><time>2011-04-25T09:21:45.0000000+00:00</time></trkpt><trkpt lat="22.123138" lon="103.814194"><ele>772.7</ele><time>2011-04-25T09:22:25.0000000+00:00</time></trkpt><trkpt lat="22.122524" lon="103.814201"><ele>781.0</ele><time>2011-04-25T09:22:50.0000000+00:00</time></trkpt><trkpt lat="22.121626" lon="103.814941"><ele>790.8</ele><time>2011-04-25T09:23:40.0000000+00:00</time></trkpt><trkpt lat="22.120909" lon="103.814941"><ele>790.7</ele><time>2011-04-25T09:24:20.0000000+00:00</time></trkpt><trkpt lat="22.120543" lon="103.81514"><ele>787.2</ele><time>2011-04-25T09:24:45.0000000+00:00</time></trkpt><trkpt lat="22.119822" lon="103.816071"><ele>801.2</ele><time>2011-04-25T09:26:05.0000000+00:00</time></trkpt><trkpt lat="22.119032" lon="103.816307"><ele>801.6</ele><time>2011-04-25T09:27:00.0000000+00:00</time></trkpt><trkpt lat="22.118359" lon="103.817108"><ele>821.2</ele><time>2011-04-25T09:28:00.0000000+00:00</time></trkpt><trkpt lat="22.117428" lon="103.817444"><ele>817.4</ele><time>2011-04-25T09:29:00.0000000+00:00</time></trkpt><trkpt lat="22.117002" lon="103.817886"><ele>832.1</ele><time>2011-04-25T09:29:30.0000000+00:00</time></trkpt><trkpt lat="22.116463" lon="103.818069"><ele>824.3</ele><time>2011-04-25T09:30:00.0000000+00:00</time></trkpt><trkpt lat="22.1161" lon="103.818672"><ele>830.2</ele><time>2011-04-25T09:30:35.0000000+00:00</time></trkpt><trkpt lat="22.115669" lon="103.819008"><ele>832.7</ele><time>2011-04-25T09:31:00.0000000+00:00</time></trkpt><trkpt lat="22.114786" lon="103.818954"><ele>832.6</ele><time>2011-04-25T09:57:20.0000000+00:00</time></trkpt><trkpt lat="22.113337" lon="103.82"><ele>816.2</ele><time>2011-04-25T09:57:45.0000000+00:00</time></trkpt><trkpt lat="22.111082" lon="103.820526"><ele>794.6</ele><time>2011-04-25T09:58:05.0000000+00:00</time></trkpt><trkpt lat="22.111132" lon="103.820885"><ele>794.4</ele><time>2011-04-25T09:58:10.0000000+00:00</time></trkpt><trkpt lat="22.111929" lon="103.82148"><ele>786.5</ele><time>2011-04-25T09:58:20.0000000+00:00</time></trkpt><trkpt lat="22.111996" lon="103.821907"><ele>786.9</ele><time>2011-04-25T09:58:25.0000000+00:00</time></trkpt><trkpt lat="22.111252" lon="103.822479"><ele>779.5</ele><time>2011-04-25T09:58:35.0000000+00:00</time></trkpt><trkpt lat="22.108669" lon="103.822739"><ele>764.3</ele><time>2011-04-25T09:59:05.0000000+00:00</time></trkpt><trkpt lat="22.107307" lon="103.823227"><ele>750.7</ele><time>2011-04-25T09:59:20.0000000+00:00</time></trkpt><trkpt lat="22.105518" lon="103.823532"><ele>725.5</ele><time>2011-04-25T09:59:35.0000000+00:00</time></trkpt><trkpt lat="22.105179" lon="103.823982"><ele>721.3</ele><time>2011-04-25T09:59:40.0000000+00:00</time></trkpt><trkpt lat="22.105518" lon="103.82505"><ele>716.6</ele><time>2011-04-25T09:59:50.0000000+00:00</time></trkpt><trkpt lat="22.105339" lon="103.825279"><ele>714.7</ele><time>2011-04-25T09:59:55.0000000+00:00</time></trkpt><trkpt lat="22.103899" lon="103.824928"><ele>702.3</ele><time>2011-04-25T10:00:10.0000000+00:00</time></trkpt><trkpt lat="22.103239" lon="103.825043"><ele>699.3</ele><time>2011-04-25T10:19:15.0000000+00:00</time></trkpt><trkpt lat="22.101801" lon="103.826347"><ele>681.7</ele><time>2011-04-25T10:19:35.0000000+00:00</time></trkpt><trkpt lat="22.096033" lon="103.834236"><ele>660.1</ele><time>2011-04-25T10:21:35.0000000+00:00</time></trkpt><trkpt lat="22.095192" lon="103.834785"><ele>659.3</ele><time>2011-04-25T10:21:45.0000000+00:00</time></trkpt><trkpt lat="22.094257" lon="103.834999"><ele>654.5</ele><time>2011-04-25T10:21:55.0000000+00:00</time></trkpt><trkpt lat="22.093779" lon="103.835274"><ele>650.0</ele><time>2011-04-25T10:22:00.0000000+00:00</time></trkpt><trkpt lat="22.092756" lon="103.83532"><ele>651.7</ele><time>2011-04-25T10:22:15.0000000+00:00</time></trkpt><trkpt lat="22.092142" lon="103.835632"><ele>647.0</ele><time>2011-04-25T10:22:25.0000000+00:00</time></trkpt><trkpt lat="22.091824" lon="103.836334"><ele>641.2</ele><time>2011-04-25T10:22:35.0000000+00:00</time></trkpt><trkpt lat="22.091627" lon="103.83844"><ele>638.5</ele><time>2011-04-25T10:23:00.0000000+00:00</time></trkpt><trkpt lat="22.091326" lon="103.838722"><ele>639.5</ele><time>2011-04-25T10:23:05.0000000+00:00</time></trkpt><trkpt lat="22.090965" lon="103.838814"><ele>639.1</ele><time>2011-04-25T10:23:10.0000000+00:00</time></trkpt><trkpt lat="22.089994" lon="103.838524"><ele>632.5</ele><time>2011-04-25T10:23:20.0000000+00:00</time></trkpt><trkpt lat="22.08918" lon="103.839622"><ele>633.7</ele><time>2011-04-25T10:23:35.0000000+00:00</time></trkpt><trkpt lat="22.088354" lon="103.839615"><ele>631.6</ele><time>2011-04-25T10:23:45.0000000+00:00</time></trkpt><trkpt lat="22.088081" lon="103.839851"><ele>624.8</ele><time>2011-04-25T10:23:50.0000000+00:00</time></trkpt><trkpt lat="22.087654" lon="103.840637"><ele>623.9</ele><time>2011-04-25T10:24:00.0000000+00:00</time></trkpt><trkpt lat="22.086811" lon="103.841545"><ele>622.6</ele><time>2011-04-25T10:24:15.0000000+00:00</time></trkpt><trkpt lat="22.086145" lon="103.841553"><ele>627.2</ele><time>2011-04-25T10:24:25.0000000+00:00</time></trkpt><trkpt lat="22.085585" lon="103.841293"><ele>625.3</ele><time>2011-04-25T10:24:35.0000000+00:00</time></trkpt><trkpt lat="22.084717" lon="103.841515"><ele>620.8</ele><time>2011-04-25T10:24:50.0000000+00:00</time></trkpt><trkpt lat="22.084007" lon="103.84198"><ele>617.6</ele><time>2011-04-25T10:25:00.0000000+00:00</time></trkpt><trkpt lat="22.082737" lon="103.8423"><ele>606.0</ele><time>2011-04-25T10:25:15.0000000+00:00</time></trkpt><trkpt lat="22.082094" lon="103.842865"><ele>612.9</ele><time>2011-04-25T10:25:25.0000000+00:00</time></trkpt><trkpt lat="22.079826" lon="103.844246"><ele>613.0</ele><time>2011-04-25T10:26:20.0000000+00:00</time></trkpt><trkpt lat="22.078751" lon="103.845108"><ele>603.8</ele><time>2011-04-25T10:26:40.0000000+00:00</time></trkpt><trkpt lat="22.078186" lon="103.845955"><ele>595.6</ele><time>2011-04-25T10:26:55.0000000+00:00</time></trkpt><trkpt lat="22.078764" lon="103.84713"><ele>592.0</ele><time>2011-04-25T10:27:15.0000000+00:00</time></trkpt><trkpt lat="22.078732" lon="103.847496"><ele>592.4</ele><time>2011-04-25T10:27:20.0000000+00:00</time></trkpt><trkpt lat="22.078157" lon="103.848656"><ele>604.0</ele><time>2011-04-25T10:27:40.0000000+00:00</time></trkpt><trkpt lat="22.077654" lon="103.848663"><ele>610.0</ele><time>2011-04-25T10:27:50.0000000+00:00</time></trkpt><trkpt lat="22.077091" lon="103.848114"><ele>609.0</ele><time>2011-04-25T10:28:05.0000000+00:00</time></trkpt><trkpt lat="22.076342" lon="103.847679"><ele>600.9</ele><time>2011-04-25T10:28:20.0000000+00:00</time></trkpt><trkpt lat="22.075876" lon="103.84771"><ele>599.4</ele><time>2011-04-25T10:28:30.0000000+00:00</time></trkpt><trkpt lat="22.075453" lon="103.84816"><ele>597.4</ele><time>2011-04-25T10:28:40.0000000+00:00</time></trkpt><trkpt lat="22.075367" lon="103.848938"><ele>592.7</ele><time>2011-04-25T10:28:50.0000000+00:00</time></trkpt><trkpt lat="22.075159" lon="103.849319"><ele>595.0</ele><time>2011-04-25T10:28:55.0000000+00:00</time></trkpt><trkpt lat="22.074047" lon="103.850243"><ele>582.4</ele><time>2011-04-25T10:29:25.0000000+00:00</time></trkpt><trkpt lat="22.073532" lon="103.851486"><ele>578.3</ele><time>2011-04-25T10:35:20.0000000+00:00</time></trkpt><trkpt lat="22.072594" lon="103.852501"><ele>584.7</ele><time>2011-04-25T10:36:25.0000000+00:00</time></trkpt><trkpt lat="22.073488" lon="103.851639"><ele>576.8</ele><time>2011-04-25T10:37:00.0000000+00:00</time></trkpt><trkpt lat="22.073776" lon="103.851006"><ele>581.6</ele><time>2011-04-25T10:38:35.0000000+00:00</time></trkpt><trkpt lat="22.073318" lon="103.851746"><ele>574.2</ele><time>2011-04-25T10:39:40.0000000+00:00</time></trkpt><trkpt lat="22.072243" lon="103.852745"><ele>584.0</ele><time>2011-04-25T10:40:30.0000000+00:00</time></trkpt><trkpt lat="22.072639" lon="103.852676"><ele>595.4</ele><time>2011-04-25T10:43:05.0000000+00:00</time></trkpt><trkpt lat="22.071619" lon="103.853065"><ele>578.8</ele><time>2011-04-25T10:44:55.0000000+00:00</time></trkpt><trkpt lat="22.072779" lon="103.852524"><ele>590.0</ele><time>2011-04-25T10:45:45.0000000+00:00</time></trkpt><trkpt lat="22.07089" lon="103.853424"><ele>573.7</ele><time>2011-04-25T10:48:40.0000000+00:00</time></trkpt><trkpt lat="22.069902" lon="103.854454"><ele>565.1</ele><time>2011-04-25T10:48:55.0000000+00:00</time></trkpt><trkpt lat="22.069616" lon="103.854851"><ele>563.2</ele><time>2011-04-25T10:49:00.0000000+00:00</time></trkpt><trkpt lat="22.068806" lon="103.856827"><ele>572.7</ele><time>2011-04-25T10:49:25.0000000+00:00</time></trkpt><trkpt lat="22.068094" lon="103.857201"><ele>563.6</ele><time>2011-04-25T10:52:00.0000000+00:00</time></trkpt><trkpt lat="22.067507" lon="103.858192"><ele>576.1</ele><time>2011-04-25T10:52:25.0000000+00:00</time></trkpt><trkpt lat="22.066919" lon="103.858444"><ele>570.2</ele><time>2011-04-25T10:52:55.0000000+00:00</time></trkpt><trkpt lat="22.066713" lon="103.859093"><ele>584.5</ele><time>2011-04-25T10:54:05.0000000+00:00</time></trkpt><trkpt lat="22.066282" lon="103.859436"><ele>577.8</ele><time>2011-04-25T10:54:40.0000000+00:00</time></trkpt><trkpt lat="22.066139" lon="103.859962"><ele>594.0</ele><time>2011-04-25T10:55:15.0000000+00:00</time></trkpt><trkpt lat="22.065729" lon="103.86026"><ele>588.6</ele><time>2011-04-25T10:55:50.0000000+00:00</time></trkpt><trkpt lat="22.064682" lon="103.862259"><ele>608.6</ele><time>2011-04-25T10:58:30.0000000+00:00</time></trkpt><trkpt lat="22.064703" lon="103.862564"><ele>614.6</ele><time>2011-04-25T10:58:55.0000000+00:00</time></trkpt><trkpt lat="22.064837" lon="103.862579"><ele>611.0</ele><time>2011-04-25T10:59:35.0000000+00:00</time></trkpt><trkpt lat="22.065067" lon="103.863052"><ele>593.9</ele><time>2011-04-25T11:00:00.0000000+00:00</time></trkpt><trkpt lat="22.065611" lon="103.863251"><ele>597.1</ele><time>2011-04-25T11:00:10.0000000+00:00</time></trkpt><trkpt lat="22.066212" lon="103.863777"><ele>596.6</ele><time>2011-04-25T11:00:20.0000000+00:00</time></trkpt><trkpt lat="22.06612" lon="103.864624"><ele>602.6</ele><time>2011-04-25T11:00:35.0000000+00:00</time></trkpt><trkpt lat="22.066753" lon="103.866608"><ele>585.9</ele><time>2011-04-25T11:01:10.0000000+00:00</time></trkpt><trkpt lat="22.066795" lon="103.867149"><ele>587.2</ele><time>2011-04-25T11:01:15.0000000+00:00</time></trkpt><trkpt lat="22.066319" lon="103.869034"><ele>589.4</ele><time>2011-04-25T11:02:10.0000000+00:00</time></trkpt><trkpt lat="22.064899" lon="103.871155"><ele>593.2</ele><time>2011-04-25T11:03:15.0000000+00:00</time></trkpt><trkpt lat="22.065161" lon="103.87262"><ele>596.4</ele><time>2011-04-25T11:05:15.0000000+00:00</time></trkpt><trkpt lat="22.065081" lon="103.871857"><ele>594.6</ele><time>2011-04-25T11:11:50.0000000+00:00</time></trkpt><trkpt lat="22.065474" lon="103.871864"><ele>596.5</ele><time>2011-04-25T11:13:25.0000000+00:00</time></trkpt><trkpt lat="22.065779" lon="103.872421"><ele>599.3</ele><time>2011-04-25T11:15:10.0000000+00:00</time></trkpt><trkpt lat="22.06579" lon="103.872726"><ele>599.5</ele><time>2011-04-25T11:15:50.0000000+00:00</time></trkpt></trkseg><trkseg><trkpt lat="22.065081" lon="103.872223"><ele>595.3</ele><time>2011-04-26T01:27:05.0000000+00:00</time></trkpt><trkpt lat="22.065193" lon="103.872681"><ele>596.3</ele><time>2011-04-26T01:40:00.0000000+00:00</time></trkpt><trkpt lat="22.065157" lon="103.873962"><ele>606.3</ele><time>2011-04-26T01:40:40.0000000+00:00</time></trkpt><trkpt lat="22.065859" lon="103.874832"><ele>612.9</ele><time>2011-04-26T01:41:15.0000000+00:00</time></trkpt><trkpt lat="22.065544" lon="103.877586"><ele>626.4</ele><time>2011-04-26T01:43:05.0000000+00:00</time></trkpt><trkpt lat="22.066174" lon="103.886406"><ele>680.1</ele><time>2011-04-26T01:51:30.0000000+00:00</time></trkpt><trkpt lat="22.066654" lon="103.887917"><ele>682.2</ele><time>2011-04-26T01:52:30.0000000+00:00</time></trkpt><trkpt lat="22.066399" lon="103.888878"><ele>693.2</ele><time>2011-04-26T01:53:35.0000000+00:00</time></trkpt><trkpt lat="22.066536" lon="103.891312"><ele>705.9</ele><time>2011-04-26T01:58:25.0000000+00:00</time></trkpt><trkpt lat="22.066372" lon="103.892136"><ele>707.6</ele><time>2011-04-26T01:59:15.0000000+00:00</time></trkpt><trkpt lat="22.065985" lon="103.892807"><ele>708.6</ele><time>2011-04-26T01:59:35.0000000+00:00</time></trkpt><trkpt lat="22.063309" lon="103.895889"><ele>724.7</ele><time>2011-04-26T02:04:10.0000000+00:00</time></trkpt><trkpt lat="22.059763" lon="103.897949"><ele>716.4</ele><time>2011-04-26T02:06:05.0000000+00:00</time></trkpt><trkpt lat="22.059536" lon="103.898567"><ele>714.8</ele><time>2011-04-26T02:06:15.0000000+00:00</time></trkpt><trkpt lat="22.05954" lon="103.89949"><ele>716.7</ele><time>2011-04-26T02:06:35.0000000+00:00</time></trkpt><trkpt lat="22.059341" lon="103.899879"><ele>719.2</ele><time>2011-04-26T02:06:45.0000000+00:00</time></trkpt><trkpt lat="22.058613" lon="103.900215"><ele>718.2</ele><time>2011-04-26T02:07:00.0000000+00:00</time></trkpt><trkpt lat="22.057434" lon="103.899963"><ele>717.5</ele><time>2011-04-26T02:07:20.0000000+00:00</time></trkpt><trkpt lat="22.056889" lon="103.900032"><ele>716.0</ele><time>2011-04-26T02:07:30.0000000+00:00</time></trkpt><trkpt lat="22.056589" lon="103.900253"><ele>713.1</ele><time>2011-04-26T02:07:35.0000000+00:00</time></trkpt><trkpt lat="22.055519" lon="103.901657"><ele>698.0</ele><time>2011-04-26T02:07:50.0000000+00:00</time></trkpt><trkpt lat="22.054552" lon="103.903831"><ele>684.9</ele><time>2011-04-26T02:08:10.0000000+00:00</time></trkpt><trkpt lat="22.054203" lon="103.904182"><ele>682.9</ele><time>2011-04-26T02:08:15.0000000+00:00</time></trkpt><trkpt lat="22.053347" lon="103.904419"><ele>676.7</ele><time>2011-04-26T02:08:25.0000000+00:00</time></trkpt><trkpt lat="22.052711" lon="103.905106"><ele>669.2</ele><time>2011-04-26T02:08:35.0000000+00:00</time></trkpt><trkpt lat="22.052319" lon="103.906006"><ele>665.4</ele><time>2011-04-26T02:08:45.0000000+00:00</time></trkpt><trkpt lat="22.052179" lon="103.907028"><ele>663.3</ele><time>2011-04-26T02:08:55.0000000+00:00</time></trkpt><trkpt lat="22.050606" lon="103.909195"><ele>664.5</ele><time>2011-04-26T02:09:35.0000000+00:00</time></trkpt><trkpt lat="22.048147" lon="103.910301"><ele>645.2</ele><time>2011-04-26T02:10:20.0000000+00:00</time></trkpt><trkpt lat="22.046751" lon="103.911385"><ele>630.9</ele><time>2011-04-26T02:10:35.0000000+00:00</time></trkpt><trkpt lat="22.043367" lon="103.914566"><ele>614.8</ele><time>2011-04-26T02:11:15.0000000+00:00</time></trkpt><trkpt lat="22.036947" lon="103.916527"><ele>593.5</ele><time>2011-04-26T02:12:30.0000000+00:00</time></trkpt><trkpt lat="22.036413" lon="103.916443"><ele>592.8</ele><time>2011-04-26T02:12:40.0000000+00:00</time></trkpt><trkpt lat="22.031965" lon="103.914787"><ele>584.8</ele><time>2011-04-26T02:14:25.0000000+00:00</time></trkpt><trkpt lat="22.030701" lon="103.913635"><ele>577.3</ele><time>2011-04-26T02:15:00.0000000+00:00</time></trkpt><trkpt lat="22.030319" lon="103.913445"><ele>575.4</ele><time>2011-04-26T02:15:05.0000000+00:00</time></trkpt><trkpt lat="22.029329" lon="103.913338"><ele>570.0</ele><time>2011-04-26T02:15:15.0000000+00:00</time></trkpt><trkpt lat="22.028763" lon="103.913399"><ele>567.3</ele><time>2011-04-26T02:15:20.0000000+00:00</time></trkpt><trkpt lat="22.026163" lon="103.914833"><ele>563.0</ele><time>2011-04-26T02:15:50.0000000+00:00</time></trkpt><trkpt lat="22.025349" lon="103.914749"><ele>561.0</ele><time>2011-04-26T02:16:00.0000000+00:00</time></trkpt><trkpt lat="22.023769" lon="103.914223"><ele>554.2</ele><time>2011-04-26T02:16:20.0000000+00:00</time></trkpt><trkpt lat="22.022949" lon="103.914406"><ele>553.8</ele><time>2011-04-26T02:16:30.0000000+00:00</time></trkpt><trkpt lat="22.021696" lon="103.915054"><ele>559.5</ele><time>2011-04-26T02:16:50.0000000+00:00</time></trkpt><trkpt lat="22.020351" lon="103.915001"><ele>560.6</ele><time>2011-04-26T02:17:25.0000000+00:00</time></trkpt><trkpt lat="22.017134" lon="103.914505"><ele>563.3</ele><time>2011-04-26T02:18:45.0000000+00:00</time></trkpt><trkpt lat="22.016788" lon="103.914528"><ele>564.2</ele><time>2011-04-26T02:18:55.0000000+00:00</time></trkpt><trkpt lat="22.01639" lon="103.914948"><ele>564.2</ele><time>2011-04-26T02:19:20.0000000+00:00</time></trkpt><trkpt lat="22.016178" lon="103.917053"><ele>570.1</ele><time>2011-04-26T02:20:45.0000000+00:00</time></trkpt><trkpt lat="22.016689" lon="103.919861"><ele>580.8</ele><time>2011-04-26T02:22:55.0000000+00:00</time></trkpt><trkpt lat="22.01697" lon="103.920525"><ele>583.1</ele><time>2011-04-26T02:23:35.0000000+00:00</time></trkpt><trkpt lat="22.018038" lon="103.9216"><ele>587.4</ele><time>2011-04-26T02:25:10.0000000+00:00</time></trkpt><trkpt lat="22.018438" lon="103.922997"><ele>594.0</ele><time>2011-04-26T02:26:40.0000000+00:00</time></trkpt><trkpt lat="22.019817" lon="103.92572"><ele>602.7</ele><time>2011-04-26T02:33:45.0000000+00:00</time></trkpt><trkpt lat="22.020163" lon="103.92675"><ele>611.9</ele><time>2011-04-26T02:34:40.0000000+00:00</time></trkpt><trkpt lat="22.021456" lon="103.928802"><ele>624.4</ele><time>2011-04-26T02:36:40.0000000+00:00</time></trkpt><trkpt lat="22.022148" lon="103.932762"><ele>645.1</ele><time>2011-04-26T02:41:50.0000000+00:00</time></trkpt><trkpt lat="22.022423" lon="103.933334"><ele>645.8</ele><time>2011-04-26T02:42:15.0000000+00:00</time></trkpt><trkpt lat="22.023064" lon="103.933815"><ele>656.0</ele><time>2011-04-26T02:42:55.0000000+00:00</time></trkpt><trkpt lat="22.024199" lon="103.933105"><ele>656.5</ele><time>2011-04-26T02:43:45.0000000+00:00</time></trkpt><trkpt lat="22.024574" lon="103.933037"><ele>659.8</ele><time>2011-04-26T02:44:00.0000000+00:00</time></trkpt><trkpt lat="22.025223" lon="103.933296"><ele>661.6</ele><time>2011-04-26T02:44:35.0000000+00:00</time></trkpt><trkpt lat="22.02614" lon="103.934273"><ele>664.7</ele><time>2011-04-26T02:45:35.0000000+00:00</time></trkpt><trkpt lat="22.027538" lon="103.934265"><ele>678.9</ele><time>2011-04-26T02:47:10.0000000+00:00</time></trkpt><trkpt lat="22.027782" lon="103.935112"><ele>684.1</ele><time>2011-04-26T02:50:45.0000000+00:00</time></trkpt><trkpt lat="22.027958" lon="103.935257"><ele>685.0</ele><time>2011-04-26T02:50:55.0000000+00:00</time></trkpt><trkpt lat="22.029629" lon="103.934959"><ele>686.9</ele><time>2011-04-26T02:52:10.0000000+00:00</time></trkpt><trkpt lat="22.030018" lon="103.935089"><ele>688.6</ele><time>2011-04-26T02:52:25.0000000+00:00</time></trkpt><trkpt lat="22.030531" lon="103.936501"><ele>705.4</ele><time>2011-04-26T02:53:45.0000000+00:00</time></trkpt><trkpt lat="22.031578" lon="103.937088"><ele>710.0</ele><time>2011-04-26T02:54:55.0000000+00:00</time></trkpt><trkpt lat="22.031569" lon="103.938354"><ele>715.6</ele><time>2011-04-26T02:56:05.0000000+00:00</time></trkpt><trkpt lat="22.031189" lon="103.939468"><ele>733.5</ele><time>2011-04-26T02:57:10.0000000+00:00</time></trkpt><trkpt lat="22.031292" lon="103.939735"><ele>728.5</ele><time>2011-04-26T02:57:35.0000000+00:00</time></trkpt><trkpt lat="22.031221" lon="103.939674"><ele>732.6</ele><time>2011-04-26T02:58:35.0000000+00:00</time></trkpt><trkpt lat="22.031389" lon="103.939621"><ele>723.8</ele><time>2011-04-26T02:59:00.0000000+00:00</time></trkpt><trkpt lat="22.031315" lon="103.939682"><ele>727.3</ele><time>2011-04-26T02:59:25.0000000+00:00</time></trkpt><trkpt lat="22.031731" lon="103.939743"><ele>727.6</ele><time>2011-04-26T03:00:15.0000000+00:00</time></trkpt><trkpt lat="22.031164" lon="103.93985"><ele>738.3</ele><time>2011-04-26T03:01:15.0000000+00:00</time></trkpt><trkpt lat="22.031517" lon="103.939873"><ele>720.3</ele><time>2011-04-26T03:01:40.0000000+00:00</time></trkpt><trkpt lat="22.032562" lon="103.9394"><ele>740.7</ele><time>2011-04-26T03:02:35.0000000+00:00</time></trkpt><trkpt lat="22.033655" lon="103.939873"><ele>733.0</ele><time>2011-04-26T03:03:30.0000000+00:00</time></trkpt><trkpt lat="22.033873" lon="103.939667"><ele>732.8</ele><time>2011-04-26T03:03:50.0000000+00:00</time></trkpt><trkpt lat="22.033983" lon="103.939102"><ele>737.7</ele><time>2011-04-26T03:04:25.0000000+00:00</time></trkpt><trkpt lat="22.03492" lon="103.939262"><ele>761.9</ele><time>2011-04-26T03:05:25.0000000+00:00</time></trkpt><trkpt lat="22.035887" lon="103.939026"><ele>764.4</ele><time>2011-04-26T03:06:45.0000000+00:00</time></trkpt><trkpt lat="22.036964" lon="103.939194"><ele>776.6</ele><time>2011-04-26T03:08:45.0000000+00:00</time></trkpt><trkpt lat="22.03726" lon="103.940674"><ele>790.4</ele><time>2011-04-26T03:10:25.0000000+00:00</time></trkpt><trkpt lat="22.037985" lon="103.94136"><ele>794.8</ele><time>2011-04-26T03:11:40.0000000+00:00</time></trkpt><trkpt lat="22.037956" lon="103.941895"><ele>799.6</ele><time>2011-04-26T03:12:25.0000000+00:00</time></trkpt><trkpt lat="22.0383" lon="103.942535"><ele>811.5</ele><time>2011-04-26T03:13:10.0000000+00:00</time></trkpt><trkpt lat="22.038231" lon="103.94323"><ele>823.1</ele><time>2011-04-26T03:14:00.0000000+00:00</time></trkpt><trkpt lat="22.03834" lon="103.943756"><ele>809.8</ele><time>2011-04-26T03:14:40.0000000+00:00</time></trkpt><trkpt lat="22.037477" lon="103.944771"><ele>839.5</ele><time>2011-04-26T03:17:45.0000000+00:00</time></trkpt><trkpt lat="22.03727" lon="103.945969"><ele>834.3</ele><time>2011-04-26T03:18:55.0000000+00:00</time></trkpt><trkpt lat="22.036287" lon="103.947273"><ele>859.4</ele><time>2011-04-26T03:20:25.0000000+00:00</time></trkpt><trkpt lat="22.036234" lon="103.947571"><ele>848.7</ele><time>2011-04-26T03:20:45.0000000+00:00</time></trkpt><trkpt lat="22.036371" lon="103.947845"><ele>853.2</ele><time>2011-04-26T03:21:20.0000000+00:00</time></trkpt><trkpt lat="22.036551" lon="103.947876"><ele>853.2</ele><time>2011-04-26T03:23:45.0000000+00:00</time></trkpt><trkpt lat="22.036619" lon="103.947563"><ele>839.9</ele><time>2011-04-26T03:32:50.0000000+00:00</time></trkpt><trkpt lat="22.036503" lon="103.947891"><ele>854.3</ele><time>2011-04-26T03:35:00.0000000+00:00</time></trkpt><trkpt lat="22.037399" lon="103.948265"><ele>872.3</ele><time>2011-04-26T03:36:10.0000000+00:00</time></trkpt><trkpt lat="22.038513" lon="103.94796"><ele>877.6</ele><time>2011-04-26T03:37:10.0000000+00:00</time></trkpt><trkpt lat="22.039278" lon="103.947136"><ele>869.5</ele><time>2011-04-26T03:38:10.0000000+00:00</time></trkpt><trkpt lat="22.03957" lon="103.947113"><ele>877.0</ele><time>2011-04-26T03:38:30.0000000+00:00</time></trkpt><trkpt lat="22.040102" lon="103.948639"><ele>902.9</ele><time>2011-04-26T03:40:25.0000000+00:00</time></trkpt><trkpt lat="22.039959" lon="103.94902"><ele>891.5</ele><time>2011-04-26T03:40:50.0000000+00:00</time></trkpt><trkpt lat="22.039442" lon="103.949226"><ele>921.0</ele><time>2011-04-26T03:41:25.0000000+00:00</time></trkpt><trkpt lat="22.039324" lon="103.949661"><ele>944.7</ele><time>2011-04-26T03:41:50.0000000+00:00</time></trkpt><trkpt lat="22.039663" lon="103.95076"><ele>928.9</ele><time>2011-04-26T03:43:05.0000000+00:00</time></trkpt><trkpt lat="22.039642" lon="103.951973"><ele>947.9</ele><time>2011-04-26T03:44:30.0000000+00:00</time></trkpt><trkpt lat="22.040026" lon="103.952461"><ele>965.6</ele><time>2011-04-26T03:45:05.0000000+00:00</time></trkpt><trkpt lat="22.040474" lon="103.952682"><ele>949.9</ele><time>2011-04-26T03:45:30.0000000+00:00</time></trkpt><trkpt lat="22.040535" lon="103.953194"><ele>981.4</ele><time>2011-04-26T03:46:05.0000000+00:00</time></trkpt><trkpt lat="22.041075" lon="103.953949"><ele>1001.3</ele><time>2011-04-26T03:47:00.0000000+00:00</time></trkpt><trkpt lat="22.042112" lon="103.954361"><ele>987.9</ele><time>2011-04-26T03:48:15.0000000+00:00</time></trkpt><trkpt lat="22.042599" lon="103.954315"><ele>964.1</ele><time>2011-04-26T03:48:55.0000000+00:00</time></trkpt><trkpt lat="22.042662" lon="103.95504"><ele>994.8</ele><time>2011-04-26T03:50:45.0000000+00:00</time></trkpt><trkpt lat="22.042789" lon="103.95504"><ele>984.6</ele><time>2011-04-26T03:51:00.0000000+00:00</time></trkpt><trkpt lat="22.04285" lon="103.95533"><ele>993.5</ele><time>2011-04-26T03:51:30.0000000+00:00</time></trkpt><trkpt lat="22.044073" lon="103.955772"><ele>1016.2</ele><time>2011-04-26T03:53:05.0000000+00:00</time></trkpt><trkpt lat="22.044933" lon="103.955177"><ele>1004.3</ele><time>2011-04-26T03:54:15.0000000+00:00</time></trkpt><trkpt lat="22.045166" lon="103.954887"><ele>997.6</ele><time>2011-04-26T03:54:35.0000000+00:00</time></trkpt><trkpt lat="22.044977" lon="103.954544"><ele>997.0</ele><time>2011-04-26T03:55:45.0000000+00:00</time></trkpt><trkpt lat="22.04491" lon="103.95385"><ele>1000.3</ele><time>2011-04-26T03:56:50.0000000+00:00</time></trkpt><trkpt lat="22.045279" lon="103.952728"><ele>1012.8</ele><time>2011-04-26T03:58:50.0000000+00:00</time></trkpt><trkpt lat="22.045582" lon="103.952263"><ele>1030.9</ele><time>2011-04-26T03:59:25.0000000+00:00</time></trkpt><trkpt lat="22.046053" lon="103.952049"><ele>1038.5</ele><time>2011-04-26T04:00:30.0000000+00:00</time></trkpt><trkpt lat="22.046499" lon="103.952354"><ele>1048.5</ele><time>2011-04-26T04:01:10.0000000+00:00</time></trkpt><trkpt lat="22.046614" lon="103.95298"><ele>1041.3</ele><time>2011-04-26T04:14:55.0000000+00:00</time></trkpt><trkpt lat="22.045965" lon="103.954239"><ele>1038.4</ele><time>2011-04-26T04:23:20.0000000+00:00</time></trkpt><trkpt lat="22.046053" lon="103.955231"><ele>1038.2</ele><time>2011-04-26T04:23:50.0000000+00:00</time></trkpt><trkpt lat="22.045914" lon="103.95536"><ele>1036.9</ele><time>2011-04-26T04:24:00.0000000+00:00</time></trkpt><trkpt lat="22.045259" lon="103.955254"><ele>1016.7</ele><time>2011-04-26T04:26:15.0000000+00:00</time></trkpt><trkpt lat="22.04497" lon="103.955406"><ele>1016.6</ele><time>2011-04-26T04:28:25.0000000+00:00</time></trkpt><trkpt lat="22.044657" lon="103.956902"><ele>1025.8</ele><time>2011-04-26T04:29:00.0000000+00:00</time></trkpt><trkpt lat="22.04479" lon="103.957207"><ele>1015.3</ele><time>2011-04-26T04:29:05.0000000+00:00</time></trkpt><trkpt lat="22.045984" lon="103.958221"><ele>1008.4</ele><time>2011-04-26T04:29:25.0000000+00:00</time></trkpt><trkpt lat="22.046257" lon="103.959351"><ele>1002.0</ele><time>2011-04-26T04:29:45.0000000+00:00</time></trkpt><trkpt lat="22.047707" lon="103.960419"><ele>1004.4</ele><time>2011-04-26T04:30:10.0000000+00:00</time></trkpt><trkpt lat="22.049059" lon="103.960075"><ele>1012.3</ele><time>2011-04-26T04:30:25.0000000+00:00</time></trkpt><trkpt lat="22.050673" lon="103.960396"><ele>981.2</ele><time>2011-04-26T04:30:45.0000000+00:00</time></trkpt><trkpt lat="22.051001" lon="103.960167"><ele>996.2</ele><time>2011-04-26T04:30:50.0000000+00:00</time></trkpt><trkpt lat="22.052546" lon="103.959717"><ele>981.5</ele><time>2011-04-26T04:31:15.0000000+00:00</time></trkpt><trkpt lat="22.052959" lon="103.959145"><ele>974.9</ele><time>2011-04-26T04:31:25.0000000+00:00</time></trkpt><trkpt lat="22.053268" lon="103.959091"><ele>980.1</ele><time>2011-04-26T04:31:30.0000000+00:00</time></trkpt><trkpt lat="22.054335" lon="103.959137"><ele>976.8</ele><time>2011-04-26T04:31:50.0000000+00:00</time></trkpt><trkpt lat="22.054779" lon="103.96006"><ele>968.4</ele><time>2011-04-26T04:32:10.0000000+00:00</time></trkpt><trkpt lat="22.054731" lon="103.960358"><ele>973.2</ele><time>2011-04-26T04:32:15.0000000+00:00</time></trkpt><trkpt lat="22.054193" lon="103.960953"><ele>969.4</ele><time>2011-04-26T04:32:30.0000000+00:00</time></trkpt><trkpt lat="22.053215" lon="103.961525"><ele>958.4</ele><time>2011-04-26T04:32:50.0000000+00:00</time></trkpt><trkpt lat="22.053024" lon="103.962227"><ele>961.8</ele><time>2011-04-26T04:33:00.0000000+00:00</time></trkpt><trkpt lat="22.052782" lon="103.962471"><ele>961.7</ele><time>2011-04-26T04:33:05.0000000+00:00</time></trkpt><trkpt lat="22.052048" lon="103.962738"><ele>941.9</ele><time>2011-04-26T04:33:20.0000000+00:00</time></trkpt><trkpt lat="22.05187" lon="103.963295"><ele>938.1</ele><time>2011-04-26T04:33:35.0000000+00:00</time></trkpt><trkpt lat="22.052034" lon="103.964012"><ele>946.6</ele><time>2011-04-26T04:33:45.0000000+00:00</time></trkpt><trkpt lat="22.051882" lon="103.964264"><ele>951.1</ele><time>2011-04-26T04:33:50.0000000+00:00</time></trkpt><trkpt lat="22.051401" lon="103.964401"><ele>958.2</ele><time>2011-04-26T04:34:00.0000000+00:00</time></trkpt><trkpt lat="22.051205" lon="103.964218"><ele>956.2</ele><time>2011-04-26T04:34:05.0000000+00:00</time></trkpt><trkpt lat="22.050684" lon="103.964142"><ele>945.9</ele><time>2011-04-26T04:34:15.0000000+00:00</time></trkpt><trkpt lat="22.049749" lon="103.964706"><ele>928.2</ele><time>2011-04-26T04:34:30.0000000+00:00</time></trkpt><trkpt lat="22.049587" lon="103.965332"><ele>942.8</ele><time>2011-04-26T04:34:40.0000000+00:00</time></trkpt><trkpt lat="22.049387" lon="103.965515"><ele>949.8</ele><time>2011-04-26T04:34:45.0000000+00:00</time></trkpt><trkpt lat="22.048309" lon="103.965599"><ele>946.8</ele><time>2011-04-26T04:35:05.0000000+00:00</time></trkpt><trkpt lat="22.047699" lon="103.965981"><ele>951.4</ele><time>2011-04-26T04:35:20.0000000+00:00</time></trkpt><trkpt lat="22.047268" lon="103.965797"><ele>928.6</ele><time>2011-04-26T04:35:30.0000000+00:00</time></trkpt><trkpt lat="22.04644" lon="103.966377"><ele>909.9</ele><time>2011-04-26T04:35:55.0000000+00:00</time></trkpt><trkpt lat="22.045837" lon="103.967247"><ele>901.3</ele><time>2011-04-26T04:36:15.0000000+00:00</time></trkpt><trkpt lat="22.045565" lon="103.968086"><ele>894.8</ele><time>2011-04-26T04:36:30.0000000+00:00</time></trkpt><trkpt lat="22.04567" lon="103.968369"><ele>895.3</ele><time>2011-04-26T04:36:55.0000000+00:00</time></trkpt><trkpt lat="22.046032" lon="103.968628"><ele>900.2</ele><time>2011-04-26T04:37:20.0000000+00:00</time></trkpt><trkpt lat="22.046001" lon="103.969292"><ele>896.0</ele><time>2011-04-26T04:37:30.0000000+00:00</time></trkpt><trkpt lat="22.045782" lon="103.969971"><ele>887.7</ele><time>2011-04-26T04:37:40.0000000+00:00</time></trkpt><trkpt lat="22.046482" lon="103.970413"><ele>886.3</ele><time>2011-04-26T04:37:50.0000000+00:00</time></trkpt><trkpt lat="22.046543" lon="103.970703"><ele>887.1</ele><time>2011-04-26T04:37:55.0000000+00:00</time></trkpt><trkpt lat="22.046206" lon="103.971291"><ele>886.0</ele><time>2011-04-26T04:38:05.0000000+00:00</time></trkpt><trkpt lat="22.045248" lon="103.971985"><ele>877.0</ele><time>2011-04-26T04:38:20.0000000+00:00</time></trkpt><trkpt lat="22.044992" lon="103.971992"><ele>870.7</ele><time>2011-04-26T04:38:25.0000000+00:00</time></trkpt><trkpt lat="22.044868" lon="103.971764"><ele>867.2</ele><time>2011-04-26T04:38:30.0000000+00:00</time></trkpt><trkpt lat="22.044964" lon="103.971397"><ele>869.5</ele><time>2011-04-26T04:38:35.0000000+00:00</time></trkpt><trkpt lat="22.045763" lon="103.970634"><ele>862.5</ele><time>2011-04-26T04:38:50.0000000+00:00</time></trkpt><trkpt lat="22.045103" lon="103.969864"><ele>849.8</ele><time>2011-04-26T04:39:20.0000000+00:00</time></trkpt><trkpt lat="22.045202" lon="103.9692"><ele>853.0</ele><time>2011-04-26T04:39:40.0000000+00:00</time></trkpt><trkpt lat="22.044809" lon="103.968391"><ele>841.6</ele><time>2011-04-26T04:39:55.0000000+00:00</time></trkpt><trkpt lat="22.044834" lon="103.968048"><ele>844.1</ele><time>2011-04-26T04:40:00.0000000+00:00</time></trkpt><trkpt lat="22.045078" lon="103.96756"><ele>847.3</ele><time>2011-04-26T04:40:10.0000000+00:00</time></trkpt><trkpt lat="22.045282" lon="103.966461"><ele>832.8</ele><time>2011-04-26T04:40:30.0000000+00:00</time></trkpt><trkpt lat="22.045933" lon="103.965767"><ele>834.1</ele><time>2011-04-26T04:40:40.0000000+00:00</time></trkpt><trkpt lat="22.046133" lon="103.965088"><ele>826.1</ele><time>2011-04-26T04:40:50.0000000+00:00</time></trkpt><trkpt lat="22.046743" lon="103.964317"><ele>825.0</ele><time>2011-04-26T04:41:05.0000000+00:00</time></trkpt><trkpt lat="22.046663" lon="103.964066"><ele>822.4</ele><time>2011-04-26T04:41:10.0000000+00:00</time></trkpt><trkpt lat="22.046253" lon="103.963715"><ele>818.6</ele><time>2011-04-26T04:41:25.0000000+00:00</time></trkpt><trkpt lat="22.044334" lon="103.9645"><ele>834.4</ele><time>2011-04-26T04:46:05.0000000+00:00</time></trkpt><trkpt lat="22.044056" lon="103.964394"><ele>824.4</ele><time>2011-04-26T04:46:15.0000000+00:00</time></trkpt><trkpt lat="22.043823" lon="103.963821"><ele>814.8</ele><time>2011-04-26T04:46:25.0000000+00:00</time></trkpt><trkpt lat="22.043552" lon="103.963699"><ele>815.3</ele><time>2011-04-26T04:46:30.0000000+00:00</time></trkpt><trkpt lat="22.043257" lon="103.963791"><ele>815.9</ele><time>2011-04-26T04:46:35.0000000+00:00</time></trkpt><trkpt lat="22.042301" lon="103.964928"><ele>797.9</ele><time>2011-04-26T04:46:55.0000000+00:00</time></trkpt><trkpt lat="22.041557" lon="103.964546"><ele>793.2</ele><time>2011-04-26T04:47:10.0000000+00:00</time></trkpt><trkpt lat="22.040821" lon="103.963928"><ele>786.8</ele><time>2011-04-26T04:47:25.0000000+00:00</time></trkpt><trkpt lat="22.04055" lon="103.963814"><ele>789.2</ele><time>2011-04-26T04:47:30.0000000+00:00</time></trkpt><trkpt lat="22.040257" lon="103.963943"><ele>792.6</ele><time>2011-04-26T04:47:35.0000000+00:00</time></trkpt><trkpt lat="22.039955" lon="103.965141"><ele>801.3</ele><time>2011-04-26T04:48:05.0000000+00:00</time></trkpt><trkpt lat="22.04027" lon="103.96669"><ele>776.9</ele><time>2011-04-26T04:48:30.0000000+00:00</time></trkpt><trkpt lat="22.040203" lon="103.967354"><ele>766.0</ele><time>2011-04-26T04:48:40.0000000+00:00</time></trkpt><trkpt lat="22.040583" lon="103.96833"><ele>768.2</ele><time>2011-04-26T04:50:40.0000000+00:00</time></trkpt><trkpt lat="22.040628" lon="103.96907"><ele>762.7</ele><time>2011-04-26T04:50:55.0000000+00:00</time></trkpt><trkpt lat="22.041004" lon="103.969696"><ele>749.4</ele><time>2011-04-26T04:53:05.0000000+00:00</time></trkpt><trkpt lat="22.040739" lon="103.97036"><ele>741.0</ele><time>2011-04-26T04:56:00.0000000+00:00</time></trkpt><trkpt lat="22.040712" lon="103.971199"><ele>733.8</ele><time>2011-04-26T04:56:15.0000000+00:00</time></trkpt><trkpt lat="22.040005" lon="103.972633"><ele>711.7</ele><time>2011-04-26T04:56:40.0000000+00:00</time></trkpt><trkpt lat="22.039757" lon="103.972687"><ele>702.9</ele><time>2011-04-26T04:56:45.0000000+00:00</time></trkpt><trkpt lat="22.038723" lon="103.971695"><ele>698.5</ele><time>2011-04-26T04:57:05.0000000+00:00</time></trkpt><trkpt lat="22.038174" lon="103.97187"><ele>696.2</ele><time>2011-04-26T04:57:15.0000000+00:00</time></trkpt><trkpt lat="22.03764" lon="103.971703"><ele>689.4</ele><time>2011-04-26T04:57:25.0000000+00:00</time></trkpt><trkpt lat="22.036629" lon="103.970512"><ele>679.8</ele><time>2011-04-26T04:57:50.0000000+00:00</time></trkpt><trkpt lat="22.036182" lon="103.970535"><ele>679.5</ele><time>2011-04-26T04:58:05.0000000+00:00</time></trkpt><trkpt lat="22.035679" lon="103.971123"><ele>692.2</ele><time>2011-04-26T04:58:35.0000000+00:00</time></trkpt><trkpt lat="22.035639" lon="103.971596"><ele>679.3</ele><time>2011-04-26T04:58:45.0000000+00:00</time></trkpt><trkpt lat="22.035763" lon="103.971771"><ele>678.0</ele><time>2011-04-26T04:58:50.0000000+00:00</time></trkpt><trkpt lat="22.036444" lon="103.972229"><ele>691.4</ele><time>2011-04-26T04:59:20.0000000+00:00</time></trkpt><trkpt lat="22.038483" lon="103.974358"><ele>671.0</ele><time>2011-04-26T05:00:20.0000000+00:00</time></trkpt><trkpt lat="22.038439" lon="103.975647"><ele>671.7</ele><time>2011-04-26T05:00:40.0000000+00:00</time></trkpt><trkpt lat="22.039165" lon="103.977058"><ele>661.1</ele><time>2011-04-26T05:01:00.0000000+00:00</time></trkpt><trkpt lat="22.038891" lon="103.977844"><ele>656.7</ele><time>2011-04-26T05:01:10.0000000+00:00</time></trkpt><trkpt lat="22.038986" lon="103.97831"><ele>655.4</ele><time>2011-04-26T05:01:15.0000000+00:00</time></trkpt><trkpt lat="22.039764" lon="103.979233"><ele>655.2</ele><time>2011-04-26T05:01:45.0000000+00:00</time></trkpt><trkpt lat="22.039635" lon="103.979927"><ele>644.1</ele><time>2011-04-26T05:02:00.0000000+00:00</time></trkpt><trkpt lat="22.039114" lon="103.980499"><ele>651.5</ele><time>2011-04-26T05:02:10.0000000+00:00</time></trkpt><trkpt lat="22.039183" lon="103.981033"><ele>669.5</ele><time>2011-04-26T05:02:25.0000000+00:00</time></trkpt><trkpt lat="22.039841" lon="103.981758"><ele>657.4</ele><time>2011-04-26T05:03:05.0000000+00:00</time></trkpt><trkpt lat="22.039265" lon="103.982422"><ele>666.6</ele><time>2011-04-26T05:03:40.0000000+00:00</time></trkpt><trkpt lat="22.039162" lon="103.982742"><ele>668.7</ele><time>2011-04-26T05:03:50.0000000+00:00</time></trkpt><trkpt lat="22.039486" lon="103.98484"><ele>662.0</ele><time>2011-04-26T05:04:45.0000000+00:00</time></trkpt><trkpt lat="22.039352" lon="103.985237"><ele>666.4</ele><time>2011-04-26T05:04:55.0000000+00:00</time></trkpt><trkpt lat="22.039722" lon="103.985825"><ele>652.6</ele><time>2011-04-26T05:05:10.0000000+00:00</time></trkpt><trkpt lat="22.039719" lon="103.98632"><ele>654.9</ele><time>2011-04-26T05:05:20.0000000+00:00</time></trkpt><trkpt lat="22.040272" lon="103.986992"><ele>645.8</ele><time>2011-04-26T05:05:35.0000000+00:00</time></trkpt><trkpt lat="22.040546" lon="103.988785"><ele>617.5</ele><time>2011-04-26T05:07:05.0000000+00:00</time></trkpt><trkpt lat="22.040432" lon="103.98909"><ele>596.2</ele><time>2011-04-26T05:07:20.0000000+00:00</time></trkpt><trkpt lat="22.039728" lon="103.989159"><ele>584.5</ele><time>2011-04-26T05:08:45.0000000+00:00</time></trkpt><trkpt lat="22.039721" lon="103.989037"><ele>594.7</ele><time>2011-04-26T05:10:45.0000000+00:00</time></trkpt><trkpt lat="22.039371" lon="103.989014"><ele>595.6</ele><time>2011-04-26T05:12:05.0000000+00:00</time></trkpt><trkpt lat="22.038317" lon="103.989365"><ele>588.2</ele><time>2011-04-26T05:12:25.0000000+00:00</time></trkpt><trkpt lat="22.037106" lon="103.988831"><ele>587.4</ele><time>2011-04-26T05:12:55.0000000+00:00</time></trkpt><trkpt lat="22.037834" lon="103.990059"><ele>590.7</ele><time>2011-04-26T05:13:45.0000000+00:00</time></trkpt><trkpt lat="22.038" lon="103.990807"><ele>603.0</ele><time>2011-04-26T05:16:30.0000000+00:00</time></trkpt><trkpt lat="22.038126" lon="103.990723"><ele>588.8</ele><time>2011-04-26T05:17:25.0000000+00:00</time></trkpt><trkpt lat="22.038153" lon="103.990837"><ele>583.0</ele><time>2011-04-26T05:18:15.0000000+00:00</time></trkpt><trkpt lat="22.037539" lon="103.991394"><ele>619.7</ele><time>2011-04-26T05:18:55.0000000+00:00</time></trkpt><trkpt lat="22.037169" lon="103.992172"><ele>573.3</ele><time>2011-04-26T05:19:10.0000000+00:00</time></trkpt><trkpt lat="22.036596" lon="103.992538"><ele>564.2</ele><time>2011-04-26T05:19:20.0000000+00:00</time></trkpt><trkpt lat="22.036644" lon="103.992882"><ele>565.6</ele><time>2011-04-26T05:19:25.0000000+00:00</time></trkpt><trkpt lat="22.037281" lon="103.99334"><ele>567.2</ele><time>2011-04-26T05:19:50.0000000+00:00</time></trkpt><trkpt lat="22.038277" lon="103.99369"><ele>561.6</ele><time>2011-04-26T05:20:25.0000000+00:00</time></trkpt><trkpt lat="22.038771" lon="103.99437"><ele>571.7</ele><time>2011-04-26T05:20:40.0000000+00:00</time></trkpt><trkpt lat="22.039749" lon="103.995155"><ele>563.6</ele><time>2011-04-26T05:21:05.0000000+00:00</time></trkpt><trkpt lat="22.039879" lon="103.995743"><ele>553.2</ele><time>2011-04-26T05:21:20.0000000+00:00</time></trkpt><trkpt lat="22.039345" lon="103.99762"><ele>539.5</ele><time>2011-04-26T05:21:45.0000000+00:00</time></trkpt><trkpt lat="22.037399" lon="104.000153"><ele>517.5</ele><time>2011-04-26T05:22:30.0000000+00:00</time></trkpt><trkpt lat="22.037312" lon="104.001106"><ele>519.7</ele><time>2011-04-26T05:22:40.0000000+00:00</time></trkpt><trkpt lat="22.03742" lon="104.001854"><ele>521.9</ele><time>2011-04-26T05:22:55.0000000+00:00</time></trkpt><trkpt lat="22.036802" lon="104.002083"><ele>529.9</ele><time>2011-04-26T05:23:40.0000000+00:00</time></trkpt><trkpt lat="22.036852" lon="104.002228"><ele>534.2</ele><time>2011-04-26T05:24:05.0000000+00:00</time></trkpt><trkpt lat="22.03697" lon="104.002007"><ele>530.5</ele><time>2011-04-26T05:24:20.0000000+00:00</time></trkpt><trkpt lat="22.036579" lon="104.001991"><ele>535.5</ele><time>2011-04-26T05:25:00.0000000+00:00</time></trkpt><trkpt lat="22.036928" lon="104.002411"><ele>548.4</ele><time>2011-04-26T05:27:05.0000000+00:00</time></trkpt><trkpt lat="22.036472" lon="104.001892"><ele>542.1</ele><time>2011-04-26T05:28:45.0000000+00:00</time></trkpt><trkpt lat="22.036587" lon="104.002075"><ele>532.3</ele><time>2011-04-26T05:29:40.0000000+00:00</time></trkpt><trkpt lat="22.036388" lon="104.001976"><ele>541.6</ele><time>2011-04-26T05:30:05.0000000+00:00</time></trkpt><trkpt lat="22.036974" lon="104.002563"><ele>558.1</ele><time>2011-04-26T05:32:35.0000000+00:00</time></trkpt><trkpt lat="22.036526" lon="104.002014"><ele>535.3</ele><time>2011-04-26T05:33:40.0000000+00:00</time></trkpt><trkpt lat="22.036549" lon="104.002144"><ele>529.9</ele><time>2011-04-26T05:33:50.0000000+00:00</time></trkpt><trkpt lat="22.036833" lon="104.002289"><ele>539.1</ele><time>2011-04-26T05:34:20.0000000+00:00</time></trkpt><trkpt lat="22.036551" lon="104.001976"><ele>536.4</ele><time>2011-04-26T05:35:35.0000000+00:00</time></trkpt><trkpt lat="22.037043" lon="104.002556"><ele>557.4</ele><time>2011-04-26T05:38:30.0000000+00:00</time></trkpt><trkpt lat="22.036535" lon="104.002007"><ele>535.5</ele><time>2011-04-26T05:39:50.0000000+00:00</time></trkpt><trkpt lat="22.036634" lon="104.002174"><ele>530.6</ele><time>2011-04-26T05:40:50.0000000+00:00</time></trkpt><trkpt lat="22.036438" lon="104.002075"><ele>536.0</ele><time>2011-04-26T05:42:40.0000000+00:00</time></trkpt><trkpt lat="22.036785" lon="104.002289"><ele>539.1</ele><time>2011-04-26T05:44:50.0000000+00:00</time></trkpt><trkpt lat="22.03647" lon="104.002022"><ele>537.0</ele><time>2011-04-26T05:50:15.0000000+00:00</time></trkpt><trkpt lat="22.036551" lon="104.002098"><ele>531.7</ele><time>2011-04-26T05:52:15.0000000+00:00</time></trkpt><trkpt lat="22.036415" lon="104.002121"><ele>534.9</ele><time>2011-04-26T05:53:20.0000000+00:00</time></trkpt><trkpt lat="22.036636" lon="104.002113"><ele>530.5</ele><time>2011-04-26T06:05:50.0000000+00:00</time></trkpt><trkpt lat="22.036425" lon="104.002266"><ele>538.9</ele><time>2011-04-26T06:17:00.0000000+00:00</time></trkpt><trkpt lat="22.036497" lon="104.001984"><ele>537.5</ele><time>2011-04-26T06:21:05.0000000+00:00</time></trkpt><trkpt lat="22.036564" lon="104.002174"><ele>530.9</ele><time>2011-04-26T06:23:10.0000000+00:00</time></trkpt><trkpt lat="22.036467" lon="104.001938"><ele>540.4</ele><time>2011-04-26T06:24:25.0000000+00:00</time></trkpt><trkpt lat="22.03651" lon="104.002106"><ele>532.2</ele><time>2011-04-26T06:25:10.0000000+00:00</time></trkpt><trkpt lat="22.036556" lon="104.001854"><ele>541.1</ele><time>2011-04-26T06:34:05.0000000+00:00</time></trkpt><trkpt lat="22.036644" lon="104.001953"><ele>535.8</ele><time>2011-04-26T06:34:35.0000000+00:00</time></trkpt><trkpt lat="22.036524" lon="104.001915"><ele>539.3</ele><time>2011-04-26T06:35:45.0000000+00:00</time></trkpt><trkpt lat="22.036467" lon="104.002068"><ele>535.2</ele><time>2011-04-26T06:41:55.0000000+00:00</time></trkpt><trkpt lat="22.036839" lon="104.002144"><ele>528.2</ele><time>2011-04-26T06:43:05.0000000+00:00</time></trkpt><trkpt lat="22.037046" lon="104.002464"><ele>551.8</ele><time>2011-04-26T06:43:35.0000000+00:00</time></trkpt><trkpt lat="22.037874" lon="104.002396"><ele>543.6</ele><time>2011-04-26T06:44:25.0000000+00:00</time></trkpt><trkpt lat="22.038025" lon="104.003113"><ele>578.1</ele><time>2011-04-26T06:45:15.0000000+00:00</time></trkpt><trkpt lat="22.038296" lon="104.003357"><ele>570.8</ele><time>2011-04-26T06:45:35.0000000+00:00</time></trkpt><trkpt lat="22.038523" lon="104.003906"><ele>570.4</ele><time>2011-04-26T06:46:05.0000000+00:00</time></trkpt><trkpt lat="22.038643" lon="104.005638"><ele>556.7</ele><time>2011-04-26T06:46:30.0000000+00:00</time></trkpt><trkpt lat="22.038853" lon="104.006248"><ele>536.4</ele><time>2011-04-26T06:46:40.0000000+00:00</time></trkpt><trkpt lat="22.038807" lon="104.008392"><ele>519.6</ele><time>2011-04-26T06:47:15.0000000+00:00</time></trkpt><trkpt lat="22.038349" lon="104.009666"><ele>509.9</ele><time>2011-04-26T06:47:50.0000000+00:00</time></trkpt><trkpt lat="22.037357" lon="104.010773"><ele>495.3</ele><time>2011-04-26T06:48:10.0000000+00:00</time></trkpt><trkpt lat="22.036709" lon="104.011078"><ele>496.6</ele><time>2011-04-26T06:48:20.0000000+00:00</time></trkpt><trkpt lat="22.036163" lon="104.011642"><ele>494.6</ele><time>2011-04-26T06:48:30.0000000+00:00</time></trkpt><trkpt lat="22.035288" lon="104.012985"><ele>511.3</ele><time>2011-04-26T06:49:20.0000000+00:00</time></trkpt><trkpt lat="22.035093" lon="104.014397"><ele>530.1</ele><time>2011-04-26T06:50:45.0000000+00:00</time></trkpt><trkpt lat="22.035322" lon="104.015228"><ele>520.4</ele><time>2011-04-26T06:51:30.0000000+00:00</time></trkpt><trkpt lat="22.034973" lon="104.016342"><ele>518.8</ele><time>2011-04-26T06:51:55.0000000+00:00</time></trkpt><trkpt lat="22.034578" lon="104.017174"><ele>511.1</ele><time>2011-04-26T06:52:20.0000000+00:00</time></trkpt><trkpt lat="22.03393" lon="104.017387"><ele>517.8</ele><time>2011-04-26T06:52:40.0000000+00:00</time></trkpt><trkpt lat="22.034016" lon="104.017952"><ele>524.5</ele><time>2011-04-26T06:53:55.0000000+00:00</time></trkpt><trkpt lat="22.033083" lon="104.019157"><ele>557.1</ele><time>2011-04-26T06:55:55.0000000+00:00</time></trkpt><trkpt lat="22.032722" lon="104.020126"><ele>565.7</ele><time>2011-04-26T06:56:35.0000000+00:00</time></trkpt><trkpt lat="22.032808" lon="104.021355"><ele>559.2</ele><time>2011-04-26T06:57:10.0000000+00:00</time></trkpt><trkpt lat="22.033957" lon="104.022293"><ele>523.5</ele><time>2011-04-26T06:58:10.0000000+00:00</time></trkpt><trkpt lat="22.034111" lon="104.022636"><ele>528.0</ele><time>2011-04-26T06:58:15.0000000+00:00</time></trkpt><trkpt lat="22.034369" lon="104.023376"><ele>520.0</ele><time>2011-04-26T06:58:25.0000000+00:00</time></trkpt><trkpt lat="22.034555" lon="104.025093"><ele>502.0</ele><time>2011-04-26T06:58:45.0000000+00:00</time></trkpt><trkpt lat="22.035007" lon="104.026329"><ele>488.4</ele><time>2011-04-26T07:03:25.0000000+00:00</time></trkpt><trkpt lat="22.034958" lon="104.026207"><ele>489.0</ele><time>2011-04-26T07:06:45.0000000+00:00</time></trkpt><trkpt lat="22.034712" lon="104.026489"><ele>489.4</ele><time>2011-04-26T07:11:50.0000000+00:00</time></trkpt><trkpt lat="22.033773" lon="104.026825"><ele>498.9</ele><time>2011-04-26T07:13:00.0000000+00:00</time></trkpt><trkpt lat="22.032663" lon="104.02755"><ele>502.1</ele><time>2011-04-26T07:14:05.0000000+00:00</time></trkpt><trkpt lat="22.031942" lon="104.02758"><ele>500.4</ele><time>2011-04-26T07:14:25.0000000+00:00</time></trkpt><trkpt lat="22.031597" lon="104.027771"><ele>505.5</ele><time>2011-04-26T07:14:35.0000000+00:00</time></trkpt><trkpt lat="22.03141" lon="104.029121"><ele>492.5</ele><time>2011-04-26T07:15:05.0000000+00:00</time></trkpt><trkpt lat="22.031252" lon="104.029366"><ele>494.2</ele><time>2011-04-26T07:17:40.0000000+00:00</time></trkpt><trkpt lat="22.03079" lon="104.02961"><ele>504.4</ele><time>2011-04-26T07:17:50.0000000+00:00</time></trkpt><trkpt lat="22.030514" lon="104.031189"><ele>492.9</ele><time>2011-04-26T07:18:10.0000000+00:00</time></trkpt><trkpt lat="22.02997" lon="104.032959"><ele>483.7</ele><time>2011-04-26T07:18:35.0000000+00:00</time></trkpt><trkpt lat="22.029224" lon="104.034088"><ele>482.6</ele><time>2011-04-26T07:18:55.0000000+00:00</time></trkpt><trkpt lat="22.029181" lon="104.034882"><ele>470.0</ele><time>2011-04-26T07:19:05.0000000+00:00</time></trkpt><trkpt lat="22.028685" lon="104.035965"><ele>462.5</ele><time>2011-04-26T07:19:25.0000000+00:00</time></trkpt><trkpt lat="22.028252" lon="104.036095"><ele>454.7</ele><time>2011-04-26T07:19:35.0000000+00:00</time></trkpt><trkpt lat="22.026951" lon="104.035721"><ele>455.1</ele><time>2011-04-26T07:20:25.0000000+00:00</time></trkpt><trkpt lat="22.02676" lon="104.035805"><ele>452.1</ele><time>2011-04-26T07:20:30.0000000+00:00</time></trkpt><trkpt lat="22.025595" lon="104.036797"><ele>463.2</ele><time>2011-04-26T07:25:25.0000000+00:00</time></trkpt><trkpt lat="22.025232" lon="104.037483"><ele>464.6</ele><time>2011-04-26T07:25:45.0000000+00:00</time></trkpt><trkpt lat="22.025034" lon="104.038261"><ele>459.5</ele><time>2011-04-26T07:26:05.0000000+00:00</time></trkpt><trkpt lat="22.024666" lon="104.03862"><ele>457.2</ele><time>2011-04-26T07:26:20.0000000+00:00</time></trkpt><trkpt lat="22.022352" lon="104.039001"><ele>462.6</ele><time>2011-04-26T07:27:40.0000000+00:00</time></trkpt><trkpt lat="22.021622" lon="104.039413"><ele>460.4</ele><time>2011-04-26T07:28:00.0000000+00:00</time></trkpt><trkpt lat="22.020758" lon="104.040398"><ele>456.4</ele><time>2011-04-26T07:28:20.0000000+00:00</time></trkpt><trkpt lat="22.019361" lon="104.041481"><ele>458.2</ele><time>2011-04-26T07:29:00.0000000+00:00</time></trkpt><trkpt lat="22.01866" lon="104.042496"><ele>457.5</ele><time>2011-04-26T07:29:35.0000000+00:00</time></trkpt><trkpt lat="22.017914" lon="104.042854"><ele>459.4</ele><time>2011-04-26T07:30:00.0000000+00:00</time></trkpt><trkpt lat="22.016653" lon="104.044403"><ele>466.8</ele><time>2011-04-26T07:31:00.0000000+00:00</time></trkpt><trkpt lat="22.016352" lon="104.045105"><ele>469.6</ele><time>2011-04-26T07:31:25.0000000+00:00</time></trkpt><trkpt lat="22.015577" lon="104.045753"><ele>464.7</ele><time>2011-04-26T07:31:50.0000000+00:00</time></trkpt><trkpt lat="22.015432" lon="104.046165"><ele>470.2</ele><time>2011-04-26T07:32:00.0000000+00:00</time></trkpt><trkpt lat="22.015518" lon="104.047516"><ele>469.8</ele><time>2011-04-26T07:32:40.0000000+00:00</time></trkpt><trkpt lat="22.014254" lon="104.049744"><ele>468.8</ele><time>2011-04-26T07:33:50.0000000+00:00</time></trkpt><trkpt lat="22.013071" lon="104.050812"><ele>469.1</ele><time>2011-04-26T07:34:35.0000000+00:00</time></trkpt><trkpt lat="22.011093" lon="104.050995"><ele>469.9</ele><time>2011-04-26T07:35:45.0000000+00:00</time></trkpt><trkpt lat="22.009157" lon="104.052551"><ele>461.3</ele><time>2011-04-26T07:39:15.0000000+00:00</time></trkpt><trkpt lat="22.008558" lon="104.053246"><ele>464.7</ele><time>2011-04-26T07:39:40.0000000+00:00</time></trkpt><trkpt lat="22.008396" lon="104.053528"><ele>463.6</ele><time>2011-04-26T07:40:05.0000000+00:00</time></trkpt><trkpt lat="22.008339" lon="104.054726"><ele>464.8</ele><time>2011-04-26T07:40:35.0000000+00:00</time></trkpt><trkpt lat="22.007891" lon="104.055283"><ele>465.8</ele><time>2011-04-26T07:41:00.0000000+00:00</time></trkpt><trkpt lat="22.007793" lon="104.055809"><ele>457.4</ele><time>2011-04-26T07:41:10.0000000+00:00</time></trkpt><trkpt lat="22.007999" lon="104.05648"><ele>451.5</ele><time>2011-04-26T07:41:20.0000000+00:00</time></trkpt><trkpt lat="22.008615" lon="104.057312"><ele>448.2</ele><time>2011-04-26T07:41:35.0000000+00:00</time></trkpt><trkpt lat="22.008802" lon="104.058006"><ele>447.0</ele><time>2011-04-26T07:41:45.0000000+00:00</time></trkpt><trkpt lat="22.008232" lon="104.059074"><ele>444.2</ele><time>2011-04-26T07:42:15.0000000+00:00</time></trkpt><trkpt lat="22.00728" lon="104.059792"><ele>446.5</ele><time>2011-04-26T07:42:50.0000000+00:00</time></trkpt><trkpt lat="22.00688" lon="104.060516"><ele>437.8</ele><time>2011-04-26T07:43:35.0000000+00:00</time></trkpt><trkpt lat="22.006815" lon="104.060997"><ele>443.6</ele><time>2011-04-26T07:43:50.0000000+00:00</time></trkpt><trkpt lat="22.007263" lon="104.061905"><ele>457.0</ele><time>2011-04-26T07:44:30.0000000+00:00</time></trkpt><trkpt lat="22.006861" lon="104.062874"><ele>457.8</ele><time>2011-04-26T07:45:05.0000000+00:00</time></trkpt><trkpt lat="22.005955" lon="104.063911"><ele>437.5</ele><time>2011-04-26T07:45:25.0000000+00:00</time></trkpt><trkpt lat="22.005419" lon="104.064102"><ele>457.4</ele><time>2011-04-26T07:45:45.0000000+00:00</time></trkpt><trkpt lat="22.004944" lon="104.064873"><ele>451.0</ele><time>2011-04-26T07:46:15.0000000+00:00</time></trkpt><trkpt lat="22.004856" lon="104.0662"><ele>452.4</ele><time>2011-04-26T07:47:15.0000000+00:00</time></trkpt><trkpt lat="22.005234" lon="104.06691"><ele>463.8</ele><time>2011-04-26T07:47:55.0000000+00:00</time></trkpt><trkpt lat="22.005161" lon="104.071106"><ele>461.6</ele><time>2011-04-26T07:58:20.0000000+00:00</time></trkpt><trkpt lat="22.005497" lon="104.071739"><ele>465.2</ele><time>2011-04-26T07:58:50.0000000+00:00</time></trkpt><trkpt lat="22.005125" lon="104.072433"><ele>475.5</ele><time>2011-04-26T07:59:30.0000000+00:00</time></trkpt><trkpt lat="22.005346" lon="104.073082"><ele>479.5</ele><time>2011-04-26T08:00:05.0000000+00:00</time></trkpt><trkpt lat="22.005781" lon="104.073051"><ele>491.8</ele><time>2011-04-26T08:00:35.0000000+00:00</time></trkpt><trkpt lat="22.006201" lon="104.072823"><ele>483.0</ele><time>2011-04-26T08:01:00.0000000+00:00</time></trkpt><trkpt lat="22.006464" lon="104.072929"><ele>492.0</ele><time>2011-04-26T08:01:15.0000000+00:00</time></trkpt><trkpt lat="22.00659" lon="104.073723"><ele>503.1</ele><time>2011-04-26T08:02:45.0000000+00:00</time></trkpt><trkpt lat="22.007364" lon="104.074181"><ele>517.0</ele><time>2011-04-26T08:03:55.0000000+00:00</time></trkpt><trkpt lat="22.008448" lon="104.075241"><ele>452.4</ele><time>2011-04-26T08:04:10.0000000+00:00</time></trkpt><trkpt lat="22.00984" lon="104.076256"><ele>441.7</ele><time>2011-04-26T08:04:25.0000000+00:00</time></trkpt><trkpt lat="22.010952" lon="104.076668"><ele>436.0</ele><time>2011-04-26T08:05:05.0000000+00:00</time></trkpt><trkpt lat="22.01195" lon="104.076698"><ele>435.6</ele><time>2011-04-26T08:05:40.0000000+00:00</time></trkpt><trkpt lat="22.012587" lon="104.077164"><ele>429.3</ele><time>2011-04-26T08:09:55.0000000+00:00</time></trkpt><trkpt lat="22.012691" lon="104.077026"><ele>425.8</ele><time>2011-04-26T08:13:10.0000000+00:00</time></trkpt><trkpt lat="22.012907" lon="104.077232"><ele>423.7</ele><time>2011-04-26T08:13:25.0000000+00:00</time></trkpt><trkpt lat="22.013739" lon="104.077461"><ele>431.1</ele><time>2011-04-26T08:14:05.0000000+00:00</time></trkpt><trkpt lat="22.014278" lon="104.077911"><ele>445.9</ele><time>2011-04-26T08:14:30.0000000+00:00</time></trkpt><trkpt lat="22.015444" lon="104.077545"><ele>434.8</ele><time>2011-04-26T08:15:20.0000000+00:00</time></trkpt><trkpt lat="22.017145" lon="104.076538"><ele>426.2</ele><time>2011-04-26T08:16:30.0000000+00:00</time></trkpt><trkpt lat="22.018211" lon="104.07621"><ele>412.3</ele><time>2011-04-26T08:16:50.0000000+00:00</time></trkpt><trkpt lat="22.018965" lon="104.076515"><ele>432.7</ele><time>2011-04-26T08:17:25.0000000+00:00</time></trkpt><trkpt lat="22.019279" lon="104.077263"><ele>432.1</ele><time>2011-04-26T08:18:30.0000000+00:00</time></trkpt><trkpt lat="22.019936" lon="104.077614"><ele>458.5</ele><time>2011-04-26T08:19:50.0000000+00:00</time></trkpt><trkpt lat="22.020605" lon="104.07769"><ele>461.2</ele><time>2011-04-26T08:21:05.0000000+00:00</time></trkpt><trkpt lat="22.021482" lon="104.077347"><ele>458.1</ele><time>2011-04-26T08:23:05.0000000+00:00</time></trkpt><trkpt lat="22.022198" lon="104.077446"><ele>474.9</ele><time>2011-04-26T08:24:25.0000000+00:00</time></trkpt><trkpt lat="22.022484" lon="104.07766"><ele>492.2</ele><time>2011-04-26T08:24:40.0000000+00:00</time></trkpt><trkpt lat="22.023012" lon="104.07859"><ele>492.3</ele><time>2011-04-26T08:25:35.0000000+00:00</time></trkpt><trkpt lat="22.023575" lon="104.078949"><ele>485.7</ele><time>2011-04-26T08:26:10.0000000+00:00</time></trkpt><trkpt lat="22.024254" lon="104.080261"><ele>507.6</ele><time>2011-04-26T08:42:35.0000000+00:00</time></trkpt><trkpt lat="22.024889" lon="104.080818"><ele>494.4</ele><time>2011-04-26T08:42:55.0000000+00:00</time></trkpt><trkpt lat="22.025211" lon="104.081543"><ele>487.3</ele><time>2011-04-26T08:43:15.0000000+00:00</time></trkpt><trkpt lat="22.02627" lon="104.081444"><ele>492.7</ele><time>2011-04-26T08:43:35.0000000+00:00</time></trkpt><trkpt lat="22.026569" lon="104.081558"><ele>490.0</ele><time>2011-04-26T08:43:40.0000000+00:00</time></trkpt><trkpt lat="22.026842" lon="104.081421"><ele>472.9</ele><time>2011-04-26T08:43:45.0000000+00:00</time></trkpt><trkpt lat="22.027067" lon="104.080544"><ele>462.1</ele><time>2011-04-26T08:44:00.0000000+00:00</time></trkpt><trkpt lat="22.027355" lon="104.080307"><ele>473.2</ele><time>2011-04-26T08:44:20.0000000+00:00</time></trkpt><trkpt lat="22.028749" lon="104.080559"><ele>453.9</ele><time>2011-04-26T08:44:45.0000000+00:00</time></trkpt><trkpt lat="22.029366" lon="104.080399"><ele>449.7</ele><time>2011-04-26T08:45:00.0000000+00:00</time></trkpt><trkpt lat="22.031635" lon="104.081024"><ele>405.4</ele><time>2011-04-26T08:45:40.0000000+00:00</time></trkpt><trkpt lat="22.033018" lon="104.082344"><ele>398.3</ele><time>2011-04-26T08:46:10.0000000+00:00</time></trkpt><trkpt lat="22.033443" lon="104.082314"><ele>409.1</ele><time>2011-04-26T08:46:30.0000000+00:00</time></trkpt><trkpt lat="22.03421" lon="104.082787"><ele>408.3</ele><time>2011-04-26T08:47:35.0000000+00:00</time></trkpt><trkpt lat="22.034441" lon="104.083519"><ele>400.1</ele><time>2011-04-26T08:47:50.0000000+00:00</time></trkpt><trkpt lat="22.035889" lon="104.085007"><ele>432.7</ele><time>2011-04-26T08:48:25.0000000+00:00</time></trkpt><trkpt lat="22.036879" lon="104.086456"><ele>423.5</ele><time>2011-04-26T08:49:50.0000000+00:00</time></trkpt><trkpt lat="22.037289" lon="104.088005"><ele>429.4</ele><time>2011-04-26T08:50:35.0000000+00:00</time></trkpt><trkpt lat="22.038404" lon="104.08889"><ele>400.8</ele><time>2011-04-26T08:50:55.0000000+00:00</time></trkpt><trkpt lat="22.038507" lon="104.089226"><ele>388.6</ele><time>2011-04-26T08:51:00.0000000+00:00</time></trkpt><trkpt lat="22.038313" lon="104.089806"><ele>386.0</ele><time>2011-04-26T08:51:10.0000000+00:00</time></trkpt><trkpt lat="22.038708" lon="104.08992"><ele>382.2</ele><time>2011-04-26T08:51:20.0000000+00:00</time></trkpt><trkpt lat="22.039108" lon="104.090302"><ele>377.3</ele><time>2011-04-26T08:51:30.0000000+00:00</time></trkpt><trkpt lat="22.039953" lon="104.090416"><ele>370.4</ele><time>2011-04-26T08:51:40.0000000+00:00</time></trkpt><trkpt lat="22.041441" lon="104.091827"><ele>358.8</ele><time>2011-04-26T08:52:00.0000000+00:00</time></trkpt><trkpt lat="22.041796" lon="104.093063"><ele>367.2</ele><time>2011-04-26T08:53:00.0000000+00:00</time></trkpt><trkpt lat="22.04274" lon="104.09388"><ele>381.8</ele><time>2011-04-26T08:54:55.0000000+00:00</time></trkpt><trkpt lat="22.04302" lon="104.09465"><ele>398.0</ele><time>2011-04-26T08:56:20.0000000+00:00</time></trkpt><trkpt lat="22.044193" lon="104.096367"><ele>408.3</ele><time>2011-04-26T09:10:55.0000000+00:00</time></trkpt><trkpt lat="22.044172" lon="104.097023"><ele>410.9</ele><time>2011-04-26T09:11:15.0000000+00:00</time></trkpt><trkpt lat="22.044727" lon="104.098892"><ele>395.0</ele><time>2011-04-26T09:11:50.0000000+00:00</time></trkpt><trkpt lat="22.044626" lon="104.099251"><ele>387.6</ele><time>2011-04-26T09:12:00.0000000+00:00</time></trkpt><trkpt lat="22.042917" lon="104.101448"><ele>369.6</ele><time>2011-04-26T09:12:35.0000000+00:00</time></trkpt><trkpt lat="22.042597" lon="104.101555"><ele>361.1</ele><time>2011-04-26T09:12:40.0000000+00:00</time></trkpt><trkpt lat="22.041845" lon="104.101379"><ele>363.5</ele><time>2011-04-26T09:12:50.0000000+00:00</time></trkpt><trkpt lat="22.041378" lon="104.10154"><ele>356.9</ele><time>2011-04-26T09:12:55.0000000+00:00</time></trkpt><trkpt lat="22.041014" lon="104.101906"><ele>357.5</ele><time>2011-04-26T09:13:00.0000000+00:00</time></trkpt><trkpt lat="22.040958" lon="104.102303"><ele>359.7</ele><time>2011-04-26T09:13:05.0000000+00:00</time></trkpt><trkpt lat="22.041241" lon="104.103241"><ele>345.5</ele><time>2011-04-26T09:13:15.0000000+00:00</time></trkpt><trkpt lat="22.040955" lon="104.104538"><ele>330.0</ele><time>2011-04-26T09:13:30.0000000+00:00</time></trkpt><trkpt lat="22.04101" lon="104.105042"><ele>327.4</ele><time>2011-04-26T09:13:35.0000000+00:00</time></trkpt><trkpt lat="22.041544" lon="104.106003"><ele>320.4</ele><time>2011-04-26T09:13:45.0000000+00:00</time></trkpt><trkpt lat="22.041889" lon="104.107544"><ele>324.3</ele><time>2011-04-26T09:14:00.0000000+00:00</time></trkpt><trkpt lat="22.042217" lon="104.108192"><ele>322.5</ele><time>2011-04-26T09:14:15.0000000+00:00</time></trkpt><trkpt lat="22.043098" lon="104.108795"><ele>322.3</ele><time>2011-04-26T09:14:40.0000000+00:00</time></trkpt><trkpt lat="22.044641" lon="104.109512"><ele>315.9</ele><time>2011-04-26T09:16:30.0000000+00:00</time></trkpt><trkpt lat="22.045437" lon="104.110519"><ele>310.0</ele><time>2011-04-26T09:17:05.0000000+00:00</time></trkpt><trkpt lat="22.047266" lon="104.111534"><ele>293.5</ele><time>2011-04-26T09:17:50.0000000+00:00</time></trkpt><trkpt lat="22.04744" lon="104.111847"><ele>293.3</ele><time>2011-04-26T09:17:55.0000000+00:00</time></trkpt><trkpt lat="22.047489" lon="104.112747"><ele>286.7</ele><time>2011-04-26T09:18:15.0000000+00:00</time></trkpt><trkpt lat="22.048483" lon="104.115059"><ele>266.9</ele><time>2011-04-26T09:19:05.0000000+00:00</time></trkpt><trkpt lat="22.050032" lon="104.118355"><ele>268.9</ele><time>2011-04-26T09:20:25.0000000+00:00</time></trkpt><trkpt lat="22.050783" lon="104.119339"><ele>268.8</ele><time>2011-04-26T09:20:50.0000000+00:00</time></trkpt><trkpt lat="22.050655" lon="104.120789"><ele>267.1</ele><time>2011-04-26T09:21:30.0000000+00:00</time></trkpt><trkpt lat="22.050375" lon="104.121849"><ele>260.3</ele><time>2011-04-26T09:22:40.0000000+00:00</time></trkpt><trkpt lat="22.050457" lon="104.122734"><ele>270.3</ele><time>2011-04-26T09:23:10.0000000+00:00</time></trkpt><trkpt lat="22.050169" lon="104.123512"><ele>274.4</ele><time>2011-04-26T09:23:40.0000000+00:00</time></trkpt><trkpt lat="22.050116" lon="104.125107"><ele>283.9</ele><time>2011-04-26T09:25:20.0000000+00:00</time></trkpt><trkpt lat="22.049803" lon="104.125893"><ele>276.4</ele><time>2011-04-26T09:29:20.0000000+00:00</time></trkpt><trkpt lat="22.049953" lon="104.126511"><ele>273.1</ele><time>2011-04-26T09:29:35.0000000+00:00</time></trkpt><trkpt lat="22.050816" lon="104.128212"><ele>260.3</ele><time>2011-04-26T09:30:10.0000000+00:00</time></trkpt><trkpt lat="22.051016" lon="104.129509"><ele>258.2</ele><time>2011-04-26T09:30:25.0000000+00:00</time></trkpt><trkpt lat="22.051365" lon="104.130188"><ele>253.0</ele><time>2011-04-26T09:30:35.0000000+00:00</time></trkpt><trkpt lat="22.051043" lon="104.131203"><ele>243.3</ele><time>2011-04-26T09:30:50.0000000+00:00</time></trkpt><trkpt lat="22.051096" lon="104.132103"><ele>242.7</ele><time>2011-04-26T09:31:05.0000000+00:00</time></trkpt><trkpt lat="22.051317" lon="104.132813"><ele>248.4</ele><time>2011-04-26T09:31:25.0000000+00:00</time></trkpt><trkpt lat="22.05175" lon="104.133476"><ele>247.1</ele><time>2011-04-26T09:31:55.0000000+00:00</time></trkpt><trkpt lat="22.052212" lon="104.135529"><ele>248.6</ele><time>2011-04-26T09:33:05.0000000+00:00</time></trkpt><trkpt lat="22.051704" lon="104.137062"><ele>247.8</ele><time>2011-04-26T09:33:40.0000000+00:00</time></trkpt><trkpt lat="22.05151" lon="104.138359"><ele>251.1</ele><time>2011-04-26T09:34:10.0000000+00:00</time></trkpt><trkpt lat="22.052113" lon="104.140091"><ele>251.4</ele><time>2011-04-26T09:34:50.0000000+00:00</time></trkpt><trkpt lat="22.053186" lon="104.141533"><ele>252.4</ele><time>2011-04-26T09:35:35.0000000+00:00</time></trkpt><trkpt lat="22.053493" lon="104.141838"><ele>249.2</ele><time>2011-04-26T09:35:45.0000000+00:00</time></trkpt><trkpt lat="22.054569" lon="104.142296"><ele>247.1</ele><time>2011-04-26T09:36:15.0000000+00:00</time></trkpt><trkpt lat="22.055426" lon="104.143051"><ele>250.1</ele><time>2011-04-26T09:37:40.0000000+00:00</time></trkpt><trkpt lat="22.055538" lon="104.143562"><ele>247.3</ele><time>2011-04-26T09:38:35.0000000+00:00</time></trkpt><trkpt lat="22.055677" lon="104.1436"><ele>246.5</ele><time>2011-04-26T09:40:05.0000000+00:00</time></trkpt><trkpt lat="22.055548" lon="104.14357"><ele>247.2</ele><time>2011-04-26T10:02:45.0000000+00:00</time></trkpt><trkpt lat="22.055218" lon="104.14537"><ele>241.3</ele><time>2011-04-26T10:04:45.0000000+00:00</time></trkpt><trkpt lat="22.055775" lon="104.147202"><ele>236.6</ele><time>2011-04-26T10:05:45.0000000+00:00</time></trkpt><trkpt lat="22.057135" lon="104.14846"><ele>231.4</ele><time>2011-04-26T10:06:15.0000000+00:00</time></trkpt><trkpt lat="22.058964" lon="104.149292"><ele>235.0</ele><time>2011-04-26T10:06:55.0000000+00:00</time></trkpt><trkpt lat="22.059296" lon="104.149605"><ele>233.6</ele><time>2011-04-26T10:07:05.0000000+00:00</time></trkpt><trkpt lat="22.05934" lon="104.150826"><ele>230.1</ele><time>2011-04-26T10:07:30.0000000+00:00</time></trkpt><trkpt lat="22.058182" lon="104.152428"><ele>231.2</ele><time>2011-04-26T10:08:10.0000000+00:00</time></trkpt><trkpt lat="22.058031" lon="104.153145"><ele>236.8</ele><time>2011-04-26T10:08:25.0000000+00:00</time></trkpt><trkpt lat="22.058168" lon="104.15361"><ele>242.6</ele><time>2011-04-26T10:08:35.0000000+00:00</time></trkpt><trkpt lat="22.059776" lon="104.155212"><ele>243.3</ele><time>2011-04-26T10:09:35.0000000+00:00</time></trkpt><trkpt lat="22.060364" lon="104.156029"><ele>254.7</ele><time>2011-04-26T10:10:15.0000000+00:00</time></trkpt><trkpt lat="22.060953" lon="104.156334"><ele>246.9</ele><time>2011-04-26T10:10:35.0000000+00:00</time></trkpt><trkpt lat="22.062313" lon="104.156197"><ele>242.3</ele><time>2011-04-26T10:11:00.0000000+00:00</time></trkpt><trkpt lat="22.064407" lon="104.156708"><ele>244.0</ele><time>2011-04-26T10:12:25.0000000+00:00</time></trkpt><trkpt lat="22.065783" lon="104.158096"><ele>249.7</ele><time>2011-04-26T10:13:00.0000000+00:00</time></trkpt><trkpt lat="22.067539" lon="104.159218"><ele>250.1</ele><time>2011-04-26T10:13:45.0000000+00:00</time></trkpt><trkpt lat="22.069239" lon="104.160683"><ele>233.4</ele><time>2011-04-26T10:14:15.0000000+00:00</time></trkpt><trkpt lat="22.070053" lon="104.160973"><ele>248.3</ele><time>2011-04-26T10:14:40.0000000+00:00</time></trkpt><trkpt lat="22.070814" lon="104.161034"><ele>252.0</ele><time>2011-04-26T10:15:05.0000000+00:00</time></trkpt><trkpt lat="22.073957" lon="104.161018"><ele>238.9</ele><time>2011-04-26T10:16:15.0000000+00:00</time></trkpt><trkpt lat="22.074467" lon="104.161438"><ele>244.1</ele><time>2011-04-26T10:16:30.0000000+00:00</time></trkpt><trkpt lat="22.075832" lon="104.163582"><ele>240.5</ele><time>2011-04-26T10:17:20.0000000+00:00</time></trkpt><trkpt lat="22.076265" lon="104.164772"><ele>239.1</ele><time>2011-04-26T10:17:45.0000000+00:00</time></trkpt><trkpt lat="22.076555" lon="104.166229"><ele>247.4</ele><time>2011-04-26T10:18:10.0000000+00:00</time></trkpt><trkpt lat="22.07826" lon="104.169754"><ele>232.6</ele><time>2011-04-26T10:19:20.0000000+00:00</time></trkpt><trkpt lat="22.07917" lon="104.172241"><ele>239.9</ele><time>2011-04-26T10:20:10.0000000+00:00</time></trkpt><trkpt lat="22.079601" lon="104.172806"><ele>248.2</ele><time>2011-04-26T10:20:25.0000000+00:00</time></trkpt><trkpt lat="22.079996" lon="104.173874"><ele>241.7</ele><time>2011-04-26T10:20:40.0000000+00:00</time></trkpt><trkpt lat="22.081108" lon="104.175468"><ele>250.1</ele><time>2011-04-26T10:21:55.0000000+00:00</time></trkpt><trkpt lat="22.081858" lon="104.178719"><ele>257.5</ele><time>2011-04-26T10:22:35.0000000+00:00</time></trkpt><trkpt lat="22.082449" lon="104.179253"><ele>258.4</ele><time>2011-04-26T10:22:50.0000000+00:00</time></trkpt><trkpt lat="22.082903" lon="104.179977"><ele>254.8</ele><time>2011-04-26T10:23:05.0000000+00:00</time></trkpt><trkpt lat="22.083954" lon="104.18219"><ele>248.0</ele><time>2011-04-26T10:24:10.0000000+00:00</time></trkpt><trkpt lat="22.083998" lon="104.182838"><ele>233.8</ele><time>2011-04-26T10:24:20.0000000+00:00</time></trkpt><trkpt lat="22.08354" lon="104.183571"><ele>235.3</ele><time>2011-04-26T10:24:30.0000000+00:00</time></trkpt><trkpt lat="22.083504" lon="104.184212"><ele>227.5</ele><time>2011-04-26T10:24:35.0000000+00:00</time></trkpt><trkpt lat="22.083937" lon="104.186409"><ele>228.9</ele><time>2011-04-26T10:25:10.0000000+00:00</time></trkpt><trkpt lat="22.084232" lon="104.187492"><ele>234.7</ele><time>2011-04-26T10:25:30.0000000+00:00</time></trkpt><trkpt lat="22.085625" lon="104.190285"><ele>228.9</ele><time>2011-04-26T10:26:25.0000000+00:00</time></trkpt><trkpt lat="22.086416" lon="104.192642"><ele>230.1</ele><time>2011-04-26T10:27:05.0000000+00:00</time></trkpt><trkpt lat="22.087404" lon="104.193428"><ele>218.8</ele><time>2011-04-26T10:27:25.0000000+00:00</time></trkpt><trkpt lat="22.088078" lon="104.194283"><ele>224.5</ele><time>2011-04-26T10:27:40.0000000+00:00</time></trkpt><trkpt lat="22.088961" lon="104.194946"><ele>253.9</ele><time>2011-04-26T10:28:00.0000000+00:00</time></trkpt><trkpt lat="22.090784" lon="104.195854"><ele>233.4</ele><time>2011-04-26T10:28:40.0000000+00:00</time></trkpt><trkpt lat="22.091576" lon="104.19722"><ele>222.3</ele><time>2011-04-26T10:29:10.0000000+00:00</time></trkpt><trkpt lat="22.091616" lon="104.198074"><ele>225.3</ele><time>2011-04-26T10:29:30.0000000+00:00</time></trkpt><trkpt lat="22.09074" lon="104.199837"><ele>228.0</ele><time>2011-04-26T10:30:10.0000000+00:00</time></trkpt><trkpt lat="22.090322" lon="104.203491"><ele>219.0</ele><time>2011-04-26T10:31:30.0000000+00:00</time></trkpt><trkpt lat="22.089918" lon="104.205101"><ele>219.9</ele><time>2011-04-26T10:32:10.0000000+00:00</time></trkpt><trkpt lat="22.089186" lon="104.207047"><ele>218.0</ele><time>2011-04-26T10:32:45.0000000+00:00</time></trkpt><trkpt lat="22.08832" lon="104.208656"><ele>224.3</ele><time>2011-04-26T10:33:40.0000000+00:00</time></trkpt><trkpt lat="22.085625" lon="104.211365"><ele>253.6</ele><time>2011-04-26T10:36:55.0000000+00:00</time></trkpt><trkpt lat="22.08498" lon="104.212479"><ele>282.5</ele><time>2011-04-26T10:38:15.0000000+00:00</time></trkpt><trkpt lat="22.084902" lon="104.213692"><ele>260.9</ele><time>2011-04-26T10:44:35.0000000+00:00</time></trkpt><trkpt lat="22.084515" lon="104.214455"><ele>257.9</ele><time>2011-04-26T10:44:45.0000000+00:00</time></trkpt><trkpt lat="22.083023" lon="104.215767"><ele>248.9</ele><time>2011-04-26T10:45:05.0000000+00:00</time></trkpt><trkpt lat="22.082577" lon="104.216492"><ele>237.7</ele><time>2011-04-26T10:45:15.0000000+00:00</time></trkpt><trkpt lat="22.083302" lon="104.218369"><ele>225.0</ele><time>2011-04-26T10:45:40.0000000+00:00</time></trkpt><trkpt lat="22.084116" lon="104.219147"><ele>217.0</ele><time>2011-04-26T10:45:50.0000000+00:00</time></trkpt><trkpt lat="22.084528" lon="104.220032"><ele>218.1</ele><time>2011-04-26T10:46:00.0000000+00:00</time></trkpt><trkpt lat="22.085787" lon="104.225067"><ele>213.5</ele><time>2011-04-26T10:47:55.0000000+00:00</time></trkpt><trkpt lat="22.086811" lon="104.225983"><ele>216.1</ele><time>2011-04-26T10:48:15.0000000+00:00</time></trkpt><trkpt lat="22.087122" lon="104.226608"><ele>210.6</ele><time>2011-04-26T10:48:25.0000000+00:00</time></trkpt><trkpt lat="22.087275" lon="104.227692"><ele>216.7</ele><time>2011-04-26T10:48:50.0000000+00:00</time></trkpt><trkpt lat="22.086899" lon="104.228622"><ele>218.0</ele><time>2011-04-26T10:49:25.0000000+00:00</time></trkpt><trkpt lat="22.086733" lon="104.230408"><ele>227.2</ele><time>2011-04-26T10:50:40.0000000+00:00</time></trkpt><trkpt lat="22.087734" lon="104.231819"><ele>229.8</ele><time>2011-04-26T10:51:35.0000000+00:00</time></trkpt><trkpt lat="22.088186" lon="104.23278"><ele>221.8</ele><time>2011-04-26T10:51:50.0000000+00:00</time></trkpt><trkpt lat="22.088209" lon="104.234482"><ele>211.6</ele><time>2011-04-26T10:52:05.0000000+00:00</time></trkpt><trkpt lat="22.08914" lon="104.235275"><ele>209.0</ele><time>2011-04-26T10:52:20.0000000+00:00</time></trkpt><trkpt lat="22.089897" lon="104.240044"><ele>200.7</ele><time>2011-04-26T10:53:45.0000000+00:00</time></trkpt><trkpt lat="22.08843" lon="104.243584"><ele>197.4</ele><time>2011-04-26T10:54:55.0000000+00:00</time></trkpt><trkpt lat="22.08823" lon="104.244576"><ele>200.5</ele><time>2011-04-26T10:56:20.0000000+00:00</time></trkpt><trkpt lat="22.088287" lon="104.245789"><ele>198.2</ele><time>2011-04-26T10:57:40.0000000+00:00</time></trkpt><trkpt lat="22.089491" lon="104.250206"><ele>207.3</ele><time>2011-04-26T11:00:30.0000000+00:00</time></trkpt><trkpt lat="22.08951" lon="104.252205"><ele>202.4</ele><time>2011-04-26T11:01:45.0000000+00:00</time></trkpt><trkpt lat="22.08942" lon="104.252411"><ele>201.9</ele><time>2011-04-26T11:01:55.0000000+00:00</time></trkpt><trkpt lat="22.088682" lon="104.252083"><ele>200.7</ele><time>2011-04-26T11:03:10.0000000+00:00</time></trkpt><trkpt lat="22.088409" lon="104.252312"><ele>202.1</ele><time>2011-04-26T11:03:25.0000000+00:00</time></trkpt><trkpt lat="22.087841" lon="104.25386"><ele>197.6</ele><time>2011-04-26T11:05:00.0000000+00:00</time></trkpt><trkpt lat="22.087847" lon="104.25367"><ele>199.3</ele><time>2011-04-26T11:06:20.0000000+00:00</time></trkpt><trkpt lat="22.087969" lon="104.25386"><ele>198.2</ele><time>2011-04-26T11:07:25.0000000+00:00</time></trkpt><trkpt lat="22.087709" lon="104.253769"><ele>197.5</ele><time>2011-04-26T11:10:40.0000000+00:00</time></trkpt><trkpt lat="22.088005" lon="104.25383"><ele>198.3</ele><time>2011-04-26T11:11:20.0000000+00:00</time></trkpt><trkpt lat="22.087961" lon="104.25367"><ele>199.5</ele><time>2011-04-26T11:11:55.0000000+00:00</time></trkpt><trkpt lat="22.087885" lon="104.25383"><ele>198.2</ele><time>2011-04-26T11:12:50.0000000+00:00</time></trkpt><trkpt lat="22.087885" lon="104.253677"><ele>199.5</ele><time>2011-04-26T11:13:20.0000000+00:00</time></trkpt><trkpt lat="22.087715" lon="104.253883"><ele>196.4</ele><time>2011-04-26T11:18:40.0000000+00:00</time></trkpt><trkpt lat="22.087898" lon="104.253822"><ele>198.4</ele><time>2011-04-26T11:20:40.0000000+00:00</time></trkpt><trkpt lat="22.087791" lon="104.253891"><ele>196.9</ele><time>2011-04-26T11:22:40.0000000+00:00</time></trkpt><trkpt lat="22.087715" lon="104.253693"><ele>198.4</ele><time>2011-04-26T11:23:20.0000000+00:00</time></trkpt><trkpt lat="22.08794" lon="104.25386"><ele>198.2</ele><time>2011-04-26T11:24:55.0000000+00:00</time></trkpt><trkpt lat="22.087723" lon="104.253891"><ele>196.4</ele><time>2011-04-26T11:26:35.0000000+00:00</time></trkpt><trkpt lat="22.087851" lon="104.25386"><ele>197.7</ele><time>2011-04-26T11:30:50.0000000+00:00</time></trkpt></trkseg><trkseg><trkpt lat="22.088186" lon="104.254097"><ele>195.8</ele><time>2011-04-27T03:08:01.0000000+00:00</time></trkpt><trkpt lat="22.088434" lon="104.254097"><ele>195.0</ele><time>2011-04-27T03:08:31.0000000+00:00</time></trkpt><trkpt lat="22.087618" lon="104.254036"><ele>194.3</ele><time>2011-04-27T03:09:26.0000000+00:00</time></trkpt><trkpt lat="22.087704" lon="104.253952"><ele>195.6</ele><time>2011-04-27T03:10:21.0000000+00:00</time></trkpt><trkpt lat="22.08757" lon="104.254364"><ele>192.5</ele><time>2011-04-27T03:11:01.0000000+00:00</time></trkpt><trkpt lat="22.089346" lon="104.254517"><ele>199.4</ele><time>2011-04-27T03:12:01.0000000+00:00</time></trkpt><trkpt lat="22.089634" lon="104.253624"><ele>201.5</ele><time>2011-04-27T03:13:46.0000000+00:00</time></trkpt><trkpt lat="22.089525" lon="104.253815"><ele>200.2</ele><time>2011-04-27T04:09:46.0000000+00:00</time></trkpt><trkpt lat="22.089586" lon="104.255974"><ele>196.5</ele><time>2011-04-27T04:10:51.0000000+00:00</time></trkpt><trkpt lat="22.089468" lon="104.257317"><ele>195.6</ele><time>2011-04-27T04:13:31.0000000+00:00</time></trkpt><trkpt lat="22.090641" lon="104.260475"><ele>207.0</ele><time>2011-04-27T04:19:46.0000000+00:00</time></trkpt><trkpt lat="22.091427" lon="104.261375"><ele>212.4</ele><time>2011-04-27T04:20:51.0000000+00:00</time></trkpt><trkpt lat="22.092823" lon="104.261772"><ele>222.3</ele><time>2011-04-27T04:22:16.0000000+00:00</time></trkpt><trkpt lat="22.093468" lon="104.262337"><ele>219.9</ele><time>2011-04-27T04:24:06.0000000+00:00</time></trkpt><trkpt lat="22.094158" lon="104.262383"><ele>221.1</ele><time>2011-04-27T04:24:26.0000000+00:00</time></trkpt><trkpt lat="22.094719" lon="104.262138"><ele>224.3</ele><time>2011-04-27T04:24:51.0000000+00:00</time></trkpt><trkpt lat="22.095158" lon="104.261246"><ele>227.1</ele><time>2011-04-27T04:25:31.0000000+00:00</time></trkpt><trkpt lat="22.096504" lon="104.260124"><ele>240.1</ele><time>2011-04-27T04:27:36.0000000+00:00</time></trkpt><trkpt lat="22.098022" lon="104.259743"><ele>249.7</ele><time>2011-04-27T04:29:56.0000000+00:00</time></trkpt><trkpt lat="22.100246" lon="104.258575"><ele>275.3</ele><time>2011-04-27T04:33:36.0000000+00:00</time></trkpt><trkpt lat="22.10046" lon="104.258667"><ele>276.7</ele><time>2011-04-27T04:33:51.0000000+00:00</time></trkpt><trkpt lat="22.100483" lon="104.258873"><ele>282.5</ele><time>2011-04-27T04:34:06.0000000+00:00</time></trkpt><trkpt lat="22.099249" lon="104.259926"><ele>281.4</ele><time>2011-04-27T04:35:36.0000000+00:00</time></trkpt><trkpt lat="22.099041" lon="104.260323"><ele>282.0</ele><time>2011-04-27T04:35:51.0000000+00:00</time></trkpt><trkpt lat="22.099262" lon="104.260712"><ele>288.1</ele><time>2011-04-27T04:36:11.0000000+00:00</time></trkpt><trkpt lat="22.100069" lon="104.261055"><ele>292.0</ele><time>2011-04-27T04:37:16.0000000+00:00</time></trkpt><trkpt lat="22.101583" lon="104.261078"><ele>311.8</ele><time>2011-04-27T04:40:21.0000000+00:00</time></trkpt><trkpt lat="22.102089" lon="104.260628"><ele>321.5</ele><time>2011-04-27T04:41:16.0000000+00:00</time></trkpt><trkpt lat="22.102501" lon="104.260895"><ele>318.4</ele><time>2011-04-27T04:42:01.0000000+00:00</time></trkpt><trkpt lat="22.103123" lon="104.260628"><ele>337.9</ele><time>2011-04-27T04:43:01.0000000+00:00</time></trkpt><trkpt lat="22.103758" lon="104.260994"><ele>334.4</ele><time>2011-04-27T04:44:01.0000000+00:00</time></trkpt><trkpt lat="22.104559" lon="104.260963"><ele>357.8</ele><time>2011-04-27T04:45:06.0000000+00:00</time></trkpt><trkpt lat="22.10458" lon="104.260841"><ele>359.5</ele><time>2011-04-27T04:46:41.0000000+00:00</time></trkpt><trkpt lat="22.105103" lon="104.260674"><ele>368.3</ele><time>2011-04-27T04:47:46.0000000+00:00</time></trkpt><trkpt lat="22.105579" lon="104.260719"><ele>357.2</ele><time>2011-04-27T04:48:01.0000000+00:00</time></trkpt><trkpt lat="22.106825" lon="104.26004"><ele>336.8</ele><time>2011-04-27T04:48:21.0000000+00:00</time></trkpt><trkpt lat="22.107388" lon="104.259346"><ele>337.5</ele><time>2011-04-27T04:48:36.0000000+00:00</time></trkpt><trkpt lat="22.108084" lon="104.259117"><ele>333.8</ele><time>2011-04-27T04:48:46.0000000+00:00</time></trkpt><trkpt lat="22.108486" lon="104.259186"><ele>325.9</ele><time>2011-04-27T04:48:51.0000000+00:00</time></trkpt><trkpt lat="22.109221" lon="104.259804"><ele>314.7</ele><time>2011-04-27T04:49:01.0000000+00:00</time></trkpt><trkpt lat="22.109705" lon="104.259911"><ele>316.3</ele><time>2011-04-27T04:49:06.0000000+00:00</time></trkpt><trkpt lat="22.110609" lon="104.259651"><ele>314.4</ele><time>2011-04-27T04:49:16.0000000+00:00</time></trkpt><trkpt lat="22.112165" lon="104.26004"><ele>302.3</ele><time>2011-04-27T04:49:31.0000000+00:00</time></trkpt><trkpt lat="22.113607" lon="104.259544"><ele>298.0</ele><time>2011-04-27T04:49:46.0000000+00:00</time></trkpt><trkpt lat="22.113958" lon="104.259621"><ele>295.1</ele><time>2011-04-27T04:49:51.0000000+00:00</time></trkpt><trkpt lat="22.114122" lon="104.259995"><ele>288.2</ele><time>2011-04-27T04:49:56.0000000+00:00</time></trkpt><trkpt lat="22.113937" lon="104.261032"><ele>277.9</ele><time>2011-04-27T04:50:06.0000000+00:00</time></trkpt><trkpt lat="22.114359" lon="104.262474"><ele>275.7</ele><time>2011-04-27T04:50:21.0000000+00:00</time></trkpt><trkpt lat="22.11541" lon="104.263565"><ele>262.4</ele><time>2011-04-27T04:52:01.0000000+00:00</time></trkpt><trkpt lat="22.116127" lon="104.263985"><ele>249.5</ele><time>2011-04-27T04:54:01.0000000+00:00</time></trkpt><trkpt lat="22.115902" lon="104.264664"><ele>244.2</ele><time>2011-04-27T04:54:21.0000000+00:00</time></trkpt><trkpt lat="22.115961" lon="104.265205"><ele>235.3</ele><time>2011-04-27T04:54:41.0000000+00:00</time></trkpt><trkpt lat="22.116501" lon="104.2658"><ele>232.7</ele><time>2011-04-27T04:54:56.0000000+00:00</time></trkpt><trkpt lat="22.117104" lon="104.266029"><ele>229.9</ele><time>2011-04-27T04:55:26.0000000+00:00</time></trkpt><trkpt lat="22.117548" lon="104.266571"><ele>229.0</ele><time>2011-04-27T04:57:46.0000000+00:00</time></trkpt><trkpt lat="22.118076" lon="104.26693"><ele>222.9</ele><time>2011-04-27T04:57:56.0000000+00:00</time></trkpt><trkpt lat="22.118383" lon="104.268082"><ele>213.7</ele><time>2011-04-27T04:58:16.0000000+00:00</time></trkpt><trkpt lat="22.119173" lon="104.268364"><ele>210.0</ele><time>2011-04-27T04:58:31.0000000+00:00</time></trkpt><trkpt lat="22.119867" lon="104.269569"><ele>211.2</ele><time>2011-04-27T04:58:46.0000000+00:00</time></trkpt><trkpt lat="22.120335" lon="104.269753"><ele>204.9</ele><time>2011-04-27T04:58:51.0000000+00:00</time></trkpt><trkpt lat="22.12112" lon="104.269455"><ele>196.5</ele><time>2011-04-27T04:59:01.0000000+00:00</time></trkpt><trkpt lat="22.121698" lon="104.268822"><ele>202.5</ele><time>2011-04-27T04:59:16.0000000+00:00</time></trkpt><trkpt lat="22.122171" lon="104.268677"><ele>192.3</ele><time>2011-04-27T04:59:26.0000000+00:00</time></trkpt><trkpt lat="22.122259" lon="104.26886"><ele>187.6</ele><time>2011-04-27T04:59:31.0000000+00:00</time></trkpt><trkpt lat="22.122049" lon="104.269386"><ele>175.2</ele><time>2011-04-27T04:59:41.0000000+00:00</time></trkpt><trkpt lat="22.122211" lon="104.270027"><ele>173.5</ele><time>2011-04-27T04:59:51.0000000+00:00</time></trkpt><trkpt lat="22.122417" lon="104.270119"><ele>175.6</ele><time>2011-04-27T04:59:56.0000000+00:00</time></trkpt><trkpt lat="22.123131" lon="104.269913"><ele>173.3</ele><time>2011-04-27T05:00:11.0000000+00:00</time></trkpt><trkpt lat="22.123327" lon="104.270126"><ele>171.0</ele><time>2011-04-27T05:00:16.0000000+00:00</time></trkpt><trkpt lat="22.122522" lon="104.271919"><ele>161.5</ele><time>2011-04-27T05:01:46.0000000+00:00</time></trkpt><trkpt lat="22.12166" lon="104.272552"><ele>155.4</ele><time>2011-04-27T05:02:56.0000000+00:00</time></trkpt><trkpt lat="22.121643" lon="104.272934"><ele>148.0</ele><time>2011-04-27T05:03:06.0000000+00:00</time></trkpt><trkpt lat="22.123337" lon="104.274498"><ele>130.9</ele><time>2011-04-27T05:03:41.0000000+00:00</time></trkpt><trkpt lat="22.123857" lon="104.273964"><ele>136.2</ele><time>2011-04-27T05:03:56.0000000+00:00</time></trkpt><trkpt lat="22.124624" lon="104.274384"><ele>127.3</ele><time>2011-04-27T05:04:11.0000000+00:00</time></trkpt><trkpt lat="22.125303" lon="104.274361"><ele>122.9</ele><time>2011-04-27T05:04:26.0000000+00:00</time></trkpt><trkpt lat="22.125776" lon="104.274544"><ele>118.8</ele><time>2011-04-27T05:10:41.0000000+00:00</time></trkpt><trkpt lat="22.126694" lon="104.275505"><ele>108.4</ele><time>2011-04-27T05:11:11.0000000+00:00</time></trkpt><trkpt lat="22.127394" lon="104.276939"><ele>108.5</ele><time>2011-04-27T05:11:56.0000000+00:00</time></trkpt><trkpt lat="22.12838" lon="104.277077"><ele>106.1</ele><time>2011-04-27T05:12:26.0000000+00:00</time></trkpt><trkpt lat="22.128695" lon="104.277298"><ele>103.5</ele><time>2011-04-27T05:12:41.0000000+00:00</time></trkpt><trkpt lat="22.128841" lon="104.277641"><ele>103.9</ele><time>2011-04-27T05:13:36.0000000+00:00</time></trkpt><trkpt lat="22.12886" lon="104.278496"><ele>117.5</ele><time>2011-04-27T05:13:56.0000000+00:00</time></trkpt><trkpt lat="22.13011" lon="104.279755"><ele>102.5</ele><time>2011-04-27T05:14:41.0000000+00:00</time></trkpt><trkpt lat="22.130859" lon="104.281258"><ele>106.7</ele><time>2011-04-27T05:16:11.0000000+00:00</time></trkpt><trkpt lat="22.131025" lon="104.282051"><ele>121.2</ele><time>2011-04-27T05:17:51.0000000+00:00</time></trkpt><trkpt lat="22.132444" lon="104.2836"><ele>102.6</ele><time>2011-04-27T05:24:01.0000000+00:00</time></trkpt><trkpt lat="22.132523" lon="104.284401"><ele>101.0</ele><time>2011-04-27T05:24:56.0000000+00:00</time></trkpt><trkpt lat="22.132782" lon="104.284904"><ele>98.2</ele><time>2011-04-27T05:25:26.0000000+00:00</time></trkpt><trkpt lat="22.133976" lon="104.285904"><ele>110.2</ele><time>2011-04-27T05:26:31.0000000+00:00</time></trkpt><trkpt lat="22.134205" lon="104.286339"><ele>99.4</ele><time>2011-04-27T05:26:41.0000000+00:00</time></trkpt><trkpt lat="22.134071" lon="104.286926"><ele>95.2</ele><time>2011-04-27T05:26:51.0000000+00:00</time></trkpt><trkpt lat="22.13278" lon="104.288521"><ele>101.1</ele><time>2011-04-27T05:28:16.0000000+00:00</time></trkpt><trkpt lat="22.132729" lon="104.289558"><ele>108.0</ele><time>2011-04-27T05:28:51.0000000+00:00</time></trkpt><trkpt lat="22.132381" lon="104.29055"><ele>97.6</ele><time>2011-04-27T05:29:26.0000000+00:00</time></trkpt><trkpt lat="22.132692" lon="104.290993"><ele>108.3</ele><time>2011-04-27T05:29:46.0000000+00:00</time></trkpt><trkpt lat="22.132616" lon="104.291626"><ele>107.8</ele><time>2011-04-27T05:30:16.0000000+00:00</time></trkpt><trkpt lat="22.132965" lon="104.292725"><ele>108.8</ele><time>2011-04-27T05:30:56.0000000+00:00</time></trkpt><trkpt lat="22.133026" lon="104.294456"><ele>111.2</ele><time>2011-04-27T05:32:01.0000000+00:00</time></trkpt><trkpt lat="22.133247" lon="104.295403"><ele>116.4</ele><time>2011-04-27T05:33:16.0000000+00:00</time></trkpt><trkpt lat="22.133564" lon="104.295914"><ele>127.7</ele><time>2011-04-27T05:34:46.0000000+00:00</time></trkpt><trkpt lat="22.1334" lon="104.296631"><ele>134.7</ele><time>2011-04-27T05:35:41.0000000+00:00</time></trkpt><trkpt lat="22.134272" lon="104.297607"><ele>149.5</ele><time>2011-04-27T05:37:21.0000000+00:00</time></trkpt><trkpt lat="22.134176" lon="104.298058"><ele>152.2</ele><time>2011-04-27T05:37:56.0000000+00:00</time></trkpt><trkpt lat="22.1343" lon="104.298744"><ele>160.8</ele><time>2011-04-27T05:39:31.0000000+00:00</time></trkpt><trkpt lat="22.133869" lon="104.299637"><ele>164.8</ele><time>2011-04-27T05:40:46.0000000+00:00</time></trkpt><trkpt lat="22.134142" lon="104.300026"><ele>174.6</ele><time>2011-04-27T05:41:11.0000000+00:00</time></trkpt><trkpt lat="22.134756" lon="104.3004"><ele>175.2</ele><time>2011-04-27T05:42:16.0000000+00:00</time></trkpt><trkpt lat="22.135317" lon="104.300209"><ele>182.9</ele><time>2011-04-27T05:43:56.0000000+00:00</time></trkpt><trkpt lat="22.135889" lon="104.300728"><ele>189.1</ele><time>2011-04-27T05:44:56.0000000+00:00</time></trkpt><trkpt lat="22.136402" lon="104.300728"><ele>193.0</ele><time>2011-04-27T05:45:21.0000000+00:00</time></trkpt><trkpt lat="22.136677" lon="104.301064"><ele>192.4</ele><time>2011-04-27T05:45:51.0000000+00:00</time></trkpt><trkpt lat="22.137302" lon="104.301399"><ele>202.9</ele><time>2011-04-27T05:46:36.0000000+00:00</time></trkpt><trkpt lat="22.137934" lon="104.301285"><ele>207.0</ele><time>2011-04-27T05:47:21.0000000+00:00</time></trkpt><trkpt lat="22.138393" lon="104.301735"><ele>213.4</ele><time>2011-04-27T05:48:51.0000000+00:00</time></trkpt><trkpt lat="22.138189" lon="104.30246"><ele>218.0</ele><time>2011-04-27T05:50:31.0000000+00:00</time></trkpt><trkpt lat="22.138727" lon="104.303123"><ele>220.3</ele><time>2011-04-27T05:51:36.0000000+00:00</time></trkpt><trkpt lat="22.139835" lon="104.303604"><ele>240.7</ele><time>2011-04-27T05:53:11.0000000+00:00</time></trkpt><trkpt lat="22.14015" lon="104.304001"><ele>247.4</ele><time>2011-04-27T05:53:46.0000000+00:00</time></trkpt><trkpt lat="22.139956" lon="104.304619"><ele>255.4</ele><time>2011-04-27T06:25:21.0000000+00:00</time></trkpt><trkpt lat="22.139294" lon="104.305206"><ele>259.0</ele><time>2011-04-27T06:26:21.0000000+00:00</time></trkpt><trkpt lat="22.139414" lon="104.305878"><ele>263.9</ele><time>2011-04-27T06:27:06.0000000+00:00</time></trkpt><trkpt lat="22.139282" lon="104.306854"><ele>273.4</ele><time>2011-04-27T06:28:16.0000000+00:00</time></trkpt><trkpt lat="22.139376" lon="104.307182"><ele>274.5</ele><time>2011-04-27T06:28:41.0000000+00:00</time></trkpt><trkpt lat="22.14027" lon="104.3078"><ele>291.5</ele><time>2011-04-27T06:29:56.0000000+00:00</time></trkpt><trkpt lat="22.139978" lon="104.309532"><ele>305.8</ele><time>2011-04-27T06:31:51.0000000+00:00</time></trkpt><trkpt lat="22.140793" lon="104.310226"><ele>328.4</ele><time>2011-04-27T06:33:06.0000000+00:00</time></trkpt><trkpt lat="22.139584" lon="104.311417"><ele>333.3</ele><time>2011-04-27T06:35:36.0000000+00:00</time></trkpt><trkpt lat="22.139547" lon="104.311188"><ele>324.1</ele><time>2011-04-27T06:36:06.0000000+00:00</time></trkpt><trkpt lat="22.139446" lon="104.311722"><ele>341.1</ele><time>2011-04-27T06:36:51.0000000+00:00</time></trkpt><trkpt lat="22.138721" lon="104.312706"><ele>347.0</ele><time>2011-04-27T06:38:11.0000000+00:00</time></trkpt><trkpt lat="22.138859" lon="104.314301"><ele>357.0</ele><time>2011-04-27T06:39:51.0000000+00:00</time></trkpt><trkpt lat="22.138515" lon="104.314819"><ele>358.2</ele><time>2011-04-27T06:40:26.0000000+00:00</time></trkpt><trkpt lat="22.138538" lon="104.315475"><ele>372.3</ele><time>2011-04-27T06:41:06.0000000+00:00</time></trkpt><trkpt lat="22.137934" lon="104.315582"><ele>368.3</ele><time>2011-04-27T06:41:46.0000000+00:00</time></trkpt><trkpt lat="22.137728" lon="104.315865"><ele>370.5</ele><time>2011-04-27T06:42:06.0000000+00:00</time></trkpt><trkpt lat="22.137989" lon="104.316498"><ele>384.2</ele><time>2011-04-27T06:42:46.0000000+00:00</time></trkpt><trkpt lat="22.137589" lon="104.316933"><ele>382.0</ele><time>2011-04-27T06:43:21.0000000+00:00</time></trkpt><trkpt lat="22.137684" lon="104.317871"><ele>399.3</ele><time>2011-04-27T06:44:16.0000000+00:00</time></trkpt><trkpt lat="22.136982" lon="104.318321"><ele>404.5</ele><time>2011-04-27T06:45:41.0000000+00:00</time></trkpt><trkpt lat="22.1367" lon="104.319008"><ele>416.4</ele><time>2011-04-27T06:49:01.0000000+00:00</time></trkpt><trkpt lat="22.136148" lon="104.319481"><ele>426.8</ele><time>2011-04-27T06:50:01.0000000+00:00</time></trkpt><trkpt lat="22.136469" lon="104.320053"><ele>426.4</ele><time>2011-04-27T06:50:46.0000000+00:00</time></trkpt><trkpt lat="22.136524" lon="104.319954"><ele>421.6</ele><time>2011-04-27T06:53:41.0000000+00:00</time></trkpt><trkpt lat="22.13652" lon="104.320076"><ele>424.7</ele><time>2011-04-27T07:01:26.0000000+00:00</time></trkpt><trkpt lat="22.136566" lon="104.319969"><ele>421.2</ele><time>2011-04-27T07:20:41.0000000+00:00</time></trkpt><trkpt lat="22.13703" lon="104.320091"><ele>411.8</ele><time>2011-04-27T07:21:26.0000000+00:00</time></trkpt><trkpt lat="22.137007" lon="104.320808"><ele>394.3</ele><time>2011-04-27T07:21:46.0000000+00:00</time></trkpt><trkpt lat="22.137526" lon="104.321236"><ele>392.9</ele><time>2011-04-27T07:21:56.0000000+00:00</time></trkpt><trkpt lat="22.137564" lon="104.321526"><ele>390.4</ele><time>2011-04-27T07:22:01.0000000+00:00</time></trkpt><trkpt lat="22.137217" lon="104.322357"><ele>379.8</ele><time>2011-04-27T07:22:16.0000000+00:00</time></trkpt><trkpt lat="22.137281" lon="104.322586"><ele>380.3</ele><time>2011-04-27T07:22:21.0000000+00:00</time></trkpt><trkpt lat="22.137512" lon="104.322655"><ele>381.9</ele><time>2011-04-27T07:22:26.0000000+00:00</time></trkpt><trkpt lat="22.139122" lon="104.321655"><ele>370.3</ele><time>2011-04-27T07:22:56.0000000+00:00</time></trkpt><trkpt lat="22.140171" lon="104.322113"><ele>350.4</ele><time>2011-04-27T07:23:16.0000000+00:00</time></trkpt><trkpt lat="22.140507" lon="104.322105"><ele>341.8</ele><time>2011-04-27T07:23:21.0000000+00:00</time></trkpt><trkpt lat="22.140657" lon="104.321953"><ele>343.3</ele><time>2011-04-27T07:23:26.0000000+00:00</time></trkpt><trkpt lat="22.140728" lon="104.321198"><ele>340.2</ele><time>2011-04-27T07:23:41.0000000+00:00</time></trkpt><trkpt lat="22.140881" lon="104.321167"><ele>336.2</ele><time>2011-04-27T07:23:46.0000000+00:00</time></trkpt><trkpt lat="22.141205" lon="104.321442"><ele>329.5</ele><time>2011-04-27T07:23:56.0000000+00:00</time></trkpt><trkpt lat="22.141348" lon="104.321838"><ele>323.4</ele><time>2011-04-27T07:24:11.0000000+00:00</time></trkpt><trkpt lat="22.142239" lon="104.322433"><ele>318.0</ele><time>2011-04-27T07:24:56.0000000+00:00</time></trkpt><trkpt lat="22.142693" lon="104.323242"><ele>335.4</ele><time>2011-04-27T07:25:16.0000000+00:00</time></trkpt><trkpt lat="22.143459" lon="104.323456"><ele>316.3</ele><time>2011-04-27T07:25:31.0000000+00:00</time></trkpt><trkpt lat="22.143412" lon="104.32412"><ele>317.9</ele><time>2011-04-27T07:25:51.0000000+00:00</time></trkpt><trkpt lat="22.143959" lon="104.32589"><ele>296.0</ele><time>2011-04-27T07:26:21.0000000+00:00</time></trkpt><trkpt lat="22.14456" lon="104.32634"><ele>286.0</ele><time>2011-04-27T07:26:41.0000000+00:00</time></trkpt><trkpt lat="22.144154" lon="104.32756"><ele>291.3</ele><time>2011-04-27T07:26:56.0000000+00:00</time></trkpt><trkpt lat="22.14426" lon="104.328171"><ele>271.2</ele><time>2011-04-27T07:27:06.0000000+00:00</time></trkpt><trkpt lat="22.144039" lon="104.328659"><ele>282.4</ele><time>2011-04-27T07:27:16.0000000+00:00</time></trkpt><trkpt lat="22.144089" lon="104.329239"><ele>257.5</ele><time>2011-04-27T07:27:26.0000000+00:00</time></trkpt><trkpt lat="22.143549" lon="104.329575"><ele>266.3</ele><time>2011-04-27T07:27:41.0000000+00:00</time></trkpt><trkpt lat="22.143557" lon="104.330246"><ele>248.6</ele><time>2011-04-27T07:27:56.0000000+00:00</time></trkpt><trkpt lat="22.143206" lon="104.330498"><ele>239.8</ele><time>2011-04-27T07:28:06.0000000+00:00</time></trkpt><trkpt lat="22.142595" lon="104.330437"><ele>231.9</ele><time>2011-04-27T07:29:41.0000000+00:00</time></trkpt><trkpt lat="22.141573" lon="104.330902"><ele>235.3</ele><time>2011-04-27T07:30:21.0000000+00:00</time></trkpt><trkpt lat="22.141403" lon="104.331184"><ele>242.8</ele><time>2011-04-27T07:30:26.0000000+00:00</time></trkpt><trkpt lat="22.141558" lon="104.331459"><ele>246.9</ele><time>2011-04-27T07:30:31.0000000+00:00</time></trkpt><trkpt lat="22.142303" lon="104.331375"><ele>245.0</ele><time>2011-04-27T07:30:41.0000000+00:00</time></trkpt><trkpt lat="22.142973" lon="104.331841"><ele>233.2</ele><time>2011-04-27T07:30:51.0000000+00:00</time></trkpt><trkpt lat="22.143633" lon="104.331612"><ele>220.5</ele><time>2011-04-27T07:31:01.0000000+00:00</time></trkpt><trkpt lat="22.144083" lon="104.332161"><ele>220.5</ele><time>2011-04-27T07:31:11.0000000+00:00</time></trkpt><trkpt lat="22.144432" lon="104.332291"><ele>212.9</ele><time>2011-04-27T07:31:16.0000000+00:00</time></trkpt><trkpt lat="22.144964" lon="104.331848"><ele>200.3</ele><time>2011-04-27T07:31:56.0000000+00:00</time></trkpt><trkpt lat="22.145477" lon="104.332085"><ele>199.4</ele><time>2011-04-27T07:32:06.0000000+00:00</time></trkpt><trkpt lat="22.146217" lon="104.332054"><ele>190.6</ele><time>2011-04-27T07:32:41.0000000+00:00</time></trkpt><trkpt lat="22.146505" lon="104.332169"><ele>188.2</ele><time>2011-04-27T07:32:46.0000000+00:00</time></trkpt><trkpt lat="22.146824" lon="104.33284"><ele>189.8</ele><time>2011-04-27T07:32:56.0000000+00:00</time></trkpt><trkpt lat="22.147261" lon="104.33329"><ele>182.9</ele><time>2011-04-27T07:36:11.0000000+00:00</time></trkpt><trkpt lat="22.148077" lon="104.333527"><ele>168.1</ele><time>2011-04-27T07:36:31.0000000+00:00</time></trkpt><trkpt lat="22.148447" lon="104.334419"><ele>169.5</ele><time>2011-04-27T07:36:46.0000000+00:00</time></trkpt><trkpt lat="22.148647" lon="104.33638"><ele>154.1</ele><time>2011-04-27T07:37:16.0000000+00:00</time></trkpt><trkpt lat="22.149387" lon="104.338158"><ele>143.4</ele><time>2011-04-27T07:37:51.0000000+00:00</time></trkpt><trkpt lat="22.149506" lon="104.339783"><ele>123.4</ele><time>2011-04-27T07:38:16.0000000+00:00</time></trkpt><trkpt lat="22.149689" lon="104.340195"><ele>117.0</ele><time>2011-04-27T07:38:21.0000000+00:00</time></trkpt><trkpt lat="22.150343" lon="104.340508"><ele>109.4</ele><time>2011-04-27T07:38:31.0000000+00:00</time></trkpt><trkpt lat="22.150049" lon="104.34166"><ele>111.1</ele><time>2011-04-27T07:39:56.0000000+00:00</time></trkpt><trkpt lat="22.150743" lon="104.342438"><ele>98.0</ele><time>2011-04-27T07:40:26.0000000+00:00</time></trkpt><trkpt lat="22.150831" lon="104.343086"><ele>87.8</ele><time>2011-04-27T07:40:41.0000000+00:00</time></trkpt><trkpt lat="22.152029" lon="104.345802"><ele>71.4</ele><time>2011-04-27T07:44:51.0000000+00:00</time></trkpt><trkpt lat="22.152365" lon="104.345993"><ele>69.7</ele><time>2011-04-27T07:45:06.0000000+00:00</time></trkpt><trkpt lat="22.153484" lon="104.346077"><ele>75.1</ele><time>2011-04-27T07:45:56.0000000+00:00</time></trkpt><trkpt lat="22.154623" lon="104.346405"><ele>74.5</ele><time>2011-04-27T07:47:01.0000000+00:00</time></trkpt><trkpt lat="22.155521" lon="104.346519"><ele>97.3</ele><time>2011-04-27T07:48:01.0000000+00:00</time></trkpt><trkpt lat="22.155962" lon="104.346359"><ele>96.5</ele><time>2011-04-27T07:49:31.0000000+00:00</time></trkpt><trkpt lat="22.156048" lon="104.346466"><ele>106.5</ele><time>2011-04-27T07:50:26.0000000+00:00</time></trkpt><trkpt lat="22.157747" lon="104.344963"><ele>75.0</ele><time>2011-04-27T07:52:06.0000000+00:00</time></trkpt><trkpt lat="22.158386" lon="104.344635"><ele>88.5</ele><time>2011-04-27T07:52:26.0000000+00:00</time></trkpt><trkpt lat="22.159548" lon="104.344688"><ele>95.3</ele><time>2011-04-27T07:53:21.0000000+00:00</time></trkpt><trkpt lat="22.161161" lon="104.345909"><ele>88.4</ele><time>2011-04-27T07:53:56.0000000+00:00</time></trkpt><trkpt lat="22.162275" lon="104.348831"><ele>72.7</ele><time>2011-04-27T07:55:01.0000000+00:00</time></trkpt><trkpt lat="22.162994" lon="104.349915"><ele>66.5</ele><time>2011-04-27T07:55:26.0000000+00:00</time></trkpt><trkpt lat="22.164831" lon="104.351891"><ele>77.7</ele><time>2011-04-27T07:56:21.0000000+00:00</time></trkpt><trkpt lat="22.166166" lon="104.353813"><ele>71.7</ele><time>2011-04-27T07:57:11.0000000+00:00</time></trkpt><trkpt lat="22.167894" lon="104.355133"><ele>66.7</ele><time>2011-04-27T07:58:21.0000000+00:00</time></trkpt><trkpt lat="22.168005" lon="104.355278"><ele>65.6</ele><time>2011-04-27T07:58:31.0000000+00:00</time></trkpt><trkpt lat="22.167845" lon="104.355522"><ele>66.1</ele><time>2011-04-27T08:00:16.0000000+00:00</time></trkpt><trkpt lat="22.167946" lon="104.35537"><ele>65.8</ele><time>2011-04-27T08:11:26.0000000+00:00</time></trkpt><trkpt lat="22.167847" lon="104.355095"><ele>67.8</ele><time>2011-04-27T08:11:36.0000000+00:00</time></trkpt><trkpt lat="22.167105" lon="104.35437"><ele>77.4</ele><time>2011-04-27T08:12:46.0000000+00:00</time></trkpt><trkpt lat="22.166988" lon="104.354515"><ele>85.4</ele><time>2011-04-27T08:34:11.0000000+00:00</time></trkpt><trkpt lat="22.167187" lon="104.354408"><ele>76.4</ele><time>2011-04-27T08:44:26.0000000+00:00</time></trkpt><trkpt lat="22.168024" lon="104.355232"><ele>65.5</ele><time>2011-04-27T08:53:56.0000000+00:00</time></trkpt><trkpt lat="22.167925" lon="104.355453"><ele>65.6</ele><time>2011-04-27T08:55:16.0000000+00:00</time></trkpt><trkpt lat="22.168802" lon="104.355751"><ele>68.7</ele><time>2011-04-27T08:56:31.0000000+00:00</time></trkpt><trkpt lat="22.169231" lon="104.355736"><ele>66.3</ele><time>2011-04-27T08:57:26.0000000+00:00</time></trkpt><trkpt lat="22.17251" lon="104.353874"><ele>68.5</ele><time>2011-04-27T09:02:56.0000000+00:00</time></trkpt><trkpt lat="22.176252" lon="104.354233"><ele>64.8</ele><time>2011-04-27T09:06:36.0000000+00:00</time></trkpt><trkpt lat="22.178612" lon="104.353539"><ele>65.2</ele><time>2011-04-27T09:10:01.0000000+00:00</time></trkpt><trkpt lat="22.179522" lon="104.353783"><ele>68.0</ele><time>2011-04-27T09:11:06.0000000+00:00</time></trkpt><trkpt lat="22.180307" lon="104.354187"><ele>72.2</ele><time>2011-04-27T09:11:41.0000000+00:00</time></trkpt><trkpt lat="22.18158" lon="104.355408"><ele>72.3</ele><time>2011-04-27T09:12:31.0000000+00:00</time></trkpt><trkpt lat="22.18232" lon="104.355919"><ele>83.9</ele><time>2011-04-27T09:12:56.0000000+00:00</time></trkpt><trkpt lat="22.182751" lon="104.35659"><ele>77.8</ele><time>2011-04-27T09:13:21.0000000+00:00</time></trkpt><trkpt lat="22.183004" lon="104.357346"><ele>79.2</ele><time>2011-04-27T09:13:51.0000000+00:00</time></trkpt><trkpt lat="22.182993" lon="104.358292"><ele>82.0</ele><time>2011-04-27T09:14:26.0000000+00:00</time></trkpt><trkpt lat="22.183619" lon="104.359344"><ele>78.8</ele><time>2011-04-27T09:15:01.0000000+00:00</time></trkpt><trkpt lat="22.183559" lon="104.359802"><ele>75.8</ele><time>2011-04-27T09:15:11.0000000+00:00</time></trkpt><trkpt lat="22.18269" lon="104.361137"><ele>84.3</ele><time>2011-04-27T09:15:56.0000000+00:00</time></trkpt><trkpt lat="22.182688" lon="104.361366"><ele>88.9</ele><time>2011-04-27T09:16:06.0000000+00:00</time></trkpt><trkpt lat="22.183365" lon="104.362679"><ele>92.1</ele><time>2011-04-27T09:16:56.0000000+00:00</time></trkpt><trkpt lat="22.183432" lon="104.363426"><ele>108.5</ele><time>2011-04-27T09:17:21.0000000+00:00</time></trkpt><trkpt lat="22.184189" lon="104.363976"><ele>88.4</ele><time>2011-04-27T09:17:56.0000000+00:00</time></trkpt><trkpt lat="22.184206" lon="104.36425"><ele>88.4</ele><time>2011-04-27T09:18:06.0000000+00:00</time></trkpt><trkpt lat="22.183886" lon="104.365112"><ele>83.5</ele><time>2011-04-27T09:18:36.0000000+00:00</time></trkpt><trkpt lat="22.182941" lon="104.366158"><ele>85.8</ele><time>2011-04-27T09:19:26.0000000+00:00</time></trkpt><trkpt lat="22.183025" lon="104.368172"><ele>88.9</ele><time>2011-04-27T09:20:36.0000000+00:00</time></trkpt><trkpt lat="22.184605" lon="104.36866"><ele>124.3</ele><time>2011-04-27T09:24:26.0000000+00:00</time></trkpt><trkpt lat="22.185749" lon="104.369804"><ele>117.8</ele><time>2011-04-27T09:25:41.0000000+00:00</time></trkpt><trkpt lat="22.185923" lon="104.370094"><ele>115.9</ele><time>2011-04-27T09:25:56.0000000+00:00</time></trkpt><trkpt lat="22.185774" lon="104.370872"><ele>124.7</ele><time>2011-04-27T09:26:31.0000000+00:00</time></trkpt><trkpt lat="22.186552" lon="104.372505"><ele>126.1</ele><time>2011-04-27T09:28:06.0000000+00:00</time></trkpt><trkpt lat="22.186481" lon="104.373207"><ele>128.2</ele><time>2011-04-27T09:28:26.0000000+00:00</time></trkpt><trkpt lat="22.186928" lon="104.373459"><ele>134.3</ele><time>2011-04-27T09:28:51.0000000+00:00</time></trkpt><trkpt lat="22.187387" lon="104.373978"><ele>136.0</ele><time>2011-04-27T09:29:21.0000000+00:00</time></trkpt><trkpt lat="22.188215" lon="104.374138"><ele>136.7</ele><time>2011-04-27T09:29:51.0000000+00:00</time></trkpt><trkpt lat="22.189503" lon="104.375328"><ele>139.2</ele><time>2011-04-27T09:31:16.0000000+00:00</time></trkpt><trkpt lat="22.189684" lon="104.375748"><ele>144.7</ele><time>2011-04-27T09:31:31.0000000+00:00</time></trkpt><trkpt lat="22.190561" lon="104.376633"><ele>121.1</ele><time>2011-04-27T09:31:56.0000000+00:00</time></trkpt><trkpt lat="22.190626" lon="104.376984"><ele>114.4</ele><time>2011-04-27T09:32:01.0000000+00:00</time></trkpt><trkpt lat="22.190174" lon="104.37793"><ele>107.9</ele><time>2011-04-27T09:32:16.0000000+00:00</time></trkpt><trkpt lat="22.190315" lon="104.378471"><ele>114.0</ele><time>2011-04-27T09:32:36.0000000+00:00</time></trkpt><trkpt lat="22.191895" lon="104.379463"><ele>123.7</ele><time>2011-04-27T09:33:31.0000000+00:00</time></trkpt><trkpt lat="22.193438" lon="104.380844"><ele>139.2</ele><time>2011-04-27T09:34:36.0000000+00:00</time></trkpt><trkpt lat="22.193502" lon="104.381683"><ele>119.8</ele><time>2011-04-27T09:35:06.0000000+00:00</time></trkpt><trkpt lat="22.192881" lon="104.382019"><ele>123.7</ele><time>2011-04-27T09:36:31.0000000+00:00</time></trkpt><trkpt lat="22.193029" lon="104.382675"><ele>117.5</ele><time>2011-04-27T09:36:41.0000000+00:00</time></trkpt><trkpt lat="22.194681" lon="104.383186"><ele>130.8</ele><time>2011-04-27T09:37:46.0000000+00:00</time></trkpt><trkpt lat="22.195036" lon="104.383438"><ele>128.1</ele><time>2011-04-27T09:38:01.0000000+00:00</time></trkpt><trkpt lat="22.195395" lon="104.384056"><ele>128.4</ele><time>2011-04-27T09:38:16.0000000+00:00</time></trkpt><trkpt lat="22.196032" lon="104.383926"><ele>131.2</ele><time>2011-04-27T09:38:36.0000000+00:00</time></trkpt><trkpt lat="22.196602" lon="104.384094"><ele>135.3</ele><time>2011-04-27T09:38:56.0000000+00:00</time></trkpt><trkpt lat="22.196844" lon="104.384773"><ele>129.3</ele><time>2011-04-27T09:39:31.0000000+00:00</time></trkpt><trkpt lat="22.196836" lon="104.385269"><ele>138.2</ele><time>2011-04-27T09:39:51.0000000+00:00</time></trkpt><trkpt lat="22.197134" lon="104.385582"><ele>151.7</ele><time>2011-04-27T09:40:06.0000000+00:00</time></trkpt><trkpt lat="22.198025" lon="104.385681"><ele>145.0</ele><time>2011-04-27T09:40:46.0000000+00:00</time></trkpt><trkpt lat="22.198591" lon="104.385979"><ele>155.4</ele><time>2011-04-27T09:41:11.0000000+00:00</time></trkpt><trkpt lat="22.1992" lon="104.385727"><ele>147.4</ele><time>2011-04-27T09:41:31.0000000+00:00</time></trkpt><trkpt lat="22.199646" lon="104.385803"><ele>145.5</ele><time>2011-04-27T09:42:06.0000000+00:00</time></trkpt><trkpt lat="22.199713" lon="104.385979"><ele>145.6</ele><time>2011-04-27T09:42:31.0000000+00:00</time></trkpt><trkpt lat="22.199341" lon="104.38636"><ele>156.4</ele><time>2011-04-27T09:42:51.0000000+00:00</time></trkpt><trkpt lat="22.199135" lon="104.387215"><ele>163.9</ele><time>2011-04-27T09:43:26.0000000+00:00</time></trkpt><trkpt lat="22.199343" lon="104.387558"><ele>164.8</ele><time>2011-04-27T09:43:41.0000000+00:00</time></trkpt><trkpt lat="22.199986" lon="104.387718"><ele>164.9</ele><time>2011-04-27T09:44:16.0000000+00:00</time></trkpt><trkpt lat="22.200153" lon="104.387917"><ele>165.4</ele><time>2011-04-27T09:44:26.0000000+00:00</time></trkpt><trkpt lat="22.200087" lon="104.388718"><ele>187.2</ele><time>2011-04-27T09:44:51.0000000+00:00</time></trkpt><trkpt lat="22.200615" lon="104.389145"><ele>180.3</ele><time>2011-04-27T09:45:21.0000000+00:00</time></trkpt><trkpt lat="22.200665" lon="104.390091"><ele>173.7</ele><time>2011-04-27T09:46:11.0000000+00:00</time></trkpt><trkpt lat="22.200302" lon="104.39045"><ele>170.1</ele><time>2011-04-27T09:46:41.0000000+00:00</time></trkpt><trkpt lat="22.199707" lon="104.390648"><ele>177.4</ele><time>2011-04-27T09:47:16.0000000+00:00</time></trkpt><trkpt lat="22.198999" lon="104.391159"><ele>190.8</ele><time>2011-04-27T09:48:01.0000000+00:00</time></trkpt><trkpt lat="22.198154" lon="104.391434"><ele>188.4</ele><time>2011-04-27T09:48:51.0000000+00:00</time></trkpt><trkpt lat="22.198004" lon="104.391632"><ele>194.9</ele><time>2011-04-27T09:49:46.0000000+00:00</time></trkpt><trkpt lat="22.199184" lon="104.391754"><ele>216.7</ele><time>2011-04-27T09:56:01.0000000+00:00</time></trkpt><trkpt lat="22.199821" lon="104.391586"><ele>211.1</ele><time>2011-04-27T09:56:41.0000000+00:00</time></trkpt><trkpt lat="22.19994" lon="104.391815"><ele>209.2</ele><time>2011-04-27T09:56:56.0000000+00:00</time></trkpt><trkpt lat="22.199728" lon="104.392609"><ele>217.4</ele><time>2011-04-27T09:57:41.0000000+00:00</time></trkpt><trkpt lat="22.200222" lon="104.392784"><ele>219.2</ele><time>2011-04-27T09:58:16.0000000+00:00</time></trkpt><trkpt lat="22.201025" lon="104.393364"><ele>232.0</ele><time>2011-04-27T10:00:21.0000000+00:00</time></trkpt><trkpt lat="22.201918" lon="104.394554"><ele>226.4</ele><time>2011-04-27T10:01:31.0000000+00:00</time></trkpt><trkpt lat="22.20244" lon="104.394936"><ele>236.0</ele><time>2011-04-27T10:02:16.0000000+00:00</time></trkpt><trkpt lat="22.202566" lon="104.395386"><ele>239.3</ele><time>2011-04-27T10:02:56.0000000+00:00</time></trkpt><trkpt lat="22.203157" lon="104.39624"><ele>248.4</ele><time>2011-04-27T10:03:51.0000000+00:00</time></trkpt><trkpt lat="22.203291" lon="104.397171"><ele>270.6</ele><time>2011-04-27T10:04:41.0000000+00:00</time></trkpt><trkpt lat="22.203781" lon="104.39769"><ele>269.3</ele><time>2011-04-27T10:05:21.0000000+00:00</time></trkpt><trkpt lat="22.204134" lon="104.398392"><ele>270.6</ele><time>2011-04-27T10:06:06.0000000+00:00</time></trkpt><trkpt lat="22.204138" lon="104.398781"><ele>276.0</ele><time>2011-04-27T10:06:26.0000000+00:00</time></trkpt><trkpt lat="22.20476" lon="104.3992"><ele>272.5</ele><time>2011-04-27T10:07:11.0000000+00:00</time></trkpt><trkpt lat="22.204861" lon="104.400818"><ele>307.2</ele><time>2011-04-27T10:20:41.0000000+00:00</time></trkpt><trkpt lat="22.205564" lon="104.401321"><ele>292.8</ele><time>2011-04-27T10:21:46.0000000+00:00</time></trkpt><trkpt lat="22.205622" lon="104.40155"><ele>292.1</ele><time>2011-04-27T10:21:56.0000000+00:00</time></trkpt><trkpt lat="22.205378" lon="104.402306"><ele>289.5</ele><time>2011-04-27T10:22:26.0000000+00:00</time></trkpt><trkpt lat="22.204884" lon="104.402885"><ele>294.0</ele><time>2011-04-27T10:22:46.0000000+00:00</time></trkpt><trkpt lat="22.204821" lon="104.403938"><ele>287.0</ele><time>2011-04-27T10:23:11.0000000+00:00</time></trkpt><trkpt lat="22.205402" lon="104.4039"><ele>288.2</ele><time>2011-04-27T10:23:36.0000000+00:00</time></trkpt><trkpt lat="22.205692" lon="104.40406"><ele>293.0</ele><time>2011-04-27T10:23:56.0000000+00:00</time></trkpt><trkpt lat="22.205826" lon="104.404335"><ele>296.1</ele><time>2011-04-27T10:24:11.0000000+00:00</time></trkpt><trkpt lat="22.205824" lon="104.405098"><ele>299.3</ele><time>2011-04-27T10:24:41.0000000+00:00</time></trkpt><trkpt lat="22.206228" lon="104.405457"><ele>302.6</ele><time>2011-04-27T10:25:11.0000000+00:00</time></trkpt><trkpt lat="22.206335" lon="104.406212"><ele>318.9</ele><time>2011-04-27T10:26:01.0000000+00:00</time></trkpt><trkpt lat="22.207636" lon="104.406548"><ele>331.7</ele><time>2011-04-27T10:27:26.0000000+00:00</time></trkpt><trkpt lat="22.208008" lon="104.40728"><ele>348.8</ele><time>2011-04-27T10:28:11.0000000+00:00</time></trkpt><trkpt lat="22.208033" lon="104.407852"><ele>373.0</ele><time>2011-04-27T10:28:41.0000000+00:00</time></trkpt><trkpt lat="22.208521" lon="104.408791"><ele>356.4</ele><time>2011-04-27T10:30:01.0000000+00:00</time></trkpt><trkpt lat="22.208319" lon="104.409836"><ele>359.4</ele><time>2011-04-27T10:31:16.0000000+00:00</time></trkpt><trkpt lat="22.207893" lon="104.410301"><ele>374.0</ele><time>2011-04-27T10:31:56.0000000+00:00</time></trkpt><trkpt lat="22.207787" lon="104.411095"><ele>384.1</ele><time>2011-04-27T10:32:46.0000000+00:00</time></trkpt><trkpt lat="22.207962" lon="104.411133"><ele>382.0</ele><time>2011-04-27T10:34:21.0000000+00:00</time></trkpt><trkpt lat="22.209179" lon="104.410545"><ele>404.7</ele><time>2011-04-27T10:35:51.0000000+00:00</time></trkpt><trkpt lat="22.20997" lon="104.411049"><ele>404.2</ele><time>2011-04-27T10:37:01.0000000+00:00</time></trkpt><trkpt lat="22.209696" lon="104.411919"><ele>422.5</ele><time>2011-04-27T10:37:51.0000000+00:00</time></trkpt><trkpt lat="22.210045" lon="104.41214"><ele>415.0</ele><time>2011-04-27T10:38:16.0000000+00:00</time></trkpt><trkpt lat="22.210075" lon="104.412399"><ele>416.0</ele><time>2011-04-27T10:38:31.0000000+00:00</time></trkpt><trkpt lat="22.209675" lon="104.412811"><ele>438.3</ele><time>2011-04-27T10:40:11.0000000+00:00</time></trkpt><trkpt lat="22.210178" lon="104.413353"><ele>441.5</ele><time>2011-04-27T10:40:56.0000000+00:00</time></trkpt><trkpt lat="22.210161" lon="104.413971"><ele>450.1</ele><time>2011-04-27T10:41:36.0000000+00:00</time></trkpt><trkpt lat="22.210405" lon="104.414017"><ele>451.8</ele><time>2011-04-27T10:41:51.0000000+00:00</time></trkpt><trkpt lat="22.211042" lon="104.413681"><ele>439.7</ele><time>2011-04-27T10:42:41.0000000+00:00</time></trkpt><trkpt lat="22.211269" lon="104.413727"><ele>448.0</ele><time>2011-04-27T10:43:06.0000000+00:00</time></trkpt><trkpt lat="22.211647" lon="104.414513"><ele>469.3</ele><time>2011-04-27T10:43:56.0000000+00:00</time></trkpt><trkpt lat="22.212273" lon="104.415039"><ele>466.0</ele><time>2011-04-27T10:44:36.0000000+00:00</time></trkpt><trkpt lat="22.212379" lon="104.41555"><ele>459.4</ele><time>2011-04-27T10:45:21.0000000+00:00</time></trkpt><trkpt lat="22.212433" lon="104.41523"><ele>462.9</ele><time>2011-04-27T10:51:16.0000000+00:00</time></trkpt><trkpt lat="22.212337" lon="104.415283"><ele>464.2</ele><time>2011-04-27T11:20:51.0000000+00:00</time></trkpt><trkpt lat="22.212461" lon="104.415802"><ele>454.8</ele><time>2011-04-27T11:21:11.0000000+00:00</time></trkpt><trkpt lat="22.212786" lon="104.416061"><ele>453.4</ele><time>2011-04-27T11:21:21.0000000+00:00</time></trkpt><trkpt lat="22.212658" lon="104.416801"><ele>441.1</ele><time>2011-04-27T11:21:36.0000000+00:00</time></trkpt><trkpt lat="22.212975" lon="104.417336"><ele>445.0</ele><time>2011-04-27T11:21:51.0000000+00:00</time></trkpt><trkpt lat="22.212996" lon="104.418449"><ele>434.7</ele><time>2011-04-27T11:22:11.0000000+00:00</time></trkpt><trkpt lat="22.213137" lon="104.418663"><ele>434.0</ele><time>2011-04-27T11:22:16.0000000+00:00</time></trkpt><trkpt lat="22.213812" lon="104.418861"><ele>429.8</ele><time>2011-04-27T11:22:31.0000000+00:00</time></trkpt><trkpt lat="22.214693" lon="104.419678"><ele>419.6</ele><time>2011-04-27T11:22:51.0000000+00:00</time></trkpt><trkpt lat="22.21459" lon="104.420174"><ele>419.9</ele><time>2011-04-27T11:23:01.0000000+00:00</time></trkpt><trkpt lat="22.214087" lon="104.420753"><ele>406.6</ele><time>2011-04-27T11:23:16.0000000+00:00</time></trkpt><trkpt lat="22.214031" lon="104.421333"><ele>407.0</ele><time>2011-04-27T11:23:26.0000000+00:00</time></trkpt><trkpt lat="22.213551" lon="104.422432"><ele>388.9</ele><time>2011-04-27T11:23:51.0000000+00:00</time></trkpt><trkpt lat="22.213655" lon="104.422585"><ele>388.5</ele><time>2011-04-27T11:23:56.0000000+00:00</time></trkpt><trkpt lat="22.21513" lon="104.422997"><ele>388.3</ele><time>2011-04-27T11:24:36.0000000+00:00</time></trkpt><trkpt lat="22.21586" lon="104.423058"><ele>393.0</ele><time>2011-04-27T11:25:16.0000000+00:00</time></trkpt><trkpt lat="22.216051" lon="104.423286"><ele>395.3</ele><time>2011-04-27T11:25:31.0000000+00:00</time></trkpt><trkpt lat="22.215687" lon="104.424553"><ele>399.4</ele><time>2011-04-27T11:26:51.0000000+00:00</time></trkpt><trkpt lat="22.214678" lon="104.425812"><ele>395.2</ele><time>2011-04-27T11:27:46.0000000+00:00</time></trkpt><trkpt lat="22.214207" lon="104.426979"><ele>381.2</ele><time>2011-04-27T11:28:16.0000000+00:00</time></trkpt><trkpt lat="22.214308" lon="104.427231"><ele>385.4</ele><time>2011-04-27T11:28:21.0000000+00:00</time></trkpt><trkpt lat="22.214561" lon="104.427269"><ele>386.8</ele><time>2011-04-27T11:28:26.0000000+00:00</time></trkpt><trkpt lat="22.215246" lon="104.426804"><ele>398.6</ele><time>2011-04-27T11:28:41.0000000+00:00</time></trkpt><trkpt lat="22.21553" lon="104.426788"><ele>393.6</ele><time>2011-04-27T11:28:46.0000000+00:00</time></trkpt><trkpt lat="22.215698" lon="104.426956"><ele>389.9</ele><time>2011-04-27T11:28:51.0000000+00:00</time></trkpt><trkpt lat="22.215565" lon="104.429047"><ele>369.7</ele><time>2011-04-27T11:29:26.0000000+00:00</time></trkpt><trkpt lat="22.214836" lon="104.430367"><ele>358.9</ele><time>2011-04-27T11:29:51.0000000+00:00</time></trkpt><trkpt lat="22.214987" lon="104.430656"><ele>355.9</ele><time>2011-04-27T11:29:56.0000000+00:00</time></trkpt><trkpt lat="22.215534" lon="104.430954"><ele>345.3</ele><time>2011-04-27T11:30:06.0000000+00:00</time></trkpt><trkpt lat="22.216154" lon="104.431084"><ele>347.5</ele><time>2011-04-27T11:30:16.0000000+00:00</time></trkpt><trkpt lat="22.216999" lon="104.430878"><ele>339.4</ele><time>2011-04-27T11:30:36.0000000+00:00</time></trkpt><trkpt lat="22.217567" lon="104.431465"><ele>329.5</ele><time>2011-04-27T11:30:56.0000000+00:00</time></trkpt><trkpt lat="22.217365" lon="104.431938"><ele>319.5</ele><time>2011-04-27T11:31:11.0000000+00:00</time></trkpt><trkpt lat="22.217367" lon="104.432365"><ele>312.9</ele><time>2011-04-27T11:31:41.0000000+00:00</time></trkpt><trkpt lat="22.218048" lon="104.432816"><ele>319.6</ele><time>2011-04-27T11:32:31.0000000+00:00</time></trkpt></trkseg><trkseg><trkpt lat="22.235939" lon="104.475876"><ele>83.8</ele><time>2011-04-28T01:59:24.0000000+00:00</time></trkpt><trkpt lat="22.235991" lon="104.476288"><ele>83.3</ele><time>2011-04-28T01:59:44.0000000+00:00</time></trkpt><trkpt lat="22.235964" lon="104.476044"><ele>82.9</ele><time>2011-04-28T02:00:14.0000000+00:00</time></trkpt><trkpt lat="22.235552" lon="104.475731"><ele>84.1</ele><time>2011-04-28T02:00:39.0000000+00:00</time></trkpt><trkpt lat="22.235001" lon="104.476669"><ele>87.4</ele><time>2011-04-28T02:01:49.0000000+00:00</time></trkpt><trkpt lat="22.235052" lon="104.476913"><ele>87.9</ele><time>2011-04-28T02:04:04.0000000+00:00</time></trkpt><trkpt lat="22.234617" lon="104.476944"><ele>89.0</ele><time>2011-04-28T02:05:49.0000000+00:00</time></trkpt><trkpt lat="22.234657" lon="104.477135"><ele>89.0</ele><time>2011-04-28T02:06:19.0000000+00:00</time></trkpt><trkpt lat="22.234383" lon="104.476799"><ele>89.2</ele><time>2011-04-28T02:07:39.0000000+00:00</time></trkpt><trkpt lat="22.233376" lon="104.476303"><ele>91.7</ele><time>2011-04-28T02:08:14.0000000+00:00</time></trkpt><trkpt lat="22.232422" lon="104.476448"><ele>91.0</ele><time>2011-04-28T02:08:44.0000000+00:00</time></trkpt><trkpt lat="22.231441" lon="104.477737"><ele>87.8</ele><time>2011-04-28T02:09:19.0000000+00:00</time></trkpt><trkpt lat="22.229179" lon="104.479485"><ele>86.8</ele><time>2011-04-28T02:10:09.0000000+00:00</time></trkpt><trkpt lat="22.228552" lon="104.480438"><ele>87.6</ele><time>2011-04-28T02:10:34.0000000+00:00</time></trkpt><trkpt lat="22.227579" lon="104.4814"><ele>87.6</ele><time>2011-04-28T02:10:59.0000000+00:00</time></trkpt><trkpt lat="22.22723" lon="104.481926"><ele>90.5</ele><time>2011-04-28T02:11:14.0000000+00:00</time></trkpt><trkpt lat="22.226757" lon="104.483406"><ele>100.8</ele><time>2011-04-28T02:11:49.0000000+00:00</time></trkpt><trkpt lat="22.225359" lon="104.485001"><ele>90.1</ele><time>2011-04-28T02:12:34.0000000+00:00</time></trkpt><trkpt lat="22.224709" lon="104.485352"><ele>83.3</ele><time>2011-04-28T02:12:44.0000000+00:00</time></trkpt><trkpt lat="22.223661" lon="104.48558"><ele>85.0</ele><time>2011-04-28T02:13:04.0000000+00:00</time></trkpt><trkpt lat="22.222589" lon="104.486275"><ele>81.1</ele><time>2011-04-28T02:13:29.0000000+00:00</time></trkpt><trkpt lat="22.221342" lon="104.486465"><ele>85.5</ele><time>2011-04-28T02:14:04.0000000+00:00</time></trkpt><trkpt lat="22.220676" lon="104.486908"><ele>84.4</ele><time>2011-04-28T02:14:24.0000000+00:00</time></trkpt><trkpt lat="22.220406" lon="104.48806"><ele>84.8</ele><time>2011-04-28T02:14:49.0000000+00:00</time></trkpt><trkpt lat="22.220057" lon="104.488762"><ele>85.6</ele><time>2011-04-28T02:15:09.0000000+00:00</time></trkpt><trkpt lat="22.218985" lon="104.489609"><ele>89.7</ele><time>2011-04-28T02:15:49.0000000+00:00</time></trkpt><trkpt lat="22.218733" lon="104.490143"><ele>89.5</ele><time>2011-04-28T02:16:04.0000000+00:00</time></trkpt><trkpt lat="22.218842" lon="104.490677"><ele>92.3</ele><time>2011-04-28T02:16:19.0000000+00:00</time></trkpt><trkpt lat="22.219326" lon="104.491608"><ele>106.8</ele><time>2011-04-28T02:16:54.0000000+00:00</time></trkpt><trkpt lat="22.219597" lon="104.4944"><ele>98.5</ele><time>2011-04-28T02:18:24.0000000+00:00</time></trkpt><trkpt lat="22.219368" lon="104.495346"><ele>98.1</ele><time>2011-04-28T02:18:49.0000000+00:00</time></trkpt><trkpt lat="22.218651" lon="104.496758"><ele>95.6</ele><time>2011-04-28T02:19:34.0000000+00:00</time></trkpt><trkpt lat="22.217823" lon="104.497734"><ele>88.6</ele><time>2011-04-28T02:19:54.0000000+00:00</time></trkpt><trkpt lat="22.217197" lon="104.497971"><ele>92.3</ele><time>2011-04-28T02:20:09.0000000+00:00</time></trkpt><trkpt lat="22.216572" lon="104.49865"><ele>92.7</ele><time>2011-04-28T02:21:14.0000000+00:00</time></trkpt><trkpt lat="22.214697" lon="104.499802"><ele>93.0</ele><time>2011-04-28T02:21:59.0000000+00:00</time></trkpt><trkpt lat="22.214092" lon="104.500633"><ele>95.2</ele><time>2011-04-28T02:22:24.0000000+00:00</time></trkpt><trkpt lat="22.212397" lon="104.501884"><ele>90.6</ele><time>2011-04-28T02:23:04.0000000+00:00</time></trkpt><trkpt lat="22.211765" lon="104.502754"><ele>92.4</ele><time>2011-04-28T02:23:24.0000000+00:00</time></trkpt><trkpt lat="22.211008" lon="104.503242"><ele>91.6</ele><time>2011-04-28T02:23:44.0000000+00:00</time></trkpt><trkpt lat="22.210434" lon="104.504158"><ele>89.9</ele><time>2011-04-28T02:24:09.0000000+00:00</time></trkpt><trkpt lat="22.21034" lon="104.505577"><ele>90.9</ele><time>2011-04-28T02:24:59.0000000+00:00</time></trkpt><trkpt lat="22.210045" lon="104.506241"><ele>97.1</ele><time>2011-04-28T02:25:19.0000000+00:00</time></trkpt><trkpt lat="22.210114" lon="104.506691"><ele>99.5</ele><time>2011-04-28T02:25:29.0000000+00:00</time></trkpt><trkpt lat="22.210617" lon="104.507088"><ele>98.4</ele><time>2011-04-28T02:25:44.0000000+00:00</time></trkpt><trkpt lat="22.2108" lon="104.508194"><ele>92.7</ele><time>2011-04-28T02:25:59.0000000+00:00</time></trkpt><trkpt lat="22.210793" lon="104.509674"><ele>78.1</ele><time>2011-04-28T02:26:14.0000000+00:00</time></trkpt><trkpt lat="22.210594" lon="104.510857"><ele>83.7</ele><time>2011-04-28T02:26:29.0000000+00:00</time></trkpt><trkpt lat="22.210148" lon="104.511993"><ele>95.3</ele><time>2011-04-28T02:26:54.0000000+00:00</time></trkpt><trkpt lat="22.210844" lon="104.512794"><ele>106.1</ele><time>2011-04-28T02:27:14.0000000+00:00</time></trkpt><trkpt lat="22.211088" lon="104.512856"><ele>99.9</ele><time>2011-04-28T02:27:19.0000000+00:00</time></trkpt><trkpt lat="22.211582" lon="104.512749"><ele>92.3</ele><time>2011-04-28T02:27:29.0000000+00:00</time></trkpt><trkpt lat="22.212524" lon="104.512238"><ele>93.0</ele><time>2011-04-28T02:27:49.0000000+00:00</time></trkpt><trkpt lat="22.212761" lon="104.512436"><ele>99.6</ele><time>2011-04-28T02:27:59.0000000+00:00</time></trkpt><trkpt lat="22.212824" lon="104.51445"><ele>110.3</ele><time>2011-04-28T02:29:54.0000000+00:00</time></trkpt><trkpt lat="22.213074" lon="104.515663"><ele>98.7</ele><time>2011-04-28T02:30:19.0000000+00:00</time></trkpt><trkpt lat="22.212971" lon="104.516815"><ele>85.4</ele><time>2011-04-28T02:30:34.0000000+00:00</time></trkpt><trkpt lat="22.212118" lon="104.518753"><ele>90.6</ele><time>2011-04-28T02:31:14.0000000+00:00</time></trkpt><trkpt lat="22.212067" lon="104.51947"><ele>94.6</ele><time>2011-04-28T02:33:24.0000000+00:00</time></trkpt><trkpt lat="22.211994" lon="104.519348"><ele>98.3</ele><time>2011-04-28T02:34:54.0000000+00:00</time></trkpt><trkpt lat="22.212049" lon="104.520027"><ele>86.1</ele><time>2011-04-28T02:35:29.0000000+00:00</time></trkpt><trkpt lat="22.211735" lon="104.521271"><ele>93.2</ele><time>2011-04-28T02:35:49.0000000+00:00</time></trkpt><trkpt lat="22.210625" lon="104.5242"><ele>81.7</ele><time>2011-04-28T02:36:49.0000000+00:00</time></trkpt><trkpt lat="22.209799" lon="104.52504"><ele>84.4</ele><time>2011-04-28T02:37:24.0000000+00:00</time></trkpt><trkpt lat="22.209879" lon="104.525131"><ele>82.4</ele><time>2011-04-28T02:40:34.0000000+00:00</time></trkpt><trkpt lat="22.209671" lon="104.525078"><ele>84.8</ele><time>2011-04-28T02:41:44.0000000+00:00</time></trkpt><trkpt lat="22.208904" lon="104.525589"><ele>79.9</ele><time>2011-04-28T02:43:14.0000000+00:00</time></trkpt><trkpt lat="22.207659" lon="104.526627"><ele>81.1</ele><time>2011-04-28T02:43:39.0000000+00:00</time></trkpt><trkpt lat="22.205692" lon="104.529549"><ele>83.4</ele><time>2011-04-28T02:44:44.0000000+00:00</time></trkpt><trkpt lat="22.204544" lon="104.532043"><ele>94.0</ele><time>2011-04-28T02:46:39.0000000+00:00</time></trkpt><trkpt lat="22.204184" lon="104.532288"><ele>85.0</ele><time>2011-04-28T02:46:54.0000000+00:00</time></trkpt><trkpt lat="22.203745" lon="104.532318"><ele>83.3</ele><time>2011-04-28T02:47:04.0000000+00:00</time></trkpt><trkpt lat="22.203468" lon="104.532631"><ele>82.3</ele><time>2011-04-28T02:47:14.0000000+00:00</time></trkpt><trkpt lat="22.203411" lon="104.533058"><ele>88.6</ele><time>2011-04-28T02:47:24.0000000+00:00</time></trkpt><trkpt lat="22.20372" lon="104.533783"><ele>88.9</ele><time>2011-04-28T02:47:44.0000000+00:00</time></trkpt><trkpt lat="22.203659" lon="104.534416"><ele>89.6</ele><time>2011-04-28T02:48:44.0000000+00:00</time></trkpt><trkpt lat="22.20256" lon="104.536629"><ele>82.7</ele><time>2011-04-28T02:49:29.0000000+00:00</time></trkpt><trkpt lat="22.201229" lon="104.538223"><ele>85.0</ele><time>2011-04-28T02:50:09.0000000+00:00</time></trkpt><trkpt lat="22.200697" lon="104.539848"><ele>81.5</ele><time>2011-04-28T02:50:39.0000000+00:00</time></trkpt><trkpt lat="22.20022" lon="104.540733"><ele>89.1</ele><time>2011-04-28T02:50:59.0000000+00:00</time></trkpt><trkpt lat="22.200163" lon="104.542809"><ele>88.0</ele><time>2011-04-28T02:51:34.0000000+00:00</time></trkpt><trkpt lat="22.199837" lon="104.543144"><ele>88.9</ele><time>2011-04-28T02:51:44.0000000+00:00</time></trkpt><trkpt lat="22.19935" lon="104.543274"><ele>76.5</ele><time>2011-04-28T02:51:59.0000000+00:00</time></trkpt><trkpt lat="22.199093" lon="104.543724"><ele>75.0</ele><time>2011-04-28T02:52:09.0000000+00:00</time></trkpt><trkpt lat="22.19906" lon="104.543915"><ele>78.7</ele><time>2011-04-28T02:52:14.0000000+00:00</time></trkpt><trkpt lat="22.199532" lon="104.544464"><ele>81.5</ele><time>2011-04-28T02:52:34.0000000+00:00</time></trkpt><trkpt lat="22.1994" lon="104.545044"><ele>82.0</ele><time>2011-04-28T02:52:49.0000000+00:00</time></trkpt><trkpt lat="22.19944" lon="104.5467"><ele>84.3</ele><time>2011-04-28T02:53:24.0000000+00:00</time></trkpt><trkpt lat="22.199814" lon="104.549164"><ele>100.7</ele><time>2011-04-28T02:54:24.0000000+00:00</time></trkpt><trkpt lat="22.200445" lon="104.550133"><ele>87.6</ele><time>2011-04-28T02:54:44.0000000+00:00</time></trkpt><trkpt lat="22.200054" lon="104.551712"><ele>75.5</ele><time>2011-04-28T02:55:14.0000000+00:00</time></trkpt><trkpt lat="22.199345" lon="104.55249"><ele>75.8</ele><time>2011-04-28T02:55:34.0000000+00:00</time></trkpt><trkpt lat="22.199062" lon="104.553078"><ele>75.3</ele><time>2011-04-28T02:55:49.0000000+00:00</time></trkpt><trkpt lat="22.198656" lon="104.553329"><ele>75.9</ele><time>2011-04-28T02:55:59.0000000+00:00</time></trkpt><trkpt lat="22.197552" lon="104.555214"><ele>75.9</ele><time>2011-04-28T02:56:44.0000000+00:00</time></trkpt><trkpt lat="22.197487" lon="104.556061"><ele>78.4</ele><time>2011-04-28T02:57:09.0000000+00:00</time></trkpt><trkpt lat="22.196917" lon="104.557037"><ele>79.1</ele><time>2011-04-28T02:57:39.0000000+00:00</time></trkpt><trkpt lat="22.196573" lon="104.558685"><ele>73.3</ele><time>2011-04-28T02:58:09.0000000+00:00</time></trkpt><trkpt lat="22.195662" lon="104.560013"><ele>85.8</ele><time>2011-04-28T02:58:39.0000000+00:00</time></trkpt><trkpt lat="22.195717" lon="104.561249"><ele>85.8</ele><time>2011-04-28T02:59:09.0000000+00:00</time></trkpt><trkpt lat="22.194319" lon="104.563217"><ele>98.3</ele><time>2011-04-28T03:01:44.0000000+00:00</time></trkpt><trkpt lat="22.19396" lon="104.564018"><ele>96.7</ele><time>2011-04-28T03:02:09.0000000+00:00</time></trkpt><trkpt lat="22.193018" lon="104.565269"><ele>86.4</ele><time>2011-04-28T03:02:34.0000000+00:00</time></trkpt><trkpt lat="22.191944" lon="104.56514"><ele>89.6</ele><time>2011-04-28T03:02:54.0000000+00:00</time></trkpt><trkpt lat="22.191717" lon="104.5653"><ele>81.0</ele><time>2011-04-28T03:02:59.0000000+00:00</time></trkpt><trkpt lat="22.191277" lon="104.566399"><ele>76.3</ele><time>2011-04-28T03:03:14.0000000+00:00</time></trkpt><trkpt lat="22.19025" lon="104.567139"><ele>75.9</ele><time>2011-04-28T03:03:39.0000000+00:00</time></trkpt><trkpt lat="22.189568" lon="104.568314"><ele>78.2</ele><time>2011-04-28T03:04:44.0000000+00:00</time></trkpt><trkpt lat="22.189203" lon="104.569801"><ele>75.0</ele><time>2011-04-28T03:05:24.0000000+00:00</time></trkpt><trkpt lat="22.18811" lon="104.571602"><ele>76.6</ele><time>2011-04-28T03:06:14.0000000+00:00</time></trkpt><trkpt lat="22.187086" lon="104.572533"><ele>78.6</ele><time>2011-04-28T03:06:44.0000000+00:00</time></trkpt><trkpt lat="22.186672" lon="104.573257"><ele>84.1</ele><time>2011-04-28T03:07:09.0000000+00:00</time></trkpt><trkpt lat="22.185114" lon="104.574516"><ele>89.5</ele><time>2011-04-28T03:08:14.0000000+00:00</time></trkpt><trkpt lat="22.183214" lon="104.577599"><ele>89.2</ele><time>2011-04-28T03:09:29.0000000+00:00</time></trkpt><trkpt lat="22.181938" lon="104.579124"><ele>90.0</ele><time>2011-04-28T03:10:29.0000000+00:00</time></trkpt><trkpt lat="22.181347" lon="104.580582"><ele>81.2</ele><time>2011-04-28T03:10:49.0000000+00:00</time></trkpt><trkpt lat="22.18063" lon="104.580711"><ele>83.3</ele><time>2011-04-28T03:11:04.0000000+00:00</time></trkpt><trkpt lat="22.180296" lon="104.581772"><ele>78.3</ele><time>2011-04-28T03:11:24.0000000+00:00</time></trkpt><trkpt lat="22.179518" lon="104.582298"><ele>79.3</ele><time>2011-04-28T03:11:49.0000000+00:00</time></trkpt><trkpt lat="22.178303" lon="104.583633"><ele>82.7</ele><time>2011-04-28T03:12:19.0000000+00:00</time></trkpt><trkpt lat="22.178093" lon="104.58374"><ele>77.8</ele><time>2011-04-28T03:12:24.0000000+00:00</time></trkpt><trkpt lat="22.177624" lon="104.583542"><ele>75.0</ele><time>2011-04-28T03:12:39.0000000+00:00</time></trkpt><trkpt lat="22.177431" lon="104.583626"><ele>76.2</ele><time>2011-04-28T03:14:39.0000000+00:00</time></trkpt><trkpt lat="22.177263" lon="104.583931"><ele>86.0</ele><time>2011-04-28T03:14:54.0000000+00:00</time></trkpt><trkpt lat="22.177282" lon="104.584511"><ele>80.1</ele><time>2011-04-28T03:15:14.0000000+00:00</time></trkpt><trkpt lat="22.176641" lon="104.585373"><ele>82.5</ele><time>2011-04-28T03:16:04.0000000+00:00</time></trkpt><trkpt lat="22.17695" lon="104.586273"><ele>79.3</ele><time>2011-04-28T03:16:19.0000000+00:00</time></trkpt><trkpt lat="22.176868" lon="104.587036"><ele>75.5</ele><time>2011-04-28T03:16:29.0000000+00:00</time></trkpt><trkpt lat="22.175695" lon="104.588882"><ele>70.8</ele><time>2011-04-28T03:17:19.0000000+00:00</time></trkpt><trkpt lat="22.175632" lon="104.589668"><ele>71.2</ele><time>2011-04-28T03:17:39.0000000+00:00</time></trkpt><trkpt lat="22.17543" lon="104.589874"><ele>78.3</ele><time>2011-04-28T03:17:49.0000000+00:00</time></trkpt><trkpt lat="22.175072" lon="104.589874"><ele>76.4</ele><time>2011-04-28T03:17:59.0000000+00:00</time></trkpt><trkpt lat="22.174732" lon="104.590492"><ele>75.2</ele><time>2011-04-28T03:18:19.0000000+00:00</time></trkpt><trkpt lat="22.173698" lon="104.591171"><ele>81.5</ele><time>2011-04-28T03:19:19.0000000+00:00</time></trkpt><trkpt lat="22.173132" lon="104.592346"><ele>81.0</ele><time>2011-04-28T03:19:49.0000000+00:00</time></trkpt><trkpt lat="22.171991" lon="104.593529"><ele>82.1</ele><time>2011-04-28T03:20:29.0000000+00:00</time></trkpt><trkpt lat="22.170828" lon="104.595573"><ele>81.8</ele><time>2011-04-28T03:21:19.0000000+00:00</time></trkpt><trkpt lat="22.170816" lon="104.596703"><ele>83.8</ele><time>2011-04-28T03:30:54.0000000+00:00</time></trkpt><trkpt lat="22.170677" lon="104.596924"><ele>84.1</ele><time>2011-04-28T03:30:59.0000000+00:00</time></trkpt><trkpt lat="22.170191" lon="104.596954"><ele>85.3</ele><time>2011-04-28T03:31:09.0000000+00:00</time></trkpt><trkpt lat="22.169821" lon="104.597153"><ele>85.3</ele><time>2011-04-28T03:31:19.0000000+00:00</time></trkpt><trkpt lat="22.169947" lon="104.59758"><ele>87.2</ele><time>2011-04-28T03:31:34.0000000+00:00</time></trkpt><trkpt lat="22.1698" lon="104.59803"><ele>88.0</ele><time>2011-04-28T03:31:44.0000000+00:00</time></trkpt><trkpt lat="22.168997" lon="104.599518"><ele>96.1</ele><time>2011-04-28T03:32:19.0000000+00:00</time></trkpt><trkpt lat="22.168707" lon="104.599785"><ele>101.2</ele><time>2011-04-28T03:32:29.0000000+00:00</time></trkpt><trkpt lat="22.16831" lon="104.599785"><ele>94.7</ele><time>2011-04-28T03:33:04.0000000+00:00</time></trkpt><trkpt lat="22.167467" lon="104.600273"><ele>90.7</ele><time>2011-04-28T03:33:24.0000000+00:00</time></trkpt><trkpt lat="22.16515" lon="104.601219"><ele>97.3</ele><time>2011-04-28T03:34:29.0000000+00:00</time></trkpt><trkpt lat="22.164682" lon="104.602081"><ele>99.3</ele><time>2011-04-28T03:35:04.0000000+00:00</time></trkpt><trkpt lat="22.165289" lon="104.603806"><ele>99.6</ele><time>2011-04-28T03:35:54.0000000+00:00</time></trkpt><trkpt lat="22.165098" lon="104.604317"><ele>104.2</ele><time>2011-04-28T03:36:04.0000000+00:00</time></trkpt><trkpt lat="22.16457" lon="104.604805"><ele>102.2</ele><time>2011-04-28T03:36:19.0000000+00:00</time></trkpt><trkpt lat="22.164165" lon="104.605568"><ele>116.5</ele><time>2011-04-28T03:36:39.0000000+00:00</time></trkpt><trkpt lat="22.1639" lon="104.60569"><ele>123.4</ele><time>2011-04-28T03:36:49.0000000+00:00</time></trkpt><trkpt lat="22.162746" lon="104.605515"><ele>108.1</ele><time>2011-04-28T03:37:19.0000000+00:00</time></trkpt><trkpt lat="22.16049" lon="104.606682"><ele>115.8</ele><time>2011-04-28T03:38:14.0000000+00:00</time></trkpt><trkpt lat="22.160213" lon="104.607094"><ele>112.8</ele><time>2011-04-28T03:38:44.0000000+00:00</time></trkpt><trkpt lat="22.160185" lon="104.607796"><ele>117.2</ele><time>2011-04-28T03:39:19.0000000+00:00</time></trkpt><trkpt lat="22.159531" lon="104.60804"><ele>121.5</ele><time>2011-04-28T03:39:54.0000000+00:00</time></trkpt><trkpt lat="22.158422" lon="104.608795"><ele>122.1</ele><time>2011-04-28T03:40:54.0000000+00:00</time></trkpt><trkpt lat="22.158215" lon="104.609543"><ele>123.9</ele><time>2011-04-28T03:41:24.0000000+00:00</time></trkpt><trkpt lat="22.157639" lon="104.609962"><ele>124.6</ele><time>2011-04-28T03:41:54.0000000+00:00</time></trkpt><trkpt lat="22.157223" lon="104.610489"><ele>134.6</ele><time>2011-04-28T03:42:44.0000000+00:00</time></trkpt><trkpt lat="22.15733" lon="104.610466"><ele>134.1</ele><time>2011-04-28T03:45:59.0000000+00:00</time></trkpt><trkpt lat="22.156929" lon="104.610405"><ele>132.4</ele><time>2011-04-28T03:49:19.0000000+00:00</time></trkpt><trkpt lat="22.155998" lon="104.611099"><ele>134.4</ele><time>2011-04-28T03:49:59.0000000+00:00</time></trkpt><trkpt lat="22.155586" lon="104.611603"><ele>135.8</ele><time>2011-04-28T03:50:24.0000000+00:00</time></trkpt><trkpt lat="22.155544" lon="104.612175"><ele>137.1</ele><time>2011-04-28T03:50:54.0000000+00:00</time></trkpt><trkpt lat="22.155251" lon="104.612488"><ele>140.4</ele><time>2011-04-28T03:51:19.0000000+00:00</time></trkpt><trkpt lat="22.154453" lon="104.612846"><ele>147.8</ele><time>2011-04-28T03:52:14.0000000+00:00</time></trkpt><trkpt lat="22.153894" lon="104.613441"><ele>150.9</ele><time>2011-04-28T03:52:59.0000000+00:00</time></trkpt><trkpt lat="22.153389" lon="104.613472"><ele>152.4</ele><time>2011-04-28T03:53:49.0000000+00:00</time></trkpt><trkpt lat="22.152975" lon="104.614632"><ele>142.1</ele><time>2011-04-28T03:57:14.0000000+00:00</time></trkpt><trkpt lat="22.151991" lon="104.615311"><ele>145.7</ele><time>2011-04-28T03:57:29.0000000+00:00</time></trkpt><trkpt lat="22.151247" lon="104.615616"><ele>130.6</ele><time>2011-04-28T03:57:44.0000000+00:00</time></trkpt><trkpt lat="22.151009" lon="104.616203"><ele>133.5</ele><time>2011-04-28T03:57:54.0000000+00:00</time></trkpt><trkpt lat="22.15044" lon="104.616737"><ele>131.8</ele><time>2011-04-28T03:58:04.0000000+00:00</time></trkpt><trkpt lat="22.150335" lon="104.617088"><ele>127.4</ele><time>2011-04-28T03:58:09.0000000+00:00</time></trkpt><trkpt lat="22.150442" lon="104.61837"><ele>118.8</ele><time>2011-04-28T03:58:24.0000000+00:00</time></trkpt><trkpt lat="22.15019" lon="104.619171"><ele>116.8</ele><time>2011-04-28T03:58:34.0000000+00:00</time></trkpt><trkpt lat="22.149422" lon="104.62011"><ele>112.4</ele><time>2011-04-28T03:58:49.0000000+00:00</time></trkpt><trkpt lat="22.148314" lon="104.622108"><ele>111.5</ele><time>2011-04-28T03:59:19.0000000+00:00</time></trkpt><trkpt lat="22.147221" lon="104.622894"><ele>106.4</ele><time>2011-04-28T03:59:49.0000000+00:00</time></trkpt><trkpt lat="22.147057" lon="104.623367"><ele>103.8</ele><time>2011-04-28T03:59:59.0000000+00:00</time></trkpt><trkpt lat="22.146538" lon="104.623802"><ele>101.9</ele><time>2011-04-28T04:00:09.0000000+00:00</time></trkpt><trkpt lat="22.145826" lon="104.624901"><ele>103.6</ele><time>2011-04-28T04:00:29.0000000+00:00</time></trkpt><trkpt lat="22.144449" lon="104.625977"><ele>97.4</ele><time>2011-04-28T04:01:04.0000000+00:00</time></trkpt><trkpt lat="22.144096" lon="104.626465"><ele>94.4</ele><time>2011-04-28T04:01:14.0000000+00:00</time></trkpt><trkpt lat="22.14399" lon="104.627007"><ele>98.9</ele><time>2011-04-28T04:01:24.0000000+00:00</time></trkpt><trkpt lat="22.142508" lon="104.628296"><ele>96.9</ele><time>2011-04-28T04:02:04.0000000+00:00</time></trkpt><trkpt lat="22.141747" lon="104.628586"><ele>93.0</ele><time>2011-04-28T04:02:24.0000000+00:00</time></trkpt><trkpt lat="22.141638" lon="104.630035"><ele>95.2</ele><time>2011-04-28T04:02:59.0000000+00:00</time></trkpt><trkpt lat="22.14119" lon="104.630775"><ele>93.7</ele><time>2011-04-28T04:03:14.0000000+00:00</time></trkpt><trkpt lat="22.139727" lon="104.631668"><ele>92.8</ele><time>2011-04-28T04:03:54.0000000+00:00</time></trkpt><trkpt lat="22.138653" lon="104.632561"><ele>88.9</ele><time>2011-04-28T04:04:29.0000000+00:00</time></trkpt><trkpt lat="22.138403" lon="104.633163"><ele>90.8</ele><time>2011-04-28T04:07:29.0000000+00:00</time></trkpt><trkpt lat="22.13765" lon="104.633865"><ele>88.6</ele><time>2011-04-28T04:07:49.0000000+00:00</time></trkpt><trkpt lat="22.136957" lon="104.635124"><ele>89.3</ele><time>2011-04-28T04:08:19.0000000+00:00</time></trkpt><trkpt lat="22.134966" lon="104.636765"><ele>89.0</ele><time>2011-04-28T04:08:59.0000000+00:00</time></trkpt><trkpt lat="22.134684" lon="104.637215"><ele>83.7</ele><time>2011-04-28T04:09:09.0000000+00:00</time></trkpt><trkpt lat="22.134558" lon="104.637932"><ele>86.0</ele><time>2011-04-28T04:09:24.0000000+00:00</time></trkpt><trkpt lat="22.13352" lon="104.638634"><ele>82.4</ele><time>2011-04-28T04:09:49.0000000+00:00</time></trkpt><trkpt lat="22.133099" lon="104.63958"><ele>86.4</ele><time>2011-04-28T04:10:14.0000000+00:00</time></trkpt><trkpt lat="22.132311" lon="104.640015"><ele>82.8</ele><time>2011-04-28T04:10:39.0000000+00:00</time></trkpt><trkpt lat="22.131525" lon="104.640968"><ele>82.1</ele><time>2011-04-28T04:11:09.0000000+00:00</time></trkpt><trkpt lat="22.131235" lon="104.64222"><ele>77.6</ele><time>2011-04-28T04:11:34.0000000+00:00</time></trkpt><trkpt lat="22.131916" lon="104.643646"><ele>80.4</ele><time>2011-04-28T04:12:09.0000000+00:00</time></trkpt><trkpt lat="22.131861" lon="104.644234"><ele>87.0</ele><time>2011-04-28T04:12:24.0000000+00:00</time></trkpt><trkpt lat="22.131248" lon="104.644638"><ele>87.0</ele><time>2011-04-28T04:12:39.0000000+00:00</time></trkpt><trkpt lat="22.127987" lon="104.645248"><ele>82.1</ele><time>2011-04-28T04:15:04.0000000+00:00</time></trkpt><trkpt lat="22.126942" lon="104.646362"><ele>77.9</ele><time>2011-04-28T04:15:34.0000000+00:00</time></trkpt><trkpt lat="22.125444" lon="104.646935"><ele>79.3</ele><time>2011-04-28T04:25:24.0000000+00:00</time></trkpt><trkpt lat="22.125008" lon="104.64727"><ele>80.9</ele><time>2011-04-28T04:25:34.0000000+00:00</time></trkpt><trkpt lat="22.123985" lon="104.648483"><ele>82.9</ele><time>2011-04-28T04:26:19.0000000+00:00</time></trkpt><trkpt lat="22.122786" lon="104.649597"><ele>82.8</ele><time>2011-04-28T04:26:59.0000000+00:00</time></trkpt><trkpt lat="22.122137" lon="104.650589"><ele>81.4</ele><time>2011-04-28T04:27:19.0000000+00:00</time></trkpt><trkpt lat="22.121542" lon="104.650978"><ele>86.3</ele><time>2011-04-28T04:27:34.0000000+00:00</time></trkpt><trkpt lat="22.12039" lon="104.6521"><ele>84.5</ele><time>2011-04-28T04:28:04.0000000+00:00</time></trkpt><trkpt lat="22.119324" lon="104.652458"><ele>79.7</ele><time>2011-04-28T04:28:29.0000000+00:00</time></trkpt><trkpt lat="22.119223" lon="104.652664"><ele>82.5</ele><time>2011-04-28T04:28:34.0000000+00:00</time></trkpt><trkpt lat="22.119339" lon="104.653397"><ele>79.4</ele><time>2011-04-28T04:28:49.0000000+00:00</time></trkpt><trkpt lat="22.119133" lon="104.653885"><ele>79.4</ele><time>2011-04-28T04:28:59.0000000+00:00</time></trkpt><trkpt lat="22.118658" lon="104.654526"><ele>79.0</ele><time>2011-04-28T04:29:24.0000000+00:00</time></trkpt><trkpt lat="22.117306" lon="104.655777"><ele>78.2</ele><time>2011-04-28T04:30:09.0000000+00:00</time></trkpt><trkpt lat="22.116571" lon="104.657272"><ele>77.2</ele><time>2011-04-28T04:30:49.0000000+00:00</time></trkpt><trkpt lat="22.115391" lon="104.658195"><ele>82.1</ele><time>2011-04-28T04:31:29.0000000+00:00</time></trkpt><trkpt lat="22.115301" lon="104.658676"><ele>82.4</ele><time>2011-04-28T04:31:44.0000000+00:00</time></trkpt><trkpt lat="22.115507" lon="104.65947"><ele>88.6</ele><time>2011-04-28T04:32:09.0000000+00:00</time></trkpt><trkpt lat="22.115396" lon="104.659927"><ele>90.0</ele><time>2011-04-28T04:32:29.0000000+00:00</time></trkpt><trkpt lat="22.113693" lon="104.66095"><ele>81.8</ele><time>2011-04-28T04:33:09.0000000+00:00</time></trkpt><trkpt lat="22.112812" lon="104.661903"><ele>85.4</ele><time>2011-04-28T04:33:34.0000000+00:00</time></trkpt><trkpt lat="22.111635" lon="104.661972"><ele>86.7</ele><time>2011-04-28T04:33:59.0000000+00:00</time></trkpt><trkpt lat="22.110237" lon="104.663155"><ele>87.9</ele><time>2011-04-28T04:34:49.0000000+00:00</time></trkpt><trkpt lat="22.109583" lon="104.664497"><ele>88.0</ele><time>2011-04-28T04:35:29.0000000+00:00</time></trkpt><trkpt lat="22.109171" lon="104.666008"><ele>93.0</ele><time>2011-04-28T04:36:14.0000000+00:00</time></trkpt><trkpt lat="22.10767" lon="104.667862"><ele>90.0</ele><time>2011-04-28T04:37:04.0000000+00:00</time></trkpt><trkpt lat="22.107666" lon="104.668594"><ele>91.0</ele><time>2011-04-28T04:37:14.0000000+00:00</time></trkpt><trkpt lat="22.106905" lon="104.669441"><ele>92.2</ele><time>2011-04-28T04:37:29.0000000+00:00</time></trkpt><trkpt lat="22.105536" lon="104.670357"><ele>86.2</ele><time>2011-04-28T04:37:54.0000000+00:00</time></trkpt><trkpt lat="22.104675" lon="104.671349"><ele>82.8</ele><time>2011-04-28T04:38:14.0000000+00:00</time></trkpt><trkpt lat="22.104425" lon="104.671936"><ele>82.8</ele><time>2011-04-28T04:38:24.0000000+00:00</time></trkpt><trkpt lat="22.103092" lon="104.673378"><ele>86.3</ele><time>2011-04-28T04:38:54.0000000+00:00</time></trkpt><trkpt lat="22.101564" lon="104.674713"><ele>76.1</ele><time>2011-04-28T04:39:24.0000000+00:00</time></trkpt><trkpt lat="22.099728" lon="104.675423"><ele>75.3</ele><time>2011-04-28T04:39:59.0000000+00:00</time></trkpt><trkpt lat="22.098995" lon="104.676529"><ele>77.8</ele><time>2011-04-28T04:40:24.0000000+00:00</time></trkpt><trkpt lat="22.098118" lon="104.676689"><ele>77.9</ele><time>2011-04-28T04:42:34.0000000+00:00</time></trkpt><trkpt lat="22.097513" lon="104.677383"><ele>81.2</ele><time>2011-04-28T04:42:54.0000000+00:00</time></trkpt><trkpt lat="22.095892" lon="104.678055"><ele>76.9</ele><time>2011-04-28T04:45:09.0000000+00:00</time></trkpt><trkpt lat="22.094872" lon="104.679092"><ele>70.6</ele><time>2011-04-28T04:45:29.0000000+00:00</time></trkpt><trkpt lat="22.094467" lon="104.679077"><ele>71.1</ele><time>2011-04-28T04:45:34.0000000+00:00</time></trkpt><trkpt lat="22.094061" lon="104.678131"><ele>76.7</ele><time>2011-04-28T04:45:59.0000000+00:00</time></trkpt><trkpt lat="22.094128" lon="104.677246"><ele>77.7</ele><time>2011-04-28T04:46:24.0000000+00:00</time></trkpt><trkpt lat="22.093996" lon="104.676704"><ele>83.0</ele><time>2011-04-28T04:46:39.0000000+00:00</time></trkpt><trkpt lat="22.093084" lon="104.675644"><ele>78.7</ele><time>2011-04-28T04:47:19.0000000+00:00</time></trkpt><trkpt lat="22.093376" lon="104.675095"><ele>87.3</ele><time>2011-04-28T04:47:29.0000000+00:00</time></trkpt><trkpt lat="22.093954" lon="104.674599"><ele>73.2</ele><time>2011-04-28T04:47:44.0000000+00:00</time></trkpt><trkpt lat="22.093908" lon="104.674355"><ele>70.7</ele><time>2011-04-28T04:47:49.0000000+00:00</time></trkpt><trkpt lat="22.093079" lon="104.67382"><ele>69.7</ele><time>2011-04-28T04:48:04.0000000+00:00</time></trkpt><trkpt lat="22.091684" lon="104.673355"><ele>77.8</ele><time>2011-04-28T04:48:54.0000000+00:00</time></trkpt><trkpt lat="22.091669" lon="104.672859"><ele>78.5</ele><time>2011-04-28T04:52:24.0000000+00:00</time></trkpt><trkpt lat="22.091173" lon="104.672119"><ele>82.3</ele><time>2011-04-28T04:55:19.0000000+00:00</time></trkpt><trkpt lat="22.090837" lon="104.671082"><ele>85.7</ele><time>2011-04-28T04:55:49.0000000+00:00</time></trkpt><trkpt lat="22.090767" lon="104.670143"><ele>91.1</ele><time>2011-04-28T04:56:14.0000000+00:00</time></trkpt><trkpt lat="22.090258" lon="104.669609"><ele>91.8</ele><time>2011-04-28T04:57:09.0000000+00:00</time></trkpt><trkpt lat="22.0895" lon="104.669914"><ele>88.7</ele><time>2011-04-28T04:57:34.0000000+00:00</time></trkpt><trkpt lat="22.089287" lon="104.670715"><ele>82.6</ele><time>2011-04-28T04:57:49.0000000+00:00</time></trkpt><trkpt lat="22.088055" lon="104.671257"><ele>75.6</ele><time>2011-04-28T04:58:04.0000000+00:00</time></trkpt><trkpt lat="22.0877" lon="104.671265"><ele>78.0</ele><time>2011-04-28T04:58:09.0000000+00:00</time></trkpt><trkpt lat="22.087318" lon="104.671059"><ele>82.7</ele><time>2011-04-28T04:58:19.0000000+00:00</time></trkpt><trkpt lat="22.085514" lon="104.669617"><ele>91.8</ele><time>2011-04-28T04:59:39.0000000+00:00</time></trkpt><trkpt lat="22.085003" lon="104.669792"><ele>82.6</ele><time>2011-04-28T04:59:49.0000000+00:00</time></trkpt><trkpt lat="22.08396" lon="104.670784"><ele>73.7</ele><time>2011-04-28T05:00:04.0000000+00:00</time></trkpt><trkpt lat="22.083385" lon="104.670502"><ele>77.9</ele><time>2011-04-28T05:00:14.0000000+00:00</time></trkpt><trkpt lat="22.082808" lon="104.670723"><ele>78.2</ele><time>2011-04-28T05:00:29.0000000+00:00</time></trkpt><trkpt lat="22.082539" lon="104.669441"><ele>83.1</ele><time>2011-04-28T05:01:04.0000000+00:00</time></trkpt><trkpt lat="22.081942" lon="104.668571"><ele>85.9</ele><time>2011-04-28T05:01:29.0000000+00:00</time></trkpt><trkpt lat="22.081839" lon="104.668076"><ele>85.1</ele><time>2011-04-28T05:01:44.0000000+00:00</time></trkpt><trkpt lat="22.081516" lon="104.667725"><ele>82.6</ele><time>2011-04-28T05:01:54.0000000+00:00</time></trkpt><trkpt lat="22.081018" lon="104.66774"><ele>85.1</ele><time>2011-04-28T05:02:04.0000000+00:00</time></trkpt><trkpt lat="22.080795" lon="104.667862"><ele>87.6</ele><time>2011-04-28T05:02:09.0000000+00:00</time></trkpt><trkpt lat="22.079168" lon="104.67131"><ele>91.4</ele><time>2011-04-28T05:03:29.0000000+00:00</time></trkpt><trkpt lat="22.078844" lon="104.671608"><ele>90.5</ele><time>2011-04-28T05:03:44.0000000+00:00</time></trkpt><trkpt lat="22.07802" lon="104.671669"><ele>85.2</ele><time>2011-04-28T05:08:09.0000000+00:00</time></trkpt><trkpt lat="22.077574" lon="104.672096"><ele>83.9</ele><time>2011-04-28T05:08:19.0000000+00:00</time></trkpt><trkpt lat="22.077028" lon="104.672195"><ele>83.9</ele><time>2011-04-28T05:08:29.0000000+00:00</time></trkpt><trkpt lat="22.07626" lon="104.673164"><ele>87.6</ele><time>2011-04-28T05:09:19.0000000+00:00</time></trkpt><trkpt lat="22.07571" lon="104.673294"><ele>87.3</ele><time>2011-04-28T05:09:54.0000000+00:00</time></trkpt><trkpt lat="22.073263" lon="104.672546"><ele>85.0</ele><time>2011-04-28T05:12:04.0000000+00:00</time></trkpt><trkpt lat="22.071659" lon="104.672867"><ele>91.8</ele><time>2011-04-28T05:12:59.0000000+00:00</time></trkpt><trkpt lat="22.071718" lon="104.673149"><ele>83.6</ele><time>2011-04-28T05:15:29.0000000+00:00</time></trkpt><trkpt lat="22.069965" lon="104.672813"><ele>82.8</ele><time>2011-04-28T05:18:14.0000000+00:00</time></trkpt><trkpt lat="22.069389" lon="104.672318"><ele>83.2</ele><time>2011-04-28T05:18:34.0000000+00:00</time></trkpt><trkpt lat="22.068369" lon="104.672607"><ele>87.5</ele><time>2011-04-28T05:18:59.0000000+00:00</time></trkpt><trkpt lat="22.067194" lon="104.672302"><ele>90.4</ele><time>2011-04-28T05:20:39.0000000+00:00</time></trkpt><trkpt lat="22.067165" lon="104.672096"><ele>92.3</ele><time>2011-04-28T05:21:04.0000000+00:00</time></trkpt><trkpt lat="22.067129" lon="104.672302"><ele>89.3</ele><time>2011-04-28T05:22:29.0000000+00:00</time></trkpt><trkpt lat="22.066957" lon="104.67189"><ele>88.3</ele><time>2011-04-28T05:22:59.0000000+00:00</time></trkpt><trkpt lat="22.066925" lon="104.671204"><ele>92.4</ele><time>2011-04-28T05:23:09.0000000+00:00</time></trkpt><trkpt lat="22.066574" lon="104.671082"><ele>89.3</ele><time>2011-04-28T05:23:14.0000000+00:00</time></trkpt><trkpt lat="22.06576" lon="104.671036"><ele>90.3</ele><time>2011-04-28T05:23:29.0000000+00:00</time></trkpt><trkpt lat="22.064455" lon="104.671654"><ele>92.2</ele><time>2011-04-28T05:24:04.0000000+00:00</time></trkpt><trkpt lat="22.063951" lon="104.671631"><ele>92.5</ele><time>2011-04-28T05:24:19.0000000+00:00</time></trkpt><trkpt lat="22.063456" lon="104.670868"><ele>91.3</ele><time>2011-04-28T05:24:39.0000000+00:00</time></trkpt><trkpt lat="22.063131" lon="104.669571"><ele>94.7</ele><time>2011-04-28T05:25:09.0000000+00:00</time></trkpt><trkpt lat="22.062048" lon="104.66922"><ele>97.5</ele><time>2011-04-28T05:25:39.0000000+00:00</time></trkpt><trkpt lat="22.061459" lon="104.668419"><ele>98.6</ele><time>2011-04-28T05:26:09.0000000+00:00</time></trkpt><trkpt lat="22.060417" lon="104.667717"><ele>112.7</ele><time>2011-04-28T05:26:39.0000000+00:00</time></trkpt><trkpt lat="22.058615" lon="104.667702"><ele>96.1</ele><time>2011-04-28T05:27:14.0000000+00:00</time></trkpt><trkpt lat="22.058327" lon="104.667595"><ele>102.4</ele><time>2011-04-28T05:27:24.0000000+00:00</time></trkpt><trkpt lat="22.057949" lon="104.667175"><ele>103.1</ele><time>2011-04-28T05:27:44.0000000+00:00</time></trkpt><trkpt lat="22.057695" lon="104.667145"><ele>101.7</ele><time>2011-04-28T05:27:54.0000000+00:00</time></trkpt><trkpt lat="22.056913" lon="104.668053"><ele>103.4</ele><time>2011-04-28T05:28:29.0000000+00:00</time></trkpt><trkpt lat="22.056135" lon="104.668449"><ele>104.8</ele><time>2011-04-28T05:28:44.0000000+00:00</time></trkpt><trkpt lat="22.05562" lon="104.668243"><ele>109.3</ele><time>2011-04-28T05:28:54.0000000+00:00</time></trkpt><trkpt lat="22.054525" lon="104.667175"><ele>97.7</ele><time>2011-04-28T05:30:04.0000000+00:00</time></trkpt><trkpt lat="22.053762" lon="104.666985"><ele>111.4</ele><time>2011-04-28T05:31:19.0000000+00:00</time></trkpt><trkpt lat="22.053316" lon="104.666641"><ele>104.6</ele><time>2011-04-28T05:31:34.0000000+00:00</time></trkpt><trkpt lat="22.052288" lon="104.666664"><ele>104.6</ele><time>2011-04-28T05:31:59.0000000+00:00</time></trkpt><trkpt lat="22.050859" lon="104.667091"><ele>107.1</ele><time>2011-04-28T05:32:54.0000000+00:00</time></trkpt><trkpt lat="22.050308" lon="104.66803"><ele>102.8</ele><time>2011-04-28T05:33:54.0000000+00:00</time></trkpt><trkpt lat="22.050524" lon="104.668297"><ele>109.6</ele><time>2011-04-28T05:36:59.0000000+00:00</time></trkpt><trkpt lat="22.050482" lon="104.668015"><ele>104.8</ele><time>2011-04-28T05:52:19.0000000+00:00</time></trkpt><trkpt lat="22.050697" lon="104.668381"><ele>119.9</ele><time>2011-04-28T05:56:04.0000000+00:00</time></trkpt><trkpt lat="22.05056" lon="104.667946"><ele>105.7</ele><time>2011-04-28T06:09:39.0000000+00:00</time></trkpt><trkpt lat="22.050459" lon="104.667969"><ele>104.2</ele><time>2011-04-28T06:12:24.0000000+00:00</time></trkpt><trkpt lat="22.050537" lon="104.667885"><ele>104.9</ele><time>2011-04-28T06:14:44.0000000+00:00</time></trkpt><trkpt lat="22.050396" lon="104.667946"><ele>103.2</ele><time>2011-04-28T06:16:29.0000000+00:00</time></trkpt><trkpt lat="22.050314" lon="104.668098"><ele>103.2</ele><time>2011-04-28T06:29:44.0000000+00:00</time></trkpt><trkpt lat="22.050512" lon="104.668091"><ele>105.9</ele><time>2011-04-28T06:30:49.0000000+00:00</time></trkpt><trkpt lat="22.050379" lon="104.668121"><ele>103.9</ele><time>2011-04-28T06:33:14.0000000+00:00</time></trkpt><trkpt lat="22.050526" lon="104.668213"><ele>107.9</ele><time>2011-04-28T06:37:24.0000000+00:00</time></trkpt><trkpt lat="22.050335" lon="104.668114"><ele>103.4</ele><time>2011-04-28T06:38:19.0000000+00:00</time></trkpt><trkpt lat="22.049984" lon="104.668724"><ele>110.1</ele><time>2011-04-28T06:38:44.0000000+00:00</time></trkpt><trkpt lat="22.049292" lon="104.668922"><ele>103.0</ele><time>2011-04-28T06:39:09.0000000+00:00</time></trkpt><trkpt lat="22.048573" lon="104.669464"><ele>110.7</ele><time>2011-04-28T06:39:34.0000000+00:00</time></trkpt><trkpt lat="22.047737" lon="104.669754"><ele>121.5</ele><time>2011-04-28T06:40:04.0000000+00:00</time></trkpt><trkpt lat="22.047611" lon="104.67038"><ele>122.0</ele><time>2011-04-28T06:40:24.0000000+00:00</time></trkpt><trkpt lat="22.046726" lon="104.670761"><ele>122.6</ele><time>2011-04-28T06:40:54.0000000+00:00</time></trkpt><trkpt lat="22.046448" lon="104.671486"><ele>123.4</ele><time>2011-04-28T06:41:14.0000000+00:00</time></trkpt><trkpt lat="22.045763" lon="104.672203"><ele>127.4</ele><time>2011-04-28T06:41:39.0000000+00:00</time></trkpt><trkpt lat="22.045303" lon="104.67231"><ele>127.8</ele><time>2011-04-28T06:41:49.0000000+00:00</time></trkpt><trkpt lat="22.044525" lon="104.67218"><ele>123.3</ele><time>2011-04-28T06:42:04.0000000+00:00</time></trkpt><trkpt lat="22.044294" lon="104.672302"><ele>127.2</ele><time>2011-04-28T06:42:09.0000000+00:00</time></trkpt><trkpt lat="22.0439" lon="104.672783"><ele>132.9</ele><time>2011-04-28T06:42:24.0000000+00:00</time></trkpt><trkpt lat="22.043732" lon="104.673401"><ele>129.6</ele><time>2011-04-28T06:42:39.0000000+00:00</time></trkpt><trkpt lat="22.042852" lon="104.67411"><ele>129.9</ele><time>2011-04-28T06:43:04.0000000+00:00</time></trkpt><trkpt lat="22.042934" lon="104.675377"><ele>131.3</ele><time>2011-04-28T06:43:29.0000000+00:00</time></trkpt><trkpt lat="22.042847" lon="104.675575"><ele>131.6</ele><time>2011-04-28T06:43:34.0000000+00:00</time></trkpt><trkpt lat="22.042311" lon="104.675842"><ele>139.9</ele><time>2011-04-28T06:43:49.0000000+00:00</time></trkpt><trkpt lat="22.041838" lon="104.676521"><ele>141.1</ele><time>2011-04-28T06:44:09.0000000+00:00</time></trkpt><trkpt lat="22.041742" lon="104.67717"><ele>141.3</ele><time>2011-04-28T06:44:24.0000000+00:00</time></trkpt><trkpt lat="22.041412" lon="104.677643"><ele>141.7</ele><time>2011-04-28T06:44:39.0000000+00:00</time></trkpt><trkpt lat="22.041422" lon="104.678253"><ele>143.5</ele><time>2011-04-28T06:44:54.0000000+00:00</time></trkpt><trkpt lat="22.041086" lon="104.678925"><ele>140.2</ele><time>2011-04-28T06:45:09.0000000+00:00</time></trkpt><trkpt lat="22.04089" lon="104.680031"><ele>140.9</ele><time>2011-04-28T06:45:34.0000000+00:00</time></trkpt><trkpt lat="22.040134" lon="104.680824"><ele>140.0</ele><time>2011-04-28T06:45:59.0000000+00:00</time></trkpt><trkpt lat="22.039833" lon="104.682137"><ele>141.4</ele><time>2011-04-28T06:46:24.0000000+00:00</time></trkpt><trkpt lat="22.039021" lon="104.683769"><ele>137.1</ele><time>2011-04-28T06:46:49.0000000+00:00</time></trkpt><trkpt lat="22.03813" lon="104.684837"><ele>135.3</ele><time>2011-04-28T06:47:09.0000000+00:00</time></trkpt><trkpt lat="22.037952" lon="104.685791"><ele>134.2</ele><time>2011-04-28T06:47:24.0000000+00:00</time></trkpt><trkpt lat="22.037193" lon="104.68663"><ele>134.8</ele><time>2011-04-28T06:47:44.0000000+00:00</time></trkpt><trkpt lat="22.037004" lon="104.687431"><ele>135.2</ele><time>2011-04-28T06:47:59.0000000+00:00</time></trkpt><trkpt lat="22.03624" lon="104.688232"><ele>132.9</ele><time>2011-04-28T06:48:14.0000000+00:00</time></trkpt><trkpt lat="22.036104" lon="104.688881"><ele>137.9</ele><time>2011-04-28T06:48:24.0000000+00:00</time></trkpt><trkpt lat="22.034933" lon="104.689331"><ele>131.9</ele><time>2011-04-28T06:48:44.0000000+00:00</time></trkpt><trkpt lat="22.034437" lon="104.689934"><ele>127.3</ele><time>2011-04-28T06:48:54.0000000+00:00</time></trkpt><trkpt lat="22.03447" lon="104.690392"><ele>123.1</ele><time>2011-04-28T06:48:59.0000000+00:00</time></trkpt><trkpt lat="22.034317" lon="104.690636"><ele>123.1</ele><time>2011-04-28T06:49:04.0000000+00:00</time></trkpt><trkpt lat="22.034019" lon="104.690697"><ele>124.5</ele><time>2011-04-28T06:49:09.0000000+00:00</time></trkpt><trkpt lat="22.033436" lon="104.691208"><ele>120.0</ele><time>2011-04-28T06:49:19.0000000+00:00</time></trkpt><trkpt lat="22.033062" lon="104.69194"><ele>119.5</ele><time>2011-04-28T06:49:29.0000000+00:00</time></trkpt><trkpt lat="22.032024" lon="104.692543"><ele>108.5</ele><time>2011-04-28T06:49:44.0000000+00:00</time></trkpt><trkpt lat="22.032253" lon="104.693954"><ele>109.1</ele><time>2011-04-28T06:50:04.0000000+00:00</time></trkpt><trkpt lat="22.032221" lon="104.694794"><ele>110.7</ele><time>2011-04-28T06:50:14.0000000+00:00</time></trkpt><trkpt lat="22.031925" lon="104.695351"><ele>108.2</ele><time>2011-04-28T06:50:29.0000000+00:00</time></trkpt><trkpt lat="22.031275" lon="104.6959"><ele>108.8</ele><time>2011-04-28T06:50:44.0000000+00:00</time></trkpt><trkpt lat="22.030739" lon="104.696739"><ele>96.6</ele><time>2011-04-28T06:50:54.0000000+00:00</time></trkpt><trkpt lat="22.030529" lon="104.697258"><ele>91.9</ele><time>2011-04-28T06:50:59.0000000+00:00</time></trkpt><trkpt lat="22.030476" lon="104.698166"><ele>91.8</ele><time>2011-04-28T06:51:09.0000000+00:00</time></trkpt><trkpt lat="22.030073" lon="104.699013"><ele>93.8</ele><time>2011-04-28T06:51:24.0000000+00:00</time></trkpt><trkpt lat="22.030313" lon="104.699539"><ele>94.2</ele><time>2011-04-28T06:51:34.0000000+00:00</time></trkpt><trkpt lat="22.02948" lon="104.700493"><ele>77.9</ele><time>2011-04-28T06:51:49.0000000+00:00</time></trkpt><trkpt lat="22.028887" lon="104.701607"><ele>71.0</ele><time>2011-04-28T06:52:04.0000000+00:00</time></trkpt><trkpt lat="22.028572" lon="104.702698"><ele>66.2</ele><time>2011-04-28T06:52:14.0000000+00:00</time></trkpt><trkpt lat="22.02758" lon="104.703308"><ele>74.8</ele><time>2011-04-28T06:52:29.0000000+00:00</time></trkpt><trkpt lat="22.026442" lon="104.702957"><ele>73.6</ele><time>2011-04-28T06:53:04.0000000+00:00</time></trkpt><trkpt lat="22.025148" lon="104.703178"><ele>74.6</ele><time>2011-04-28T06:53:54.0000000+00:00</time></trkpt><trkpt lat="22.024893" lon="104.703743"><ele>80.0</ele><time>2011-04-28T06:54:09.0000000+00:00</time></trkpt><trkpt lat="22.023849" lon="104.705063"><ele>81.5</ele><time>2011-04-28T06:54:49.0000000+00:00</time></trkpt><trkpt lat="22.02318" lon="104.705444"><ele>75.8</ele><time>2011-04-28T06:55:14.0000000+00:00</time></trkpt><trkpt lat="22.023132" lon="104.706734"><ele>85.3</ele><time>2011-04-28T06:55:49.0000000+00:00</time></trkpt><trkpt lat="22.022404" lon="104.706947"><ele>76.8</ele><time>2011-04-28T06:56:04.0000000+00:00</time></trkpt><trkpt lat="22.021187" lon="104.708618"><ele>82.9</ele><time>2011-04-28T06:56:44.0000000+00:00</time></trkpt><trkpt lat="22.020239" lon="104.709068"><ele>79.8</ele><time>2011-04-28T06:57:09.0000000+00:00</time></trkpt><trkpt lat="22.020178" lon="104.709961"><ele>79.3</ele><time>2011-04-28T06:57:29.0000000+00:00</time></trkpt><trkpt lat="22.019535" lon="104.710999"><ele>88.9</ele><time>2011-04-28T06:58:04.0000000+00:00</time></trkpt><trkpt lat="22.018942" lon="104.711159"><ele>90.4</ele><time>2011-04-28T06:58:34.0000000+00:00</time></trkpt><trkpt lat="22.018604" lon="104.711487"><ele>94.4</ele><time>2011-04-28T06:58:54.0000000+00:00</time></trkpt><trkpt lat="22.017576" lon="104.711929"><ele>97.3</ele><time>2011-04-28T06:59:44.0000000+00:00</time></trkpt><trkpt lat="22.017342" lon="104.712151"><ele>92.0</ele><time>2011-04-28T06:59:59.0000000+00:00</time></trkpt><trkpt lat="22.017284" lon="104.712845"><ele>99.3</ele><time>2011-04-28T07:00:29.0000000+00:00</time></trkpt><trkpt lat="22.01519" lon="104.713928"><ele>109.0</ele><time>2011-04-28T07:03:19.0000000+00:00</time></trkpt><trkpt lat="22.014902" lon="104.715462"><ele>130.8</ele><time>2011-04-28T07:05:04.0000000+00:00</time></trkpt><trkpt lat="22.01465" lon="104.715622"><ele>138.8</ele><time>2011-04-28T07:05:14.0000000+00:00</time></trkpt><trkpt lat="22.014275" lon="104.715477"><ele>129.8</ele><time>2011-04-28T07:05:34.0000000+00:00</time></trkpt><trkpt lat="22.013845" lon="104.716217"><ele>134.0</ele><time>2011-04-28T07:06:09.0000000+00:00</time></trkpt><trkpt lat="22.013395" lon="104.716484"><ele>130.8</ele><time>2011-04-28T07:06:29.0000000+00:00</time></trkpt><trkpt lat="22.012978" lon="104.717018"><ele>146.7</ele><time>2011-04-28T07:06:54.0000000+00:00</time></trkpt><trkpt lat="22.012564" lon="104.717201"><ele>145.5</ele><time>2011-04-28T07:07:14.0000000+00:00</time></trkpt><trkpt lat="22.011522" lon="104.717041"><ele>147.1</ele><time>2011-04-28T07:07:59.0000000+00:00</time></trkpt><trkpt lat="22.01119" lon="104.717125"><ele>148.5</ele><time>2011-04-28T07:08:49.0000000+00:00</time></trkpt><trkpt lat="22.01129" lon="104.717155"><ele>147.1</ele><time>2011-04-28T07:18:24.0000000+00:00</time></trkpt><trkpt lat="22.010515" lon="104.718132"><ele>133.5</ele><time>2011-04-28T07:20:49.0000000+00:00</time></trkpt><trkpt lat="22.010286" lon="104.718811"><ele>123.4</ele><time>2011-04-28T07:20:59.0000000+00:00</time></trkpt><trkpt lat="22.010859" lon="104.719315"><ele>120.7</ele><time>2011-04-28T07:21:09.0000000+00:00</time></trkpt><trkpt lat="22.010984" lon="104.719597"><ele>121.6</ele><time>2011-04-28T07:21:14.0000000+00:00</time></trkpt><trkpt lat="22.010794" lon="104.719841"><ele>121.9</ele><time>2011-04-28T07:21:19.0000000+00:00</time></trkpt><trkpt lat="22.010208" lon="104.720062"><ele>117.8</ele><time>2011-04-28T07:21:29.0000000+00:00</time></trkpt><trkpt lat="22.009579" lon="104.720695"><ele>105.2</ele><time>2011-04-28T07:21:44.0000000+00:00</time></trkpt><trkpt lat="22.009003" lon="104.722061"><ele>93.5</ele><time>2011-04-28T07:21:59.0000000+00:00</time></trkpt><trkpt lat="22.008413" lon="104.722916"><ele>92.0</ele><time>2011-04-28T07:22:09.0000000+00:00</time></trkpt><trkpt lat="22.008354" lon="104.723236"><ele>87.3</ele><time>2011-04-28T07:22:14.0000000+00:00</time></trkpt><trkpt lat="22.009026" lon="104.725288"><ele>80.0</ele><time>2011-04-28T07:22:39.0000000+00:00</time></trkpt><trkpt lat="22.008991" lon="104.725586"><ele>78.7</ele><time>2011-04-28T07:22:44.0000000+00:00</time></trkpt><trkpt lat="22.008623" lon="104.726723"><ele>70.3</ele><time>2011-04-28T07:23:04.0000000+00:00</time></trkpt><trkpt lat="22.007406" lon="104.729057"><ele>68.9</ele><time>2011-04-28T07:23:49.0000000+00:00</time></trkpt><trkpt lat="22.006708" lon="104.729156"><ele>70.1</ele><time>2011-04-28T07:24:04.0000000+00:00</time></trkpt><trkpt lat="22.005608" lon="104.729744"><ele>79.4</ele><time>2011-04-28T07:24:34.0000000+00:00</time></trkpt><trkpt lat="22.004431" lon="104.729645"><ele>72.1</ele><time>2011-04-28T07:25:04.0000000+00:00</time></trkpt><trkpt lat="22.003963" lon="104.729973"><ele>71.8</ele><time>2011-04-28T07:25:19.0000000+00:00</time></trkpt><trkpt lat="22.003496" lon="104.730736"><ele>71.7</ele><time>2011-04-28T07:25:39.0000000+00:00</time></trkpt><trkpt lat="22.002438" lon="104.730721"><ele>73.1</ele><time>2011-04-28T07:26:04.0000000+00:00</time></trkpt><trkpt lat="22.000093" lon="104.73156"><ele>82.0</ele><time>2011-04-28T07:27:14.0000000+00:00</time></trkpt><trkpt lat="21.999678" lon="104.732635"><ele>78.5</ele><time>2011-04-28T07:27:44.0000000+00:00</time></trkpt><trkpt lat="21.997154" lon="104.734444"><ele>85.8</ele><time>2011-04-28T07:29:04.0000000+00:00</time></trkpt><trkpt lat="21.995789" lon="104.735619"><ele>92.8</ele><time>2011-04-28T07:30:04.0000000+00:00</time></trkpt><trkpt lat="21.994263" lon="104.736221"><ele>112.2</ele><time>2011-04-28T07:32:14.0000000+00:00</time></trkpt><trkpt lat="21.993849" lon="104.736671"><ele>127.5</ele><time>2011-04-28T07:32:49.0000000+00:00</time></trkpt><trkpt lat="21.99382" lon="104.737396"><ele>112.7</ele><time>2011-04-28T07:35:14.0000000+00:00</time></trkpt><trkpt lat="21.993416" lon="104.737587"><ele>111.8</ele><time>2011-04-28T07:35:29.0000000+00:00</time></trkpt><trkpt lat="21.992828" lon="104.737564"><ele>128.1</ele><time>2011-04-28T07:36:04.0000000+00:00</time></trkpt><trkpt lat="21.991848" lon="104.738991"><ele>144.1</ele><time>2011-04-28T07:37:34.0000000+00:00</time></trkpt><trkpt lat="21.991192" lon="104.73941"><ele>136.6</ele><time>2011-04-28T07:42:34.0000000+00:00</time></trkpt><trkpt lat="21.991297" lon="104.739334"><ele>142.1</ele><time>2011-04-28T07:46:39.0000000+00:00</time></trkpt><trkpt lat="21.991028" lon="104.739021"><ele>152.3</ele><time>2011-04-28T07:49:59.0000000+00:00</time></trkpt><trkpt lat="21.991119" lon="104.739281"><ele>141.0</ele><time>2011-04-28T07:50:44.0000000+00:00</time></trkpt><trkpt lat="21.990686" lon="104.739441"><ele>134.0</ele><time>2011-04-28T07:50:54.0000000+00:00</time></trkpt><trkpt lat="21.990391" lon="104.739998"><ele>125.9</ele><time>2011-04-28T07:51:04.0000000+00:00</time></trkpt><trkpt lat="21.989695" lon="104.739983"><ele>119.3</ele><time>2011-04-28T07:51:34.0000000+00:00</time></trkpt><trkpt lat="21.988512" lon="104.740326"><ele>114.8</ele><time>2011-04-28T07:52:04.0000000+00:00</time></trkpt><trkpt lat="21.987677" lon="104.741379"><ele>103.7</ele><time>2011-04-28T07:52:24.0000000+00:00</time></trkpt><trkpt lat="21.987129" lon="104.741768"><ele>102.5</ele><time>2011-04-28T07:52:34.0000000+00:00</time></trkpt><trkpt lat="21.987091" lon="104.742355"><ele>93.1</ele><time>2011-04-28T07:52:44.0000000+00:00</time></trkpt><trkpt lat="21.986441" lon="104.742737"><ele>84.5</ele><time>2011-04-28T07:52:54.0000000+00:00</time></trkpt><trkpt lat="21.985241" lon="104.744316"><ele>79.7</ele><time>2011-04-28T07:53:19.0000000+00:00</time></trkpt><trkpt lat="21.982733" lon="104.746208"><ele>86.0</ele><time>2011-04-28T07:54:09.0000000+00:00</time></trkpt><trkpt lat="21.981686" lon="104.747467"><ele>88.9</ele><time>2011-04-28T07:54:44.0000000+00:00</time></trkpt><trkpt lat="21.980444" lon="104.747917"><ele>86.6</ele><time>2011-04-28T07:55:14.0000000+00:00</time></trkpt><trkpt lat="21.979771" lon="104.747932"><ele>79.0</ele><time>2011-04-28T07:55:29.0000000+00:00</time></trkpt><trkpt lat="21.979334" lon="104.747688"><ele>77.3</ele><time>2011-04-28T07:55:39.0000000+00:00</time></trkpt><trkpt lat="21.979031" lon="104.747711"><ele>76.2</ele><time>2011-04-28T07:55:44.0000000+00:00</time></trkpt><trkpt lat="21.978062" lon="104.74868"><ele>80.9</ele><time>2011-04-28T07:56:09.0000000+00:00</time></trkpt><trkpt lat="21.977501" lon="104.749748"><ele>77.4</ele><time>2011-04-28T07:56:34.0000000+00:00</time></trkpt><trkpt lat="21.975967" lon="104.750862"><ele>72.4</ele><time>2011-04-28T07:56:59.0000000+00:00</time></trkpt><trkpt lat="21.975401" lon="104.750702"><ele>78.7</ele><time>2011-04-28T07:57:09.0000000+00:00</time></trkpt><trkpt lat="21.974974" lon="104.75029"><ele>87.5</ele><time>2011-04-28T07:57:24.0000000+00:00</time></trkpt><trkpt lat="21.974684" lon="104.750244"><ele>82.9</ele><time>2011-04-28T07:57:34.0000000+00:00</time></trkpt><trkpt lat="21.972706" lon="104.751236"><ele>88.6</ele><time>2011-04-28T07:58:54.0000000+00:00</time></trkpt><trkpt lat="21.970892" lon="104.752975"><ele>75.1</ele><time>2011-04-28T08:00:44.0000000+00:00</time></trkpt><trkpt lat="21.970907" lon="104.754799"><ele>70.7</ele><time>2011-04-28T08:01:14.0000000+00:00</time></trkpt><trkpt lat="21.970781" lon="104.755074"><ele>70.8</ele><time>2011-04-28T08:01:24.0000000+00:00</time></trkpt><trkpt lat="21.969" lon="104.7565"><ele>76.5</ele><time>2011-04-28T08:02:29.0000000+00:00</time></trkpt><trkpt lat="21.967522" lon="104.758629"><ele>78.2</ele><time>2011-04-28T08:03:44.0000000+00:00</time></trkpt><trkpt lat="21.965292" lon="104.759377"><ele>88.5</ele><time>2011-04-28T08:04:54.0000000+00:00</time></trkpt><trkpt lat="21.964901" lon="104.760498"><ele>84.7</ele><time>2011-04-28T08:05:14.0000000+00:00</time></trkpt><trkpt lat="21.964104" lon="104.761215"><ele>78.4</ele><time>2011-04-28T08:05:44.0000000+00:00</time></trkpt><trkpt lat="21.962559" lon="104.761414"><ele>90.6</ele><time>2011-04-28T08:06:19.0000000+00:00</time></trkpt><trkpt lat="21.961788" lon="104.761917"><ele>81.6</ele><time>2011-04-28T08:06:34.0000000+00:00</time></trkpt><trkpt lat="21.961452" lon="104.762466"><ele>80.1</ele><time>2011-04-28T08:06:49.0000000+00:00</time></trkpt><trkpt lat="21.960838" lon="104.762444"><ele>83.2</ele><time>2011-04-28T08:07:04.0000000+00:00</time></trkpt><trkpt lat="21.960228" lon="104.763924"><ele>88.0</ele><time>2011-04-28T08:07:44.0000000+00:00</time></trkpt><trkpt lat="21.959805" lon="104.76416"><ele>84.1</ele><time>2011-04-28T08:07:54.0000000+00:00</time></trkpt><trkpt lat="21.959248" lon="104.764061"><ele>84.5</ele><time>2011-04-28T08:08:04.0000000+00:00</time></trkpt><trkpt lat="21.958328" lon="104.765388"><ele>95.3</ele><time>2011-04-28T08:08:39.0000000+00:00</time></trkpt><trkpt lat="21.958298" lon="104.766312"><ele>93.3</ele><time>2011-04-28T08:08:59.0000000+00:00</time></trkpt><trkpt lat="21.958067" lon="104.766693"><ele>90.9</ele><time>2011-04-28T08:09:09.0000000+00:00</time></trkpt><trkpt lat="21.95598" lon="104.767967"><ele>108.7</ele><time>2011-04-28T08:10:49.0000000+00:00</time></trkpt><trkpt lat="21.955276" lon="104.768234"><ele>111.0</ele><time>2011-04-28T08:11:19.0000000+00:00</time></trkpt><trkpt lat="21.955212" lon="104.768944"><ele>111.8</ele><time>2011-04-28T08:11:54.0000000+00:00</time></trkpt><trkpt lat="21.95496" lon="104.769188"><ele>108.4</ele><time>2011-04-28T08:12:09.0000000+00:00</time></trkpt><trkpt lat="21.953251" lon="104.770164"><ele>96.6</ele><time>2011-04-28T08:12:49.0000000+00:00</time></trkpt><trkpt lat="21.952122" lon="104.7705"><ele>99.3</ele><time>2011-04-28T08:13:04.0000000+00:00</time></trkpt><trkpt lat="21.951235" lon="104.772133"><ele>87.9</ele><time>2011-04-28T08:13:34.0000000+00:00</time></trkpt><trkpt lat="21.949415" lon="104.773224"><ele>90.0</ele><time>2011-04-28T08:14:09.0000000+00:00</time></trkpt><trkpt lat="21.947937" lon="104.774712"><ele>88.9</ele><time>2011-04-28T08:14:44.0000000+00:00</time></trkpt><trkpt lat="21.947105" lon="104.775017"><ele>90.6</ele><time>2011-04-28T08:15:04.0000000+00:00</time></trkpt><trkpt lat="21.946335" lon="104.775551"><ele>84.3</ele><time>2011-04-28T08:15:24.0000000+00:00</time></trkpt><trkpt lat="21.94619" lon="104.775711"><ele>82.7</ele><time>2011-04-28T08:15:29.0000000+00:00</time></trkpt><trkpt lat="21.946081" lon="104.776932"><ele>87.0</ele><time>2011-04-28T08:15:49.0000000+00:00</time></trkpt><trkpt lat="21.945473" lon="104.777344"><ele>81.2</ele><time>2011-04-28T08:16:04.0000000+00:00</time></trkpt><trkpt lat="21.945288" lon="104.778137"><ele>84.0</ele><time>2011-04-28T08:16:19.0000000+00:00</time></trkpt><trkpt lat="21.945005" lon="104.778603"><ele>88.2</ele><time>2011-04-28T08:16:29.0000000+00:00</time></trkpt><trkpt lat="21.942831" lon="104.779633"><ele>91.3</ele><time>2011-04-28T08:21:34.0000000+00:00</time></trkpt><trkpt lat="21.942497" lon="104.780197"><ele>87.6</ele><time>2011-04-28T08:21:44.0000000+00:00</time></trkpt><trkpt lat="21.941885" lon="104.780716"><ele>83.4</ele><time>2011-04-28T08:21:54.0000000+00:00</time></trkpt><trkpt lat="21.942526" lon="104.782509"><ele>75.8</ele><time>2011-04-28T08:22:19.0000000+00:00</time></trkpt><trkpt lat="21.9424" lon="104.783546"><ele>75.6</ele><time>2011-04-28T08:22:39.0000000+00:00</time></trkpt><trkpt lat="21.94207" lon="104.784035"><ele>75.4</ele><time>2011-04-28T08:22:49.0000000+00:00</time></trkpt><trkpt lat="21.940649" lon="104.785202"><ele>78.2</ele><time>2011-04-28T08:23:29.0000000+00:00</time></trkpt><trkpt lat="21.940029" lon="104.785797"><ele>80.4</ele><time>2011-04-28T08:24:44.0000000+00:00</time></trkpt><trkpt lat="21.940052" lon="104.785927"><ele>86.7</ele><time>2011-04-28T08:32:04.0000000+00:00</time></trkpt><trkpt lat="21.939596" lon="104.786102"><ele>83.1</ele><time>2011-04-28T08:32:54.0000000+00:00</time></trkpt><trkpt lat="21.938101" lon="104.786217"><ele>93.9</ele><time>2011-04-28T08:33:29.0000000+00:00</time></trkpt><trkpt lat="21.936892" lon="104.786057"><ele>85.6</ele><time>2011-04-28T08:34:04.0000000+00:00</time></trkpt><trkpt lat="21.936106" lon="104.786308"><ele>80.2</ele><time>2011-04-28T08:34:19.0000000+00:00</time></trkpt><trkpt lat="21.935513" lon="104.787209"><ele>77.3</ele><time>2011-04-28T08:34:39.0000000+00:00</time></trkpt><trkpt lat="21.932673" lon="104.788994"><ele>80.8</ele><time>2011-04-28T08:35:44.0000000+00:00</time></trkpt><trkpt lat="21.932333" lon="104.789505"><ele>79.4</ele><time>2011-04-28T08:35:54.0000000+00:00</time></trkpt><trkpt lat="21.932291" lon="104.790016"><ele>82.7</ele><time>2011-04-28T08:36:04.0000000+00:00</time></trkpt><trkpt lat="21.931665" lon="104.7911"><ele>87.7</ele><time>2011-04-28T08:36:34.0000000+00:00</time></trkpt><trkpt lat="21.93116" lon="104.791573"><ele>81.2</ele><time>2011-04-28T08:36:54.0000000+00:00</time></trkpt><trkpt lat="21.930916" lon="104.792099"><ele>88.7</ele><time>2011-04-28T08:37:09.0000000+00:00</time></trkpt><trkpt lat="21.930376" lon="104.792564"><ele>94.3</ele><time>2011-04-28T08:37:49.0000000+00:00</time></trkpt><trkpt lat="21.929335" lon="104.794136"><ele>101.7</ele><time>2011-04-28T08:39:34.0000000+00:00</time></trkpt><trkpt lat="21.928019" lon="104.794891"><ele>102.3</ele><time>2011-04-28T08:40:39.0000000+00:00</time></trkpt><trkpt lat="21.926889" lon="104.79525"><ele>86.1</ele><time>2011-04-28T08:41:09.0000000+00:00</time></trkpt><trkpt lat="21.926388" lon="104.795792"><ele>90.0</ele><time>2011-04-28T08:41:19.0000000+00:00</time></trkpt><trkpt lat="21.926054" lon="104.796631"><ele>85.5</ele><time>2011-04-28T08:41:34.0000000+00:00</time></trkpt><trkpt lat="21.925287" lon="104.797157"><ele>91.0</ele><time>2011-04-28T08:41:59.0000000+00:00</time></trkpt><trkpt lat="21.924295" lon="104.79837"><ele>93.3</ele><time>2011-04-28T08:42:49.0000000+00:00</time></trkpt><trkpt lat="21.923944" lon="104.799019"><ele>95.1</ele><time>2011-04-28T08:43:19.0000000+00:00</time></trkpt><trkpt lat="21.923668" lon="104.799263"><ele>92.2</ele><time>2011-04-28T08:43:34.0000000+00:00</time></trkpt><trkpt lat="21.922832" lon="104.799477"><ele>88.5</ele><time>2011-04-28T08:43:59.0000000+00:00</time></trkpt><trkpt lat="21.922527" lon="104.800529"><ele>89.8</ele><time>2011-04-28T08:44:24.0000000+00:00</time></trkpt><trkpt lat="21.921465" lon="104.80246"><ele>90.2</ele><time>2011-04-28T08:45:14.0000000+00:00</time></trkpt><trkpt lat="21.920347" lon="104.803444"><ele>93.2</ele><time>2011-04-28T08:45:44.0000000+00:00</time></trkpt><trkpt lat="21.919455" lon="104.803459"><ele>92.1</ele><time>2011-04-28T08:46:04.0000000+00:00</time></trkpt><trkpt lat="21.918989" lon="104.803894"><ele>93.7</ele><time>2011-04-28T08:46:19.0000000+00:00</time></trkpt><trkpt lat="21.918739" lon="104.80452"><ele>93.9</ele><time>2011-04-28T08:46:34.0000000+00:00</time></trkpt><trkpt lat="21.918131" lon="104.805244"><ele>97.9</ele><time>2011-04-28T08:46:54.0000000+00:00</time></trkpt><trkpt lat="21.917736" lon="104.806305"><ele>104.1</ele><time>2011-04-28T08:47:24.0000000+00:00</time></trkpt><trkpt lat="21.916819" lon="104.807144"><ele>98.9</ele><time>2011-04-28T08:47:49.0000000+00:00</time></trkpt><trkpt lat="21.916378" lon="104.808365"><ele>109.0</ele><time>2011-04-28T08:48:29.0000000+00:00</time></trkpt><trkpt lat="21.91572" lon="104.80867"><ele>111.7</ele><time>2011-04-28T08:48:54.0000000+00:00</time></trkpt><trkpt lat="21.915548" lon="104.809486"><ele>109.9</ele><time>2011-04-28T08:49:19.0000000+00:00</time></trkpt><trkpt lat="21.915325" lon="104.809746"><ele>110.1</ele><time>2011-04-28T08:49:29.0000000+00:00</time></trkpt><trkpt lat="21.914217" lon="104.809746"><ele>107.5</ele><time>2011-04-28T08:50:14.0000000+00:00</time></trkpt><trkpt lat="21.913845" lon="104.809532"><ele>107.3</ele><time>2011-04-28T08:50:29.0000000+00:00</time></trkpt><trkpt lat="21.913361" lon="104.809525"><ele>106.8</ele><time>2011-04-28T08:50:49.0000000+00:00</time></trkpt><trkpt lat="21.912024" lon="104.810143"><ele>104.8</ele><time>2011-04-28T08:52:04.0000000+00:00</time></trkpt><trkpt lat="21.910278" lon="104.811752"><ele>102.6</ele><time>2011-04-28T08:52:59.0000000+00:00</time></trkpt><trkpt lat="21.909302" lon="104.812889"><ele>103.4</ele><time>2011-04-28T08:53:44.0000000+00:00</time></trkpt><trkpt lat="21.90859" lon="104.813354"><ele>100.2</ele><time>2011-04-28T08:54:14.0000000+00:00</time></trkpt><trkpt lat="21.90806" lon="104.814423"><ele>97.6</ele><time>2011-04-28T08:54:49.0000000+00:00</time></trkpt><trkpt lat="21.907335" lon="104.815102"><ele>102.2</ele><time>2011-04-28T08:55:14.0000000+00:00</time></trkpt><trkpt lat="21.906748" lon="104.816231"><ele>97.9</ele><time>2011-04-28T08:55:44.0000000+00:00</time></trkpt><trkpt lat="21.905725" lon="104.817413"><ele>108.0</ele><time>2011-04-28T08:56:14.0000000+00:00</time></trkpt><trkpt lat="21.904228" lon="104.818527"><ele>104.9</ele><time>2011-04-28T08:57:14.0000000+00:00</time></trkpt><trkpt lat="21.90202" lon="104.819839"><ele>95.2</ele><time>2011-04-28T08:58:19.0000000+00:00</time></trkpt><trkpt lat="21.900515" lon="104.821289"><ele>97.3</ele><time>2011-04-28T08:58:54.0000000+00:00</time></trkpt><trkpt lat="21.899607" lon="104.822388"><ele>98.1</ele><time>2011-04-28T08:59:44.0000000+00:00</time></trkpt><trkpt lat="21.899498" lon="104.822273"><ele>97.1</ele><time>2011-04-28T09:13:54.0000000+00:00</time></trkpt><trkpt lat="21.897554" lon="104.824829"><ele>92.2</ele><time>2011-04-28T09:15:24.0000000+00:00</time></trkpt><trkpt lat="21.896494" lon="104.825104"><ele>89.2</ele><time>2011-04-28T09:15:44.0000000+00:00</time></trkpt><trkpt lat="21.896156" lon="104.825569"><ele>88.6</ele><time>2011-04-28T09:15:54.0000000+00:00</time></trkpt><trkpt lat="21.895391" lon="104.827286"><ele>90.5</ele><time>2011-04-28T09:16:24.0000000+00:00</time></trkpt><trkpt lat="21.893568" lon="104.829102"><ele>91.4</ele><time>2011-04-28T09:17:09.0000000+00:00</time></trkpt><trkpt lat="21.893057" lon="104.829407"><ele>91.2</ele><time>2011-04-28T09:17:19.0000000+00:00</time></trkpt><trkpt lat="21.891775" lon="104.829536"><ele>90.7</ele><time>2011-04-28T09:17:44.0000000+00:00</time></trkpt><trkpt lat="21.889799" lon="104.83078"><ele>92.2</ele><time>2011-04-28T09:18:29.0000000+00:00</time></trkpt><trkpt lat="21.889328" lon="104.831345"><ele>95.0</ele><time>2011-04-28T09:18:44.0000000+00:00</time></trkpt><trkpt lat="21.888548" lon="104.831337"><ele>90.6</ele><time>2011-04-28T09:18:59.0000000+00:00</time></trkpt><trkpt lat="21.888245" lon="104.831551"><ele>88.1</ele><time>2011-04-28T09:19:04.0000000+00:00</time></trkpt><trkpt lat="21.886745" lon="104.83326"><ele>83.0</ele><time>2011-04-28T09:19:34.0000000+00:00</time></trkpt><trkpt lat="21.886572" lon="104.833588"><ele>83.0</ele><time>2011-04-28T09:19:39.0000000+00:00</time></trkpt><trkpt lat="21.886301" lon="104.835571"><ele>83.4</ele><time>2011-04-28T09:20:04.0000000+00:00</time></trkpt><trkpt lat="21.88484" lon="104.838219"><ele>75.5</ele><time>2011-04-28T09:20:49.0000000+00:00</time></trkpt><trkpt lat="21.884331" lon="104.838753"><ele>92.7</ele><time>2011-04-28T09:20:59.0000000+00:00</time></trkpt><trkpt lat="21.883814" lon="104.838936"><ele>109.1</ele><time>2011-04-28T09:21:09.0000000+00:00</time></trkpt><trkpt lat="21.883165" lon="104.838844"><ele>83.8</ele><time>2011-04-28T09:21:24.0000000+00:00</time></trkpt><trkpt lat="21.882425" lon="104.839172"><ele>83.8</ele><time>2011-04-28T09:21:39.0000000+00:00</time></trkpt><trkpt lat="21.881609" lon="104.840096"><ele>80.6</ele><time>2011-04-28T09:21:59.0000000+00:00</time></trkpt><trkpt lat="21.881077" lon="104.841263"><ele>82.6</ele><time>2011-04-28T09:22:19.0000000+00:00</time></trkpt><trkpt lat="21.880703" lon="104.841682"><ele>78.8</ele><time>2011-04-28T09:22:29.0000000+00:00</time></trkpt><trkpt lat="21.877228" lon="104.842964"><ele>74.6</ele><time>2011-04-28T09:25:29.0000000+00:00</time></trkpt><trkpt lat="21.876707" lon="104.842804"><ele>73.5</ele><time>2011-04-28T09:25:44.0000000+00:00</time></trkpt><trkpt lat="21.875851" lon="104.842255"><ele>74.5</ele><time>2011-04-28T09:26:04.0000000+00:00</time></trkpt><trkpt lat="21.874882" lon="104.84243"><ele>72.4</ele><time>2011-04-28T09:26:24.0000000+00:00</time></trkpt><trkpt lat="21.870506" lon="104.845955"><ele>76.4</ele><time>2011-04-28T09:27:59.0000000+00:00</time></trkpt><trkpt lat="21.868757" lon="104.846382"><ele>72.1</ele><time>2011-04-28T09:28:34.0000000+00:00</time></trkpt><trkpt lat="21.867855" lon="104.847412"><ele>74.0</ele><time>2011-04-28T09:28:59.0000000+00:00</time></trkpt><trkpt lat="21.867334" lon="104.84742"><ele>75.9</ele><time>2011-04-28T09:29:19.0000000+00:00</time></trkpt><trkpt lat="21.866152" lon="104.848061"><ele>81.1</ele><time>2011-04-28T09:29:54.0000000+00:00</time></trkpt><trkpt lat="21.864397" lon="104.84964"><ele>81.5</ele><time>2011-04-28T09:30:39.0000000+00:00</time></trkpt><trkpt lat="21.863779" lon="104.850006"><ele>85.6</ele><time>2011-04-28T09:30:54.0000000+00:00</time></trkpt><trkpt lat="21.862625" lon="104.850372"><ele>84.3</ele><time>2011-04-28T09:32:09.0000000+00:00</time></trkpt><trkpt lat="21.862329" lon="104.850899"><ele>83.9</ele><time>2011-04-28T09:33:29.0000000+00:00</time></trkpt><trkpt lat="21.861282" lon="104.851257"><ele>84.2</ele><time>2011-04-28T09:33:54.0000000+00:00</time></trkpt><trkpt lat="21.860416" lon="104.852501"><ele>83.4</ele><time>2011-04-28T09:34:14.0000000+00:00</time></trkpt><trkpt lat="21.85936" lon="104.853104"><ele>86.1</ele><time>2011-04-28T09:34:34.0000000+00:00</time></trkpt><trkpt lat="21.857479" lon="104.854965"><ele>82.6</ele><time>2011-04-28T09:35:19.0000000+00:00</time></trkpt><trkpt lat="21.855791" lon="104.858498"><ele>82.4</ele><time>2011-04-28T09:36:34.0000000+00:00</time></trkpt><trkpt lat="21.853277" lon="104.861603"><ele>83.3</ele><time>2011-04-28T09:37:44.0000000+00:00</time></trkpt><trkpt lat="21.851892" lon="104.862518"><ele>90.0</ele><time>2011-04-28T09:38:54.0000000+00:00</time></trkpt><trkpt lat="21.849855" lon="104.862228"><ele>102.0</ele><time>2011-04-28T09:40:09.0000000+00:00</time></trkpt><trkpt lat="21.848663" lon="104.862488"><ele>93.5</ele><time>2011-04-28T09:40:29.0000000+00:00</time></trkpt><trkpt lat="21.847649" lon="104.863289"><ele>95.2</ele><time>2011-04-28T09:40:49.0000000+00:00</time></trkpt><trkpt lat="21.845739" lon="104.864372"><ele>98.2</ele><time>2011-04-28T09:41:44.0000000+00:00</time></trkpt><trkpt lat="21.845121" lon="104.865097"><ele>94.5</ele><time>2011-04-28T09:42:04.0000000+00:00</time></trkpt><trkpt lat="21.844707" lon="104.865341"><ele>104.5</ele><time>2011-04-28T09:42:14.0000000+00:00</time></trkpt><trkpt lat="21.843885" lon="104.864677"><ele>85.7</ele><time>2011-04-28T09:42:29.0000000+00:00</time></trkpt><trkpt lat="21.843536" lon="104.864777"><ele>85.2</ele><time>2011-04-28T09:42:34.0000000+00:00</time></trkpt><trkpt lat="21.84289" lon="104.8657"><ele>79.1</ele><time>2011-04-28T09:42:49.0000000+00:00</time></trkpt><trkpt lat="21.841969" lon="104.866417"><ele>74.4</ele><time>2011-04-28T09:43:04.0000000+00:00</time></trkpt><trkpt lat="21.841385" lon="104.867905"><ele>81.4</ele><time>2011-04-28T09:43:29.0000000+00:00</time></trkpt><trkpt lat="21.838598" lon="104.870682"><ele>78.5</ele><time>2011-04-28T09:44:34.0000000+00:00</time></trkpt><trkpt lat="21.838095" lon="104.870911"><ele>75.7</ele><time>2011-04-28T09:44:44.0000000+00:00</time></trkpt><trkpt lat="21.837536" lon="104.870651"><ele>80.7</ele><time>2011-04-28T09:44:59.0000000+00:00</time></trkpt><trkpt lat="21.83637" lon="104.87056"><ele>81.0</ele><time>2011-04-28T09:47:04.0000000+00:00</time></trkpt><trkpt lat="21.835892" lon="104.870697"><ele>78.6</ele><time>2011-04-28T09:47:14.0000000+00:00</time></trkpt><trkpt lat="21.835207" lon="104.87207"><ele>74.3</ele><time>2011-04-28T09:47:34.0000000+00:00</time></trkpt><trkpt lat="21.834375" lon="104.872902"><ele>76.2</ele><time>2011-04-28T09:47:54.0000000+00:00</time></trkpt><trkpt lat="21.833639" lon="104.873436"><ele>71.3</ele><time>2011-04-28T09:48:09.0000000+00:00</time></trkpt><trkpt lat="21.832497" lon="104.873642"><ele>66.9</ele><time>2011-04-28T09:48:24.0000000+00:00</time></trkpt><trkpt lat="21.831301" lon="104.874916"><ele>73.2</ele><time>2011-04-28T09:48:54.0000000+00:00</time></trkpt><trkpt lat="21.829491" lon="104.875595"><ele>69.5</ele><time>2011-04-28T09:49:34.0000000+00:00</time></trkpt><trkpt lat="21.826984" lon="104.87809"><ele>73.2</ele><time>2011-04-28T09:50:29.0000000+00:00</time></trkpt><trkpt lat="21.826777" lon="104.878738"><ele>72.3</ele><time>2011-04-28T09:50:39.0000000+00:00</time></trkpt><trkpt lat="21.82551" lon="104.879875"><ele>71.2</ele><time>2011-04-28T09:51:04.0000000+00:00</time></trkpt><trkpt lat="21.82386" lon="104.880554"><ele>71.7</ele><time>2011-04-28T09:51:34.0000000+00:00</time></trkpt><trkpt lat="21.822664" lon="104.880051"><ele>78.2</ele><time>2011-04-28T09:52:04.0000000+00:00</time></trkpt><trkpt lat="21.822123" lon="104.880203"><ele>79.3</ele><time>2011-04-28T09:52:24.0000000+00:00</time></trkpt><trkpt lat="21.821297" lon="104.881096"><ele>79.6</ele><time>2011-04-28T09:52:54.0000000+00:00</time></trkpt><trkpt lat="21.82106" lon="104.882057"><ele>78.3</ele><time>2011-04-28T09:53:14.0000000+00:00</time></trkpt><trkpt lat="21.819933" lon="104.883041"><ele>83.0</ele><time>2011-04-28T09:53:54.0000000+00:00</time></trkpt><trkpt lat="21.820013" lon="104.883621"><ele>90.4</ele><time>2011-04-28T09:54:19.0000000+00:00</time></trkpt><trkpt lat="21.819666" lon="104.884338"><ele>94.7</ele><time>2011-04-28T09:55:59.0000000+00:00</time></trkpt><trkpt lat="21.819548" lon="104.885017"><ele>96.4</ele><time>2011-04-28T09:56:34.0000000+00:00</time></trkpt><trkpt lat="21.819754" lon="104.885674"><ele>82.3</ele><time>2011-04-28T09:56:44.0000000+00:00</time></trkpt><trkpt lat="21.819515" lon="104.885872"><ele>78.9</ele><time>2011-04-28T09:56:49.0000000+00:00</time></trkpt><trkpt lat="21.818926" lon="104.885727"><ele>79.1</ele><time>2011-04-28T09:56:59.0000000+00:00</time></trkpt><trkpt lat="21.818655" lon="104.885956"><ele>83.0</ele><time>2011-04-28T09:57:04.0000000+00:00</time></trkpt><trkpt lat="21.818727" lon="104.886864"><ele>74.3</ele><time>2011-04-28T09:57:14.0000000+00:00</time></trkpt><trkpt lat="21.81851" lon="104.887672"><ele>76.6</ele><time>2011-04-28T09:57:29.0000000+00:00</time></trkpt><trkpt lat="21.818649" lon="104.888313"><ele>71.4</ele><time>2011-04-28T09:57:39.0000000+00:00</time></trkpt><trkpt lat="21.815815" lon="104.890282"><ele>67.7</ele><time>2011-04-28T09:58:24.0000000+00:00</time></trkpt><trkpt lat="21.814665" lon="104.891624"><ele>66.4</ele><time>2011-04-28T09:58:54.0000000+00:00</time></trkpt><trkpt lat="21.813547" lon="104.892105"><ele>70.0</ele><time>2011-04-28T09:59:19.0000000+00:00</time></trkpt><trkpt lat="21.811756" lon="104.894836"><ele>72.5</ele><time>2011-04-28T10:00:19.0000000+00:00</time></trkpt><trkpt lat="21.810982" lon="104.895172"><ele>68.9</ele><time>2011-04-28T10:00:34.0000000+00:00</time></trkpt><trkpt lat="21.809093" lon="104.897095"><ele>67.6</ele><time>2011-04-28T10:01:19.0000000+00:00</time></trkpt><trkpt lat="21.808157" lon="104.8974"><ele>70.9</ele><time>2011-04-28T10:01:39.0000000+00:00</time></trkpt><trkpt lat="21.807873" lon="104.898018"><ele>74.4</ele><time>2011-04-28T10:01:54.0000000+00:00</time></trkpt><trkpt lat="21.806707" lon="104.898674"><ele>82.3</ele><time>2011-04-28T10:02:29.0000000+00:00</time></trkpt><trkpt lat="21.806562" lon="104.899124"><ele>93.8</ele><time>2011-04-28T10:02:44.0000000+00:00</time></trkpt><trkpt lat="21.806707" lon="104.899857"><ele>85.0</ele><time>2011-04-28T10:03:14.0000000+00:00</time></trkpt><trkpt lat="21.806496" lon="104.900055"><ele>82.8</ele><time>2011-04-28T10:03:29.0000000+00:00</time></trkpt><trkpt lat="21.805845" lon="104.900215"><ele>85.0</ele><time>2011-04-28T10:03:49.0000000+00:00</time></trkpt><trkpt lat="21.805614" lon="104.900848"><ele>89.1</ele><time>2011-04-28T10:04:09.0000000+00:00</time></trkpt><trkpt lat="21.805244" lon="104.901222"><ele>95.9</ele><time>2011-04-28T10:04:29.0000000+00:00</time></trkpt><trkpt lat="21.805136" lon="104.90226"><ele>86.1</ele><time>2011-04-28T10:06:59.0000000+00:00</time></trkpt><trkpt lat="21.804226" lon="104.902809"><ele>86.2</ele><time>2011-04-28T10:07:34.0000000+00:00</time></trkpt><trkpt lat="21.803562" lon="104.904114"><ele>80.8</ele><time>2011-04-28T10:07:54.0000000+00:00</time></trkpt><trkpt lat="21.802368" lon="104.904861"><ele>80.7</ele><time>2011-04-28T10:08:19.0000000+00:00</time></trkpt><trkpt lat="21.801743" lon="104.905716"><ele>76.2</ele><time>2011-04-28T10:08:34.0000000+00:00</time></trkpt><trkpt lat="21.800579" lon="104.906792"><ele>86.7</ele><time>2011-04-28T10:09:09.0000000+00:00</time></trkpt><trkpt lat="21.799543" lon="104.908234"><ele>92.0</ele><time>2011-04-28T10:10:04.0000000+00:00</time></trkpt><trkpt lat="21.7987" lon="104.910309"><ele>101.9</ele><time>2011-04-28T10:11:24.0000000+00:00</time></trkpt><trkpt lat="21.798981" lon="104.911247"><ele>104.4</ele><time>2011-04-28T10:12:29.0000000+00:00</time></trkpt><trkpt lat="21.798582" lon="104.911598"><ele>115.6</ele><time>2011-04-28T10:13:09.0000000+00:00</time></trkpt><trkpt lat="21.798342" lon="104.912338"><ele>112.9</ele><time>2011-04-28T10:13:59.0000000+00:00</time></trkpt><trkpt lat="21.796392" lon="104.913361"><ele>124.7</ele><time>2011-04-28T10:15:59.0000000+00:00</time></trkpt><trkpt lat="21.795767" lon="104.913536"><ele>129.4</ele><time>2011-04-28T10:16:29.0000000+00:00</time></trkpt><trkpt lat="21.795139" lon="104.914665"><ele>132.6</ele><time>2011-04-28T10:18:19.0000000+00:00</time></trkpt><trkpt lat="21.794027" lon="104.914566"><ele>131.8</ele><time>2011-04-28T10:32:29.0000000+00:00</time></trkpt><trkpt lat="21.793909" lon="104.915054"><ele>138.9</ele><time>2011-04-28T10:32:39.0000000+00:00</time></trkpt><trkpt lat="21.793987" lon="104.915649"><ele>129.7</ele><time>2011-04-28T10:32:49.0000000+00:00</time></trkpt><trkpt lat="21.793478" lon="104.915977"><ele>134.6</ele><time>2011-04-28T10:32:59.0000000+00:00</time></trkpt><trkpt lat="21.793192" lon="104.916626"><ele>129.1</ele><time>2011-04-28T10:33:09.0000000+00:00</time></trkpt><trkpt lat="21.792517" lon="104.917168"><ele>123.4</ele><time>2011-04-28T10:33:29.0000000+00:00</time></trkpt><trkpt lat="21.792446" lon="104.917816"><ele>121.5</ele><time>2011-04-28T10:35:04.0000000+00:00</time></trkpt><trkpt lat="21.792601" lon="104.91732"><ele>123.0</ele><time>2011-04-28T10:48:24.0000000+00:00</time></trkpt><trkpt lat="21.791349" lon="104.91713"><ele>115.3</ele><time>2011-04-28T10:50:14.0000000+00:00</time></trkpt><trkpt lat="21.791044" lon="104.916542"><ele>117.2</ele><time>2011-04-28T10:50:24.0000000+00:00</time></trkpt><trkpt lat="21.790749" lon="104.916374"><ele>117.8</ele><time>2011-04-28T10:50:29.0000000+00:00</time></trkpt><trkpt lat="21.790443" lon="104.916565"><ele>114.8</ele><time>2011-04-28T10:50:34.0000000+00:00</time></trkpt><trkpt lat="21.789835" lon="104.917458"><ele>116.8</ele><time>2011-04-28T10:50:49.0000000+00:00</time></trkpt><trkpt lat="21.789557" lon="104.917389"><ele>113.7</ele><time>2011-04-28T10:50:54.0000000+00:00</time></trkpt><trkpt lat="21.789373" lon="104.917145"><ele>111.2</ele><time>2011-04-28T10:50:59.0000000+00:00</time></trkpt><trkpt lat="21.789734" lon="104.91642"><ele>113.2</ele><time>2011-04-28T10:51:19.0000000+00:00</time></trkpt><trkpt lat="21.789549" lon="104.91568"><ele>105.5</ele><time>2011-04-28T10:51:39.0000000+00:00</time></trkpt><trkpt lat="21.78993" lon="104.915092"><ele>107.8</ele><time>2011-04-28T10:51:54.0000000+00:00</time></trkpt><trkpt lat="21.789803" lon="104.914848"><ele>105.9</ele><time>2011-04-28T10:51:59.0000000+00:00</time></trkpt><trkpt lat="21.788595" lon="104.913963"><ele>98.5</ele><time>2011-04-28T10:52:24.0000000+00:00</time></trkpt><trkpt lat="21.787857" lon="104.91468"><ele>96.5</ele><time>2011-04-28T10:52:39.0000000+00:00</time></trkpt><trkpt lat="21.787527" lon="104.914795"><ele>97.3</ele><time>2011-04-28T10:52:44.0000000+00:00</time></trkpt><trkpt lat="21.786833" lon="104.91436"><ele>94.0</ele><time>2011-04-28T10:52:59.0000000+00:00</time></trkpt><trkpt lat="21.786573" lon="104.914429"><ele>108.6</ele><time>2011-04-28T10:53:04.0000000+00:00</time></trkpt><trkpt lat="21.786488" lon="104.915024"><ele>103.6</ele><time>2011-04-28T10:53:14.0000000+00:00</time></trkpt><trkpt lat="21.785849" lon="104.915352"><ele>106.6</ele><time>2011-04-28T10:53:29.0000000+00:00</time></trkpt><trkpt lat="21.785702" lon="104.915947"><ele>98.8</ele><time>2011-04-28T10:53:39.0000000+00:00</time></trkpt><trkpt lat="21.785488" lon="104.916016"><ele>96.3</ele><time>2011-04-28T10:53:44.0000000+00:00</time></trkpt><trkpt lat="21.785328" lon="104.915436"><ele>104.9</ele><time>2011-04-28T10:54:04.0000000+00:00</time></trkpt><trkpt lat="21.784685" lon="104.915009"><ele>113.9</ele><time>2011-04-28T10:54:34.0000000+00:00</time></trkpt><trkpt lat="21.783901" lon="104.915176"><ele>116.4</ele><time>2011-04-28T10:54:54.0000000+00:00</time></trkpt><trkpt lat="21.783323" lon="104.915062"><ele>112.7</ele><time>2011-04-28T10:55:09.0000000+00:00</time></trkpt><trkpt lat="21.782351" lon="104.915474"><ele>105.7</ele><time>2011-04-28T10:55:24.0000000+00:00</time></trkpt><trkpt lat="21.781561" lon="104.91629"><ele>105.8</ele><time>2011-04-28T10:55:39.0000000+00:00</time></trkpt><trkpt lat="21.780731" lon="104.916267"><ele>93.1</ele><time>2011-04-28T10:55:49.0000000+00:00</time></trkpt><trkpt lat="21.780357" lon="104.916435"><ele>91.7</ele><time>2011-04-28T10:55:54.0000000+00:00</time></trkpt><trkpt lat="21.779541" lon="104.917023"><ele>89.1</ele><time>2011-04-28T10:56:09.0000000+00:00</time></trkpt><trkpt lat="21.779177" lon="104.917625"><ele>85.8</ele><time>2011-04-28T10:56:19.0000000+00:00</time></trkpt><trkpt lat="21.778198" lon="104.918343"><ele>85.1</ele><time>2011-04-28T10:56:39.0000000+00:00</time></trkpt><trkpt lat="21.777655" lon="104.919044"><ele>94.0</ele><time>2011-04-28T10:56:54.0000000+00:00</time></trkpt><trkpt lat="21.776121" lon="104.920197"><ele>95.3</ele><time>2011-04-28T10:57:49.0000000+00:00</time></trkpt><trkpt lat="21.773939" lon="104.921524"><ele>81.9</ele><time>2011-04-28T10:58:29.0000000+00:00</time></trkpt><trkpt lat="21.773361" lon="104.92141"><ele>88.5</ele><time>2011-04-28T10:58:39.0000000+00:00</time></trkpt><trkpt lat="21.77286" lon="104.920723"><ele>83.8</ele><time>2011-04-28T10:58:54.0000000+00:00</time></trkpt><trkpt lat="21.772203" lon="104.920502"><ele>89.6</ele><time>2011-04-28T10:59:09.0000000+00:00</time></trkpt><trkpt lat="21.771868" lon="104.92057"><ele>85.0</ele><time>2011-04-28T10:59:19.0000000+00:00</time></trkpt><trkpt lat="21.7714" lon="104.921104"><ele>88.6</ele><time>2011-04-28T10:59:39.0000000+00:00</time></trkpt><trkpt lat="21.770517" lon="104.920952"><ele>83.2</ele><time>2011-04-28T11:01:09.0000000+00:00</time></trkpt><trkpt lat="21.76955" lon="104.921524"><ele>81.0</ele><time>2011-04-28T11:01:29.0000000+00:00</time></trkpt><trkpt lat="21.768053" lon="104.921906"><ele>107.3</ele><time>2011-04-28T11:02:04.0000000+00:00</time></trkpt><trkpt lat="21.767633" lon="104.922333"><ele>100.7</ele><time>2011-04-28T11:02:19.0000000+00:00</time></trkpt><trkpt lat="21.7654" lon="104.923317"><ele>88.8</ele><time>2011-04-28T11:03:19.0000000+00:00</time></trkpt><trkpt lat="21.764437" lon="104.923134"><ele>91.6</ele><time>2011-04-28T11:03:44.0000000+00:00</time></trkpt><trkpt lat="21.76387" lon="104.923264"><ele>90.9</ele><time>2011-04-28T11:03:59.0000000+00:00</time></trkpt><trkpt lat="21.763273" lon="104.924164"><ele>93.5</ele><time>2011-04-28T11:04:24.0000000+00:00</time></trkpt><trkpt lat="21.763203" lon="104.92524"><ele>93.3</ele><time>2011-04-28T11:04:44.0000000+00:00</time></trkpt><trkpt lat="21.762381" lon="104.928101"><ele>71.2</ele><time>2011-04-28T11:05:19.0000000+00:00</time></trkpt><trkpt lat="21.761448" lon="104.929459"><ele>76.1</ele><time>2011-04-28T11:05:39.0000000+00:00</time></trkpt><trkpt lat="21.761456" lon="104.931801"><ele>78.7</ele><time>2011-04-28T11:06:19.0000000+00:00</time></trkpt><trkpt lat="21.761232" lon="104.932335"><ele>67.8</ele><time>2011-04-28T11:06:34.0000000+00:00</time></trkpt><trkpt lat="21.760256" lon="104.933708"><ele>68.2</ele><time>2011-04-28T11:07:24.0000000+00:00</time></trkpt><trkpt lat="21.758913" lon="104.934448"><ele>69.5</ele><time>2011-04-28T11:08:34.0000000+00:00</time></trkpt><trkpt lat="21.757494" lon="104.935677"><ele>69.4</ele><time>2011-04-28T11:09:09.0000000+00:00</time></trkpt><trkpt lat="21.755825" lon="104.937912"><ele>65.6</ele><time>2011-04-28T11:09:54.0000000+00:00</time></trkpt><trkpt lat="21.7551" lon="104.938385"><ele>61.8</ele><time>2011-04-28T11:10:09.0000000+00:00</time></trkpt><trkpt lat="21.75433" lon="104.939293"><ele>64.3</ele><time>2011-04-28T11:10:29.0000000+00:00</time></trkpt><trkpt lat="21.753939" lon="104.939438"><ele>63.6</ele><time>2011-04-28T11:10:34.0000000+00:00</time></trkpt><trkpt lat="21.750402" lon="104.939903"><ele>74.5</ele><time>2011-04-28T11:11:39.0000000+00:00</time></trkpt><trkpt lat="21.74946" lon="104.939522"><ele>99.7</ele><time>2011-04-28T11:11:59.0000000+00:00</time></trkpt><trkpt lat="21.748943" lon="104.939056"><ele>79.5</ele><time>2011-04-28T11:12:14.0000000+00:00</time></trkpt><trkpt lat="21.74872" lon="104.938492"><ele>74.1</ele><time>2011-04-28T11:12:44.0000000+00:00</time></trkpt><trkpt lat="21.747446" lon="104.937988"><ele>85.4</ele><time>2011-04-28T11:13:14.0000000+00:00</time></trkpt><trkpt lat="21.746805" lon="104.937889"><ele>93.1</ele><time>2011-04-28T11:13:29.0000000+00:00</time></trkpt><trkpt lat="21.74597" lon="104.938278"><ele>79.5</ele><time>2011-04-28T11:13:49.0000000+00:00</time></trkpt><trkpt lat="21.745533" lon="104.939537"><ele>67.2</ele><time>2011-04-28T11:14:19.0000000+00:00</time></trkpt><trkpt lat="21.745661" lon="104.940132"><ele>69.3</ele><time>2011-04-28T11:14:29.0000000+00:00</time></trkpt><trkpt lat="21.746098" lon="104.940765"><ele>71.1</ele><time>2011-04-28T11:15:14.0000000+00:00</time></trkpt><trkpt lat="21.74613" lon="104.941414"><ele>74.0</ele><time>2011-04-28T11:18:54.0000000+00:00</time></trkpt><trkpt lat="21.746214" lon="104.941315"><ele>74.5</ele><time>2011-04-28T11:19:34.0000000+00:00</time></trkpt><trkpt lat="21.74609" lon="104.941399"><ele>73.2</ele><time>2011-04-28T11:20:49.0000000+00:00</time></trkpt><trkpt lat="21.74629" lon="104.941269"><ele>75.2</ele><time>2011-04-28T11:24:44.0000000+00:00</time></trkpt><trkpt lat="21.746206" lon="104.941353"><ele>74.7</ele><time>2011-04-28T11:25:14.0000000+00:00</time></trkpt><trkpt lat="21.746077" lon="104.941292"><ele>72.2</ele><time>2011-04-28T11:28:44.0000000+00:00</time></trkpt><trkpt lat="21.74614" lon="104.941208"><ele>72.8</ele><time>2011-04-28T11:30:04.0000000+00:00</time></trkpt><trkpt lat="21.746054" lon="104.941299"><ele>71.9</ele><time>2011-04-28T11:30:19.0000000+00:00</time></trkpt><trkpt lat="21.746229" lon="104.941338"><ele>74.9</ele><time>2011-04-28T11:31:24.0000000+00:00</time></trkpt></trkseg><trkseg><trkpt lat="21.745958" lon="104.941154"><ele>71.4</ele><time>2011-04-29T05:09:25.0000000+00:00</time></trkpt><trkpt lat="21.745804" lon="104.941208"><ele>78.7</ele><time>2011-04-29T05:10:15.0000000+00:00</time></trkpt><trkpt lat="21.745962" lon="104.941093"><ele>71.3</ele><time>2011-04-29T05:10:40.0000000+00:00</time></trkpt><trkpt lat="21.746363" lon="104.941193"><ele>75.7</ele><time>2011-04-29T05:12:20.0000000+00:00</time></trkpt><trkpt lat="21.745981" lon="104.941338"><ele>71.0</ele><time>2011-04-29T05:17:10.0000000+00:00</time></trkpt><trkpt lat="21.746023" lon="104.941521"><ele>72.9</ele><time>2011-04-29T05:18:20.0000000+00:00</time></trkpt><trkpt lat="21.745852" lon="104.941292"><ele>75.9</ele><time>2011-04-29T05:20:40.0000000+00:00</time></trkpt><trkpt lat="21.745955" lon="104.941429"><ele>71.9</ele><time>2011-04-29T05:21:40.0000000+00:00</time></trkpt><trkpt lat="21.745605" lon="104.941895"><ele>72.0</ele><time>2011-04-29T05:23:00.0000000+00:00</time></trkpt><trkpt lat="21.7444" lon="104.942123"><ele>77.3</ele><time>2011-04-29T05:23:15.0000000+00:00</time></trkpt><trkpt lat="21.74161" lon="104.941719"><ele>61.9</ele><time>2011-04-29T05:23:40.0000000+00:00</time></trkpt><trkpt lat="21.740772" lon="104.941833"><ele>56.7</ele><time>2011-04-29T05:23:55.0000000+00:00</time></trkpt><trkpt lat="21.740458" lon="104.942398"><ele>56.4</ele><time>2011-04-29T05:24:30.0000000+00:00</time></trkpt><trkpt lat="21.740461" lon="104.943176"><ele>60.0</ele><time>2011-04-29T05:24:45.0000000+00:00</time></trkpt><trkpt lat="21.740105" lon="104.944534"><ele>62.6</ele><time>2011-04-29T05:25:00.0000000+00:00</time></trkpt><trkpt lat="21.73925" lon="104.946335"><ele>67.4</ele><time>2011-04-29T05:25:20.0000000+00:00</time></trkpt><trkpt lat="21.739567" lon="104.947876"><ele>65.0</ele><time>2011-04-29T05:25:35.0000000+00:00</time></trkpt><trkpt lat="21.739023" lon="104.948799"><ele>68.1</ele><time>2011-04-29T05:25:45.0000000+00:00</time></trkpt><trkpt lat="21.738358" lon="104.949524"><ele>72.0</ele><time>2011-04-29T05:25:55.0000000+00:00</time></trkpt><trkpt lat="21.73633" lon="104.950836"><ele>74.9</ele><time>2011-04-29T05:26:20.0000000+00:00</time></trkpt><trkpt lat="21.73588" lon="104.950996"><ele>75.6</ele><time>2011-04-29T05:26:25.0000000+00:00</time></trkpt><trkpt lat="21.734333" lon="104.950577"><ele>78.5</ele><time>2011-04-29T05:26:40.0000000+00:00</time></trkpt><trkpt lat="21.733568" lon="104.951225"><ele>77.6</ele><time>2011-04-29T05:26:50.0000000+00:00</time></trkpt><trkpt lat="21.733265" lon="104.952271"><ele>73.2</ele><time>2011-04-29T05:27:00.0000000+00:00</time></trkpt><trkpt lat="21.733585" lon="104.954407"><ele>68.7</ele><time>2011-04-29T05:27:20.0000000+00:00</time></trkpt><trkpt lat="21.732529" lon="104.95639"><ele>63.8</ele><time>2011-04-29T05:27:40.0000000+00:00</time></trkpt><trkpt lat="21.7327" lon="104.958572"><ele>68.3</ele><time>2011-04-29T05:28:00.0000000+00:00</time></trkpt><trkpt lat="21.732611" lon="104.959099"><ele>66.1</ele><time>2011-04-29T05:28:05.0000000+00:00</time></trkpt><trkpt lat="21.73225" lon="104.959442"><ele>67.7</ele><time>2011-04-29T05:28:10.0000000+00:00</time></trkpt><trkpt lat="21.730425" lon="104.960403"><ele>72.6</ele><time>2011-04-29T05:28:30.0000000+00:00</time></trkpt><trkpt lat="21.729309" lon="104.961426"><ele>70.8</ele><time>2011-04-29T05:28:45.0000000+00:00</time></trkpt><trkpt lat="21.726742" lon="104.961823"><ele>68.6</ele><time>2011-04-29T05:29:10.0000000+00:00</time></trkpt><trkpt lat="21.726349" lon="104.962036"><ele>66.3</ele><time>2011-04-29T05:29:15.0000000+00:00</time></trkpt><trkpt lat="21.726118" lon="104.962471"><ele>65.0</ele><time>2011-04-29T05:29:20.0000000+00:00</time></trkpt><trkpt lat="21.725323" lon="104.966171"><ele>64.5</ele><time>2011-04-29T05:29:55.0000000+00:00</time></trkpt><trkpt lat="21.725069" lon="104.968262"><ele>65.5</ele><time>2011-04-29T05:30:15.0000000+00:00</time></trkpt><trkpt lat="21.724707" lon="104.969254"><ele>67.1</ele><time>2011-04-29T05:30:25.0000000+00:00</time></trkpt><trkpt lat="21.724762" lon="104.970795"><ele>66.6</ele><time>2011-04-29T05:30:40.0000000+00:00</time></trkpt><trkpt lat="21.724556" lon="104.972511"><ele>71.1</ele><time>2011-04-29T05:31:20.0000000+00:00</time></trkpt><trkpt lat="21.724409" lon="104.972954"><ele>72.2</ele><time>2011-04-29T05:31:25.0000000+00:00</time></trkpt><trkpt lat="21.722818" lon="104.975082"><ele>72.5</ele><time>2011-04-29T05:31:50.0000000+00:00</time></trkpt><trkpt lat="21.7216" lon="104.977234"><ele>77.8</ele><time>2011-04-29T05:32:10.0000000+00:00</time></trkpt><trkpt lat="21.721577" lon="104.977875"><ele>80.4</ele><time>2011-04-29T05:32:15.0000000+00:00</time></trkpt><trkpt lat="21.721754" lon="104.978455"><ele>76.1</ele><time>2011-04-29T05:32:20.0000000+00:00</time></trkpt><trkpt lat="21.721636" lon="104.979065"><ele>74.8</ele><time>2011-04-29T05:32:25.0000000+00:00</time></trkpt><trkpt lat="21.721018" lon="104.98008"><ele>73.0</ele><time>2011-04-29T05:32:35.0000000+00:00</time></trkpt><trkpt lat="21.72093" lon="104.981323"><ele>73.8</ele><time>2011-04-29T05:32:45.0000000+00:00</time></trkpt><trkpt lat="21.720966" lon="104.981934"><ele>76.3</ele><time>2011-04-29T05:32:50.0000000+00:00</time></trkpt><trkpt lat="21.721481" lon="104.982864"><ele>91.1</ele><time>2011-04-29T05:33:00.0000000+00:00</time></trkpt><trkpt lat="21.721439" lon="104.98336"><ele>89.7</ele><time>2011-04-29T05:33:05.0000000+00:00</time></trkpt><trkpt lat="21.719603" lon="104.986977"><ele>76.4</ele><time>2011-04-29T05:33:50.0000000+00:00</time></trkpt><trkpt lat="21.716566" lon="104.989189"><ele>75.4</ele><time>2011-04-29T05:34:15.0000000+00:00</time></trkpt><trkpt lat="21.71608" lon="104.989708"><ele>76.9</ele><time>2011-04-29T05:34:20.0000000+00:00</time></trkpt><trkpt lat="21.715473" lon="104.990784"><ele>71.7</ele><time>2011-04-29T05:34:30.0000000+00:00</time></trkpt><trkpt lat="21.711555" lon="104.994537"><ele>63.1</ele><time>2011-04-29T05:35:05.0000000+00:00</time></trkpt><trkpt lat="21.709438" lon="104.995514"><ele>68.6</ele><time>2011-04-29T05:35:20.0000000+00:00</time></trkpt><trkpt lat="21.707502" lon="104.995285"><ele>61.5</ele><time>2011-04-29T05:35:35.0000000+00:00</time></trkpt><trkpt lat="21.706196" lon="104.995461"><ele>82.1</ele><time>2011-04-29T05:35:45.0000000+00:00</time></trkpt><trkpt lat="21.705225" lon="104.996597"><ele>69.4</ele><time>2011-04-29T05:36:00.0000000+00:00</time></trkpt><trkpt lat="21.7043" lon="104.996223"><ele>77.3</ele><time>2011-04-29T05:36:10.0000000+00:00</time></trkpt><trkpt lat="21.703745" lon="104.996323"><ele>77.9</ele><time>2011-04-29T05:36:15.0000000+00:00</time></trkpt><trkpt lat="21.703232" lon="104.996643"><ele>71.1</ele><time>2011-04-29T05:36:20.0000000+00:00</time></trkpt><trkpt lat="21.702721" lon="104.996658"><ele>78.8</ele><time>2011-04-29T05:36:25.0000000+00:00</time></trkpt><trkpt lat="21.701672" lon="104.996193"><ele>73.9</ele><time>2011-04-29T05:36:35.0000000+00:00</time></trkpt><trkpt lat="21.698959" lon="104.996819"><ele>67.3</ele><time>2011-04-29T05:36:55.0000000+00:00</time></trkpt><trkpt lat="21.698341" lon="104.996803"><ele>63.7</ele><time>2011-04-29T05:37:00.0000000+00:00</time></trkpt><trkpt lat="21.69561" lon="104.994659"><ele>71.7</ele><time>2011-04-29T05:37:25.0000000+00:00</time></trkpt><trkpt lat="21.695055" lon="104.994537"><ele>75.9</ele><time>2011-04-29T05:37:30.0000000+00:00</time></trkpt><trkpt lat="21.693844" lon="104.995552"><ele>76.8</ele><time>2011-04-29T05:37:45.0000000+00:00</time></trkpt><trkpt lat="21.693432" lon="104.995461"><ele>82.9</ele><time>2011-04-29T05:37:50.0000000+00:00</time></trkpt><trkpt lat="21.692503" lon="104.994583"><ele>67.8</ele><time>2011-04-29T05:38:00.0000000+00:00</time></trkpt><trkpt lat="21.691195" lon="104.993973"><ele>65.8</ele><time>2011-04-29T05:38:10.0000000+00:00</time></trkpt><trkpt lat="21.690569" lon="104.994064"><ele>69.0</ele><time>2011-04-29T05:38:15.0000000+00:00</time></trkpt><trkpt lat="21.689554" lon="104.994637"><ele>83.1</ele><time>2011-04-29T05:38:25.0000000+00:00</time></trkpt><trkpt lat="21.689262" lon="104.995087"><ele>76.9</ele><time>2011-04-29T05:38:30.0000000+00:00</time></trkpt><trkpt lat="21.689226" lon="104.995552"><ele>76.3</ele><time>2011-04-29T05:38:35.0000000+00:00</time></trkpt><trkpt lat="21.689508" lon="104.996582"><ele>80.5</ele><time>2011-04-29T05:38:45.0000000+00:00</time></trkpt><trkpt lat="21.688856" lon="104.997337"><ele>83.9</ele><time>2011-04-29T05:38:55.0000000+00:00</time></trkpt><trkpt lat="21.688885" lon="104.998772"><ele>94.4</ele><time>2011-04-29T05:39:10.0000000+00:00</time></trkpt><trkpt lat="21.688732" lon="104.999184"><ele>112.4</ele><time>2011-04-29T05:39:15.0000000+00:00</time></trkpt><trkpt lat="21.687866" lon="104.999474"><ele>116.2</ele><time>2011-04-29T05:39:25.0000000+00:00</time></trkpt><trkpt lat="21.687584" lon="104.999886"><ele>108.9</ele><time>2011-04-29T05:39:30.0000000+00:00</time></trkpt><trkpt lat="21.687101" lon="105.000908"><ele>93.3</ele><time>2011-04-29T05:39:40.0000000+00:00</time></trkpt><trkpt lat="21.687149" lon="105.001579"><ele>95.7</ele><time>2011-04-29T05:39:45.0000000+00:00</time></trkpt><trkpt lat="21.686058" lon="105.003418"><ele>85.4</ele><time>2011-04-29T05:40:00.0000000+00:00</time></trkpt><trkpt lat="21.684944" lon="105.004471"><ele>74.8</ele><time>2011-04-29T05:40:10.0000000+00:00</time></trkpt><trkpt lat="21.684324" lon="105.005676"><ele>76.5</ele><time>2011-04-29T05:40:20.0000000+00:00</time></trkpt><trkpt lat="21.683506" lon="105.006462"><ele>82.6</ele><time>2011-04-29T05:40:30.0000000+00:00</time></trkpt><trkpt lat="21.683119" lon="105.00753"><ele>81.6</ele><time>2011-04-29T05:40:40.0000000+00:00</time></trkpt><trkpt lat="21.682365" lon="105.008369"><ele>78.4</ele><time>2011-04-29T05:40:50.0000000+00:00</time></trkpt><trkpt lat="21.682119" lon="105.009674"><ele>77.6</ele><time>2011-04-29T05:41:00.0000000+00:00</time></trkpt><trkpt lat="21.68182" lon="105.010216"><ele>72.6</ele><time>2011-04-29T05:41:05.0000000+00:00</time></trkpt><trkpt lat="21.680862" lon="105.010796"><ele>68.6</ele><time>2011-04-29T05:41:15.0000000+00:00</time></trkpt><trkpt lat="21.679935" lon="105.011696"><ele>66.1</ele><time>2011-04-29T05:41:25.0000000+00:00</time></trkpt><trkpt lat="21.678112" lon="105.013008"><ele>72.0</ele><time>2011-04-29T05:41:45.0000000+00:00</time></trkpt><trkpt lat="21.677679" lon="105.014061"><ele>67.6</ele><time>2011-04-29T05:41:55.0000000+00:00</time></trkpt><trkpt lat="21.676617" lon="105.017815"><ele>72.0</ele><time>2011-04-29T05:42:30.0000000+00:00</time></trkpt><trkpt lat="21.675686" lon="105.019211"><ele>77.3</ele><time>2011-04-29T05:42:45.0000000+00:00</time></trkpt><trkpt lat="21.674822" lon="105.019928"><ele>73.4</ele><time>2011-04-29T05:42:55.0000000+00:00</time></trkpt><trkpt lat="21.674105" lon="105.02095"><ele>70.6</ele><time>2011-04-29T05:43:05.0000000+00:00</time></trkpt><trkpt lat="21.673717" lon="105.022095"><ele>71.5</ele><time>2011-04-29T05:43:15.0000000+00:00</time></trkpt><trkpt lat="21.673729" lon="105.023926"><ele>74.6</ele><time>2011-04-29T05:43:30.0000000+00:00</time></trkpt><trkpt lat="21.673231" lon="105.025093"><ele>82.2</ele><time>2011-04-29T05:43:40.0000000+00:00</time></trkpt><trkpt lat="21.673346" lon="105.025635"><ele>86.8</ele><time>2011-04-29T05:43:45.0000000+00:00</time></trkpt><trkpt lat="21.673985" lon="105.026634"><ele>79.9</ele><time>2011-04-29T05:43:55.0000000+00:00</time></trkpt><trkpt lat="21.674067" lon="105.027222"><ele>81.4</ele><time>2011-04-29T05:44:00.0000000+00:00</time></trkpt><trkpt lat="21.67382" lon="105.027802"><ele>78.9</ele><time>2011-04-29T05:44:05.0000000+00:00</time></trkpt><trkpt lat="21.672331" lon="105.028954"><ele>74.4</ele><time>2011-04-29T05:44:20.0000000+00:00</time></trkpt><trkpt lat="21.672192" lon="105.029556"><ele>70.4</ele><time>2011-04-29T05:44:25.0000000+00:00</time></trkpt><trkpt lat="21.671616" lon="105.03067"><ele>69.7</ele><time>2011-04-29T05:44:35.0000000+00:00</time></trkpt><trkpt lat="21.67227" lon="105.032303"><ele>70.1</ele><time>2011-04-29T05:44:50.0000000+00:00</time></trkpt><trkpt lat="21.672297" lon="105.032913"><ele>69.6</ele><time>2011-04-29T05:44:55.0000000+00:00</time></trkpt><trkpt lat="21.671915" lon="105.034782"><ele>70.7</ele><time>2011-04-29T05:45:10.0000000+00:00</time></trkpt><trkpt lat="21.671919" lon="105.035408"><ele>70.9</ele><time>2011-04-29T05:45:15.0000000+00:00</time></trkpt><trkpt lat="21.672337" lon="105.036278"><ele>76.4</ele><time>2011-04-29T05:45:25.0000000+00:00</time></trkpt><trkpt lat="21.673725" lon="105.03701"><ele>88.8</ele><time>2011-04-29T05:45:45.0000000+00:00</time></trkpt><trkpt lat="21.673975" lon="105.037308"><ele>86.4</ele><time>2011-04-29T05:45:50.0000000+00:00</time></trkpt><trkpt lat="21.674442" lon="105.038506"><ele>78.9</ele><time>2011-04-29T05:46:05.0000000+00:00</time></trkpt><trkpt lat="21.674191" lon="105.039238"><ele>81.1</ele><time>2011-04-29T05:46:15.0000000+00:00</time></trkpt><trkpt lat="21.673952" lon="105.039497"><ele>80.5</ele><time>2011-04-29T05:46:20.0000000+00:00</time></trkpt><trkpt lat="21.673969" lon="105.039841"><ele>85.7</ele><time>2011-04-29T05:46:25.0000000+00:00</time></trkpt><trkpt lat="21.675869" lon="105.042366"><ele>83.2</ele><time>2011-04-29T05:47:05.0000000+00:00</time></trkpt><trkpt lat="21.676418" lon="105.043564"><ele>67.5</ele><time>2011-04-29T05:47:20.0000000+00:00</time></trkpt><trkpt lat="21.676283" lon="105.043877"><ele>61.7</ele><time>2011-04-29T05:47:25.0000000+00:00</time></trkpt><trkpt lat="21.675529" lon="105.044235"><ele>66.1</ele><time>2011-04-29T05:47:35.0000000+00:00</time></trkpt><trkpt lat="21.675129" lon="105.044762"><ele>63.2</ele><time>2011-04-29T05:47:45.0000000+00:00</time></trkpt><trkpt lat="21.675119" lon="105.045128"><ele>62.0</ele><time>2011-04-29T05:47:50.0000000+00:00</time></trkpt><trkpt lat="21.675419" lon="105.045418"><ele>58.8</ele><time>2011-04-29T05:47:55.0000000+00:00</time></trkpt><trkpt lat="21.67555" lon="105.045815"><ele>58.0</ele><time>2011-04-29T05:48:00.0000000+00:00</time></trkpt><trkpt lat="21.675386" lon="105.046333"><ele>54.0</ele><time>2011-04-29T05:48:10.0000000+00:00</time></trkpt><trkpt lat="21.675453" lon="105.04715"><ele>51.8</ele><time>2011-04-29T05:48:20.0000000+00:00</time></trkpt><trkpt lat="21.674776" lon="105.048286"><ele>48.6</ele><time>2011-04-29T05:48:35.0000000+00:00</time></trkpt><trkpt lat="21.674671" lon="105.048759"><ele>48.1</ele><time>2011-04-29T05:48:40.0000000+00:00</time></trkpt><trkpt lat="21.674679" lon="105.049316"><ele>45.6</ele><time>2011-04-29T05:48:45.0000000+00:00</time></trkpt><trkpt lat="21.675035" lon="105.050316"><ele>46.9</ele><time>2011-04-29T05:48:55.0000000+00:00</time></trkpt><trkpt lat="21.674725" lon="105.051811"><ele>46.0</ele><time>2011-04-29T05:49:10.0000000+00:00</time></trkpt><trkpt lat="21.674799" lon="105.054176"><ele>41.9</ele><time>2011-04-29T05:49:30.0000000+00:00</time></trkpt><trkpt lat="21.674932" lon="105.054832"><ele>42.8</ele><time>2011-04-29T05:49:35.0000000+00:00</time></trkpt><trkpt lat="21.675259" lon="105.055412"><ele>39.5</ele><time>2011-04-29T05:49:40.0000000+00:00</time></trkpt><trkpt lat="21.675745" lon="105.055923"><ele>36.4</ele><time>2011-04-29T05:49:45.0000000+00:00</time></trkpt><trkpt lat="21.67638" lon="105.056206"><ele>34.1</ele><time>2011-04-29T05:49:50.0000000+00:00</time></trkpt><trkpt lat="21.677206" lon="105.057259"><ele>32.8</ele><time>2011-04-29T05:50:00.0000000+00:00</time></trkpt><trkpt lat="21.677776" lon="105.057686"><ele>30.5</ele><time>2011-04-29T05:50:05.0000000+00:00</time></trkpt><trkpt lat="21.677935" lon="105.058273"><ele>29.3</ele><time>2011-04-29T05:50:10.0000000+00:00</time></trkpt><trkpt lat="21.677135" lon="105.060143"><ele>32.7</ele><time>2011-04-29T05:50:25.0000000+00:00</time></trkpt><trkpt lat="21.676979" lon="105.061584"><ele>34.0</ele><time>2011-04-29T05:50:35.0000000+00:00</time></trkpt><trkpt lat="21.677826" lon="105.068115"><ele>37.7</ele><time>2011-04-29T05:51:30.0000000+00:00</time></trkpt><trkpt lat="21.678066" lon="105.069283"><ele>32.8</ele><time>2011-04-29T05:51:40.0000000+00:00</time></trkpt><trkpt lat="21.678318" lon="105.069778"><ele>28.5</ele><time>2011-04-29T05:51:45.0000000+00:00</time></trkpt><trkpt lat="21.679974" lon="105.071861"><ele>30.9</ele><time>2011-04-29T05:52:05.0000000+00:00</time></trkpt><trkpt lat="21.679916" lon="105.072395"><ele>31.3</ele><time>2011-04-29T05:52:10.0000000+00:00</time></trkpt><trkpt lat="21.679377" lon="105.073402"><ele>34.9</ele><time>2011-04-29T05:52:20.0000000+00:00</time></trkpt><trkpt lat="21.679346" lon="105.074654"><ele>34.2</ele><time>2011-04-29T05:52:30.0000000+00:00</time></trkpt><trkpt lat="21.680462" lon="105.076431"><ele>33.7</ele><time>2011-04-29T05:52:45.0000000+00:00</time></trkpt><trkpt lat="21.680645" lon="105.077133"><ele>35.5</ele><time>2011-04-29T05:52:55.0000000+00:00</time></trkpt><trkpt lat="21.680202" lon="105.077698"><ele>36.5</ele><time>2011-04-29T05:53:25.0000000+00:00</time></trkpt><trkpt lat="21.678665" lon="105.078148"><ele>32.3</ele><time>2011-04-29T05:53:40.0000000+00:00</time></trkpt><trkpt lat="21.677492" lon="105.078857"><ele>32.0</ele><time>2011-04-29T05:53:50.0000000+00:00</time></trkpt><trkpt lat="21.674028" lon="105.082451"><ele>30.6</ele><time>2011-04-29T05:54:20.0000000+00:00</time></trkpt><trkpt lat="21.67267" lon="105.084473"><ele>30.3</ele><time>2011-04-29T05:54:35.0000000+00:00</time></trkpt><trkpt lat="21.672096" lon="105.084763"><ele>28.9</ele><time>2011-04-29T05:54:40.0000000+00:00</time></trkpt><trkpt lat="21.671402" lon="105.084694"><ele>35.6</ele><time>2011-04-29T05:54:45.0000000+00:00</time></trkpt><trkpt lat="21.669989" lon="105.08342"><ele>54.5</ele><time>2011-04-29T05:55:00.0000000+00:00</time></trkpt><trkpt lat="21.669418" lon="105.083496"><ele>45.6</ele><time>2011-04-29T05:55:05.0000000+00:00</time></trkpt><trkpt lat="21.66885" lon="105.083748"><ele>34.6</ele><time>2011-04-29T05:55:10.0000000+00:00</time></trkpt><trkpt lat="21.667469" lon="105.085052"><ele>36.6</ele><time>2011-04-29T05:55:25.0000000+00:00</time></trkpt><trkpt lat="21.666847" lon="105.085342"><ele>31.8</ele><time>2011-04-29T05:55:30.0000000+00:00</time></trkpt><trkpt lat="21.664461" lon="105.085747"><ele>30.9</ele><time>2011-04-29T05:55:45.0000000+00:00</time></trkpt><trkpt lat="21.663769" lon="105.086037"><ele>31.4</ele><time>2011-04-29T05:55:50.0000000+00:00</time></trkpt><trkpt lat="21.662357" lon="105.087631"><ele>32.3</ele><time>2011-04-29T05:56:15.0000000+00:00</time></trkpt><trkpt lat="21.661442" lon="105.088013"><ele>44.3</ele><time>2011-04-29T05:56:35.0000000+00:00</time></trkpt><trkpt lat="21.660549" lon="105.08815"><ele>37.1</ele><time>2011-04-29T05:56:45.0000000+00:00</time></trkpt><trkpt lat="21.658895" lon="105.087646"><ele>46.0</ele><time>2011-04-29T05:57:00.0000000+00:00</time></trkpt><trkpt lat="21.658325" lon="105.0877"><ele>41.8</ele><time>2011-04-29T05:57:05.0000000+00:00</time></trkpt><trkpt lat="21.657137" lon="105.088394"><ele>34.3</ele><time>2011-04-29T05:57:15.0000000+00:00</time></trkpt><trkpt lat="21.656443" lon="105.088493"><ele>43.2</ele><time>2011-04-29T05:57:20.0000000+00:00</time></trkpt><trkpt lat="21.653698" lon="105.087967"><ele>44.4</ele><time>2011-04-29T05:57:40.0000000+00:00</time></trkpt><trkpt lat="21.652966" lon="105.088036"><ele>45.6</ele><time>2011-04-29T05:57:45.0000000+00:00</time></trkpt><trkpt lat="21.652277" lon="105.088371"><ele>40.3</ele><time>2011-04-29T05:57:50.0000000+00:00</time></trkpt><trkpt lat="21.650661" lon="105.090057"><ele>51.2</ele><time>2011-04-29T05:58:05.0000000+00:00</time></trkpt><trkpt lat="21.649544" lon="105.092125"><ele>39.7</ele><time>2011-04-29T05:58:20.0000000+00:00</time></trkpt><trkpt lat="21.648523" lon="105.093048"><ele>37.3</ele><time>2011-04-29T05:58:30.0000000+00:00</time></trkpt><trkpt lat="21.647909" lon="105.094025"><ele>35.8</ele><time>2011-04-29T05:58:40.0000000+00:00</time></trkpt><trkpt lat="21.647495" lon="105.094383"><ele>36.2</ele><time>2011-04-29T05:58:55.0000000+00:00</time></trkpt><trkpt lat="21.64662" lon="105.094666"><ele>36.5</ele><time>2011-04-29T05:59:05.0000000+00:00</time></trkpt><trkpt lat="21.646172" lon="105.095024"><ele>35.6</ele><time>2011-04-29T05:59:10.0000000+00:00</time></trkpt><trkpt lat="21.645903" lon="105.095551"><ele>34.4</ele><time>2011-04-29T05:59:15.0000000+00:00</time></trkpt><trkpt lat="21.645823" lon="105.096161"><ele>39.0</ele><time>2011-04-29T05:59:20.0000000+00:00</time></trkpt><trkpt lat="21.646385" lon="105.098099"><ele>40.7</ele><time>2011-04-29T05:59:35.0000000+00:00</time></trkpt><trkpt lat="21.645561" lon="105.098938"><ele>40.3</ele><time>2011-04-29T05:59:45.0000000+00:00</time></trkpt><trkpt lat="21.645325" lon="105.099556"><ele>40.1</ele><time>2011-04-29T05:59:50.0000000+00:00</time></trkpt><trkpt lat="21.64513" lon="105.104309"><ele>29.2</ele><time>2011-04-29T06:00:20.0000000+00:00</time></trkpt><trkpt lat="21.644979" lon="105.105095"><ele>27.8</ele><time>2011-04-29T06:00:25.0000000+00:00</time></trkpt><trkpt lat="21.644264" lon="105.106483"><ele>30.7</ele><time>2011-04-29T06:00:35.0000000+00:00</time></trkpt><trkpt lat="21.642529" lon="105.107681"><ele>33.2</ele><time>2011-04-29T06:00:50.0000000+00:00</time></trkpt><trkpt lat="21.641979" lon="105.109062"><ele>35.0</ele><time>2011-04-29T06:01:00.0000000+00:00</time></trkpt><trkpt lat="21.640991" lon="105.110313"><ele>36.9</ele><time>2011-04-29T06:01:10.0000000+00:00</time></trkpt><trkpt lat="21.639795" lon="105.112328"><ele>35.0</ele><time>2011-04-29T06:01:25.0000000+00:00</time></trkpt><trkpt lat="21.639244" lon="105.112694"><ele>33.9</ele><time>2011-04-29T06:01:30.0000000+00:00</time></trkpt><trkpt lat="21.637104" lon="105.112259"><ele>37.7</ele><time>2011-04-29T06:01:45.0000000+00:00</time></trkpt><trkpt lat="21.636389" lon="105.112381"><ele>44.6</ele><time>2011-04-29T06:01:50.0000000+00:00</time></trkpt><trkpt lat="21.635279" lon="105.113083"><ele>49.6</ele><time>2011-04-29T06:02:00.0000000+00:00</time></trkpt><trkpt lat="21.634092" lon="105.113327"><ele>39.8</ele><time>2011-04-29T06:02:10.0000000+00:00</time></trkpt><trkpt lat="21.633749" lon="105.113792"><ele>36.9</ele><time>2011-04-29T06:02:15.0000000+00:00</time></trkpt><trkpt lat="21.633686" lon="105.11425"><ele>42.3</ele><time>2011-04-29T06:02:20.0000000+00:00</time></trkpt><trkpt lat="21.634241" lon="105.115295"><ele>39.4</ele><time>2011-04-29T06:02:30.0000000+00:00</time></trkpt><trkpt lat="21.634304" lon="105.115898"><ele>33.6</ele><time>2011-04-29T06:02:35.0000000+00:00</time></trkpt><trkpt lat="21.633999" lon="105.116447"><ele>38.1</ele><time>2011-04-29T06:02:40.0000000+00:00</time></trkpt><trkpt lat="21.632624" lon="105.117233"><ele>36.3</ele><time>2011-04-29T06:02:55.0000000+00:00</time></trkpt><trkpt lat="21.632277" lon="105.118134"><ele>41.2</ele><time>2011-04-29T06:03:05.0000000+00:00</time></trkpt><trkpt lat="21.632195" lon="105.11869"><ele>41.2</ele><time>2011-04-29T06:03:10.0000000+00:00</time></trkpt><trkpt lat="21.632767" lon="105.120506"><ele>38.3</ele><time>2011-04-29T06:03:25.0000000+00:00</time></trkpt><trkpt lat="21.63291" lon="105.122169"><ele>35.0</ele><time>2011-04-29T06:03:40.0000000+00:00</time></trkpt><trkpt lat="21.632849" lon="105.124504"><ele>33.8</ele><time>2011-04-29T06:04:00.0000000+00:00</time></trkpt><trkpt lat="21.63262" lon="105.125572"><ele>31.6</ele><time>2011-04-29T06:04:10.0000000+00:00</time></trkpt><trkpt lat="21.631744" lon="105.126945"><ele>33.4</ele><time>2011-04-29T06:04:25.0000000+00:00</time></trkpt><trkpt lat="21.631483" lon="105.127953"><ele>31.8</ele><time>2011-04-29T06:04:35.0000000+00:00</time></trkpt><trkpt lat="21.632286" lon="105.132423"><ele>31.0</ele><time>2011-04-29T06:05:15.0000000+00:00</time></trkpt><trkpt lat="21.632277" lon="105.133568"><ele>29.7</ele><time>2011-04-29T06:05:25.0000000+00:00</time></trkpt><trkpt lat="21.63179" lon="105.134682"><ele>30.9</ele><time>2011-04-29T06:05:35.0000000+00:00</time></trkpt><trkpt lat="21.62891" lon="105.13932"><ele>34.3</ele><time>2011-04-29T06:06:15.0000000+00:00</time></trkpt><trkpt lat="21.623623" lon="105.146545"><ele>29.0</ele><time>2011-04-29T06:07:30.0000000+00:00</time></trkpt><trkpt lat="21.623077" lon="105.14782"><ele>31.2</ele><time>2011-04-29T06:07:40.0000000+00:00</time></trkpt><trkpt lat="21.622858" lon="105.14901"><ele>30.3</ele><time>2011-04-29T06:07:50.0000000+00:00</time></trkpt><trkpt lat="21.622789" lon="105.150146"><ele>29.7</ele><time>2011-04-29T06:08:00.0000000+00:00</time></trkpt><trkpt lat="21.622997" lon="105.151283"><ele>36.8</ele><time>2011-04-29T06:08:10.0000000+00:00</time></trkpt><trkpt lat="21.623278" lon="105.151695"><ele>36.3</ele><time>2011-04-29T06:08:15.0000000+00:00</time></trkpt><trkpt lat="21.62615" lon="105.153557"><ele>38.6</ele><time>2011-04-29T06:08:50.0000000+00:00</time></trkpt><trkpt lat="21.626398" lon="105.154015"><ele>36.0</ele><time>2011-04-29T06:08:55.0000000+00:00</time></trkpt><trkpt lat="21.626484" lon="105.154594"><ele>35.3</ele><time>2011-04-29T06:09:00.0000000+00:00</time></trkpt><trkpt lat="21.626425" lon="105.155792"><ele>32.5</ele><time>2011-04-29T06:09:10.0000000+00:00</time></trkpt><trkpt lat="21.626129" lon="105.157082"><ele>29.7</ele><time>2011-04-29T06:09:20.0000000+00:00</time></trkpt><trkpt lat="21.623693" lon="105.162331"><ele>35.0</ele><time>2011-04-29T06:10:15.0000000+00:00</time></trkpt><trkpt lat="21.62364" lon="105.163406"><ele>29.8</ele><time>2011-04-29T06:10:25.0000000+00:00</time></trkpt><trkpt lat="21.624287" lon="105.165489"><ele>33.3</ele><time>2011-04-29T06:10:45.0000000+00:00</time></trkpt><trkpt lat="21.624279" lon="105.166008"><ele>33.5</ele><time>2011-04-29T06:10:50.0000000+00:00</time></trkpt><trkpt lat="21.624096" lon="105.166534"><ele>34.8</ele><time>2011-04-29T06:10:55.0000000+00:00</time></trkpt><trkpt lat="21.623072" lon="105.167976"><ele>29.4</ele><time>2011-04-29T06:11:10.0000000+00:00</time></trkpt><trkpt lat="21.621719" lon="105.168854"><ele>32.8</ele><time>2011-04-29T06:11:25.0000000+00:00</time></trkpt><trkpt lat="21.621502" lon="105.169304"><ele>30.9</ele><time>2011-04-29T06:11:30.0000000+00:00</time></trkpt><trkpt lat="21.621464" lon="105.169853"><ele>31.4</ele><time>2011-04-29T06:11:35.0000000+00:00</time></trkpt><trkpt lat="21.62219" lon="105.171234"><ele>34.7</ele><time>2011-04-29T06:11:50.0000000+00:00</time></trkpt><trkpt lat="21.622169" lon="105.171768"><ele>36.4</ele><time>2011-04-29T06:11:55.0000000+00:00</time></trkpt><trkpt lat="21.622322" lon="105.17218"><ele>37.4</ele><time>2011-04-29T06:12:00.0000000+00:00</time></trkpt><trkpt lat="21.622993" lon="105.172867"><ele>43.1</ele><time>2011-04-29T06:12:10.0000000+00:00</time></trkpt><trkpt lat="21.623873" lon="105.175095"><ele>49.0</ele><time>2011-04-29T06:14:25.0000000+00:00</time></trkpt><trkpt lat="21.623981" lon="105.176819"><ele>48.1</ele><time>2011-04-29T06:14:45.0000000+00:00</time></trkpt><trkpt lat="21.623894" lon="105.177277"><ele>47.0</ele><time>2011-04-29T06:14:50.0000000+00:00</time></trkpt><trkpt lat="21.62335" lon="105.1782"><ele>38.8</ele><time>2011-04-29T06:15:00.0000000+00:00</time></trkpt><trkpt lat="21.623442" lon="105.178696"><ele>34.8</ele><time>2011-04-29T06:15:05.0000000+00:00</time></trkpt><trkpt lat="21.624279" lon="105.180099"><ele>30.8</ele><time>2011-04-29T06:15:20.0000000+00:00</time></trkpt><trkpt lat="21.625149" lon="105.180511"><ele>27.7</ele><time>2011-04-29T06:15:30.0000000+00:00</time></trkpt><trkpt lat="21.625399" lon="105.180901"><ele>27.9</ele><time>2011-04-29T06:15:35.0000000+00:00</time></trkpt><trkpt lat="21.625166" lon="105.182327"><ele>26.9</ele><time>2011-04-29T06:15:50.0000000+00:00</time></trkpt><trkpt lat="21.625973" lon="105.183578"><ele>27.7</ele><time>2011-04-29T06:16:10.0000000+00:00</time></trkpt><trkpt lat="21.625694" lon="105.184036"><ele>25.7</ele><time>2011-04-29T06:16:45.0000000+00:00</time></trkpt><trkpt lat="21.624184" lon="105.18528"><ele>26.6</ele><time>2011-04-29T06:17:10.0000000+00:00</time></trkpt><trkpt lat="21.622379" lon="105.186378"><ele>27.8</ele><time>2011-04-29T06:17:35.0000000+00:00</time></trkpt><trkpt lat="21.620707" lon="105.188225"><ele>26.7</ele><time>2011-04-29T06:18:05.0000000+00:00</time></trkpt><trkpt lat="21.620386" lon="105.188339"><ele>25.6</ele><time>2011-04-29T06:18:10.0000000+00:00</time></trkpt><trkpt lat="21.620049" lon="105.188187"><ele>27.3</ele><time>2011-04-29T06:18:15.0000000+00:00</time></trkpt><trkpt lat="21.617912" lon="105.186317"><ele>24.0</ele><time>2011-04-29T06:18:45.0000000+00:00</time></trkpt><trkpt lat="21.616629" lon="105.185844"><ele>23.5</ele><time>2011-04-29T06:19:00.0000000+00:00</time></trkpt><trkpt lat="21.614189" lon="105.184319"><ele>26.6</ele><time>2011-04-29T06:19:35.0000000+00:00</time></trkpt><trkpt lat="21.60697" lon="105.178841"><ele>25.9</ele><time>2011-04-29T06:21:00.0000000+00:00</time></trkpt><trkpt lat="21.60607" lon="105.178802"><ele>24.7</ele><time>2011-04-29T06:21:10.0000000+00:00</time></trkpt><trkpt lat="21.604031" lon="105.179405"><ele>25.2</ele><time>2011-04-29T06:21:30.0000000+00:00</time></trkpt><trkpt lat="21.602541" lon="105.18029"><ele>25.2</ele><time>2011-04-29T06:21:45.0000000+00:00</time></trkpt><trkpt lat="21.600235" lon="105.182785"><ele>26.3</ele><time>2011-04-29T06:22:20.0000000+00:00</time></trkpt><trkpt lat="21.596918" lon="105.185059"><ele>25.7</ele><time>2011-04-29T06:22:55.0000000+00:00</time></trkpt><trkpt lat="21.595776" lon="105.186478"><ele>24.2</ele><time>2011-04-29T06:23:10.0000000+00:00</time></trkpt><trkpt lat="21.593016" lon="105.189362"><ele>23.2</ele><time>2011-04-29T06:23:45.0000000+00:00</time></trkpt><trkpt lat="21.592545" lon="105.189667"><ele>21.9</ele><time>2011-04-29T06:23:50.0000000+00:00</time></trkpt><trkpt lat="21.591505" lon="105.189857"><ele>24.1</ele><time>2011-04-29T06:24:00.0000000+00:00</time></trkpt><trkpt lat="21.590456" lon="105.189735"><ele>24.9</ele><time>2011-04-29T06:24:10.0000000+00:00</time></trkpt><trkpt lat="21.589211" lon="105.188751"><ele>20.0</ele><time>2011-04-29T06:24:25.0000000+00:00</time></trkpt><trkpt lat="21.588646" lon="105.188606"><ele>23.3</ele><time>2011-04-29T06:24:30.0000000+00:00</time></trkpt><trkpt lat="21.587053" lon="105.189415"><ele>24.9</ele><time>2011-04-29T06:24:45.0000000+00:00</time></trkpt><trkpt lat="21.584425" lon="105.190102"><ele>20.2</ele><time>2011-04-29T06:25:10.0000000+00:00</time></trkpt><trkpt lat="21.581932" lon="105.189705"><ele>28.5</ele><time>2011-04-29T06:25:35.0000000+00:00</time></trkpt><trkpt lat="21.581505" lon="105.189453"><ele>30.3</ele><time>2011-04-29T06:25:40.0000000+00:00</time></trkpt><trkpt lat="21.579838" lon="105.187508"><ele>28.5</ele><time>2011-04-29T06:26:20.0000000+00:00</time></trkpt><trkpt lat="21.578337" lon="105.186905"><ele>23.9</ele><time>2011-04-29T06:26:35.0000000+00:00</time></trkpt><trkpt lat="21.57583" lon="105.186935"><ele>24.4</ele><time>2011-04-29T06:26:55.0000000+00:00</time></trkpt><trkpt lat="21.575226" lon="105.187035"><ele>25.4</ele><time>2011-04-29T06:27:00.0000000+00:00</time></trkpt><trkpt lat="21.574144" lon="105.187538"><ele>27.8</ele><time>2011-04-29T06:27:10.0000000+00:00</time></trkpt><trkpt lat="21.572512" lon="105.187836"><ele>27.8</ele><time>2011-04-29T06:27:25.0000000+00:00</time></trkpt><trkpt lat="21.571386" lon="105.187744"><ele>27.3</ele><time>2011-04-29T06:27:35.0000000+00:00</time></trkpt><trkpt lat="21.566696" lon="105.186821"><ele>31.2</ele><time>2011-04-29T06:29:20.0000000+00:00</time></trkpt><trkpt lat="21.564426" lon="105.187225"><ele>34.4</ele><time>2011-04-29T06:29:40.0000000+00:00</time></trkpt><trkpt lat="21.562597" lon="105.18782"><ele>36.5</ele><time>2011-04-29T06:29:55.0000000+00:00</time></trkpt><trkpt lat="21.561232" lon="105.187828"><ele>41.9</ele><time>2011-04-29T06:30:05.0000000+00:00</time></trkpt><trkpt lat="21.560701" lon="105.188087"><ele>47.3</ele><time>2011-04-29T06:30:10.0000000+00:00</time></trkpt><trkpt lat="21.55941" lon="105.189415"><ele>47.8</ele><time>2011-04-29T06:30:25.0000000+00:00</time></trkpt><trkpt lat="21.558207" lon="105.190216"><ele>41.2</ele><time>2011-04-29T06:30:35.0000000+00:00</time></trkpt><trkpt lat="21.55624" lon="105.192841"><ele>45.4</ele><time>2011-04-29T06:30:55.0000000+00:00</time></trkpt><trkpt lat="21.555643" lon="105.193031"><ele>44.7</ele><time>2011-04-29T06:31:00.0000000+00:00</time></trkpt><trkpt lat="21.552864" lon="105.193169"><ele>46.3</ele><time>2011-04-29T06:31:20.0000000+00:00</time></trkpt><trkpt lat="21.551489" lon="105.19371"><ele>36.6</ele><time>2011-04-29T06:31:30.0000000+00:00</time></trkpt><trkpt lat="21.550814" lon="105.193794"><ele>37.7</ele><time>2011-04-29T06:31:35.0000000+00:00</time></trkpt><trkpt lat="21.548147" lon="105.193245"><ele>59.1</ele><time>2011-04-29T06:31:55.0000000+00:00</time></trkpt><trkpt lat="21.547031" lon="105.192451"><ele>61.3</ele><time>2011-04-29T06:32:05.0000000+00:00</time></trkpt><trkpt lat="21.546425" lon="105.192207"><ele>64.6</ele><time>2011-04-29T06:32:10.0000000+00:00</time></trkpt><trkpt lat="21.545084" lon="105.192474"><ele>48.9</ele><time>2011-04-29T06:32:20.0000000+00:00</time></trkpt><trkpt lat="21.54306" lon="105.193451"><ele>42.9</ele><time>2011-04-29T06:32:35.0000000+00:00</time></trkpt><trkpt lat="21.540943" lon="105.194153"><ele>44.1</ele><time>2011-04-29T06:32:50.0000000+00:00</time></trkpt><trkpt lat="21.540529" lon="105.194649"><ele>40.7</ele><time>2011-04-29T06:32:55.0000000+00:00</time></trkpt><trkpt lat="21.539595" lon="105.198006"><ele>38.5</ele><time>2011-04-29T06:33:30.0000000+00:00</time></trkpt><trkpt lat="21.539118" lon="105.199005"><ele>39.0</ele><time>2011-04-29T06:33:40.0000000+00:00</time></trkpt><trkpt lat="21.537542" lon="105.200272"><ele>35.2</ele><time>2011-04-29T06:33:55.0000000+00:00</time></trkpt><trkpt lat="21.535851" lon="105.201134"><ele>41.8</ele><time>2011-04-29T06:34:10.0000000+00:00</time></trkpt><trkpt lat="21.533545" lon="105.203979"><ele>33.3</ele><time>2011-04-29T06:34:40.0000000+00:00</time></trkpt><trkpt lat="21.531485" lon="105.205513"><ele>31.4</ele><time>2011-04-29T06:35:00.0000000+00:00</time></trkpt><trkpt lat="21.530136" lon="105.206734"><ele>31.3</ele><time>2011-04-29T06:35:15.0000000+00:00</time></trkpt><trkpt lat="21.529615" lon="105.207024"><ele>30.6</ele><time>2011-04-29T06:35:20.0000000+00:00</time></trkpt><trkpt lat="21.52907" lon="105.207077"><ele>31.1</ele><time>2011-04-29T06:35:25.0000000+00:00</time></trkpt><trkpt lat="21.528534" lon="105.206879"><ele>34.9</ele><time>2011-04-29T06:35:30.0000000+00:00</time></trkpt><trkpt lat="21.525604" lon="105.203651"><ele>43.9</ele><time>2011-04-29T06:36:05.0000000+00:00</time></trkpt><trkpt lat="21.523855" lon="105.203224"><ele>41.0</ele><time>2011-04-29T06:36:20.0000000+00:00</time></trkpt><trkpt lat="21.522526" lon="105.202301"><ele>41.3</ele><time>2011-04-29T06:36:35.0000000+00:00</time></trkpt><trkpt lat="21.522032" lon="105.202248"><ele>40.5</ele><time>2011-04-29T06:36:40.0000000+00:00</time></trkpt><trkpt lat="21.521503" lon="105.202431"><ele>39.5</ele><time>2011-04-29T06:36:45.0000000+00:00</time></trkpt><trkpt lat="21.520544" lon="105.203285"><ele>36.3</ele><time>2011-04-29T06:36:55.0000000+00:00</time></trkpt><trkpt lat="21.519981" lon="105.20359"><ele>37.2</ele><time>2011-04-29T06:37:00.0000000+00:00</time></trkpt><trkpt lat="21.519352" lon="105.203514"><ele>34.5</ele><time>2011-04-29T06:37:05.0000000+00:00</time></trkpt><trkpt lat="21.51815" lon="105.203003"><ele>42.3</ele><time>2011-04-29T06:37:15.0000000+00:00</time></trkpt><trkpt lat="21.517527" lon="105.202972"><ele>42.4</ele><time>2011-04-29T06:37:20.0000000+00:00</time></trkpt><trkpt lat="21.517017" lon="105.203194"><ele>39.0</ele><time>2011-04-29T06:37:25.0000000+00:00</time></trkpt><trkpt lat="21.514946" lon="105.204735"><ele>42.4</ele><time>2011-04-29T06:37:45.0000000+00:00</time></trkpt><trkpt lat="21.513531" lon="105.207657"><ele>47.2</ele><time>2011-04-29T06:38:10.0000000+00:00</time></trkpt><trkpt lat="21.513046" lon="105.209473"><ele>55.9</ele><time>2011-04-29T06:38:25.0000000+00:00</time></trkpt><trkpt lat="21.51232" lon="105.21048"><ele>55.3</ele><time>2011-04-29T06:38:35.0000000+00:00</time></trkpt><trkpt lat="21.511824" lon="105.211494"><ele>52.4</ele><time>2011-04-29T06:38:45.0000000+00:00</time></trkpt><trkpt lat="21.510973" lon="105.21212"><ele>57.1</ele><time>2011-04-29T06:38:55.0000000+00:00</time></trkpt><trkpt lat="21.508093" lon="105.213448"><ele>53.9</ele><time>2011-04-29T06:39:20.0000000+00:00</time></trkpt><trkpt lat="21.505762" lon="105.213692"><ele>52.3</ele><time>2011-04-29T06:39:35.0000000+00:00</time></trkpt><trkpt lat="21.504339" lon="105.213684"><ele>46.5</ele><time>2011-04-29T06:39:45.0000000+00:00</time></trkpt><trkpt lat="21.503668" lon="105.213982"><ele>48.3</ele><time>2011-04-29T06:39:50.0000000+00:00</time></trkpt><trkpt lat="21.503149" lon="105.214508"><ele>50.2</ele><time>2011-04-29T06:39:55.0000000+00:00</time></trkpt><trkpt lat="21.502504" lon="105.215706"><ele>46.2</ele><time>2011-04-29T06:40:05.0000000+00:00</time></trkpt><trkpt lat="21.50222" lon="105.216545"><ele>44.4</ele><time>2011-04-29T06:40:15.0000000+00:00</time></trkpt><trkpt lat="21.502138" lon="105.217712"><ele>41.7</ele><time>2011-04-29T06:40:25.0000000+00:00</time></trkpt><trkpt lat="21.50193" lon="105.21833"><ele>39.6</ele><time>2011-04-29T06:40:30.0000000+00:00</time></trkpt><trkpt lat="21.501457" lon="105.218819"><ele>42.0</ele><time>2011-04-29T06:40:35.0000000+00:00</time></trkpt><trkpt lat="21.498507" lon="105.220482"><ele>37.4</ele><time>2011-04-29T06:41:00.0000000+00:00</time></trkpt><trkpt lat="21.49654" lon="105.22229"><ele>46.7</ele><time>2011-04-29T06:41:20.0000000+00:00</time></trkpt><trkpt lat="21.494823" lon="105.222397"><ele>48.9</ele><time>2011-04-29T06:41:35.0000000+00:00</time></trkpt><trkpt lat="21.494305" lon="105.222694"><ele>43.3</ele><time>2011-04-29T06:41:40.0000000+00:00</time></trkpt><trkpt lat="21.493067" lon="105.224609"><ele>43.1</ele><time>2011-04-29T06:42:00.0000000+00:00</time></trkpt><trkpt lat="21.492645" lon="105.224937"><ele>41.1</ele><time>2011-04-29T06:42:05.0000000+00:00</time></trkpt><trkpt lat="21.49058" lon="105.225761"><ele>46.5</ele><time>2011-04-29T06:42:25.0000000+00:00</time></trkpt><trkpt lat="21.489178" lon="105.225624"><ele>53.4</ele><time>2011-04-29T06:42:40.0000000+00:00</time></trkpt><trkpt lat="21.487099" lon="105.227089"><ele>55.9</ele><time>2011-04-29T06:43:05.0000000+00:00</time></trkpt><trkpt lat="21.486605" lon="105.227219"><ele>59.1</ele><time>2011-04-29T06:43:10.0000000+00:00</time></trkpt><trkpt lat="21.484919" lon="105.226913"><ele>55.2</ele><time>2011-04-29T06:43:25.0000000+00:00</time></trkpt><trkpt lat="21.481333" lon="105.22802"><ele>57.9</ele><time>2011-04-29T06:43:55.0000000+00:00</time></trkpt><trkpt lat="21.480234" lon="105.228653"><ele>53.8</ele><time>2011-04-29T06:44:05.0000000+00:00</time></trkpt><trkpt lat="21.479021" lon="105.230179"><ele>56.3</ele><time>2011-04-29T06:44:20.0000000+00:00</time></trkpt><trkpt lat="21.478521" lon="105.23056"><ele>50.6</ele><time>2011-04-29T06:44:25.0000000+00:00</time></trkpt><trkpt lat="21.477398" lon="105.230927"><ele>52.3</ele><time>2011-04-29T06:44:35.0000000+00:00</time></trkpt><trkpt lat="21.476336" lon="105.231232"><ele>48.9</ele><time>2011-04-29T06:44:45.0000000+00:00</time></trkpt><trkpt lat="21.472408" lon="105.231483"><ele>55.0</ele><time>2011-04-29T06:45:15.0000000+00:00</time></trkpt><trkpt lat="21.471916" lon="105.231812"><ele>54.3</ele><time>2011-04-29T06:45:20.0000000+00:00</time></trkpt><trkpt lat="21.471621" lon="105.2323"><ele>56.4</ele><time>2011-04-29T06:45:25.0000000+00:00</time></trkpt><trkpt lat="21.471411" lon="105.234314"><ele>53.8</ele><time>2011-04-29T06:45:40.0000000+00:00</time></trkpt><trkpt lat="21.471121" lon="105.234833"><ele>49.7</ele><time>2011-04-29T06:45:45.0000000+00:00</time></trkpt><trkpt lat="21.466312" lon="105.240051"><ele>42.2</ele><time>2011-04-29T06:47:10.0000000+00:00</time></trkpt><trkpt lat="21.462666" lon="105.240181"><ele>38.5</ele><time>2011-04-29T06:47:35.0000000+00:00</time></trkpt><trkpt lat="21.456156" lon="105.241814"><ele>37.3</ele><time>2011-04-29T06:48:25.0000000+00:00</time></trkpt><trkpt lat="21.455118" lon="105.242828"><ele>35.7</ele><time>2011-04-29T06:48:40.0000000+00:00</time></trkpt><trkpt lat="21.453014" lon="105.244423"><ele>38.3</ele><time>2011-04-29T06:49:05.0000000+00:00</time></trkpt><trkpt lat="21.447687" lon="105.246765"><ele>32.0</ele><time>2011-04-29T06:50:15.0000000+00:00</time></trkpt><trkpt lat="21.44628" lon="105.248192"><ele>35.5</ele><time>2011-04-29T06:50:30.0000000+00:00</time></trkpt><trkpt lat="21.444948" lon="105.250549"><ele>36.6</ele><time>2011-04-29T06:50:50.0000000+00:00</time></trkpt><trkpt lat="21.443165" lon="105.252563"><ele>38.8</ele><time>2011-04-29T06:51:10.0000000+00:00</time></trkpt><trkpt lat="21.440004" lon="105.254753"><ele>42.2</ele><time>2011-04-29T06:51:40.0000000+00:00</time></trkpt><trkpt lat="21.436346" lon="105.256073"><ele>39.9</ele><time>2011-04-29T06:52:15.0000000+00:00</time></trkpt><trkpt lat="21.434227" lon="105.257698"><ele>35.1</ele><time>2011-04-29T06:52:45.0000000+00:00</time></trkpt><trkpt lat="21.433949" lon="105.258064"><ele>33.6</ele><time>2011-04-29T06:52:50.0000000+00:00</time></trkpt><trkpt lat="21.433826" lon="105.258568"><ele>33.2</ele><time>2011-04-29T06:52:55.0000000+00:00</time></trkpt><trkpt lat="21.43401" lon="105.259567"><ele>28.8</ele><time>2011-04-29T06:53:05.0000000+00:00</time></trkpt><trkpt lat="21.433975" lon="105.260231"><ele>29.9</ele><time>2011-04-29T06:53:15.0000000+00:00</time></trkpt><trkpt lat="21.433167" lon="105.262344"><ele>33.5</ele><time>2011-04-29T06:53:40.0000000+00:00</time></trkpt><trkpt lat="21.433327" lon="105.263123"><ele>34.5</ele><time>2011-04-29T06:53:50.0000000+00:00</time></trkpt><trkpt lat="21.435303" lon="105.265045"><ele>37.1</ele><time>2011-04-29T06:54:20.0000000+00:00</time></trkpt><trkpt lat="21.435814" lon="105.265785"><ele>35.7</ele><time>2011-04-29T06:54:30.0000000+00:00</time></trkpt><trkpt lat="21.436924" lon="105.268013"><ele>35.6</ele><time>2011-04-29T06:54:55.0000000+00:00</time></trkpt><trkpt lat="21.437429" lon="105.270592"><ele>42.2</ele><time>2011-04-29T06:55:20.0000000+00:00</time></trkpt><trkpt lat="21.43782" lon="105.271049"><ele>43.3</ele><time>2011-04-29T06:55:25.0000000+00:00</time></trkpt><trkpt lat="21.439047" lon="105.27182"><ele>48.5</ele><time>2011-04-29T06:55:40.0000000+00:00</time></trkpt><trkpt lat="21.439751" lon="105.272621"><ele>47.8</ele><time>2011-04-29T06:55:50.0000000+00:00</time></trkpt><trkpt lat="21.441448" lon="105.273796"><ele>47.3</ele><time>2011-04-29T06:56:05.0000000+00:00</time></trkpt><trkpt lat="21.442198" lon="105.275177"><ele>43.9</ele><time>2011-04-29T06:56:15.0000000+00:00</time></trkpt><trkpt lat="21.442427" lon="105.275986"><ele>38.5</ele><time>2011-04-29T06:56:20.0000000+00:00</time></trkpt><trkpt lat="21.44171" lon="105.279022"><ele>36.8</ele><time>2011-04-29T06:56:40.0000000+00:00</time></trkpt><trkpt lat="21.442049" lon="105.279648"><ele>38.2</ele><time>2011-04-29T06:56:45.0000000+00:00</time></trkpt><trkpt lat="21.443144" lon="105.280754"><ele>35.6</ele><time>2011-04-29T06:56:55.0000000+00:00</time></trkpt><trkpt lat="21.443424" lon="105.282448"><ele>42.3</ele><time>2011-04-29T06:57:05.0000000+00:00</time></trkpt><trkpt lat="21.443289" lon="105.283264"><ele>47.9</ele><time>2011-04-29T06:57:10.0000000+00:00</time></trkpt><trkpt lat="21.441906" lon="105.285027"><ele>47.9</ele><time>2011-04-29T06:57:25.0000000+00:00</time></trkpt><trkpt lat="21.440985" lon="105.285767"><ele>49.0</ele><time>2011-04-29T06:57:35.0000000+00:00</time></trkpt><trkpt lat="21.439034" lon="105.286491"><ele>46.0</ele><time>2011-04-29T06:57:55.0000000+00:00</time></trkpt><trkpt lat="21.4387" lon="105.286835"><ele>46.2</ele><time>2011-04-29T06:58:00.0000000+00:00</time></trkpt><trkpt lat="21.436739" lon="105.290306"><ele>48.2</ele><time>2011-04-29T06:58:40.0000000+00:00</time></trkpt><trkpt lat="21.436241" lon="105.291023"><ele>49.8</ele><time>2011-04-29T06:58:50.0000000+00:00</time></trkpt><trkpt lat="21.435881" lon="105.291283"><ele>51.2</ele><time>2011-04-29T06:58:55.0000000+00:00</time></trkpt><trkpt lat="21.435421" lon="105.291267"><ele>47.9</ele><time>2011-04-29T06:59:00.0000000+00:00</time></trkpt><trkpt lat="21.433533" lon="105.290665"><ele>48.3</ele><time>2011-04-29T06:59:20.0000000+00:00</time></trkpt><trkpt lat="21.433105" lon="105.290741"><ele>47.1</ele><time>2011-04-29T06:59:25.0000000+00:00</time></trkpt><trkpt lat="21.431213" lon="105.292427"><ele>47.6</ele><time>2011-04-29T06:59:55.0000000+00:00</time></trkpt><trkpt lat="21.428442" lon="105.29335"><ele>51.0</ele><time>2011-04-29T07:00:25.0000000+00:00</time></trkpt><trkpt lat="21.427647" lon="105.294418"><ele>48.2</ele><time>2011-04-29T07:00:40.0000000+00:00</time></trkpt><trkpt lat="21.42724" lon="105.29464"><ele>50.6</ele><time>2011-04-29T07:00:45.0000000+00:00</time></trkpt><trkpt lat="21.426769" lon="105.294563"><ele>49.0</ele><time>2011-04-29T07:00:50.0000000+00:00</time></trkpt><trkpt lat="21.425407" lon="105.293938"><ele>49.6</ele><time>2011-04-29T07:01:05.0000000+00:00</time></trkpt><trkpt lat="21.424976" lon="105.2939"><ele>49.7</ele><time>2011-04-29T07:01:10.0000000+00:00</time></trkpt><trkpt lat="21.421993" lon="105.295189"><ele>38.9</ele><time>2011-04-29T07:01:40.0000000+00:00</time></trkpt><trkpt lat="21.420544" lon="105.295662"><ele>44.6</ele><time>2011-04-29T07:01:55.0000000+00:00</time></trkpt><trkpt lat="21.419336" lon="105.297211"><ele>46.1</ele><time>2011-04-29T07:24:55.0000000+00:00</time></trkpt><trkpt lat="21.417732" lon="105.298088"><ele>51.4</ele><time>2011-04-29T07:25:15.0000000+00:00</time></trkpt><trkpt lat="21.415247" lon="105.300385"><ele>50.5</ele><time>2011-04-29T07:25:55.0000000+00:00</time></trkpt><trkpt lat="21.415045" lon="105.300819"><ele>49.4</ele><time>2011-04-29T07:26:00.0000000+00:00</time></trkpt><trkpt lat="21.414879" lon="105.302269"><ele>44.7</ele><time>2011-04-29T07:26:15.0000000+00:00</time></trkpt><trkpt lat="21.414736" lon="105.302689"><ele>46.4</ele><time>2011-04-29T07:26:20.0000000+00:00</time></trkpt><trkpt lat="21.414413" lon="105.303047"><ele>48.8</ele><time>2011-04-29T07:26:25.0000000+00:00</time></trkpt><trkpt lat="21.41358" lon="105.303627"><ele>48.2</ele><time>2011-04-29T07:26:35.0000000+00:00</time></trkpt><trkpt lat="21.410576" lon="105.305031"><ele>52.9</ele><time>2011-04-29T07:27:10.0000000+00:00</time></trkpt><trkpt lat="21.40852" lon="105.305557"><ele>48.4</ele><time>2011-04-29T07:27:35.0000000+00:00</time></trkpt><trkpt lat="21.408442" lon="105.306343"><ele>48.3</ele><time>2011-04-29T07:27:45.0000000+00:00</time></trkpt><trkpt lat="21.408625" lon="105.306831"><ele>43.9</ele><time>2011-04-29T07:27:50.0000000+00:00</time></trkpt><trkpt lat="21.409353" lon="105.30761"><ele>45.2</ele><time>2011-04-29T07:28:00.0000000+00:00</time></trkpt><trkpt lat="21.409433" lon="105.308098"><ele>44.8</ele><time>2011-04-29T07:28:05.0000000+00:00</time></trkpt><trkpt lat="21.408524" lon="105.311905"><ele>31.5</ele><time>2011-04-29T07:28:40.0000000+00:00</time></trkpt><trkpt lat="21.408287" lon="105.31234"><ele>35.3</ele><time>2011-04-29T07:28:45.0000000+00:00</time></trkpt><trkpt lat="21.406767" lon="105.313042"><ele>37.1</ele><time>2011-04-29T07:29:05.0000000+00:00</time></trkpt><trkpt lat="21.405443" lon="105.313019"><ele>38.5</ele><time>2011-04-29T07:29:20.0000000+00:00</time></trkpt><trkpt lat="21.404018" lon="105.314919"><ele>32.8</ele><time>2011-04-29T07:29:45.0000000+00:00</time></trkpt><trkpt lat="21.403795" lon="105.315468"><ele>30.7</ele><time>2011-04-29T07:29:50.0000000+00:00</time></trkpt><trkpt lat="21.403635" lon="105.317635"><ele>29.7</ele><time>2011-04-29T07:30:10.0000000+00:00</time></trkpt><trkpt lat="21.40345" lon="105.318054"><ele>33.6</ele><time>2011-04-29T07:30:15.0000000+00:00</time></trkpt><trkpt lat="21.402214" lon="105.319038"><ele>32.1</ele><time>2011-04-29T07:30:30.0000000+00:00</time></trkpt><trkpt lat="21.401283" lon="105.320419"><ele>23.0</ele><time>2011-04-29T07:30:45.0000000+00:00</time></trkpt><trkpt lat="21.400288" lon="105.320976"><ele>24.8</ele><time>2011-04-29T07:30:55.0000000+00:00</time></trkpt><trkpt lat="21.398819" lon="105.321404"><ele>34.3</ele><time>2011-04-29T07:31:10.0000000+00:00</time></trkpt><trkpt lat="21.398548" lon="105.321732"><ele>35.6</ele><time>2011-04-29T07:31:15.0000000+00:00</time></trkpt><trkpt lat="21.397835" lon="105.323891"><ele>36.0</ele><time>2011-04-29T07:31:35.0000000+00:00</time></trkpt><trkpt lat="21.396914" lon="105.325439"><ele>33.0</ele><time>2011-04-29T07:31:50.0000000+00:00</time></trkpt><trkpt lat="21.396366" lon="105.325745"><ele>29.0</ele><time>2011-04-29T07:31:55.0000000+00:00</time></trkpt><trkpt lat="21.391987" lon="105.327011"><ele>32.8</ele><time>2011-04-29T07:32:30.0000000+00:00</time></trkpt><trkpt lat="21.38821" lon="105.329964"><ele>26.5</ele><time>2011-04-29T07:33:10.0000000+00:00</time></trkpt><trkpt lat="21.387699" lon="105.331535"><ele>32.4</ele><time>2011-04-29T07:33:25.0000000+00:00</time></trkpt><trkpt lat="21.387411" lon="105.331993"><ele>32.8</ele><time>2011-04-29T07:33:30.0000000+00:00</time></trkpt><trkpt lat="21.38693" lon="105.332253"><ele>30.0</ele><time>2011-04-29T07:33:35.0000000+00:00</time></trkpt><trkpt lat="21.386366" lon="105.332283"><ele>30.0</ele><time>2011-04-29T07:33:40.0000000+00:00</time></trkpt><trkpt lat="21.38509" lon="105.331993"><ele>24.3</ele><time>2011-04-29T07:33:50.0000000+00:00</time></trkpt><trkpt lat="21.384491" lon="105.332169"><ele>24.1</ele><time>2011-04-29T07:33:55.0000000+00:00</time></trkpt><trkpt lat="21.382746" lon="105.333191"><ele>28.8</ele><time>2011-04-29T07:34:10.0000000+00:00</time></trkpt><trkpt lat="21.381277" lon="105.333656"><ele>21.6</ele><time>2011-04-29T07:34:25.0000000+00:00</time></trkpt><trkpt lat="21.379803" lon="105.334633"><ele>27.2</ele><time>2011-04-29T07:34:40.0000000+00:00</time></trkpt><trkpt lat="21.378689" lon="105.334946"><ele>31.8</ele><time>2011-04-29T07:34:50.0000000+00:00</time></trkpt><trkpt lat="21.377291" lon="105.335052"><ele>32.7</ele><time>2011-04-29T07:35:05.0000000+00:00</time></trkpt><trkpt lat="21.375666" lon="105.336708"><ele>25.3</ele><time>2011-04-29T07:35:25.0000000+00:00</time></trkpt><trkpt lat="21.374924" lon="105.338684"><ele>21.5</ele><time>2011-04-29T07:35:40.0000000+00:00</time></trkpt><trkpt lat="21.374626" lon="105.339104"><ele>24.4</ele><time>2011-04-29T07:35:45.0000000+00:00</time></trkpt><trkpt lat="21.368265" lon="105.343956"><ele>42.5</ele><time>2011-04-29T07:36:55.0000000+00:00</time></trkpt><trkpt lat="21.367258" lon="105.345985"><ele>46.5</ele><time>2011-04-29T07:37:15.0000000+00:00</time></trkpt><trkpt lat="21.355759" lon="105.353516"><ele>34.4</ele><time>2011-04-29T07:39:25.0000000+00:00</time></trkpt><trkpt lat="21.355143" lon="105.354271"><ele>36.4</ele><time>2011-04-29T07:39:35.0000000+00:00</time></trkpt><trkpt lat="21.354132" lon="105.356155"><ele>32.1</ele><time>2011-04-29T07:39:55.0000000+00:00</time></trkpt><trkpt lat="21.353718" lon="105.356438"><ele>31.0</ele><time>2011-04-29T07:40:00.0000000+00:00</time></trkpt><trkpt lat="21.348982" lon="105.357971"><ele>26.8</ele><time>2011-04-29T07:40:45.0000000+00:00</time></trkpt><trkpt lat="21.348473" lon="105.3582"><ele>26.5</ele><time>2011-04-29T07:40:50.0000000+00:00</time></trkpt><trkpt lat="21.346933" lon="105.359489"><ele>24.5</ele><time>2011-04-29T07:41:10.0000000+00:00</time></trkpt><trkpt lat="21.345453" lon="105.360092"><ele>22.1</ele><time>2011-04-29T07:41:25.0000000+00:00</time></trkpt><trkpt lat="21.343416" lon="105.360603"><ele>27.6</ele><time>2011-04-29T07:41:45.0000000+00:00</time></trkpt><trkpt lat="21.342987" lon="105.360893"><ele>30.6</ele><time>2011-04-29T07:41:50.0000000+00:00</time></trkpt><trkpt lat="21.341919" lon="105.363045"><ele>31.0</ele><time>2011-04-29T07:42:15.0000000+00:00</time></trkpt><trkpt lat="21.337959" lon="105.368019"><ele>25.2</ele><time>2011-04-29T07:43:15.0000000+00:00</time></trkpt><trkpt lat="21.337091" lon="105.370995"><ele>30.2</ele><time>2011-04-29T07:43:50.0000000+00:00</time></trkpt><trkpt lat="21.33596" lon="105.372704"><ele>28.7</ele><time>2011-04-29T07:44:10.0000000+00:00</time></trkpt><trkpt lat="21.33474" lon="105.373795"><ele>23.0</ele><time>2011-04-29T07:44:25.0000000+00:00</time></trkpt><trkpt lat="21.331381" lon="105.376167"><ele>25.1</ele><time>2011-04-29T07:45:30.0000000+00:00</time></trkpt><trkpt lat="21.324694" lon="105.382706"><ele>30.7</ele><time>2011-04-29T07:48:00.0000000+00:00</time></trkpt><trkpt lat="21.316877" lon="105.389259"><ele>24.9</ele><time>2011-04-29T07:49:55.0000000+00:00</time></trkpt><trkpt lat="21.315638" lon="105.390633"><ele>22.2</ele><time>2011-04-29T07:50:15.0000000+00:00</time></trkpt><trkpt lat="21.314377" lon="105.392883"><ele>25.5</ele><time>2011-04-29T07:50:40.0000000+00:00</time></trkpt><trkpt lat="21.310755" lon="105.400215"><ele>26.0</ele><time>2011-04-29T07:52:45.0000000+00:00</time></trkpt><trkpt lat="21.307177" lon="105.405159"><ele>26.3</ele><time>2011-04-29T07:54:15.0000000+00:00</time></trkpt><trkpt lat="21.30541" lon="105.408844"><ele>23.0</ele><time>2011-04-29T07:55:25.0000000+00:00</time></trkpt><trkpt lat="21.304634" lon="105.411179"><ele>19.0</ele><time>2011-04-29T07:55:50.0000000+00:00</time></trkpt><trkpt lat="21.304331" lon="105.413605"><ele>22.8</ele><time>2011-04-29T07:56:15.0000000+00:00</time></trkpt><trkpt lat="21.304178" lon="105.423729"><ele>21.5</ele><time>2011-04-29T07:59:05.0000000+00:00</time></trkpt><trkpt lat="21.303694" lon="105.427643"><ele>16.8</ele><time>2011-04-29T07:59:45.0000000+00:00</time></trkpt><trkpt lat="21.303894" lon="105.428558"><ele>17.7</ele><time>2011-04-29T07:59:55.0000000+00:00</time></trkpt><trkpt lat="21.305292" lon="105.430717"><ele>16.6</ele><time>2011-04-29T08:00:20.0000000+00:00</time></trkpt><trkpt lat="21.305771" lon="105.433525"><ele>14.4</ele><time>2011-04-29T08:00:45.0000000+00:00</time></trkpt><trkpt lat="21.305731" lon="105.434303"><ele>14.6</ele><time>2011-04-29T08:00:50.0000000+00:00</time></trkpt><trkpt lat="21.304214" lon="105.440842"><ele>18.7</ele><time>2011-04-29T08:01:35.0000000+00:00</time></trkpt><trkpt lat="21.303627" lon="105.442192"><ele>19.6</ele><time>2011-04-29T08:01:45.0000000+00:00</time></trkpt><trkpt lat="21.30324" lon="105.442711"><ele>20.9</ele><time>2011-04-29T08:01:50.0000000+00:00</time></trkpt><trkpt lat="21.302343" lon="105.443344"><ele>22.4</ele><time>2011-04-29T08:02:00.0000000+00:00</time></trkpt><trkpt lat="21.297558" lon="105.444435"><ele>20.7</ele><time>2011-04-29T08:02:55.0000000+00:00</time></trkpt><trkpt lat="21.297487" lon="105.444862"><ele>17.8</ele><time>2011-04-29T08:03:00.0000000+00:00</time></trkpt><trkpt lat="21.297812" lon="105.445221"><ele>20.8</ele><time>2011-04-29T08:03:05.0000000+00:00</time></trkpt><trkpt lat="21.298233" lon="105.445091"><ele>19.3</ele><time>2011-04-29T08:03:10.0000000+00:00</time></trkpt><trkpt lat="21.298351" lon="105.444672"><ele>18.9</ele><time>2011-04-29T08:03:15.0000000+00:00</time></trkpt><trkpt lat="21.298216" lon="105.444244"><ele>21.9</ele><time>2011-04-29T08:03:20.0000000+00:00</time></trkpt><trkpt lat="21.298067" lon="105.443871"><ele>22.9</ele><time>2011-04-29T08:03:25.0000000+00:00</time></trkpt><trkpt lat="21.29775" lon="105.443672"><ele>21.1</ele><time>2011-04-29T08:03:30.0000000+00:00</time></trkpt><trkpt lat="21.294712" lon="105.444946"><ele>20.6</ele><time>2011-04-29T08:04:10.0000000+00:00</time></trkpt><trkpt lat="21.293833" lon="105.445572"><ele>19.7</ele><time>2011-04-29T08:04:20.0000000+00:00</time></trkpt><trkpt lat="21.293026" lon="105.446472"><ele>19.0</ele><time>2011-04-29T08:04:30.0000000+00:00</time></trkpt><trkpt lat="21.292261" lon="105.447807"><ele>18.1</ele><time>2011-04-29T08:04:40.0000000+00:00</time></trkpt><trkpt lat="21.291822" lon="105.449326"><ele>17.1</ele><time>2011-04-29T08:04:50.0000000+00:00</time></trkpt><trkpt lat="21.291401" lon="105.452278"><ele>19.2</ele><time>2011-04-29T08:05:10.0000000+00:00</time></trkpt><trkpt lat="21.291039" lon="105.452812"><ele>18.3</ele><time>2011-04-29T08:05:15.0000000+00:00</time></trkpt><trkpt lat="21.290634" lon="105.453094"><ele>19.6</ele><time>2011-04-29T08:05:20.0000000+00:00</time></trkpt><trkpt lat="21.290239" lon="105.453262"><ele>18.6</ele><time>2011-04-29T08:05:25.0000000+00:00</time></trkpt><trkpt lat="21.289536" lon="105.453262"><ele>17.4</ele><time>2011-04-29T08:05:35.0000000+00:00</time></trkpt><trkpt lat="21.285528" lon="105.452278"><ele>20.1</ele><time>2011-04-29T08:06:25.0000000+00:00</time></trkpt><trkpt lat="21.284723" lon="105.452248"><ele>19.9</ele><time>2011-04-29T08:06:35.0000000+00:00</time></trkpt><trkpt lat="21.283115" lon="105.453033"><ele>15.7</ele><time>2011-04-29T08:07:00.0000000+00:00</time></trkpt><trkpt lat="21.282478" lon="105.453568"><ele>16.2</ele><time>2011-04-29T08:07:15.0000000+00:00</time></trkpt><trkpt lat="21.28112" lon="105.454292"><ele>18.4</ele><time>2011-04-29T08:07:35.0000000+00:00</time></trkpt><trkpt lat="21.279499" lon="105.455368"><ele>15.0</ele><time>2011-04-29T08:08:00.0000000+00:00</time></trkpt><trkpt lat="21.27869" lon="105.4561"><ele>14.5</ele><time>2011-04-29T08:08:10.0000000+00:00</time></trkpt><trkpt lat="21.278532" lon="105.456657"><ele>17.0</ele><time>2011-04-29T08:08:15.0000000+00:00</time></trkpt><trkpt lat="21.278202" lon="105.462357"><ele>17.8</ele><time>2011-04-29T08:09:05.0000000+00:00</time></trkpt><trkpt lat="21.279125" lon="105.464005"><ele>17.8</ele><time>2011-04-29T08:09:25.0000000+00:00</time></trkpt><trkpt lat="21.279173" lon="105.467369"><ele>14.9</ele><time>2011-04-29T08:10:00.0000000+00:00</time></trkpt><trkpt lat="21.280497" lon="105.47245"><ele>19.5</ele><time>2011-04-29T08:10:55.0000000+00:00</time></trkpt><trkpt lat="21.27739" lon="105.493484"><ele>15.9</ele><time>2011-04-29T08:13:50.0000000+00:00</time></trkpt><trkpt lat="21.278833" lon="105.519348"><ele>19.5</ele><time>2011-04-29T08:17:30.0000000+00:00</time></trkpt><trkpt lat="21.279127" lon="105.520882"><ele>18.8</ele><time>2011-04-29T08:17:45.0000000+00:00</time></trkpt><trkpt lat="21.284698" lon="105.536972"><ele>11.7</ele><time>2011-04-29T08:19:55.0000000+00:00</time></trkpt><trkpt lat="21.288464" lon="105.547356"><ele>16.3</ele><time>2011-04-29T08:21:40.0000000+00:00</time></trkpt><trkpt lat="21.288744" lon="105.547852"><ele>16.7</ele><time>2011-04-29T08:21:45.0000000+00:00</time></trkpt><trkpt lat="21.29266" lon="105.551964"><ele>14.3</ele><time>2011-04-29T08:22:30.0000000+00:00</time></trkpt><trkpt lat="21.299046" lon="105.559288"><ele>17.3</ele><time>2011-04-29T08:24:10.0000000+00:00</time></trkpt><trkpt lat="21.302374" lon="105.563469"><ele>19.3</ele><time>2011-04-29T08:25:35.0000000+00:00</time></trkpt><trkpt lat="21.30439" lon="105.566292"><ele>19.5</ele><time>2011-04-29T08:26:10.0000000+00:00</time></trkpt><trkpt lat="21.305145" lon="105.567719"><ele>18.4</ele><time>2011-04-29T08:26:25.0000000+00:00</time></trkpt><trkpt lat="21.306042" lon="105.570473"><ele>17.0</ele><time>2011-04-29T08:26:50.0000000+00:00</time></trkpt><trkpt lat="21.306171" lon="105.574768"><ele>16.8</ele><time>2011-04-29T08:27:35.0000000+00:00</time></trkpt><trkpt lat="21.307907" lon="105.585785"><ele>18.0</ele><time>2011-04-29T08:29:50.0000000+00:00</time></trkpt><trkpt lat="21.308044" lon="105.586227"><ele>18.6</ele><time>2011-04-29T08:29:55.0000000+00:00</time></trkpt><trkpt lat="21.308777" lon="105.587105"><ele>20.0</ele><time>2011-04-29T08:30:10.0000000+00:00</time></trkpt><trkpt lat="21.308849" lon="105.587563"><ele>17.4</ele><time>2011-04-29T08:30:15.0000000+00:00</time></trkpt><trkpt lat="21.308954" lon="105.588829"><ele>17.3</ele><time>2011-04-29T08:30:30.0000000+00:00</time></trkpt><trkpt lat="21.30871" lon="105.591988"><ele>12.2</ele><time>2011-04-29T08:31:05.0000000+00:00</time></trkpt><trkpt lat="21.308174" lon="105.593582"><ele>15.8</ele><time>2011-04-29T08:31:30.0000000+00:00</time></trkpt><trkpt lat="21.311102" lon="105.595184"><ele>18.2</ele><time>2011-04-29T08:32:20.0000000+00:00</time></trkpt><trkpt lat="21.312943" lon="105.59639"><ele>13.9</ele><time>2011-04-29T08:33:05.0000000+00:00</time></trkpt><trkpt lat="21.313255" lon="105.596817"><ele>19.0</ele><time>2011-04-29T08:33:15.0000000+00:00</time></trkpt><trkpt lat="21.314646" lon="105.606552"><ele>14.7</ele><time>2011-04-29T08:36:15.0000000+00:00</time></trkpt><trkpt lat="21.314671" lon="105.607033"><ele>17.8</ele><time>2011-04-29T08:36:20.0000000+00:00</time></trkpt><trkpt lat="21.314119" lon="105.609383"><ele>20.0</ele><time>2011-04-29T08:36:45.0000000+00:00</time></trkpt><trkpt lat="21.312613" lon="105.612984"><ele>11.9</ele><time>2011-04-29T08:37:30.0000000+00:00</time></trkpt><trkpt lat="21.31193" lon="105.614059"><ele>14.6</ele><time>2011-04-29T08:37:45.0000000+00:00</time></trkpt><trkpt lat="21.311575" lon="105.614334"><ele>14.5</ele><time>2011-04-29T08:37:50.0000000+00:00</time></trkpt><trkpt lat="21.309914" lon="105.614799"><ele>15.6</ele><time>2011-04-29T08:38:10.0000000+00:00</time></trkpt><trkpt lat="21.306986" lon="105.616348"><ele>11.4</ele><time>2011-04-29T08:38:45.0000000+00:00</time></trkpt><trkpt lat="21.306843" lon="105.617134"><ele>12.2</ele><time>2011-04-29T08:38:55.0000000+00:00</time></trkpt><trkpt lat="21.306494" lon="105.617966"><ele>15.2</ele><time>2011-04-29T08:39:05.0000000+00:00</time></trkpt><trkpt lat="21.305904" lon="105.618813"><ele>15.4</ele><time>2011-04-29T08:39:15.0000000+00:00</time></trkpt><trkpt lat="21.304844" lon="105.619881"><ele>15.6</ele><time>2011-04-29T08:39:30.0000000+00:00</time></trkpt><trkpt lat="21.303852" lon="105.62175"><ele>18.2</ele><time>2011-04-29T08:39:50.0000000+00:00</time></trkpt><trkpt lat="21.303207" lon="105.6259"><ele>18.8</ele><time>2011-04-29T08:40:45.0000000+00:00</time></trkpt><trkpt lat="21.302893" lon="105.626816"><ele>19.4</ele><time>2011-04-29T08:40:55.0000000+00:00</time></trkpt><trkpt lat="21.300554" lon="105.629395"><ele>20.5</ele><time>2011-04-29T08:41:30.0000000+00:00</time></trkpt><trkpt lat="21.300177" lon="105.629692"><ele>19.3</ele><time>2011-04-29T08:41:35.0000000+00:00</time></trkpt><trkpt lat="21.299322" lon="105.629997"><ele>17.8</ele><time>2011-04-29T08:41:45.0000000+00:00</time></trkpt><trkpt lat="21.295679" lon="105.630211"><ele>12.7</ele><time>2011-04-29T08:42:20.0000000+00:00</time></trkpt><trkpt lat="21.287249" lon="105.632317"><ele>14.8</ele><time>2011-04-29T08:43:40.0000000+00:00</time></trkpt><trkpt lat="21.285286" lon="105.632706"><ele>13.7</ele><time>2011-04-29T08:44:00.0000000+00:00</time></trkpt><trkpt lat="21.284557" lon="105.632637"><ele>14.0</ele><time>2011-04-29T08:44:15.0000000+00:00</time></trkpt><trkpt lat="21.284262" lon="105.633362"><ele>12.7</ele><time>2011-04-29T08:44:30.0000000+00:00</time></trkpt><trkpt lat="21.282322" lon="105.636513"><ele>12.9</ele><time>2011-04-29T08:49:20.0000000+00:00</time></trkpt><trkpt lat="21.28154" lon="105.637115"><ele>11.7</ele><time>2011-04-29T08:49:30.0000000+00:00</time></trkpt><trkpt lat="21.275537" lon="105.640602"><ele>10.8</ele><time>2011-04-29T08:50:15.0000000+00:00</time></trkpt><trkpt lat="21.274302" lon="105.641457"><ele>10.3</ele><time>2011-04-29T08:50:25.0000000+00:00</time></trkpt><trkpt lat="21.269625" lon="105.646629"><ele>11.0</ele><time>2011-04-29T08:51:00.0000000+00:00</time></trkpt><trkpt lat="21.264782" lon="105.650711"><ele>10.9</ele><time>2011-04-29T08:51:30.0000000+00:00</time></trkpt><trkpt lat="21.262018" lon="105.654083"><ele>12.1</ele><time>2011-04-29T08:51:55.0000000+00:00</time></trkpt><trkpt lat="21.25824" lon="105.659416"><ele>12.9</ele><time>2011-04-29T08:52:40.0000000+00:00</time></trkpt><trkpt lat="21.257637" lon="105.660698"><ele>14.2</ele><time>2011-04-29T08:52:50.0000000+00:00</time></trkpt><trkpt lat="21.256073" lon="105.66581"><ele>13.4</ele><time>2011-04-29T08:53:30.0000000+00:00</time></trkpt><trkpt lat="21.255098" lon="105.66732"><ele>14.1</ele><time>2011-04-29T08:53:55.0000000+00:00</time></trkpt><trkpt lat="21.251234" lon="105.669678"><ele>11.6</ele><time>2011-04-29T08:54:40.0000000+00:00</time></trkpt><trkpt lat="21.247234" lon="105.674316"><ele>11.5</ele><time>2011-04-29T08:55:35.0000000+00:00</time></trkpt><trkpt lat="21.240953" lon="105.680107"><ele>11.0</ele><time>2011-04-29T08:56:55.0000000+00:00</time></trkpt><trkpt lat="21.239971" lon="105.681374"><ele>11.3</ele><time>2011-04-29T08:57:05.0000000+00:00</time></trkpt><trkpt lat="21.238651" lon="105.684563"><ele>12.3</ele><time>2011-04-29T08:57:30.0000000+00:00</time></trkpt><trkpt lat="21.237722" lon="105.686195"><ele>12.1</ele><time>2011-04-29T08:57:45.0000000+00:00</time></trkpt><trkpt lat="21.236891" lon="105.687172"><ele>14.2</ele><time>2011-04-29T08:57:55.0000000+00:00</time></trkpt><trkpt lat="21.235874" lon="105.687981"><ele>13.8</ele><time>2011-04-29T08:58:05.0000000+00:00</time></trkpt><trkpt lat="21.232845" lon="105.689949"><ele>14.4</ele><time>2011-04-29T08:58:35.0000000+00:00</time></trkpt><trkpt lat="21.231926" lon="105.691193"><ele>16.8</ele><time>2011-04-29T08:58:50.0000000+00:00</time></trkpt><trkpt lat="21.231047" lon="105.69281"><ele>13.3</ele><time>2011-04-29T08:59:30.0000000+00:00</time></trkpt><trkpt lat="21.23085" lon="105.694084"><ele>11.5</ele><time>2011-04-29T09:00:00.0000000+00:00</time></trkpt><trkpt lat="21.231327" lon="105.70636"><ele>18.1</ele><time>2011-04-29T09:02:35.0000000+00:00</time></trkpt><trkpt lat="21.231358" lon="105.710991"><ele>17.5</ele><time>2011-04-29T09:03:30.0000000+00:00</time></trkpt><trkpt lat="21.234083" lon="105.717545"><ele>15.3</ele><time>2011-04-29T09:04:35.0000000+00:00</time></trkpt><trkpt lat="21.236671" lon="105.721695"><ele>13.9</ele><time>2011-04-29T09:05:20.0000000+00:00</time></trkpt><trkpt lat="21.238049" lon="105.72435"><ele>16.0</ele><time>2011-04-29T09:05:55.0000000+00:00</time></trkpt><trkpt lat="21.23974" lon="105.728783"><ele>14.1</ele><time>2011-04-29T09:06:45.0000000+00:00</time></trkpt><trkpt lat="21.240004" lon="105.729919"><ele>12.2</ele><time>2011-04-29T09:07:00.0000000+00:00</time></trkpt><trkpt lat="21.240219" lon="105.737839"><ele>11.1</ele><time>2011-04-29T09:08:20.0000000+00:00</time></trkpt><trkpt lat="21.24015" lon="105.739326"><ele>11.7</ele><time>2011-04-29T09:08:50.0000000+00:00</time></trkpt><trkpt lat="21.239613" lon="105.740593"><ele>11.4</ele><time>2011-04-29T09:09:05.0000000+00:00</time></trkpt><trkpt lat="21.237225" lon="105.743896"><ele>13.0</ele><time>2011-04-29T09:09:50.0000000+00:00</time></trkpt><trkpt lat="21.23559" lon="105.746758"><ele>10.6</ele><time>2011-04-29T09:10:15.0000000+00:00</time></trkpt><trkpt lat="21.23336" lon="105.750214"><ele>11.4</ele><time>2011-04-29T09:10:50.0000000+00:00</time></trkpt><trkpt lat="21.230997" lon="105.756355"><ele>15.2</ele><time>2011-04-29T09:11:40.0000000+00:00</time></trkpt><trkpt lat="21.221506" lon="105.769814"><ele>16.3</ele><time>2011-04-29T09:14:45.0000000+00:00</time></trkpt><trkpt lat="21.219694" lon="105.772804"><ele>13.5</ele><time>2011-04-29T09:16:10.0000000+00:00</time></trkpt><trkpt lat="21.218708" lon="105.773315"><ele>9.8</ele><time>2011-04-29T09:16:30.0000000+00:00</time></trkpt><trkpt lat="21.218712" lon="105.774399"><ele>12.6</ele><time>2011-04-29T09:17:00.0000000+00:00</time></trkpt><trkpt lat="21.216518" lon="105.778114"><ele>11.8</ele><time>2011-04-29T09:18:05.0000000+00:00</time></trkpt><trkpt lat="21.21596" lon="105.778412"><ele>12.8</ele><time>2011-04-29T09:18:15.0000000+00:00</time></trkpt><trkpt lat="21.213243" lon="105.778793"><ele>11.0</ele><time>2011-04-29T09:18:45.0000000+00:00</time></trkpt><trkpt lat="21.206059" lon="105.779572"><ele>11.8</ele><time>2011-04-29T09:19:50.0000000+00:00</time></trkpt><trkpt lat="21.202642" lon="105.779762"><ele>13.1</ele><time>2011-04-29T09:22:00.0000000+00:00</time></trkpt><trkpt lat="21.201639" lon="105.780006"><ele>11.7</ele><time>2011-04-29T09:24:10.0000000+00:00</time></trkpt><trkpt lat="21.196781" lon="105.78054"><ele>16.3</ele><time>2011-04-29T09:25:00.0000000+00:00</time></trkpt><trkpt lat="21.194149" lon="105.780693"><ele>15.8</ele><time>2011-04-29T09:25:30.0000000+00:00</time></trkpt><trkpt lat="21.135405" lon="105.778313"><ele>11.4</ele><time>2011-04-29T09:34:40.0000000+00:00</time></trkpt><trkpt lat="21.132648" lon="105.778854"><ele>12.8</ele><time>2011-04-29T09:34:55.0000000+00:00</time></trkpt><trkpt lat="21.108051" lon="105.787025"><ele>13.1</ele><time>2011-04-29T09:40:15.0000000+00:00</time></trkpt><trkpt lat="21.105156" lon="105.78698"><ele>18.5</ele><time>2011-04-29T09:40:35.0000000+00:00</time></trkpt><trkpt lat="21.089733" lon="105.785835"><ele>14.3</ele><time>2011-04-29T09:42:00.0000000+00:00</time></trkpt><trkpt lat="21.082455" lon="105.788216"><ele>10.9</ele><time>2011-04-29T09:42:55.0000000+00:00</time></trkpt><trkpt lat="21.081184" lon="105.788391"><ele>11.2</ele><time>2011-04-29T09:43:05.0000000+00:00</time></trkpt><trkpt lat="21.080526" lon="105.788338"><ele>11.0</ele><time>2011-04-29T09:43:10.0000000+00:00</time></trkpt><trkpt lat="21.079365" lon="105.787971"><ele>13.5</ele><time>2011-04-29T09:43:20.0000000+00:00</time></trkpt><trkpt lat="21.07683" lon="105.786446"><ele>13.5</ele><time>2011-04-29T09:44:05.0000000+00:00</time></trkpt><trkpt lat="21.075802" lon="105.785995"><ele>13.8</ele><time>2011-04-29T09:44:15.0000000+00:00</time></trkpt><trkpt lat="21.069166" lon="105.785416"><ele>12.7</ele><time>2011-04-29T09:45:20.0000000+00:00</time></trkpt><trkpt lat="21.067223" lon="105.785088"><ele>11.7</ele><time>2011-04-29T09:45:45.0000000+00:00</time></trkpt><trkpt lat="21.059681" lon="105.783257"><ele>12.7</ele><time>2011-04-29T09:47:40.0000000+00:00</time></trkpt><trkpt lat="21.056845" lon="105.782402"><ele>14.8</ele><time>2011-04-29T09:49:05.0000000+00:00</time></trkpt><trkpt lat="21.054228" lon="105.781883"><ele>10.1</ele><time>2011-04-29T09:50:05.0000000+00:00</time></trkpt><trkpt lat="21.051491" lon="105.781578"><ele>12.2</ele><time>2011-04-29T09:51:00.0000000+00:00</time></trkpt><trkpt lat="21.038465" lon="105.780746"><ele>10.8</ele><time>2011-04-29T09:55:45.0000000+00:00</time></trkpt><trkpt lat="21.035728" lon="105.780403"><ele>10.1</ele><time>2011-04-29T09:56:15.0000000+00:00</time></trkpt><trkpt lat="21.031403" lon="105.77948"><ele>9.6</ele><time>2011-04-29T09:57:40.0000000+00:00</time></trkpt><trkpt lat="21.029219" lon="105.779175"><ele>9.5</ele><time>2011-04-29T10:00:45.0000000+00:00</time></trkpt><trkpt lat="21.028856" lon="105.779045"><ele>9.0</ele><time>2011-04-29T10:01:50.0000000+00:00</time></trkpt><trkpt lat="21.028797" lon="105.778877"><ele>8.5</ele><time>2011-04-29T10:02:05.0000000+00:00</time></trkpt><trkpt lat="21.029037" lon="105.777603"><ele>9.4</ele><time>2011-04-29T10:08:20.0000000+00:00</time></trkpt><trkpt lat="21.028955" lon="105.776802"><ele>9.2</ele><time>2011-04-29T10:19:20.0000000+00:00</time></trkpt><trkpt lat="21.029198" lon="105.776855"><ele>8.7</ele><time>2011-04-29T10:24:35.0000000+00:00</time></trkpt><trkpt lat="21.028898" lon="105.778862"><ele>8.7</ele><time>2011-04-29T10:27:50.0000000+00:00</time></trkpt><trkpt lat="21.029146" lon="105.779022"><ele>8.5</ele><time>2011-04-29T10:28:40.0000000+00:00</time></trkpt><trkpt lat="21.031652" lon="105.779579"><ele>9.3</ele><time>2011-04-29T10:31:15.0000000+00:00</time></trkpt><trkpt lat="21.036055" lon="105.780258"><ele>10.6</ele><time>2011-04-29T10:35:05.0000000+00:00</time></trkpt><trkpt lat="21.036547" lon="105.780739"><ele>6.0</ele><time>2011-04-29T10:35:45.0000000+00:00</time></trkpt><trkpt lat="21.039072" lon="105.781021"><ele>10.3</ele><time>2011-04-29T10:37:15.0000000+00:00</time></trkpt><trkpt lat="21.04125" lon="105.780952"><ele>15.9</ele><time>2011-04-29T10:38:10.0000000+00:00</time></trkpt><trkpt lat="21.045475" lon="105.781296"><ele>11.2</ele><time>2011-04-29T10:40:15.0000000+00:00</time></trkpt><trkpt lat="21.045753" lon="105.781433"><ele>11.6</ele><time>2011-04-29T10:40:25.0000000+00:00</time></trkpt><trkpt lat="21.045954" lon="105.781799"><ele>11.9</ele><time>2011-04-29T10:40:35.0000000+00:00</time></trkpt><trkpt lat="21.046057" lon="105.782455"><ele>11.0</ele><time>2011-04-29T10:40:55.0000000+00:00</time></trkpt><trkpt lat="21.046112" lon="105.804581"><ele>12.2</ele><time>2011-04-29T10:50:05.0000000+00:00</time></trkpt><trkpt lat="21.046007" lon="105.805763"><ele>12.9</ele><time>2011-04-29T10:50:50.0000000+00:00</time></trkpt><trkpt lat="21.045227" lon="105.805916"><ele>16.3</ele><time>2011-04-29T10:51:25.0000000+00:00</time></trkpt><trkpt lat="21.045458" lon="105.806053"><ele>16.4</ele><time>2011-04-29T10:51:40.0000000+00:00</time></trkpt><trkpt lat="21.046965" lon="105.805946"><ele>14.9</ele><time>2011-04-29T10:53:35.0000000+00:00</time></trkpt><trkpt lat="21.047459" lon="105.806091"><ele>16.8</ele><time>2011-04-29T10:54:15.0000000+00:00</time></trkpt><trkpt lat="21.047369" lon="105.808098"><ele>20.5</ele><time>2011-04-29T10:55:15.0000000+00:00</time></trkpt><trkpt lat="21.045877" lon="105.811256"><ele>21.1</ele><time>2011-04-29T10:57:00.0000000+00:00</time></trkpt><trkpt lat="21.045099" lon="105.812195"><ele>21.1</ele><time>2011-04-29T10:57:30.0000000+00:00</time></trkpt><trkpt lat="21.043615" lon="105.813576"><ele>15.2</ele><time>2011-04-29T10:58:10.0000000+00:00</time></trkpt><trkpt lat="21.042971" lon="105.81456"><ele>21.3</ele><time>2011-04-29T10:58:35.0000000+00:00</time></trkpt><trkpt lat="21.042225" lon="105.816147"><ele>14.4</ele><time>2011-04-29T11:00:15.0000000+00:00</time></trkpt><trkpt lat="21.041971" lon="105.816254"><ele>13.5</ele><time>2011-04-29T11:00:40.0000000+00:00</time></trkpt><trkpt lat="21.041319" lon="105.816017"><ele>12.0</ele><time>2011-04-29T11:01:15.0000000+00:00</time></trkpt><trkpt lat="21.041294" lon="105.815323"><ele>14.0</ele><time>2011-04-29T11:02:20.0000000+00:00</time></trkpt><trkpt lat="21.041698" lon="105.815178"><ele>19.9</ele><time>2011-04-29T11:03:45.0000000+00:00</time></trkpt></trkseg><trkseg><trkpt lat="21.028149" lon="105.778038"><ele>9.3</ele><time>2011-04-29T22:06:05.0000000+00:00</time></trkpt><trkpt lat="21.028187" lon="105.777924"><ele>9.4</ele><time>2011-04-29T22:26:30.0000000+00:00</time></trkpt><trkpt lat="21.02799" lon="105.77784"><ele>8.9</ele><time>2011-04-29T22:27:50.0000000+00:00</time></trkpt><trkpt lat="21.027573" lon="105.777901"><ele>11.3</ele><time>2011-04-29T22:29:00.0000000+00:00</time></trkpt><trkpt lat="21.027386" lon="105.778778"><ele>11.7</ele><time>2011-04-29T22:30:45.0000000+00:00</time></trkpt><trkpt lat="21.025068" lon="105.778465"><ele>9.1</ele><time>2011-04-29T22:31:25.0000000+00:00</time></trkpt><trkpt lat="21.024025" lon="105.778465"><ele>9.5</ele><time>2011-04-29T22:31:40.0000000+00:00</time></trkpt><trkpt lat="21.022768" lon="105.778664"><ele>9.7</ele><time>2011-04-29T22:32:00.0000000+00:00</time></trkpt><trkpt lat="21.021719" lon="105.779129"><ele>9.3</ele><time>2011-04-29T22:32:50.0000000+00:00</time></trkpt><trkpt lat="21.021971" lon="105.779282"><ele>9.2</ele><time>2011-04-29T22:33:05.0000000+00:00</time></trkpt><trkpt lat="21.023153" lon="105.778969"><ele>11.1</ele><time>2011-04-29T22:33:30.0000000+00:00</time></trkpt><trkpt lat="21.024908" lon="105.778847"><ele>10.0</ele><time>2011-04-29T22:34:05.0000000+00:00</time></trkpt><trkpt lat="21.028128" lon="105.779358"><ele>9.4</ele><time>2011-04-29T22:35:40.0000000+00:00</time></trkpt><trkpt lat="21.029198" lon="105.779327"><ele>13.1</ele><time>2011-04-29T22:36:10.0000000+00:00</time></trkpt><trkpt lat="21.031677" lon="105.77993"><ele>9.3</ele><time>2011-04-29T22:37:00.0000000+00:00</time></trkpt><trkpt lat="21.037132" lon="105.780678"><ele>8.5</ele><time>2011-04-29T22:37:55.0000000+00:00</time></trkpt><trkpt lat="21.042175" lon="105.781067"><ele>12.1</ele><time>2011-04-29T22:39:05.0000000+00:00</time></trkpt><trkpt lat="21.042768" lon="105.780991"><ele>14.7</ele><time>2011-04-29T22:39:20.0000000+00:00</time></trkpt><trkpt lat="21.046177" lon="105.781387"><ele>10.7</ele><time>2011-04-29T22:40:20.0000000+00:00</time></trkpt><trkpt lat="21.053606" lon="105.781738"><ele>9.1</ele><time>2011-04-29T22:42:30.0000000+00:00</time></trkpt><trkpt lat="21.059574" lon="105.782913"><ele>12.4</ele><time>2011-04-29T22:44:05.0000000+00:00</time></trkpt><trkpt lat="21.064983" lon="105.784485"><ele>13.9</ele><time>2011-04-29T22:44:55.0000000+00:00</time></trkpt><trkpt lat="21.068478" lon="105.785294"><ele>9.7</ele><time>2011-04-29T22:45:25.0000000+00:00</time></trkpt><trkpt lat="21.075954" lon="105.785988"><ele>13.7</ele><time>2011-04-29T22:47:45.0000000+00:00</time></trkpt><trkpt lat="21.076363" lon="105.786133"><ele>13.3</ele><time>2011-04-29T22:47:50.0000000+00:00</time></trkpt><trkpt lat="21.079094" lon="105.787979"><ele>12.8</ele><time>2011-04-29T22:49:40.0000000+00:00</time></trkpt><trkpt lat="21.080854" lon="105.788467"><ele>11.4</ele><time>2011-04-29T22:50:05.0000000+00:00</time></trkpt><trkpt lat="21.08264" lon="105.788208"><ele>11.1</ele><time>2011-04-29T22:50:20.0000000+00:00</time></trkpt><trkpt lat="21.089874" lon="105.785889"><ele>13.4</ele><time>2011-04-29T22:51:15.0000000+00:00</time></trkpt><trkpt lat="21.106878" lon="105.787132"><ele>13.8</ele><time>2011-04-29T22:53:10.0000000+00:00</time></trkpt><trkpt lat="21.108084" lon="105.787102"><ele>13.2</ele><time>2011-04-29T22:53:20.0000000+00:00</time></trkpt><trkpt lat="21.131157" lon="105.779396"><ele>11.8</ele><time>2011-04-29T22:56:40.0000000+00:00</time></trkpt><trkpt lat="21.133532" lon="105.778679"><ele>11.6</ele><time>2011-04-29T22:57:05.0000000+00:00</time></trkpt><trkpt lat="21.13508" lon="105.778427"><ele>10.5</ele><time>2011-04-29T22:57:15.0000000+00:00</time></trkpt><trkpt lat="21.140472" lon="105.778542"><ele>10.6</ele><time>2011-04-29T22:57:55.0000000+00:00</time></trkpt><trkpt lat="21.192181" lon="105.780785"><ele>12.8</ele><time>2011-04-29T23:04:45.0000000+00:00</time></trkpt><trkpt lat="21.195702" lon="105.780769"><ele>13.3</ele><time>2011-04-29T23:05:35.0000000+00:00</time></trkpt><trkpt lat="21.201132" lon="105.780167"><ele>10.9</ele><time>2011-04-29T23:06:10.0000000+00:00</time></trkpt><trkpt lat="21.204384" lon="105.780022"><ele>12.6</ele><time>2011-04-29T23:07:40.0000000+00:00</time></trkpt><trkpt lat="21.204823" lon="105.780472"><ele>12.7</ele><time>2011-04-29T23:07:50.0000000+00:00</time></trkpt><trkpt lat="21.204924" lon="105.78093"><ele>11.7</ele><time>2011-04-29T23:07:55.0000000+00:00</time></trkpt><trkpt lat="21.204485" lon="105.78302"><ele>10.7</ele><time>2011-04-29T23:08:10.0000000+00:00</time></trkpt><trkpt lat="21.204569" lon="105.783607"><ele>10.0</ele><time>2011-04-29T23:08:15.0000000+00:00</time></trkpt><trkpt lat="21.205118" lon="105.784592"><ele>9.9</ele><time>2011-04-29T23:08:25.0000000+00:00</time></trkpt><trkpt lat="21.204983" lon="105.785263"><ele>12.3</ele><time>2011-04-29T23:08:40.0000000+00:00</time></trkpt><trkpt lat="21.203726" lon="105.787331"><ele>13.1</ele><time>2011-04-29T23:09:00.0000000+00:00</time></trkpt><trkpt lat="21.199732" lon="105.792763"><ele>12.3</ele><time>2011-04-29T23:09:35.0000000+00:00</time></trkpt><trkpt lat="21.197367" lon="105.796295"><ele>13.3</ele><time>2011-04-29T23:09:55.0000000+00:00</time></trkpt><trkpt lat="21.19594" lon="105.799171"><ele>11.8</ele><time>2011-04-29T23:10:10.0000000+00:00</time></trkpt><trkpt lat="21.195177" lon="105.801208"><ele>12.0</ele><time>2011-04-29T23:10:20.0000000+00:00</time></trkpt><trkpt lat="21.194632" lon="105.8032"><ele>13.3</ele><time>2011-04-29T23:10:30.0000000+00:00</time></trkpt><trkpt lat="21.194111" lon="105.806366"><ele>13.3</ele><time>2011-04-29T23:10:45.0000000+00:00</time></trkpt><trkpt lat="21.193975" lon="105.809479"><ele>14.8</ele><time>2011-04-29T23:11:00.0000000+00:00</time></trkpt><trkpt lat="21.194483" lon="105.823982"><ele>14.1</ele><time>2011-04-29T23:12:00.0000000+00:00</time></trkpt><trkpt lat="21.194778" lon="105.825523"><ele>13.5</ele><time>2011-04-29T23:12:25.0000000+00:00</time></trkpt><trkpt lat="21.195509" lon="105.827652"><ele>12.7</ele><time>2011-04-29T23:12:45.0000000+00:00</time></trkpt><trkpt lat="21.19627" lon="105.82917"><ele>13.0</ele><time>2011-04-29T23:12:55.0000000+00:00</time></trkpt><trkpt lat="21.197292" lon="105.830757"><ele>13.3</ele><time>2011-04-29T23:13:05.0000000+00:00</time></trkpt><trkpt lat="21.199387" lon="105.832993"><ele>16.2</ele><time>2011-04-29T23:13:20.0000000+00:00</time></trkpt><trkpt lat="21.203873" lon="105.836235"><ele>13.8</ele><time>2011-04-29T23:13:50.0000000+00:00</time></trkpt><trkpt lat="21.206099" lon="105.838379"><ele>14.1</ele><time>2011-04-29T23:14:05.0000000+00:00</time></trkpt><trkpt lat="21.20783" lon="105.840691"><ele>13.3</ele><time>2011-04-29T23:14:20.0000000+00:00</time></trkpt><trkpt lat="21.209057" lon="105.842773"><ele>13.5</ele><time>2011-04-29T23:14:35.0000000+00:00</time></trkpt><trkpt lat="21.209972" lon="105.844803"><ele>13.7</ele><time>2011-04-29T23:15:15.0000000+00:00</time></trkpt><trkpt lat="21.210897" lon="105.848015"><ele>16.1</ele><time>2011-04-29T23:15:40.0000000+00:00</time></trkpt><trkpt lat="21.211319" lon="105.851501"><ele>13.4</ele><time>2011-04-29T23:16:00.0000000+00:00</time></trkpt><trkpt lat="21.211344" lon="105.852531"><ele>12.7</ele><time>2011-04-29T23:16:05.0000000+00:00</time></trkpt><trkpt lat="21.210587" lon="105.861099"><ele>12.6</ele><time>2011-04-29T23:16:45.0000000+00:00</time></trkpt><trkpt lat="21.210625" lon="105.863396"><ele>12.3</ele><time>2011-04-29T23:16:55.0000000+00:00</time></trkpt><trkpt lat="21.210871" lon="105.865471"><ele>11.1</ele><time>2011-04-29T23:17:05.0000000+00:00</time></trkpt><trkpt lat="21.211296" lon="105.867355"><ele>11.3</ele><time>2011-04-29T23:17:15.0000000+00:00</time></trkpt><trkpt lat="21.211935" lon="105.86927"><ele>13.8</ele><time>2011-04-29T23:17:25.0000000+00:00</time></trkpt><trkpt lat="21.212713" lon="105.871048"><ele>16.0</ele><time>2011-04-29T23:17:35.0000000+00:00</time></trkpt><trkpt lat="21.214655" lon="105.874702"><ele>12.7</ele><time>2011-04-29T23:17:55.0000000+00:00</time></trkpt><trkpt lat="21.215841" lon="105.877762"><ele>13.1</ele><time>2011-04-29T23:18:10.0000000+00:00</time></trkpt><trkpt lat="21.216505" lon="105.880951"><ele>9.9</ele><time>2011-04-29T23:18:25.0000000+00:00</time></trkpt><trkpt lat="21.21666" lon="105.884193"><ele>11.5</ele><time>2011-04-29T23:18:40.0000000+00:00</time></trkpt><trkpt lat="21.21612" lon="105.888168"><ele>9.4</ele><time>2011-04-29T23:19:00.0000000+00:00</time></trkpt><trkpt lat="21.212828" lon="105.900749"><ele>10.0</ele><time>2011-04-29T23:20:00.0000000+00:00</time></trkpt><trkpt lat="21.212214" lon="105.903862"><ele>9.4</ele><time>2011-04-29T23:20:15.0000000+00:00</time></trkpt><trkpt lat="21.212008" lon="105.906929"><ele>8.7</ele><time>2011-04-29T23:20:30.0000000+00:00</time></trkpt><trkpt lat="21.212172" lon="105.913063"><ele>10.3</ele><time>2011-04-29T23:21:00.0000000+00:00</time></trkpt><trkpt lat="21.211948" lon="105.92218"><ele>9.0</ele><time>2011-04-29T23:21:50.0000000+00:00</time></trkpt><trkpt lat="21.211706" lon="105.925682"><ele>8.2</ele><time>2011-04-29T23:22:05.0000000+00:00</time></trkpt><trkpt lat="21.211355" lon="105.92807"><ele>8.5</ele><time>2011-04-29T23:22:15.0000000+00:00</time></trkpt><trkpt lat="21.210411" lon="105.931763"><ele>8.2</ele><time>2011-04-29T23:22:30.0000000+00:00</time></trkpt><trkpt lat="21.206415" lon="105.944687"><ele>7.0</ele><time>2011-04-29T23:23:25.0000000+00:00</time></trkpt><trkpt lat="21.202782" lon="105.958237"><ele>6.9</ele><time>2011-04-29T23:24:50.0000000+00:00</time></trkpt><trkpt lat="21.198851" lon="105.973709"><ele>6.9</ele><time>2011-04-29T23:26:25.0000000+00:00</time></trkpt><trkpt lat="21.198114" lon="105.977959"><ele>7.1</ele><time>2011-04-29T23:26:45.0000000+00:00</time></trkpt><trkpt lat="21.196714" lon="105.990166"><ele>6.4</ele><time>2011-04-29T23:27:40.0000000+00:00</time></trkpt><trkpt lat="21.19607" lon="105.993088"><ele>6.2</ele><time>2011-04-29T23:28:00.0000000+00:00</time></trkpt><trkpt lat="21.195545" lon="105.994682"><ele>7.5</ele><time>2011-04-29T23:28:25.0000000+00:00</time></trkpt><trkpt lat="21.193991" lon="105.998245"><ele>6.5</ele><time>2011-04-29T23:28:50.0000000+00:00</time></trkpt><trkpt lat="21.192169" lon="106.001114"><ele>7.8</ele><time>2011-04-29T23:29:10.0000000+00:00</time></trkpt><trkpt lat="21.190065" lon="106.003593"><ele>8.5</ele><time>2011-04-29T23:29:30.0000000+00:00</time></trkpt><trkpt lat="21.185699" lon="106.007767"><ele>7.3</ele><time>2011-04-29T23:30:05.0000000+00:00</time></trkpt><trkpt lat="21.18454" lon="106.009201"><ele>7.7</ele><time>2011-04-29T23:30:15.0000000+00:00</time></trkpt><trkpt lat="21.182926" lon="106.011803"><ele>8.1</ele><time>2011-04-29T23:30:30.0000000+00:00</time></trkpt><trkpt lat="21.181683" lon="106.014565"><ele>6.2</ele><time>2011-04-29T23:30:45.0000000+00:00</time></trkpt><trkpt lat="21.175444" lon="106.030655"><ele>6.5</ele><time>2011-04-29T23:32:05.0000000+00:00</time></trkpt><trkpt lat="21.174091" lon="106.033684"><ele>6.8</ele><time>2011-04-29T23:32:20.0000000+00:00</time></trkpt><trkpt lat="21.172398" lon="106.036659"><ele>9.8</ele><time>2011-04-29T23:32:40.0000000+00:00</time></trkpt><trkpt lat="21.170897" lon="106.038597"><ele>5.9</ele><time>2011-04-29T23:32:55.0000000+00:00</time></trkpt><trkpt lat="21.168808" lon="106.04071"><ele>7.7</ele><time>2011-04-29T23:33:10.0000000+00:00</time></trkpt><trkpt lat="21.167236" lon="106.041962"><ele>8.2</ele><time>2011-04-29T23:33:20.0000000+00:00</time></trkpt><trkpt lat="21.163851" lon="106.044258"><ele>10.1</ele><time>2011-04-29T23:33:40.0000000+00:00</time></trkpt><trkpt lat="21.161425" lon="106.046555"><ele>9.4</ele><time>2011-04-29T23:33:55.0000000+00:00</time></trkpt><trkpt lat="21.159168" lon="106.049522"><ele>6.2</ele><time>2011-04-29T23:34:15.0000000+00:00</time></trkpt><trkpt lat="21.158596" lon="106.050484"><ele>5.7</ele><time>2011-04-29T23:34:25.0000000+00:00</time></trkpt><trkpt lat="21.158398" lon="106.051056"><ele>5.4</ele><time>2011-04-29T23:34:30.0000000+00:00</time></trkpt><trkpt lat="21.158503" lon="106.051666"><ele>5.5</ele><time>2011-04-29T23:34:35.0000000+00:00</time></trkpt><trkpt lat="21.159063" lon="106.052734"><ele>5.1</ele><time>2011-04-29T23:34:45.0000000+00:00</time></trkpt><trkpt lat="21.159103" lon="106.05336"><ele>5.2</ele><time>2011-04-29T23:34:50.0000000+00:00</time></trkpt><trkpt lat="21.158831" lon="106.053947"><ele>5.2</ele><time>2011-04-29T23:34:55.0000000+00:00</time></trkpt><trkpt lat="21.15472" lon="106.056999"><ele>9.1</ele><time>2011-04-29T23:35:35.0000000+00:00</time></trkpt><trkpt lat="21.154364" lon="106.057312"><ele>8.0</ele><time>2011-04-29T23:35:40.0000000+00:00</time></trkpt><trkpt lat="21.154198" lon="106.057831"><ele>6.4</ele><time>2011-04-29T23:35:45.0000000+00:00</time></trkpt><trkpt lat="21.15444" lon="106.058365"><ele>5.6</ele><time>2011-04-29T23:35:50.0000000+00:00</time></trkpt><trkpt lat="21.155689" lon="106.058502"><ele>6.1</ele><time>2011-04-29T23:36:00.0000000+00:00</time></trkpt><trkpt lat="21.15626" lon="106.058708"><ele>6.6</ele><time>2011-04-29T23:36:05.0000000+00:00</time></trkpt><trkpt lat="21.156738" lon="106.059219"><ele>8.3</ele><time>2011-04-29T23:36:10.0000000+00:00</time></trkpt><trkpt lat="21.162256" lon="106.068077"><ele>7.4</ele><time>2011-04-29T23:37:10.0000000+00:00</time></trkpt><trkpt lat="21.163965" lon="106.072403"><ele>5.2</ele><time>2011-04-29T23:37:35.0000000+00:00</time></trkpt><trkpt lat="21.165676" lon="106.0793"><ele>5.8</ele><time>2011-04-29T23:38:10.0000000+00:00</time></trkpt><trkpt lat="21.166729" lon="106.082146"><ele>5.5</ele><time>2011-04-29T23:38:25.0000000+00:00</time></trkpt><trkpt lat="21.168568" lon="106.085403"><ele>6.1</ele><time>2011-04-29T23:38:45.0000000+00:00</time></trkpt><trkpt lat="21.170902" lon="106.088249"><ele>5.4</ele><time>2011-04-29T23:39:10.0000000+00:00</time></trkpt><trkpt lat="21.171335" lon="106.089066"><ele>6.1</ele><time>2011-04-29T23:39:20.0000000+00:00</time></trkpt><trkpt lat="21.171022" lon="106.09137"><ele>5.5</ele><time>2011-04-29T23:39:40.0000000+00:00</time></trkpt><trkpt lat="21.171219" lon="106.091866"><ele>5.2</ele><time>2011-04-29T23:39:45.0000000+00:00</time></trkpt><trkpt lat="21.171785" lon="106.092361"><ele>6.3</ele><time>2011-04-29T23:39:55.0000000+00:00</time></trkpt><trkpt lat="21.171785" lon="106.093124"><ele>6.1</ele><time>2011-04-29T23:41:10.0000000+00:00</time></trkpt><trkpt lat="21.169809" lon="106.101326"><ele>7.1</ele><time>2011-04-29T23:43:25.0000000+00:00</time></trkpt><trkpt lat="21.164492" lon="106.108727"><ele>6.3</ele><time>2011-04-29T23:44:35.0000000+00:00</time></trkpt><trkpt lat="21.160664" lon="106.112442"><ele>6.3</ele><time>2011-04-29T23:45:25.0000000+00:00</time></trkpt><trkpt lat="21.159904" lon="106.113663"><ele>5.9</ele><time>2011-04-29T23:45:40.0000000+00:00</time></trkpt><trkpt lat="21.159222" lon="106.11528"><ele>6.2</ele><time>2011-04-29T23:45:55.0000000+00:00</time></trkpt><trkpt lat="21.153004" lon="106.153122"><ele>8.5</ele><time>2011-04-29T23:50:20.0000000+00:00</time></trkpt><trkpt lat="21.152397" lon="106.158058"><ele>8.9</ele><time>2011-04-29T23:50:55.0000000+00:00</time></trkpt><trkpt lat="21.151955" lon="106.160599"><ele>7.9</ele><time>2011-04-29T23:51:10.0000000+00:00</time></trkpt><trkpt lat="21.151506" lon="106.162277"><ele>8.2</ele><time>2011-04-29T23:51:20.0000000+00:00</time></trkpt><trkpt lat="21.150854" lon="106.163673"><ele>8.6</ele><time>2011-04-29T23:51:30.0000000+00:00</time></trkpt><trkpt lat="21.148476" lon="106.166725"><ele>8.1</ele><time>2011-04-29T23:51:55.0000000+00:00</time></trkpt><trkpt lat="21.141794" lon="106.173927"><ele>6.4</ele><time>2011-04-29T23:52:45.0000000+00:00</time></trkpt><trkpt lat="21.139635" lon="106.175911"><ele>5.4</ele><time>2011-04-29T23:53:00.0000000+00:00</time></trkpt><trkpt lat="21.138418" lon="106.177414"><ele>5.1</ele><time>2011-04-29T23:53:10.0000000+00:00</time></trkpt><trkpt lat="21.136929" lon="106.180779"><ele>7.8</ele><time>2011-04-29T23:53:30.0000000+00:00</time></trkpt><trkpt lat="21.132874" lon="106.187759"><ele>9.7</ele><time>2011-04-29T23:54:15.0000000+00:00</time></trkpt><trkpt lat="21.130074" lon="106.194786"><ele>3.8</ele><time>2011-04-29T23:54:55.0000000+00:00</time></trkpt><trkpt lat="21.126518" lon="106.201218"><ele>11.7</ele><time>2011-04-29T23:56:35.0000000+00:00</time></trkpt><trkpt lat="21.12561" lon="106.203804"><ele>6.3</ele><time>2011-04-29T23:56:55.0000000+00:00</time></trkpt><trkpt lat="21.121584" lon="106.234261"><ele>5.8</ele><time>2011-04-29T23:59:40.0000000+00:00</time></trkpt><trkpt lat="21.119658" lon="106.2509"><ele>8.8</ele><time>2011-04-30T00:02:30.0000000+00:00</time></trkpt><trkpt lat="21.118605" lon="106.258492"><ele>6.8</ele><time>2011-04-30T00:03:15.0000000+00:00</time></trkpt><trkpt lat="21.116493" lon="106.276154"><ele>9.8</ele><time>2011-04-30T00:05:05.0000000+00:00</time></trkpt><trkpt lat="21.116587" lon="106.279045"><ele>6.5</ele><time>2011-04-30T00:05:55.0000000+00:00</time></trkpt><trkpt lat="21.117723" lon="106.283791"><ele>6.0</ele><time>2011-04-30T00:06:25.0000000+00:00</time></trkpt><trkpt lat="21.117723" lon="106.285431"><ele>5.4</ele><time>2011-04-30T00:06:35.0000000+00:00</time></trkpt><trkpt lat="21.117252" lon="106.287132"><ele>5.8</ele><time>2011-04-30T00:06:45.0000000+00:00</time></trkpt><trkpt lat="21.113049" lon="106.29921"><ele>6.3</ele><time>2011-04-30T00:08:05.0000000+00:00</time></trkpt><trkpt lat="21.1129" lon="106.300369"><ele>9.9</ele><time>2011-04-30T00:08:15.0000000+00:00</time></trkpt><trkpt lat="21.113226" lon="106.303093"><ele>13.9</ele><time>2011-04-30T00:08:40.0000000+00:00</time></trkpt><trkpt lat="21.113232" lon="106.304482"><ele>13.2</ele><time>2011-04-30T00:08:55.0000000+00:00</time></trkpt><trkpt lat="21.112724" lon="106.311378"><ele>5.9</ele><time>2011-04-30T00:09:55.0000000+00:00</time></trkpt><trkpt lat="21.112375" lon="106.319298"><ele>7.4</ele><time>2011-04-30T00:11:00.0000000+00:00</time></trkpt><trkpt lat="21.112072" lon="106.32206"><ele>11.3</ele><time>2011-04-30T00:11:25.0000000+00:00</time></trkpt><trkpt lat="21.111355" lon="106.324387"><ele>11.8</ele><time>2011-04-30T00:11:45.0000000+00:00</time></trkpt><trkpt lat="21.109526" lon="106.334663"><ele>6.5</ele><time>2011-04-30T00:12:50.0000000+00:00</time></trkpt><trkpt lat="21.108212" lon="106.341095"><ele>8.1</ele><time>2011-04-30T00:13:25.0000000+00:00</time></trkpt><trkpt lat="21.107449" lon="106.342766"><ele>8.6</ele><time>2011-04-30T00:13:40.0000000+00:00</time></trkpt><trkpt lat="21.107098" lon="106.345512"><ele>5.9</ele><time>2011-04-30T00:14:05.0000000+00:00</time></trkpt><trkpt lat="21.10594" lon="106.34832"><ele>5.3</ele><time>2011-04-30T00:14:25.0000000+00:00</time></trkpt><trkpt lat="21.103123" lon="106.358292"><ele>4.7</ele><time>2011-04-30T00:15:30.0000000+00:00</time></trkpt><trkpt lat="21.102863" lon="106.360016"><ele>5.3</ele><time>2011-04-30T00:15:40.0000000+00:00</time></trkpt><trkpt lat="21.102707" lon="106.363976"><ele>5.4</ele><time>2011-04-30T00:16:05.0000000+00:00</time></trkpt><trkpt lat="21.102467" lon="106.365746"><ele>5.3</ele><time>2011-04-30T00:16:20.0000000+00:00</time></trkpt><trkpt lat="21.102053" lon="106.367104"><ele>6.9</ele><time>2011-04-30T00:16:30.0000000+00:00</time></trkpt><trkpt lat="21.100727" lon="106.370079"><ele>4.9</ele><time>2011-04-30T00:16:50.0000000+00:00</time></trkpt><trkpt lat="21.10021" lon="106.371628"><ele>5.9</ele><time>2011-04-30T00:17:00.0000000+00:00</time></trkpt><trkpt lat="21.099268" lon="106.376335"><ele>6.3</ele><time>2011-04-30T00:17:35.0000000+00:00</time></trkpt><trkpt lat="21.099258" lon="106.377762"><ele>6.3</ele><time>2011-04-30T00:17:45.0000000+00:00</time></trkpt><trkpt lat="21.099901" lon="106.379082"><ele>7.0</ele><time>2011-04-30T00:18:00.0000000+00:00</time></trkpt><trkpt lat="21.106499" lon="106.384048"><ele>18.4</ele><time>2011-04-30T00:19:30.0000000+00:00</time></trkpt><trkpt lat="21.107458" lon="106.385017"><ele>10.0</ele><time>2011-04-30T00:19:45.0000000+00:00</time></trkpt><trkpt lat="21.111519" lon="106.390396"><ele>17.0</ele><time>2011-04-30T00:20:55.0000000+00:00</time></trkpt><trkpt lat="21.111786" lon="106.390572"><ele>18.0</ele><time>2011-04-30T00:21:50.0000000+00:00</time></trkpt><trkpt lat="21.114874" lon="106.39489"><ele>14.3</ele><time>2011-04-30T00:23:55.0000000+00:00</time></trkpt><trkpt lat="21.117472" lon="106.399208"><ele>11.3</ele><time>2011-04-30T00:25:10.0000000+00:00</time></trkpt><trkpt lat="21.119656" lon="106.40126"><ele>8.0</ele><time>2011-04-30T00:25:40.0000000+00:00</time></trkpt><trkpt lat="21.124355" lon="106.408295"><ele>6.5</ele><time>2011-04-30T00:26:45.0000000+00:00</time></trkpt><trkpt lat="21.126328" lon="106.410622"><ele>4.3</ele><time>2011-04-30T00:27:05.0000000+00:00</time></trkpt><trkpt lat="21.12878" lon="106.414314"><ele>11.2</ele><time>2011-04-30T00:27:40.0000000+00:00</time></trkpt><trkpt lat="21.130857" lon="106.418381"><ele>5.2</ele><time>2011-04-30T00:28:20.0000000+00:00</time></trkpt><trkpt lat="21.131102" lon="106.41851"><ele>5.6</ele><time>2011-04-30T00:28:25.0000000+00:00</time></trkpt><trkpt lat="21.131317" lon="106.418434"><ele>6.9</ele><time>2011-04-30T00:28:35.0000000+00:00</time></trkpt><trkpt lat="21.131329" lon="106.418556"><ele>6.7</ele><time>2011-04-30T00:31:45.0000000+00:00</time></trkpt><trkpt lat="21.131235" lon="106.418404"><ele>6.7</ele><time>2011-04-30T00:33:35.0000000+00:00</time></trkpt><trkpt lat="21.131336" lon="106.418411"><ele>7.0</ele><time>2011-04-30T00:36:20.0000000+00:00</time></trkpt><trkpt lat="21.131176" lon="106.418587"><ele>5.9</ele><time>2011-04-30T00:48:35.0000000+00:00</time></trkpt><trkpt lat="21.131166" lon="106.418961"><ele>4.6</ele><time>2011-04-30T00:48:50.0000000+00:00</time></trkpt><trkpt lat="21.133144" lon="106.422989"><ele>6.0</ele><time>2011-04-30T00:49:30.0000000+00:00</time></trkpt><trkpt lat="21.133478" lon="106.424225"><ele>5.6</ele><time>2011-04-30T00:49:40.0000000+00:00</time></trkpt><trkpt lat="21.133217" lon="106.427635"><ele>7.4</ele><time>2011-04-30T00:50:00.0000000+00:00</time></trkpt><trkpt lat="21.132668" lon="106.431763"><ele>8.3</ele><time>2011-04-30T00:50:25.0000000+00:00</time></trkpt><trkpt lat="21.132843" lon="106.434036"><ele>3.4</ele><time>2011-04-30T00:51:00.0000000+00:00</time></trkpt><trkpt lat="21.132658" lon="106.43499"><ele>3.1</ele><time>2011-04-30T00:51:10.0000000+00:00</time></trkpt><trkpt lat="21.129213" lon="106.44677"><ele>5.1</ele><time>2011-04-30T00:52:50.0000000+00:00</time></trkpt><trkpt lat="21.125664" lon="106.455559"><ele>4.2</ele><time>2011-04-30T00:53:50.0000000+00:00</time></trkpt><trkpt lat="21.124294" lon="106.458038"><ele>6.7</ele><time>2011-04-30T00:54:10.0000000+00:00</time></trkpt><trkpt lat="21.123819" lon="106.458549"><ele>7.1</ele><time>2011-04-30T00:54:15.0000000+00:00</time></trkpt><trkpt lat="21.12216" lon="106.459541"><ele>6.8</ele><time>2011-04-30T00:54:30.0000000+00:00</time></trkpt><trkpt lat="21.121107" lon="106.460449"><ele>5.8</ele><time>2011-04-30T00:54:40.0000000+00:00</time></trkpt><trkpt lat="21.118919" lon="106.464294"><ele>4.8</ele><time>2011-04-30T00:55:10.0000000+00:00</time></trkpt><trkpt lat="21.118164" lon="106.465355"><ele>6.0</ele><time>2011-04-30T00:55:20.0000000+00:00</time></trkpt><trkpt lat="21.116558" lon="106.467155"><ele>4.7</ele><time>2011-04-30T00:55:40.0000000+00:00</time></trkpt><trkpt lat="21.106485" lon="106.476913"><ele>6.1</ele><time>2011-04-30T00:57:25.0000000+00:00</time></trkpt><trkpt lat="21.106258" lon="106.476913"><ele>5.8</ele><time>2011-04-30T00:58:30.0000000+00:00</time></trkpt><trkpt lat="21.10618" lon="106.477158"><ele>5.8</ele><time>2011-04-30T01:03:20.0000000+00:00</time></trkpt><trkpt lat="21.1045" lon="106.478989"><ele>7.3</ele><time>2011-04-30T01:03:40.0000000+00:00</time></trkpt><trkpt lat="21.094749" lon="106.488747"><ele>8.5</ele><time>2011-04-30T01:05:05.0000000+00:00</time></trkpt><trkpt lat="21.094145" lon="106.489449"><ele>9.8</ele><time>2011-04-30T01:05:15.0000000+00:00</time></trkpt><trkpt lat="21.092148" lon="106.492981"><ele>4.0</ele><time>2011-04-30T01:05:45.0000000+00:00</time></trkpt><trkpt lat="21.091749" lon="106.493462"><ele>8.1</ele><time>2011-04-30T01:05:50.0000000+00:00</time></trkpt><trkpt lat="21.089182" lon="106.495201"><ele>5.3</ele><time>2011-04-30T01:06:25.0000000+00:00</time></trkpt><trkpt lat="21.086901" lon="106.497086"><ele>7.7</ele><time>2011-04-30T01:06:55.0000000+00:00</time></trkpt><trkpt lat="21.086498" lon="106.498215"><ele>3.8</ele><time>2011-04-30T01:07:05.0000000+00:00</time></trkpt><trkpt lat="21.08637" lon="106.505188"><ele>5.0</ele><time>2011-04-30T01:08:05.0000000+00:00</time></trkpt><trkpt lat="21.088797" lon="106.51722"><ele>3.3</ele><time>2011-04-30T01:09:10.0000000+00:00</time></trkpt><trkpt lat="21.088808" lon="106.517929"><ele>3.6</ele><time>2011-04-30T01:09:15.0000000+00:00</time></trkpt><trkpt lat="21.088654" lon="106.518478"><ele>5.5</ele><time>2011-04-30T01:09:20.0000000+00:00</time></trkpt><trkpt lat="21.087801" lon="106.520142"><ele>6.1</ele><time>2011-04-30T01:10:50.0000000+00:00</time></trkpt><trkpt lat="21.0842" lon="106.525681"><ele>8.8</ele><time>2011-04-30T01:11:35.0000000+00:00</time></trkpt><trkpt lat="21.083498" lon="106.526283"><ele>13.9</ele><time>2011-04-30T01:11:40.0000000+00:00</time></trkpt><trkpt lat="21.074329" lon="106.529785"><ele>4.1</ele><time>2011-04-30T01:12:40.0000000+00:00</time></trkpt><trkpt lat="21.07362" lon="106.530304"><ele>6.2</ele><time>2011-04-30T01:12:50.0000000+00:00</time></trkpt><trkpt lat="21.073458" lon="106.531258"><ele>7.4</ele><time>2011-04-30T01:13:00.0000000+00:00</time></trkpt><trkpt lat="21.073479" lon="106.532288"><ele>10.6</ele><time>2011-04-30T01:13:10.0000000+00:00</time></trkpt><trkpt lat="21.074877" lon="106.54023"><ele>5.4</ele><time>2011-04-30T01:14:15.0000000+00:00</time></trkpt><trkpt lat="21.074768" lon="106.541733"><ele>6.0</ele><time>2011-04-30T01:14:25.0000000+00:00</time></trkpt><trkpt lat="21.072166" lon="106.551018"><ele>5.2</ele><time>2011-04-30T01:15:30.0000000+00:00</time></trkpt><trkpt lat="21.062273" lon="106.578697"><ele>7.8</ele><time>2011-04-30T01:19:45.0000000+00:00</time></trkpt><trkpt lat="21.06093" lon="106.585114"><ele>6.3</ele><time>2011-04-30T01:21:00.0000000+00:00</time></trkpt><trkpt lat="21.059662" lon="106.589592"><ele>8.4</ele><time>2011-04-30T01:21:50.0000000+00:00</time></trkpt><trkpt lat="21.059361" lon="106.59111"><ele>8.7</ele><time>2011-04-30T01:22:30.0000000+00:00</time></trkpt><trkpt lat="21.058151" lon="106.594009"><ele>9.1</ele><time>2011-04-30T01:23:35.0000000+00:00</time></trkpt><trkpt lat="21.056078" lon="106.600845"><ele>7.3</ele><time>2011-04-30T01:27:00.0000000+00:00</time></trkpt><trkpt lat="21.05563" lon="106.601776"><ele>9.0</ele><time>2011-04-30T01:28:10.0000000+00:00</time></trkpt><trkpt lat="21.054003" lon="106.607849"><ele>8.3</ele><time>2011-04-30T01:30:20.0000000+00:00</time></trkpt><trkpt lat="21.053629" lon="106.608833"><ele>11.6</ele><time>2011-04-30T01:30:35.0000000+00:00</time></trkpt><trkpt lat="21.052904" lon="106.612518"><ele>10.3</ele><time>2011-04-30T01:31:15.0000000+00:00</time></trkpt><trkpt lat="21.051563" lon="106.61805"><ele>7.6</ele><time>2011-04-30T01:32:20.0000000+00:00</time></trkpt><trkpt lat="21.051727" lon="106.621231"><ele>10.6</ele><time>2011-04-30T01:33:00.0000000+00:00</time></trkpt><trkpt lat="21.052628" lon="106.628281"><ele>4.2</ele><time>2011-04-30T01:34:35.0000000+00:00</time></trkpt><trkpt lat="21.053177" lon="106.634407"><ele>8.9</ele><time>2011-04-30T01:35:40.0000000+00:00</time></trkpt><trkpt lat="21.054174" lon="106.640579"><ele>12.9</ele><time>2011-04-30T01:36:40.0000000+00:00</time></trkpt><trkpt lat="21.054296" lon="106.642052"><ele>7.3</ele><time>2011-04-30T01:36:55.0000000+00:00</time></trkpt><trkpt lat="21.052717" lon="106.649971"><ele>8.6</ele><time>2011-04-30T01:38:00.0000000+00:00</time></trkpt><trkpt lat="21.052086" lon="106.655121"><ele>7.6</ele><time>2011-04-30T01:38:35.0000000+00:00</time></trkpt><trkpt lat="21.052013" lon="106.655899"><ele>7.6</ele><time>2011-04-30T01:38:40.0000000+00:00</time></trkpt><trkpt lat="21.05224" lon="106.660561"><ele>5.4</ele><time>2011-04-30T01:39:20.0000000+00:00</time></trkpt><trkpt lat="21.051325" lon="106.672508"><ele>9.3</ele><time>2011-04-30T01:40:45.0000000+00:00</time></trkpt><trkpt lat="21.050928" lon="106.673714"><ele>6.9</ele><time>2011-04-30T01:40:55.0000000+00:00</time></trkpt><trkpt lat="21.048664" lon="106.677773"><ele>8.8</ele><time>2011-04-30T01:41:40.0000000+00:00</time></trkpt><trkpt lat="21.048307" lon="106.67868"><ele>8.7</ele><time>2011-04-30T01:41:50.0000000+00:00</time></trkpt><trkpt lat="21.044434" lon="106.70565"><ele>8.8</ele><time>2011-04-30T01:45:25.0000000+00:00</time></trkpt><trkpt lat="21.04236" lon="106.714035"><ele>9.5</ele><time>2011-04-30T01:46:30.0000000+00:00</time></trkpt><trkpt lat="21.040695" lon="106.722702"><ele>6.9</ele><time>2011-04-30T01:47:45.0000000+00:00</time></trkpt><trkpt lat="21.038363" lon="106.731293"><ele>10.5</ele><time>2011-04-30T01:49:10.0000000+00:00</time></trkpt><trkpt lat="21.037401" lon="106.735382"><ele>9.2</ele><time>2011-04-30T01:49:50.0000000+00:00</time></trkpt><trkpt lat="21.037092" lon="106.736382"><ele>8.4</ele><time>2011-04-30T01:50:00.0000000+00:00</time></trkpt><trkpt lat="21.036146" lon="106.737518"><ele>6.1</ele><time>2011-04-30T01:50:20.0000000+00:00</time></trkpt><trkpt lat="21.035614" lon="106.738426"><ele>7.6</ele><time>2011-04-30T01:50:35.0000000+00:00</time></trkpt><trkpt lat="21.035545" lon="106.738808"><ele>8.1</ele><time>2011-04-30T01:50:55.0000000+00:00</time></trkpt><trkpt lat="21.035261" lon="106.745369"><ele>7.8</ele><time>2011-04-30T01:52:10.0000000+00:00</time></trkpt><trkpt lat="21.034838" lon="106.748909"><ele>8.3</ele><time>2011-04-30T01:53:20.0000000+00:00</time></trkpt><trkpt lat="21.034409" lon="106.751152"><ele>7.1</ele><time>2011-04-30T01:53:55.0000000+00:00</time></trkpt><trkpt lat="21.034153" lon="106.755569"><ele>8.1</ele><time>2011-04-30T01:55:10.0000000+00:00</time></trkpt><trkpt lat="21.033342" lon="106.762131"><ele>13.6</ele><time>2011-04-30T01:56:10.0000000+00:00</time></trkpt><trkpt lat="21.033432" lon="106.763611"><ele>12.0</ele><time>2011-04-30T01:56:25.0000000+00:00</time></trkpt><trkpt lat="21.034512" lon="106.769073"><ele>13.9</ele><time>2011-04-30T01:58:00.0000000+00:00</time></trkpt><trkpt lat="21.034323" lon="106.771317"><ele>15.2</ele><time>2011-04-30T01:58:45.0000000+00:00</time></trkpt><trkpt lat="21.034271" lon="106.774826"><ele>13.3</ele><time>2011-04-30T01:59:40.0000000+00:00</time></trkpt><trkpt lat="21.033901" lon="106.776421"><ele>11.0</ele><time>2011-04-30T02:00:05.0000000+00:00</time></trkpt><trkpt lat="21.03381" lon="106.777977"><ele>14.0</ele><time>2011-04-30T02:00:25.0000000+00:00</time></trkpt><trkpt lat="21.036022" lon="106.782646"><ele>15.0</ele><time>2011-04-30T02:01:40.0000000+00:00</time></trkpt><trkpt lat="21.036125" lon="106.783043"><ele>14.3</ele><time>2011-04-30T02:01:45.0000000+00:00</time></trkpt><trkpt lat="21.035934" lon="106.784019"><ele>8.6</ele><time>2011-04-30T02:01:55.0000000+00:00</time></trkpt><trkpt lat="21.034962" lon="106.785896"><ele>16.0</ele><time>2011-04-30T02:02:20.0000000+00:00</time></trkpt><trkpt lat="21.034601" lon="106.787468"><ele>27.2</ele><time>2011-04-30T02:02:45.0000000+00:00</time></trkpt><trkpt lat="21.033966" lon="106.788261"><ele>17.7</ele><time>2011-04-30T02:02:55.0000000+00:00</time></trkpt><trkpt lat="21.032106" lon="106.78997"><ele>12.6</ele><time>2011-04-30T02:03:25.0000000+00:00</time></trkpt><trkpt lat="21.031397" lon="106.793259"><ele>13.0</ele><time>2011-04-30T02:04:20.0000000+00:00</time></trkpt><trkpt lat="21.030939" lon="106.79454"><ele>13.9</ele><time>2011-04-30T02:04:35.0000000+00:00</time></trkpt><trkpt lat="21.028126" lon="106.800377"><ele>9.2</ele><time>2011-04-30T02:05:50.0000000+00:00</time></trkpt><trkpt lat="21.023647" lon="106.809074"><ele>12.5</ele><time>2011-04-30T02:08:00.0000000+00:00</time></trkpt><trkpt lat="21.020081" lon="106.813385"><ele>12.5</ele><time>2011-04-30T02:09:10.0000000+00:00</time></trkpt><trkpt lat="21.018015" lon="106.817482"><ele>10.4</ele><time>2011-04-30T02:09:45.0000000+00:00</time></trkpt><trkpt lat="21.016113" lon="106.822227"><ele>12.4</ele><time>2011-04-30T02:10:30.0000000+00:00</time></trkpt><trkpt lat="21.014503" lon="106.828064"><ele>11.8</ele><time>2011-04-30T02:11:25.0000000+00:00</time></trkpt><trkpt lat="21.014124" lon="106.828987"><ele>12.2</ele><time>2011-04-30T02:11:45.0000000+00:00</time></trkpt><trkpt lat="21.012213" lon="106.831062"><ele>10.5</ele><time>2011-04-30T02:12:20.0000000+00:00</time></trkpt><trkpt lat="21.011242" lon="106.833801"><ele>10.8</ele><time>2011-04-30T02:12:40.0000000+00:00</time></trkpt><trkpt lat="21.010435" lon="106.83461"><ele>11.1</ele><time>2011-04-30T02:12:50.0000000+00:00</time></trkpt><trkpt lat="21.008232" lon="106.836052"><ele>8.2</ele><time>2011-04-30T02:13:15.0000000+00:00</time></trkpt><trkpt lat="21.007898" lon="106.836487"><ele>8.9</ele><time>2011-04-30T02:13:20.0000000+00:00</time></trkpt><trkpt lat="21.006599" lon="106.840424"><ele>6.9</ele><time>2011-04-30T02:14:00.0000000+00:00</time></trkpt><trkpt lat="21.00565" lon="106.845459"><ele>11.5</ele><time>2011-04-30T02:14:55.0000000+00:00</time></trkpt><trkpt lat="21.004501" lon="106.85038"><ele>11.9</ele><time>2011-04-30T02:16:00.0000000+00:00</time></trkpt><trkpt lat="21.003933" lon="106.853874"><ele>11.2</ele><time>2011-04-30T02:18:40.0000000+00:00</time></trkpt><trkpt lat="21.00581" lon="106.857018"><ele>12.9</ele><time>2011-04-30T02:19:25.0000000+00:00</time></trkpt><trkpt lat="21.009983" lon="106.863113"><ele>17.6</ele><time>2011-04-30T02:20:45.0000000+00:00</time></trkpt><trkpt lat="21.010616" lon="106.864479"><ele>21.8</ele><time>2011-04-30T02:21:00.0000000+00:00</time></trkpt><trkpt lat="21.010857" lon="106.865562"><ele>18.6</ele><time>2011-04-30T02:21:10.0000000+00:00</time></trkpt><trkpt lat="21.009296" lon="106.873199"><ele>15.3</ele><time>2011-04-30T02:22:10.0000000+00:00</time></trkpt><trkpt lat="21.007702" lon="106.877426"><ele>16.0</ele><time>2011-04-30T02:22:40.0000000+00:00</time></trkpt><trkpt lat="21.006474" lon="106.879044"><ele>15.0</ele><time>2011-04-30T02:22:55.0000000+00:00</time></trkpt><trkpt lat="21.005739" lon="106.88028"><ele>15.8</ele><time>2011-04-30T02:23:05.0000000+00:00</time></trkpt><trkpt lat="21.004929" lon="106.882706"><ele>15.8</ele><time>2011-04-30T02:23:25.0000000+00:00</time></trkpt><trkpt lat="21.004347" lon="106.883705"><ele>10.1</ele><time>2011-04-30T02:23:35.0000000+00:00</time></trkpt><trkpt lat="21.002542" lon="106.884949"><ele>10.6</ele><time>2011-04-30T02:23:50.0000000+00:00</time></trkpt><trkpt lat="21.001329" lon="106.885567"><ele>8.7</ele><time>2011-04-30T02:24:10.0000000+00:00</time></trkpt><trkpt lat="21.000134" lon="106.885857"><ele>9.2</ele><time>2011-04-30T02:24:40.0000000+00:00</time></trkpt><trkpt lat="20.999781" lon="106.8862"><ele>9.4</ele><time>2011-04-30T02:24:45.0000000+00:00</time></trkpt><trkpt lat="20.994526" lon="106.893593"><ele>4.3</ele><time>2011-04-30T02:26:00.0000000+00:00</time></trkpt><trkpt lat="20.992617" lon="106.896042"><ele>7.3</ele><time>2011-04-30T02:26:25.0000000+00:00</time></trkpt><trkpt lat="20.990404" lon="106.898338"><ele>9.8</ele><time>2011-04-30T02:26:50.0000000+00:00</time></trkpt><trkpt lat="20.988207" lon="106.901871"><ele>10.2</ele><time>2011-04-30T02:27:20.0000000+00:00</time></trkpt><trkpt lat="20.985029" lon="106.904961"><ele>12.9</ele><time>2011-04-30T02:28:05.0000000+00:00</time></trkpt><trkpt lat="20.984232" lon="106.906456"><ele>13.3</ele><time>2011-04-30T02:28:25.0000000+00:00</time></trkpt><trkpt lat="20.983891" lon="106.907928"><ele>10.8</ele><time>2011-04-30T02:28:40.0000000+00:00</time></trkpt><trkpt lat="20.983812" lon="106.90947"><ele>10.3</ele><time>2011-04-30T02:28:55.0000000+00:00</time></trkpt><trkpt lat="20.984106" lon="106.912521"><ele>8.7</ele><time>2011-04-30T02:29:15.0000000+00:00</time></trkpt><trkpt lat="20.984034" lon="106.913994"><ele>10.9</ele><time>2011-04-30T02:29:25.0000000+00:00</time></trkpt><trkpt lat="20.983662" lon="106.915283"><ele>11.8</ele><time>2011-04-30T02:29:35.0000000+00:00</time></trkpt><trkpt lat="20.983011" lon="106.916496"><ele>11.9</ele><time>2011-04-30T02:29:45.0000000+00:00</time></trkpt><trkpt lat="20.980356" lon="106.919716"><ele>13.5</ele><time>2011-04-30T02:30:20.0000000+00:00</time></trkpt><trkpt lat="20.97821" lon="106.923706"><ele>16.3</ele><time>2011-04-30T02:31:10.0000000+00:00</time></trkpt><trkpt lat="20.977331" lon="106.925064"><ele>17.5</ele><time>2011-04-30T02:31:25.0000000+00:00</time></trkpt><trkpt lat="20.973444" lon="106.928551"><ele>10.9</ele><time>2011-04-30T02:32:15.0000000+00:00</time></trkpt><trkpt lat="20.96557" lon="106.938736"><ele>13.0</ele><time>2011-04-30T02:34:20.0000000+00:00</time></trkpt><trkpt lat="20.964521" lon="106.940315"><ele>9.5</ele><time>2011-04-30T02:35:55.0000000+00:00</time></trkpt><trkpt lat="20.963707" lon="106.94281"><ele>8.7</ele><time>2011-04-30T02:36:50.0000000+00:00</time></trkpt><trkpt lat="20.963058" lon="106.943817"><ele>7.5</ele><time>2011-04-30T02:37:00.0000000+00:00</time></trkpt><trkpt lat="20.961123" lon="106.945831"><ele>7.5</ele><time>2011-04-30T02:37:30.0000000+00:00</time></trkpt><trkpt lat="20.959484" lon="106.9468"><ele>7.1</ele><time>2011-04-30T02:37:50.0000000+00:00</time></trkpt><trkpt lat="20.958481" lon="106.94767"><ele>6.6</ele><time>2011-04-30T02:38:05.0000000+00:00</time></trkpt><trkpt lat="20.957912" lon="106.948891"><ele>7.3</ele><time>2011-04-30T02:38:20.0000000+00:00</time></trkpt><trkpt lat="20.957712" lon="106.952332"><ele>8.3</ele><time>2011-04-30T02:38:55.0000000+00:00</time></trkpt><trkpt lat="20.956343" lon="106.959076"><ele>10.8</ele><time>2011-04-30T02:39:50.0000000+00:00</time></trkpt><trkpt lat="20.956324" lon="106.959763"><ele>8.9</ele><time>2011-04-30T02:39:55.0000000+00:00</time></trkpt><trkpt lat="20.956892" lon="106.96257"><ele>6.0</ele><time>2011-04-30T02:40:20.0000000+00:00</time></trkpt><trkpt lat="20.95685" lon="106.963753"><ele>8.5</ele><time>2011-04-30T02:40:30.0000000+00:00</time></trkpt><trkpt lat="20.954844" lon="106.971481"><ele>11.0</ele><time>2011-04-30T02:41:30.0000000+00:00</time></trkpt><trkpt lat="20.955397" lon="106.977844"><ele>6.2</ele><time>2011-04-30T02:42:20.0000000+00:00</time></trkpt><trkpt lat="20.954908" lon="106.981613"><ele>6.5</ele><time>2011-04-30T02:43:05.0000000+00:00</time></trkpt><trkpt lat="20.956097" lon="106.983604"><ele>6.8</ele><time>2011-04-30T02:43:30.0000000+00:00</time></trkpt><trkpt lat="20.958555" lon="106.98642"><ele>4.1</ele><time>2011-04-30T02:44:05.0000000+00:00</time></trkpt><trkpt lat="20.960337" lon="106.989059"><ele>3.7</ele><time>2011-04-30T02:44:40.0000000+00:00</time></trkpt><trkpt lat="20.961149" lon="106.989975"><ele>3.2</ele><time>2011-04-30T02:44:50.0000000+00:00</time></trkpt><trkpt lat="20.962368" lon="106.990936"><ele>3.0</ele><time>2011-04-30T02:45:00.0000000+00:00</time></trkpt><trkpt lat="20.966055" lon="106.992409"><ele>6.6</ele><time>2011-04-30T02:45:25.0000000+00:00</time></trkpt><trkpt lat="20.966677" lon="106.992851"><ele>5.5</ele><time>2011-04-30T02:45:30.0000000+00:00</time></trkpt><trkpt lat="20.967173" lon="106.993477"><ele>6.7</ele><time>2011-04-30T02:45:35.0000000+00:00</time></trkpt><trkpt lat="20.967905" lon="106.994919"><ele>5.9</ele><time>2011-04-30T02:45:45.0000000+00:00</time></trkpt><trkpt lat="20.968449" lon="106.995468"><ele>6.4</ele><time>2011-04-30T02:45:50.0000000+00:00</time></trkpt><trkpt lat="20.970535" lon="106.995865"><ele>5.5</ele><time>2011-04-30T02:46:05.0000000+00:00</time></trkpt><trkpt lat="20.971033" lon="106.99633"><ele>4.5</ele><time>2011-04-30T02:46:10.0000000+00:00</time></trkpt><trkpt lat="20.971369" lon="106.997658"><ele>5.0</ele><time>2011-04-30T02:46:20.0000000+00:00</time></trkpt><trkpt lat="20.97226" lon="107.007027"><ele>6.8</ele><time>2011-04-30T02:47:15.0000000+00:00</time></trkpt><trkpt lat="20.972044" lon="107.008797"><ele>5.3</ele><time>2011-04-30T02:47:25.0000000+00:00</time></trkpt><trkpt lat="20.971556" lon="107.01107"><ele>5.7</ele><time>2011-04-30T02:47:40.0000000+00:00</time></trkpt><trkpt lat="20.971523" lon="107.012375"><ele>5.6</ele><time>2011-04-30T02:47:50.0000000+00:00</time></trkpt><trkpt lat="20.972267" lon="107.014442"><ele>5.0</ele><time>2011-04-30T02:48:20.0000000+00:00</time></trkpt><trkpt lat="20.975739" lon="107.022057"><ele>6.9</ele><time>2011-04-30T02:51:00.0000000+00:00</time></trkpt><trkpt lat="20.976206" lon="107.023453"><ele>7.8</ele><time>2011-04-30T02:51:25.0000000+00:00</time></trkpt><trkpt lat="20.976044" lon="107.024612"><ele>9.2</ele><time>2011-04-30T02:51:35.0000000+00:00</time></trkpt><trkpt lat="20.97514" lon="107.026947"><ele>7.9</ele><time>2011-04-30T02:51:55.0000000+00:00</time></trkpt><trkpt lat="20.97312" lon="107.02874"><ele>6.7</ele><time>2011-04-30T02:52:15.0000000+00:00</time></trkpt><trkpt lat="20.971302" lon="107.031151"><ele>5.8</ele><time>2011-04-30T02:52:35.0000000+00:00</time></trkpt><trkpt lat="20.970556" lon="107.032555"><ele>10.8</ele><time>2011-04-30T02:52:45.0000000+00:00</time></trkpt><trkpt lat="20.970453" lon="107.03331"><ele>14.0</ele><time>2011-04-30T02:52:50.0000000+00:00</time></trkpt><trkpt lat="20.970623" lon="107.034622"><ele>14.2</ele><time>2011-04-30T02:53:00.0000000+00:00</time></trkpt><trkpt lat="20.97048" lon="107.037521"><ele>3.9</ele><time>2011-04-30T02:53:20.0000000+00:00</time></trkpt><trkpt lat="20.971245" lon="107.046059"><ele>5.6</ele><time>2011-04-30T02:54:20.0000000+00:00</time></trkpt><trkpt lat="20.970774" lon="107.048187"><ele>8.3</ele><time>2011-04-30T02:55:10.0000000+00:00</time></trkpt><trkpt lat="20.970398" lon="107.049164"><ele>7.2</ele><time>2011-04-30T02:55:20.0000000+00:00</time></trkpt><trkpt lat="20.969601" lon="107.050323"><ele>8.2</ele><time>2011-04-30T02:55:30.0000000+00:00</time></trkpt><trkpt lat="20.96771" lon="107.052124"><ele>11.7</ele><time>2011-04-30T02:55:45.0000000+00:00</time></trkpt><trkpt lat="20.963432" lon="107.058044"><ele>28.9</ele><time>2011-04-30T02:56:35.0000000+00:00</time></trkpt><trkpt lat="20.963182" lon="107.05822"><ele>32.9</ele><time>2011-04-30T03:04:20.0000000+00:00</time></trkpt><trkpt lat="20.963377" lon="107.058083"><ele>30.2</ele><time>2011-04-30T03:08:25.0000000+00:00</time></trkpt><trkpt lat="20.963346" lon="107.058479"><ele>29.5</ele><time>2011-04-30T03:09:05.0000000+00:00</time></trkpt><trkpt lat="20.963522" lon="107.058563"><ele>28.5</ele><time>2011-04-30T03:09:25.0000000+00:00</time></trkpt><trkpt lat="20.963562" lon="107.058792"><ele>27.5</ele><time>2011-04-30T03:09:40.0000000+00:00</time></trkpt><trkpt lat="20.962984" lon="107.059624"><ele>29.3</ele><time>2011-04-30T03:10:55.0000000+00:00</time></trkpt><trkpt lat="20.962969" lon="107.060501"><ele>30.7</ele><time>2011-04-30T03:12:00.0000000+00:00</time></trkpt><trkpt lat="20.962564" lon="107.060669"><ele>29.1</ele><time>2011-04-30T03:12:35.0000000+00:00</time></trkpt><trkpt lat="20.961689" lon="107.06057"><ele>37.2</ele><time>2011-04-30T03:13:40.0000000+00:00</time></trkpt><trkpt lat="20.961439" lon="107.060677"><ele>33.6</ele><time>2011-04-30T03:14:00.0000000+00:00</time></trkpt><trkpt lat="20.961029" lon="107.060226"><ele>25.9</ele><time>2011-04-30T03:16:20.0000000+00:00</time></trkpt><trkpt lat="20.960831" lon="107.060364"><ele>24.5</ele><time>2011-04-30T03:17:00.0000000+00:00</time></trkpt><trkpt lat="20.960918" lon="107.06076"><ele>22.9</ele><time>2011-04-30T03:17:25.0000000+00:00</time></trkpt><trkpt lat="20.960627" lon="107.061172"><ele>15.8</ele><time>2011-04-30T03:18:05.0000000+00:00</time></trkpt><trkpt lat="20.960573" lon="107.061562"><ele>13.6</ele><time>2011-04-30T03:18:30.0000000+00:00</time></trkpt><trkpt lat="20.960863" lon="107.062149"><ele>15.5</ele><time>2011-04-30T03:19:30.0000000+00:00</time></trkpt><trkpt lat="20.960926" lon="107.062904"><ele>8.3</ele><time>2011-04-30T03:20:20.0000000+00:00</time></trkpt><trkpt lat="20.961065" lon="107.06311"><ele>4.3</ele><time>2011-04-30T03:20:30.0000000+00:00</time></trkpt><trkpt lat="20.960903" lon="107.063423"><ele>2.7</ele><time>2011-04-30T03:20:50.0000000+00:00</time></trkpt><trkpt lat="20.960567" lon="107.063538"><ele>1.8</ele><time>2011-04-30T03:21:15.0000000+00:00</time></trkpt><trkpt lat="20.960163" lon="107.062706"><ele>2.8</ele><time>2011-04-30T03:22:30.0000000+00:00</time></trkpt><trkpt lat="20.959988" lon="107.061714"><ele>3.7</ele><time>2011-04-30T03:23:50.0000000+00:00</time></trkpt><trkpt lat="20.959707" lon="107.061691"><ele>1.4</ele><time>2011-04-30T03:24:20.0000000+00:00</time></trkpt><trkpt lat="20.958731" lon="107.059929"><ele>3.1</ele><time>2011-04-30T03:29:45.0000000+00:00</time></trkpt><trkpt lat="20.957874" lon="107.05912"><ele>0.0</ele><time>2011-04-30T03:32:15.0000000+00:00</time></trkpt><trkpt lat="20.957067" lon="107.057968"><ele>1.6</ele><time>2011-04-30T03:34:40.0000000+00:00</time></trkpt><trkpt lat="20.956646" lon="107.056808"><ele>1.6</ele><time>2011-04-30T03:36:45.0000000+00:00</time></trkpt><trkpt lat="20.956167" lon="107.054665"><ele>2.4</ele><time>2011-04-30T03:42:30.0000000+00:00</time></trkpt><trkpt lat="20.956154" lon="107.053146"><ele>2.0</ele><time>2011-04-30T03:44:45.0000000+00:00</time></trkpt><trkpt lat="20.956499" lon="107.050529"><ele>3.9</ele><time>2011-04-30T03:48:40.0000000+00:00</time></trkpt><trkpt lat="20.956318" lon="107.050064"><ele>6.1</ele><time>2011-04-30T03:51:55.0000000+00:00</time></trkpt><trkpt lat="20.956928" lon="107.049995"><ele>5.5</ele><time>2011-04-30T03:53:35.0000000+00:00</time></trkpt><trkpt lat="20.957153" lon="107.050232"><ele>12.7</ele><time>2011-04-30T03:54:10.0000000+00:00</time></trkpt><trkpt lat="20.957081" lon="107.050453"><ele>16.2</ele><time>2011-04-30T03:54:45.0000000+00:00</time></trkpt><trkpt lat="20.957352" lon="107.050583"><ele>13.9</ele><time>2011-04-30T03:56:45.0000000+00:00</time></trkpt><trkpt lat="20.95756" lon="107.050499"><ele>10.8</ele><time>2011-04-30T03:58:00.0000000+00:00</time></trkpt><trkpt lat="20.95731" lon="107.050468"><ele>13.0</ele><time>2011-04-30T03:59:05.0000000+00:00</time></trkpt><trkpt lat="20.957397" lon="107.050804"><ele>15.3</ele><time>2011-04-30T03:59:47.0000000+00:00</time></trkpt><trkpt lat="20.957319" lon="107.0504"><ele>12.0</ele><time>2011-04-30T04:00:39.0000000+00:00</time></trkpt><trkpt lat="20.957396" lon="107.050339"><ele>10.4</ele><time>2011-04-30T04:01:04.0000000+00:00</time></trkpt><trkpt lat="20.957363" lon="107.050522"><ele>12.9</ele><time>2011-04-30T04:01:54.0000000+00:00</time></trkpt><trkpt lat="20.957546" lon="107.050652"><ele>11.8</ele><time>2011-04-30T04:02:34.0000000+00:00</time></trkpt><trkpt lat="20.957584" lon="107.050323"><ele>9.9</ele><time>2011-04-30T04:03:04.0000000+00:00</time></trkpt><trkpt lat="20.957376" lon="107.050537"><ele>13.0</ele><time>2011-04-30T04:04:19.0000000+00:00</time></trkpt><trkpt lat="20.957066" lon="107.050568"><ele>16.1</ele><time>2011-04-30T04:05:09.0000000+00:00</time></trkpt><trkpt lat="20.957399" lon="107.050285"><ele>10.5</ele><time>2011-04-30T04:05:47.0000000+00:00</time></trkpt><trkpt lat="20.957502" lon="107.05043"><ele>10.8</ele><time>2011-04-30T04:08:22.0000000+00:00</time></trkpt><trkpt lat="20.957401" lon="107.050453"><ele>11.7</ele><time>2011-04-30T04:08:52.0000000+00:00</time></trkpt><trkpt lat="20.957436" lon="107.050255"><ele>11.1</ele><time>2011-04-30T04:09:42.0000000+00:00</time></trkpt><trkpt lat="20.957367" lon="107.050461"><ele>12.1</ele><time>2011-04-30T04:10:12.0000000+00:00</time></trkpt><trkpt lat="20.957489" lon="107.050255"><ele>11.3</ele><time>2011-04-30T04:10:57.0000000+00:00</time></trkpt><trkpt lat="20.95738" lon="107.050171"><ele>11.9</ele><time>2011-04-30T04:11:17.0000000+00:00</time></trkpt><trkpt lat="20.957554" lon="107.050453"><ele>10.6</ele><time>2011-04-30T04:12:42.0000000+00:00</time></trkpt><trkpt lat="20.957476" lon="107.050186"><ele>12.6</ele><time>2011-04-30T04:13:42.0000000+00:00</time></trkpt><trkpt lat="20.957384" lon="107.050186"><ele>11.7</ele><time>2011-04-30T04:14:02.0000000+00:00</time></trkpt><trkpt lat="20.957462" lon="107.050346"><ele>10.3</ele><time>2011-04-30T04:15:47.0000000+00:00</time></trkpt><trkpt lat="20.957355" lon="107.05043"><ele>11.8</ele><time>2011-04-30T04:16:12.0000000+00:00</time></trkpt><trkpt lat="20.957335" lon="107.050308"><ele>10.8</ele><time>2011-04-30T04:16:52.0000000+00:00</time></trkpt><trkpt lat="20.957365" lon="107.050407"><ele>11.4</ele><time>2011-04-30T04:17:02.0000000+00:00</time></trkpt><trkpt lat="20.957499" lon="107.050285"><ele>10.7</ele><time>2011-04-30T04:17:27.0000000+00:00</time></trkpt><trkpt lat="20.957163" lon="107.050529"><ele>15.5</ele><time>2011-04-30T04:19:01.0000000+00:00</time></trkpt><trkpt lat="20.957405" lon="107.050323"><ele>10.2</ele><time>2011-04-30T04:23:21.0000000+00:00</time></trkpt><trkpt lat="20.957285" lon="107.050575"><ele>14.5</ele><time>2011-04-30T04:24:56.0000000+00:00</time></trkpt><trkpt lat="20.957417" lon="107.050346"><ele>10.4</ele><time>2011-04-30T04:26:46.0000000+00:00</time></trkpt><trkpt lat="20.957191" lon="107.050148"><ele>11.2</ele><time>2011-04-30T04:28:21.0000000+00:00</time></trkpt><trkpt lat="20.956964" lon="107.050232"><ele>10.9</ele><time>2011-04-30T04:29:16.0000000+00:00</time></trkpt><trkpt lat="20.957117" lon="107.050018"><ele>7.5</ele><time>2011-04-30T04:29:51.0000000+00:00</time></trkpt><trkpt lat="20.957109" lon="107.050316"><ele>15.4</ele><time>2011-04-30T04:30:19.0000000+00:00</time></trkpt><trkpt lat="20.957088" lon="107.049858"><ele>5.3</ele><time>2011-04-30T04:31:19.0000000+00:00</time></trkpt><trkpt lat="20.956722" lon="107.050003"><ele>5.5</ele><time>2011-04-30T04:34:06.0000000+00:00</time></trkpt><trkpt lat="20.956713" lon="107.050407"><ele>6.7</ele><time>2011-04-30T04:34:41.0000000+00:00</time></trkpt><trkpt lat="20.957964" lon="107.049736"><ele>27.8</ele><time>2011-04-30T04:49:36.0000000+00:00</time></trkpt><trkpt lat="20.957367" lon="107.050323"><ele>10.2</ele><time>2011-04-30T05:01:29.0000000+00:00</time></trkpt><trkpt lat="20.957443" lon="107.050873"><ele>14.8</ele><time>2011-04-30T05:02:14.0000000+00:00</time></trkpt><trkpt lat="20.957506" lon="107.04953"><ele>16.4</ele><time>2011-04-30T05:02:34.0000000+00:00</time></trkpt><trkpt lat="20.957613" lon="107.049583"><ele>18.6</ele><time>2011-04-30T05:02:44.0000000+00:00</time></trkpt><trkpt lat="20.95726" lon="107.050423"><ele>13.3</ele><time>2011-04-30T05:02:59.0000000+00:00</time></trkpt><trkpt lat="20.957308" lon="107.050186"><ele>11.6</ele><time>2011-04-30T05:03:09.0000000+00:00</time></trkpt><trkpt lat="20.958218" lon="107.0476"><ele>20.6</ele><time>2011-04-30T05:03:34.0000000+00:00</time></trkpt><trkpt lat="20.959093" lon="107.044304"><ele>92.5</ele><time>2011-04-30T05:03:54.0000000+00:00</time></trkpt><trkpt lat="20.957142" lon="107.050056"><ele>8.9</ele><time>2011-04-30T05:05:15.0000000+00:00</time></trkpt><trkpt lat="20.956718" lon="107.04995"><ele>5.2</ele><time>2011-04-30T05:06:20.0000000+00:00</time></trkpt><trkpt lat="20.956282" lon="107.050262"><ele>5.4</ele><time>2011-04-30T05:07:20.0000000+00:00</time></trkpt><trkpt lat="20.956087" lon="107.050125"><ele>5.8</ele><time>2011-04-30T05:08:10.0000000+00:00</time></trkpt><trkpt lat="20.955942" lon="107.049698"><ele>4.4</ele><time>2011-04-30T05:09:15.0000000+00:00</time></trkpt><trkpt lat="20.9555" lon="107.049622"><ele>4.8</ele><time>2011-04-30T05:11:40.0000000+00:00</time></trkpt><trkpt lat="20.955366" lon="107.049225"><ele>4.8</ele><time>2011-04-30T05:12:50.0000000+00:00</time></trkpt><trkpt lat="20.954964" lon="107.049332"><ele>1.5</ele><time>2011-04-30T05:13:40.0000000+00:00</time></trkpt><trkpt lat="20.954859" lon="107.048798"><ele>1.0</ele><time>2011-04-30T05:14:40.0000000+00:00</time></trkpt><trkpt lat="20.954361" lon="107.047882"><ele>1.0</ele><time>2011-04-30T05:20:05.0000000+00:00</time></trkpt><trkpt lat="20.9526" lon="107.04879"><ele>0.0</ele><time>2011-04-30T05:23:00.0000000+00:00</time></trkpt><trkpt lat="20.954283" lon="107.047821"><ele>0.0</ele><time>2011-04-30T05:33:10.0000000+00:00</time></trkpt><trkpt lat="20.954227" lon="107.047676"><ele>1.3</ele><time>2011-04-30T05:34:15.0000000+00:00</time></trkpt><trkpt lat="20.954668" lon="107.047577"><ele>6.3</ele><time>2011-04-30T05:36:20.0000000+00:00</time></trkpt><trkpt lat="20.955263" lon="107.048714"><ele>4.9</ele><time>2011-04-30T05:39:15.0000000+00:00</time></trkpt><trkpt lat="20.955109" lon="107.048653"><ele>3.8</ele><time>2011-04-30T05:39:30.0000000+00:00</time></trkpt><trkpt lat="20.95509" lon="107.048775"><ele>3.5</ele><time>2011-04-30T05:39:40.0000000+00:00</time></trkpt><trkpt lat="20.955164" lon="107.048607"><ele>4.2</ele><time>2011-04-30T05:41:00.0000000+00:00</time></trkpt><trkpt lat="20.955076" lon="107.048813"><ele>3.2</ele><time>2011-04-30T05:41:40.0000000+00:00</time></trkpt><trkpt lat="20.95513" lon="107.048599"><ele>3.9</ele><time>2011-04-30T05:42:45.0000000+00:00</time></trkpt><trkpt lat="20.955133" lon="107.048874"><ele>3.9</ele><time>2011-04-30T05:44:30.0000000+00:00</time></trkpt><trkpt lat="20.955404" lon="107.048683"><ele>6.3</ele><time>2011-04-30T05:45:35.0000000+00:00</time></trkpt><trkpt lat="20.95616" lon="107.049545"><ele>4.9</ele><time>2011-04-30T05:46:25.0000000+00:00</time></trkpt><trkpt lat="20.9564" lon="107.050613"><ele>3.3</ele><time>2011-04-30T05:46:35.0000000+00:00</time></trkpt><trkpt lat="20.956177" lon="107.054649"><ele>2.5</ele><time>2011-04-30T05:47:00.0000000+00:00</time></trkpt><trkpt lat="20.956907" lon="107.057503"><ele>1.3</ele><time>2011-04-30T05:47:40.0000000+00:00</time></trkpt><trkpt lat="20.95681" lon="107.057976"><ele>0.0</ele><time>2011-04-30T05:51:55.0000000+00:00</time></trkpt><trkpt lat="20.956945" lon="107.057961"><ele>0.9</ele><time>2011-04-30T05:52:45.0000000+00:00</time></trkpt><trkpt lat="20.956823" lon="107.05777"><ele>0.2</ele><time>2011-04-30T05:53:25.0000000+00:00</time></trkpt><trkpt lat="20.956816" lon="107.05809"><ele>0.0</ele><time>2011-04-30T05:54:45.0000000+00:00</time></trkpt><trkpt lat="20.956944" lon="107.057976"><ele>0.8</ele><time>2011-04-30T05:55:05.0000000+00:00</time></trkpt><trkpt lat="20.956787" lon="107.057755"><ele>0.0</ele><time>2011-04-30T05:57:35.0000000+00:00</time></trkpt><trkpt lat="20.957005" lon="107.057976"><ele>1.2</ele><time>2011-04-30T06:00:00.0000000+00:00</time></trkpt><trkpt lat="20.956898" lon="107.057892"><ele>0.7</ele><time>2011-04-30T06:00:25.0000000+00:00</time></trkpt><trkpt lat="20.957045" lon="107.0578"><ele>2.1</ele><time>2011-04-30T06:01:10.0000000+00:00</time></trkpt><trkpt lat="20.956909" lon="107.057915"><ele>0.8</ele><time>2011-04-30T06:01:30.0000000+00:00</time></trkpt><trkpt lat="20.956781" lon="107.057724"><ele>0.0</ele><time>2011-04-30T06:02:15.0000000+00:00</time></trkpt><trkpt lat="20.956886" lon="107.057991"><ele>0.5</ele><time>2011-04-30T06:03:10.0000000+00:00</time></trkpt><trkpt lat="20.956972" lon="107.057892"><ele>1.3</ele><time>2011-04-30T06:03:15.0000000+00:00</time></trkpt><trkpt lat="20.956602" lon="107.057953"><ele>0.0</ele><time>2011-04-30T06:03:35.0000000+00:00</time></trkpt><trkpt lat="20.956656" lon="107.058121"><ele>0.0</ele><time>2011-04-30T06:03:45.0000000+00:00</time></trkpt><trkpt lat="20.956858" lon="107.058067"><ele>0.2</ele><time>2011-04-30T06:04:20.0000000+00:00</time></trkpt><trkpt lat="20.956745" lon="107.057678"><ele>0.0</ele><time>2011-04-30T06:04:45.0000000+00:00</time></trkpt><trkpt lat="20.956732" lon="107.058121"><ele>0.0</ele><time>2011-04-30T06:07:00.0000000+00:00</time></trkpt><trkpt lat="20.956678" lon="107.057945"><ele>0.0</ele><time>2011-04-30T06:07:30.0000000+00:00</time></trkpt><trkpt lat="20.956345" lon="107.057968"><ele>0.0</ele><time>2011-04-30T06:08:25.0000000+00:00</time></trkpt><trkpt lat="20.955719" lon="107.057098"><ele>0.0</ele><time>2011-04-30T06:09:25.0000000+00:00</time></trkpt><trkpt lat="20.954624" lon="107.056412"><ele>0.0</ele><time>2011-04-30T06:10:30.0000000+00:00</time></trkpt><trkpt lat="20.952066" lon="107.05407"><ele>0.0</ele><time>2011-04-30T06:13:15.0000000+00:00</time></trkpt><trkpt lat="20.948563" lon="107.051231"><ele>0.0</ele><time>2011-04-30T06:16:50.0000000+00:00</time></trkpt><trkpt lat="20.947151" lon="107.049736"><ele>0.0</ele><time>2011-04-30T06:18:25.0000000+00:00</time></trkpt><trkpt lat="20.941889" lon="107.045021"><ele>0.0</ele><time>2011-04-30T06:24:00.0000000+00:00</time></trkpt><trkpt lat="20.937986" lon="107.042084"><ele>0.0</ele><time>2011-04-30T06:27:55.0000000+00:00</time></trkpt><trkpt lat="20.933073" lon="107.037834"><ele>0.0</ele><time>2011-04-30T06:33:10.0000000+00:00</time></trkpt><trkpt lat="20.931473" lon="107.037071"><ele>0.0</ele><time>2011-04-30T06:34:35.0000000+00:00</time></trkpt><trkpt lat="20.927387" lon="107.03334"><ele>0.0</ele><time>2011-04-30T06:39:00.0000000+00:00</time></trkpt><trkpt lat="20.923904" lon="107.030609"><ele>0.0</ele><time>2011-04-30T06:42:45.0000000+00:00</time></trkpt><trkpt lat="20.917595" lon="107.023651"><ele>0.0</ele><time>2011-04-30T06:50:25.0000000+00:00</time></trkpt><trkpt lat="20.915974" lon="107.022293"><ele>0.0</ele><time>2011-04-30T06:52:05.0000000+00:00</time></trkpt><trkpt lat="20.91497" lon="107.02076"><ele>0.0</ele><time>2011-04-30T06:53:25.0000000+00:00</time></trkpt><trkpt lat="20.914106" lon="107.019989"><ele>0.0</ele><time>2011-04-30T06:54:20.0000000+00:00</time></trkpt><trkpt lat="20.912678" lon="107.017929"><ele>0.0</ele><time>2011-04-30T06:57:10.0000000+00:00</time></trkpt><trkpt lat="20.912609" lon="107.017464"><ele>18.6</ele><time>2011-04-30T06:59:55.0000000+00:00</time></trkpt><trkpt lat="20.912775" lon="107.017456"><ele>12.5</ele><time>2011-04-30T07:01:40.0000000+00:00</time></trkpt><trkpt lat="20.912752" lon="107.017319"><ele>20.4</ele><time>2011-04-30T07:02:50.0000000+00:00</time></trkpt><trkpt lat="20.912518" lon="107.017174"><ele>38.5</ele><time>2011-04-30T07:04:55.0000000+00:00</time></trkpt><trkpt lat="20.911943" lon="107.017647"><ele>22.0</ele><time>2011-04-30T07:33:40.0000000+00:00</time></trkpt><trkpt lat="20.912037" lon="107.017624"><ele>22.6</ele><time>2011-04-30T07:33:50.0000000+00:00</time></trkpt><trkpt lat="20.911905" lon="107.017525"><ele>29.7</ele><time>2011-04-30T07:33:55.0000000+00:00</time></trkpt><trkpt lat="20.911642" lon="107.018379"><ele>10.1</ele><time>2011-04-30T07:36:50.0000000+00:00</time></trkpt><trkpt lat="20.911055" lon="107.018478"><ele>29.2</ele><time>2011-04-30T07:38:00.0000000+00:00</time></trkpt><trkpt lat="20.910995" lon="107.018867"><ele>17.2</ele><time>2011-04-30T07:39:10.0000000+00:00</time></trkpt><trkpt lat="20.91111" lon="107.018921"><ele>11.2</ele><time>2011-04-30T07:39:20.0000000+00:00</time></trkpt><trkpt lat="20.911188" lon="107.018723"><ele>14.3</ele><time>2011-04-30T07:39:40.0000000+00:00</time></trkpt><trkpt lat="20.911427" lon="107.018646"><ele>9.4</ele><time>2011-04-30T07:41:00.0000000+00:00</time></trkpt><trkpt lat="20.911505" lon="107.019119"><ele>0.8</ele><time>2011-04-30T07:43:20.0000000+00:00</time></trkpt><trkpt lat="20.911497" lon="107.01889"><ele>3.2</ele><time>2011-04-30T07:45:15.0000000+00:00</time></trkpt><trkpt lat="20.913424" lon="107.019348"><ele>0.0</ele><time>2011-04-30T07:48:15.0000000+00:00</time></trkpt><trkpt lat="20.914265" lon="107.019203"><ele>0.0</ele><time>2011-04-30T07:48:55.0000000+00:00</time></trkpt><trkpt lat="20.914558" lon="107.01899"><ele>0.0</ele><time>2011-04-30T07:49:10.0000000+00:00</time></trkpt><trkpt lat="20.915033" lon="107.018356"><ele>0.0</ele><time>2011-04-30T07:49:50.0000000+00:00</time></trkpt><trkpt lat="20.915073" lon="107.017303"><ele>0.0</ele><time>2011-04-30T07:50:40.0000000+00:00</time></trkpt><trkpt lat="20.914707" lon="107.016586"><ele>0.1</ele><time>2011-04-30T07:51:20.0000000+00:00</time></trkpt><trkpt lat="20.914053" lon="107.01609"><ele>1.6</ele><time>2011-04-30T07:52:00.0000000+00:00</time></trkpt><trkpt lat="20.908627" lon="107.013725"><ele>0.5</ele><time>2011-04-30T07:56:20.0000000+00:00</time></trkpt><trkpt lat="20.905678" lon="107.01413"><ele>1.5</ele><time>2011-04-30T07:58:25.0000000+00:00</time></trkpt><trkpt lat="20.904091" lon="107.015083"><ele>0.0</ele><time>2011-04-30T07:59:45.0000000+00:00</time></trkpt><trkpt lat="20.902843" lon="107.016426"><ele>0.0</ele><time>2011-04-30T08:11:50.0000000+00:00</time></trkpt><trkpt lat="20.90258" lon="107.016548"><ele>0.0</ele><time>2011-04-30T08:12:05.0000000+00:00</time></trkpt><trkpt lat="20.899847" lon="107.016823"><ele>0.0</ele><time>2011-04-30T08:13:55.0000000+00:00</time></trkpt><trkpt lat="20.897749" lon="107.016754"><ele>0.0</ele><time>2011-04-30T08:15:15.0000000+00:00</time></trkpt><trkpt lat="20.896599" lon="107.016945"><ele>1.0</ele><time>2011-04-30T08:16:00.0000000+00:00</time></trkpt><trkpt lat="20.895555" lon="107.017342"><ele>0.0</ele><time>2011-04-30T08:16:40.0000000+00:00</time></trkpt><trkpt lat="20.894417" lon="107.018311"><ele>0.0</ele><time>2011-04-30T08:17:35.0000000+00:00</time></trkpt><trkpt lat="20.893175" lon="107.020638"><ele>0.0</ele><time>2011-04-30T08:19:10.0000000+00:00</time></trkpt><trkpt lat="20.893272" lon="107.021194"><ele>0.0</ele><time>2011-04-30T08:19:35.0000000+00:00</time></trkpt><trkpt lat="20.893652" lon="107.021667"><ele>0.0</ele><time>2011-04-30T08:20:00.0000000+00:00</time></trkpt><trkpt lat="20.895306" lon="107.022942"><ele>0.0</ele><time>2011-04-30T08:21:25.0000000+00:00</time></trkpt><trkpt lat="20.903173" lon="107.026588"><ele>0.0</ele><time>2011-04-30T08:27:15.0000000+00:00</time></trkpt><trkpt lat="20.912415" lon="107.031471"><ele>0.0</ele><time>2011-04-30T08:34:30.0000000+00:00</time></trkpt><trkpt lat="20.915354" lon="107.033272"><ele>0.0</ele><time>2011-04-30T08:36:55.0000000+00:00</time></trkpt><trkpt lat="20.916182" lon="107.033989"><ele>0.0</ele><time>2011-04-30T08:37:40.0000000+00:00</time></trkpt><trkpt lat="20.920799" lon="107.036949"><ele>0.0</ele><time>2011-04-30T08:41:25.0000000+00:00</time></trkpt><trkpt lat="20.925125" lon="107.039955"><ele>0.0</ele><time>2011-04-30T08:44:55.0000000+00:00</time></trkpt><trkpt lat="20.926807" lon="107.040817"><ele>0.0</ele><time>2011-04-30T08:46:10.0000000+00:00</time></trkpt><trkpt lat="20.933054" lon="107.044655"><ele>0.0</ele><time>2011-04-30T08:51:05.0000000+00:00</time></trkpt><trkpt lat="20.945848" lon="107.051247"><ele>0.0</ele><time>2011-04-30T09:00:45.0000000+00:00</time></trkpt><trkpt lat="20.951675" lon="107.053749"><ele>0.0</ele><time>2011-04-30T09:05:00.0000000+00:00</time></trkpt><trkpt lat="20.954012" lon="107.05452"><ele>0.0</ele><time>2011-04-30T09:06:55.0000000+00:00</time></trkpt><trkpt lat="20.955257" lon="107.056015"><ele>0.0</ele><time>2011-04-30T09:08:45.0000000+00:00</time></trkpt><trkpt lat="20.95558" lon="107.056015"><ele>0.0</ele><time>2011-04-30T09:09:10.0000000+00:00</time></trkpt><trkpt lat="20.956341" lon="107.055542"><ele>1.2</ele><time>2011-04-30T09:12:00.0000000+00:00</time></trkpt><trkpt lat="20.956656" lon="107.056931"><ele>1.3</ele><time>2011-04-30T09:22:05.0000000+00:00</time></trkpt><trkpt lat="20.9568" lon="107.056557"><ele>4.0</ele><time>2011-04-30T09:24:05.0000000+00:00</time></trkpt><trkpt lat="20.956591" lon="107.056534"><ele>0.9</ele><time>2011-04-30T09:25:25.0000000+00:00</time></trkpt><trkpt lat="20.956068" lon="107.054428"><ele>1.2</ele><time>2011-04-30T09:31:05.0000000+00:00</time></trkpt><trkpt lat="20.956442" lon="107.050537"><ele>3.8</ele><time>2011-04-30T09:37:15.0000000+00:00</time></trkpt><trkpt lat="20.956303" lon="107.050293"><ele>5.2</ele><time>2011-04-30T09:38:30.0000000+00:00</time></trkpt><trkpt lat="20.9564" lon="107.050285"><ele>4.9</ele><time>2011-04-30T09:42:45.0000000+00:00</time></trkpt><trkpt lat="20.95611" lon="107.050087"><ele>6.0</ele><time>2011-04-30T09:45:10.0000000+00:00</time></trkpt><trkpt lat="20.955969" lon="107.049759"><ele>4.8</ele><time>2011-04-30T09:46:45.0000000+00:00</time></trkpt><trkpt lat="20.955664" lon="107.049767"><ele>5.0</ele><time>2011-04-30T09:47:40.0000000+00:00</time></trkpt><trkpt lat="20.955429" lon="107.049538"><ele>4.8</ele><time>2011-04-30T09:48:55.0000000+00:00</time></trkpt><trkpt lat="20.955372" lon="107.049232"><ele>4.8</ele><time>2011-04-30T09:50:20.0000000+00:00</time></trkpt><trkpt lat="20.955511" lon="107.049263"><ele>5.8</ele><time>2011-04-30T09:52:45.0000000+00:00</time></trkpt><trkpt lat="20.955589" lon="107.049095"><ele>5.9</ele><time>2011-04-30T09:55:35.0000000+00:00</time></trkpt><trkpt lat="20.955259" lon="107.049202"><ele>4.5</ele><time>2011-04-30T10:00:00.0000000+00:00</time></trkpt><trkpt lat="20.955475" lon="107.048988"><ele>5.1</ele><time>2011-04-30T10:03:45.0000000+00:00</time></trkpt><trkpt lat="20.95513" lon="107.049316"><ele>3.9</ele><time>2011-04-30T10:09:45.0000000+00:00</time></trkpt><trkpt lat="20.955229" lon="107.049171"><ele>4.4</ele><time>2011-04-30T10:14:15.0000000+00:00</time></trkpt><trkpt lat="20.955114" lon="107.049278"><ele>3.8</ele><time>2011-04-30T10:15:15.0000000+00:00</time></trkpt><trkpt lat="20.955217" lon="107.049156"><ele>4.4</ele><time>2011-04-30T10:16:40.0000000+00:00</time></trkpt><trkpt lat="20.955057" lon="107.049095"><ele>2.9</ele><time>2011-04-30T10:18:10.0000000+00:00</time></trkpt><trkpt lat="20.95512" lon="107.049019"><ele>3.8</ele><time>2011-04-30T10:18:50.0000000+00:00</time></trkpt><trkpt lat="20.955467" lon="107.049332"><ele>5.2</ele><time>2011-04-30T10:20:30.0000000+00:00</time></trkpt><trkpt lat="20.955435" lon="107.049606"><ele>4.7</ele><time>2011-04-30T10:21:40.0000000+00:00</time></trkpt><trkpt lat="20.955959" lon="107.049469"><ele>5.0</ele><time>2011-04-30T10:22:40.0000000+00:00</time></trkpt><trkpt lat="20.956152" lon="107.049751"><ele>5.5</ele><time>2011-04-30T10:23:15.0000000+00:00</time></trkpt><trkpt lat="20.956964" lon="107.049957"><ele>4.8</ele><time>2011-04-30T10:24:15.0000000+00:00</time></trkpt><trkpt lat="20.957157" lon="107.050354"><ele>14.6</ele><time>2011-04-30T10:25:00.0000000+00:00</time></trkpt><trkpt lat="20.957142" lon="107.050652"><ele>16.4</ele><time>2011-04-30T10:25:30.0000000+00:00</time></trkpt><trkpt lat="20.95697" lon="107.050583"><ele>12.8</ele><time>2011-04-30T10:25:47.0000000+00:00</time></trkpt><trkpt lat="20.957008" lon="107.050705"><ele>14.0</ele><time>2011-04-30T10:25:52.0000000+00:00</time></trkpt><trkpt lat="20.957405" lon="107.050362"><ele>10.6</ele><time>2011-04-30T10:26:07.0000000+00:00</time></trkpt><trkpt lat="20.957352" lon="107.050522"><ele>13.1</ele><time>2011-04-30T10:26:27.0000000+00:00</time></trkpt><trkpt lat="20.957392" lon="107.050301"><ele>10.3</ele><time>2011-04-30T10:27:37.0000000+00:00</time></trkpt><trkpt lat="20.957481" lon="107.05024"><ele>11.5</ele><time>2011-04-30T10:28:07.0000000+00:00</time></trkpt><trkpt lat="20.957415" lon="107.050507"><ele>12.2</ele><time>2011-04-30T10:28:52.0000000+00:00</time></trkpt><trkpt lat="20.957415" lon="107.050316"><ele>10.1</ele><time>2011-04-30T10:29:52.0000000+00:00</time></trkpt><trkpt lat="20.957527" lon="107.050323"><ele>10.0</ele><time>2011-04-30T10:30:12.0000000+00:00</time></trkpt><trkpt lat="20.957371" lon="107.050346"><ele>10.5</ele><time>2011-04-30T10:31:37.0000000+00:00</time></trkpt><trkpt lat="20.957504" lon="107.050491"><ele>11.2</ele><time>2011-04-30T10:33:17.0000000+00:00</time></trkpt><trkpt lat="20.9575" lon="107.05027"><ele>11.0</ele><time>2011-04-30T10:35:07.0000000+00:00</time></trkpt><trkpt lat="20.957447" lon="107.050484"><ele>11.7</ele><time>2011-04-30T10:38:32.0000000+00:00</time></trkpt><trkpt lat="20.957497" lon="107.050285"><ele>10.7</ele><time>2011-04-30T10:39:22.0000000+00:00</time></trkpt><trkpt lat="20.957155" lon="107.050606"><ele>16.1</ele><time>2011-04-30T10:48:02.0000000+00:00</time></trkpt><trkpt lat="20.957365" lon="107.050529"><ele>13.0</ele><time>2011-04-30T10:48:37.0000000+00:00</time></trkpt><trkpt lat="20.957411" lon="107.05024"><ele>11.2</ele><time>2011-04-30T10:49:52.0000000+00:00</time></trkpt><trkpt lat="20.957407" lon="107.050598"><ele>13.3</ele><time>2011-04-30T10:51:47.0000000+00:00</time></trkpt><trkpt lat="20.957424" lon="107.050316"><ele>10.1</ele><time>2011-04-30T10:54:07.0000000+00:00</time></trkpt><trkpt lat="20.957235" lon="107.050606"><ele>15.3</ele><time>2011-04-30T10:56:37.0000000+00:00</time></trkpt><trkpt lat="20.957474" lon="107.050346"><ele>10.3</ele><time>2011-04-30T11:00:47.0000000+00:00</time></trkpt><trkpt lat="20.957233" lon="107.050476"><ele>14.2</ele><time>2011-04-30T11:01:33.0000000+00:00</time></trkpt><trkpt lat="20.957062" lon="107.050217"><ele>12.4</ele><time>2011-04-30T11:01:53.0000000+00:00</time></trkpt><trkpt lat="20.957098" lon="107.050003"><ele>6.6</ele><time>2011-04-30T11:02:08.0000000+00:00</time></trkpt><trkpt lat="20.95647" lon="107.049934"><ele>6.3</ele><time>2011-04-30T11:03:03.0000000+00:00</time></trkpt><trkpt lat="20.956303" lon="107.049667"><ele>5.8</ele><time>2011-04-30T11:03:28.0000000+00:00</time></trkpt><trkpt lat="20.955687" lon="107.049782"><ele>5.0</ele><time>2011-04-30T11:04:18.0000000+00:00</time></trkpt><trkpt lat="20.955399" lon="107.049278"><ele>4.8</ele><time>2011-04-30T11:05:08.0000000+00:00</time></trkpt><trkpt lat="20.955528" lon="107.049042"><ele>5.4</ele><time>2011-04-30T11:17:08.0000000+00:00</time></trkpt><trkpt lat="20.955046" lon="107.049118"><ele>2.8</ele><time>2011-04-30T11:18:23.0000000+00:00</time></trkpt><trkpt lat="20.954884" lon="107.048309"><ele>5.5</ele><time>2011-04-30T11:25:48.0000000+00:00</time></trkpt><trkpt lat="20.954569" lon="107.047722"><ele>5.2</ele><time>2011-04-30T11:27:23.0000000+00:00</time></trkpt><trkpt lat="20.954329" lon="107.047752"><ele>1.0</ele><time>2011-04-30T11:27:48.0000000+00:00</time></trkpt><trkpt lat="20.954559" lon="107.047722"><ele>5.1</ele><time>2011-04-30T11:29:48.0000000+00:00</time></trkpt><trkpt lat="20.954672" lon="107.04837"><ele>2.7</ele><time>2011-04-30T11:32:23.0000000+00:00</time></trkpt><trkpt lat="20.95512" lon="107.048538"><ele>3.9</ele><time>2011-04-30T11:41:28.0000000+00:00</time></trkpt><trkpt lat="20.955032" lon="107.04882"><ele>2.7</ele><time>2011-04-30T11:43:13.0000000+00:00</time></trkpt><trkpt lat="20.955446" lon="107.049667"><ele>4.6</ele><time>2011-04-30T11:46:48.0000000+00:00</time></trkpt><trkpt lat="20.95603" lon="107.050148"><ele>5.6</ele><time>2011-04-30T11:49:58.0000000+00:00</time></trkpt><trkpt lat="20.955933" lon="107.050278"><ele>4.3</ele><time>2011-04-30T12:09:18.0000000+00:00</time></trkpt><trkpt lat="20.956072" lon="107.050125"><ele>5.8</ele><time>2011-04-30T12:20:58.0000000+00:00</time></trkpt><trkpt lat="20.955992" lon="107.049812"><ele>5.4</ele><time>2011-04-30T12:21:53.0000000+00:00</time></trkpt><trkpt lat="20.955858" lon="107.050026"><ele>5.4</ele><time>2011-04-30T12:23:33.0000000+00:00</time></trkpt><trkpt lat="20.95575" lon="107.049911"><ele>5.2</ele><time>2011-04-30T12:42:53.0000000+00:00</time></trkpt><trkpt lat="20.955839" lon="107.050217"><ele>3.9</ele><time>2011-04-30T12:43:53.0000000+00:00</time></trkpt><trkpt lat="20.956078" lon="107.05011"><ele>5.9</ele><time>2011-04-30T12:48:43.0000000+00:00</time></trkpt><trkpt lat="20.956053" lon="107.04998"><ele>6.6</ele><time>2011-04-30T12:49:23.0000000+00:00</time></trkpt><trkpt lat="20.95586" lon="107.04998"><ele>5.8</ele><time>2011-04-30T13:05:48.0000000+00:00</time></trkpt><trkpt lat="20.955879" lon="107.049728"><ele>4.7</ele><time>2011-04-30T13:06:43.0000000+00:00</time></trkpt><trkpt lat="20.955389" lon="107.049637"><ele>4.5</ele><time>2011-04-30T13:09:28.0000000+00:00</time></trkpt><trkpt lat="20.955851" lon="107.049339"><ele>6.8</ele><time>2011-04-30T13:33:08.0000000+00:00</time></trkpt><trkpt lat="20.95701" lon="107.050148"><ele>9.6</ele><time>2011-04-30T13:36:03.0000000+00:00</time></trkpt><trkpt lat="20.957256" lon="107.050171"><ele>11.6</ele><time>2011-04-30T13:36:48.0000000+00:00</time></trkpt><trkpt lat="20.957342" lon="107.050613"><ele>14.4</ele><time>2011-04-30T13:39:18.0000000+00:00</time></trkpt><trkpt lat="20.957207" lon="107.050652"><ele>15.9</ele><time>2011-04-30T13:39:48.0000000+00:00</time></trkpt><trkpt lat="20.957214" lon="107.050499"><ele>14.7</ele><time>2011-04-30T13:41:23.0000000+00:00</time></trkpt><trkpt lat="20.957266" lon="107.050621"><ele>15.1</ele><time>2011-04-30T13:43:08.0000000+00:00</time></trkpt><trkpt lat="20.960104" lon="107.050331"><ele>20.6</ele><time>2011-04-30T13:44:20.0000000+00:00</time></trkpt><trkpt lat="20.957525" lon="107.050301"><ele>10.3</ele><time>2011-04-30T13:44:25.0000000+00:00</time></trkpt><trkpt lat="20.957096" lon="107.050461"><ele>16.1</ele><time>2011-04-30T13:44:35.0000000+00:00</time></trkpt><trkpt lat="20.957067" lon="107.050621"><ele>16.2</ele><time>2011-04-30T13:44:40.0000000+00:00</time></trkpt><trkpt lat="20.957188" lon="107.050575"><ele>15.5</ele><time>2011-04-30T13:44:50.0000000+00:00</time></trkpt><trkpt lat="20.956974" lon="107.050293"><ele>12.5</ele><time>2011-04-30T13:46:10.0000000+00:00</time></trkpt><trkpt lat="20.957415" lon="107.04982"><ele>15.4</ele><time>2011-04-30T13:46:40.0000000+00:00</time></trkpt><trkpt lat="20.957603" lon="107.050308"><ele>10.1</ele><time>2011-04-30T13:47:35.0000000+00:00</time></trkpt><trkpt lat="20.957468" lon="107.050568"><ele>12.3</ele><time>2011-04-30T13:47:50.0000000+00:00</time></trkpt><trkpt lat="20.957357" lon="107.050514"><ele>12.9</ele><time>2011-04-30T13:48:20.0000000+00:00</time></trkpt><trkpt lat="20.957434" lon="107.050392"><ele>10.8</ele><time>2011-04-30T13:48:55.0000000+00:00</time></trkpt><trkpt lat="20.957216" lon="107.050461"><ele>14.3</ele><time>2011-04-30T13:49:45.0000000+00:00</time></trkpt><trkpt lat="20.957336" lon="107.05043"><ele>12.1</ele><time>2011-04-30T13:50:55.0000000+00:00</time></trkpt><trkpt lat="20.957136" lon="107.050751"><ele>16.3</ele><time>2011-04-30T13:52:10.0000000+00:00</time></trkpt><trkpt lat="20.957493" lon="107.050476"><ele>11.2</ele><time>2011-04-30T13:54:35.0000000+00:00</time></trkpt><trkpt lat="20.957361" lon="107.05056"><ele>13.5</ele><time>2011-04-30T13:55:05.0000000+00:00</time></trkpt><trkpt lat="20.957392" lon="107.050278"><ele>10.6</ele><time>2011-04-30T13:56:55.0000000+00:00</time></trkpt><trkpt lat="20.957422" lon="107.050423"><ele>11.2</ele><time>2011-04-30T13:58:05.0000000+00:00</time></trkpt><trkpt lat="20.95731" lon="107.050438"><ele>12.6</ele><time>2011-04-30T13:58:45.0000000+00:00</time></trkpt><trkpt lat="20.957439" lon="107.050476"><ele>11.7</ele><time>2011-04-30T13:59:20.0000000+00:00</time></trkpt><trkpt lat="20.95723" lon="107.050163"><ele>11.5</ele><time>2011-04-30T13:59:55.0000000+00:00</time></trkpt><trkpt lat="20.957218" lon="107.050697"><ele>16.1</ele><time>2011-04-30T14:01:00.0000000+00:00</time></trkpt><trkpt lat="20.957554" lon="107.050354"><ele>10.1</ele><time>2011-04-30T14:01:45.0000000+00:00</time></trkpt></trkseg></trk></gpx>